<?xml version="1.0" encoding="UTF-8" standalone="no" ?>
<gpx xmlns="http://www.topografix.com/GPX/1/1" xmlns:xsi="http://www.w3.org/2001/XMLSchema-instance" xsi:schemaLocation="http://www.topografix.com/GPX/1/1 http://www.topografix.com/GPX/1/1/gpx.xsd" version="1.1" creator="VisuGPX - https://www.visugpx.com">
  <metadata>
    <name>ovesienne</name>
    <desc><![CDATA[Ovesienne du 3 avril]]></desc>
  </metadata>
  <trk>
    <name><![CDATA[84 Quai de la Rapée]]></name>
    <desc><![CDATA[]]></desc>
    <trkseg>
      <trkpt lat="48.84344" lon="2.37055">
        <ele>77.2</ele>
        <time>2013-04-03T18:15:49.000Z</time>
      </trkpt>
      <trkpt lat="48.84343" lon="2.37055">
        <ele>82.3</ele>
        <time>2013-04-03T18:15:52.000Z</time>
      </trkpt>
      <trkpt lat="48.84341" lon="2.3705">
        <ele>82.7</ele>
        <time>2013-04-03T18:15:55.000Z</time>
      </trkpt>
      <trkpt lat="48.84339" lon="2.37045">
        <ele>82.9</ele>
        <time>2013-04-03T18:15:58.000Z</time>
      </trkpt>
      <trkpt lat="48.84338" lon="2.37044">
        <ele>83</ele>
        <time>2013-04-03T18:15:59.000Z</time>
      </trkpt>
      <trkpt lat="48.84336" lon="2.37039">
        <ele>82.3</ele>
        <time>2013-04-03T18:16:01.000Z</time>
      </trkpt>
      <trkpt lat="48.84336" lon="2.37037">
        <ele>81.1</ele>
        <time>2013-04-03T18:16:02.000Z</time>
      </trkpt>
      <trkpt lat="48.84339" lon="2.37032">
        <ele>78.8</ele>
        <time>2013-04-03T18:16:38.000Z</time>
      </trkpt>
      <trkpt lat="48.84339" lon="2.37032">
        <ele>78.6</ele>
        <time>2013-04-03T18:16:39.000Z</time>
      </trkpt>
      <trkpt lat="48.84338" lon="2.37025">
        <ele>79.9</ele>
        <time>2013-04-03T18:16:51.000Z</time>
      </trkpt>
      <trkpt lat="48.84336" lon="2.37024">
        <ele>79.6</ele>
        <time>2013-04-03T18:16:52.000Z</time>
      </trkpt>
      <trkpt lat="48.84334" lon="2.37021">
        <ele>79.7</ele>
        <time>2013-04-03T18:16:53.548Z</time>
      </trkpt>
      <trkpt lat="48.84332" lon="2.37019">
        <ele>80.2</ele>
        <time>2013-04-03T18:16:55.000Z</time>
      </trkpt>
      <trkpt lat="48.84331" lon="2.37017">
        <ele>78.8</ele>
        <time>2013-04-03T18:16:56.000Z</time>
      </trkpt>
      <trkpt lat="48.8433" lon="2.37014">
        <ele>78.2</ele>
        <time>2013-04-03T18:16:57.000Z</time>
      </trkpt>
      <trkpt lat="48.84328" lon="2.37011">
        <ele>77.9</ele>
        <time>2013-04-03T18:16:58.000Z</time>
      </trkpt>
      <trkpt lat="48.84327" lon="2.37007">
        <ele>77.5</ele>
        <time>2013-04-03T18:16:59.000Z</time>
      </trkpt>
      <trkpt lat="48.84325" lon="2.37004">
        <ele>77</ele>
        <time>2013-04-03T18:17:00.000Z</time>
      </trkpt>
      <trkpt lat="48.84323" lon="2.37001">
        <ele>76.9</ele>
        <time>2013-04-03T18:17:01.000Z</time>
      </trkpt>
      <trkpt lat="48.84321" lon="2.36998">
        <ele>77</ele>
        <time>2013-04-03T18:17:02.000Z</time>
      </trkpt>
      <trkpt lat="48.8432" lon="2.36995">
        <ele>76.9</ele>
        <time>2013-04-03T18:17:03.000Z</time>
      </trkpt>
      <trkpt lat="48.84318" lon="2.36992">
        <ele>77.9</ele>
        <time>2013-04-03T18:17:04.000Z</time>
      </trkpt>
      <trkpt lat="48.84315" lon="2.36989">
        <ele>78.3</ele>
        <time>2013-04-03T18:17:05.000Z</time>
      </trkpt>
      <trkpt lat="48.84313" lon="2.36985">
        <ele>78.9</ele>
        <time>2013-04-03T18:17:06.000Z</time>
      </trkpt>
      <trkpt lat="48.84311" lon="2.36982">
        <ele>78.6</ele>
        <time>2013-04-03T18:17:07.000Z</time>
      </trkpt>
      <trkpt lat="48.84309" lon="2.36979">
        <ele>78.6</ele>
        <time>2013-04-03T18:17:08.000Z</time>
      </trkpt>
      <trkpt lat="48.84308" lon="2.36975">
        <ele>78.5</ele>
        <time>2013-04-03T18:17:09.000Z</time>
      </trkpt>
      <trkpt lat="48.84306" lon="2.36972">
        <ele>78.3</ele>
        <time>2013-04-03T18:17:10.000Z</time>
      </trkpt>
      <trkpt lat="48.84304" lon="2.36969">
        <ele>78.3</ele>
        <time>2013-04-03T18:17:11.000Z</time>
      </trkpt>
      <trkpt lat="48.84302" lon="2.36965">
        <ele>76.6</ele>
        <time>2013-04-03T18:17:12.000Z</time>
      </trkpt>
      <trkpt lat="48.843" lon="2.36962">
        <ele>76.3</ele>
        <time>2013-04-03T18:17:13.000Z</time>
      </trkpt>
      <trkpt lat="48.84299" lon="2.36958">
        <ele>74.7</ele>
        <time>2013-04-03T18:17:14.000Z</time>
      </trkpt>
      <trkpt lat="48.84297" lon="2.36955">
        <ele>74.6</ele>
        <time>2013-04-03T18:17:15.000Z</time>
      </trkpt>
      <trkpt lat="48.84296" lon="2.36952">
        <ele>74.4</ele>
        <time>2013-04-03T18:17:16.000Z</time>
      </trkpt>
      <trkpt lat="48.84294" lon="2.36949">
        <ele>73.2</ele>
        <time>2013-04-03T18:17:17.000Z</time>
      </trkpt>
      <trkpt lat="48.84292" lon="2.36946">
        <ele>72.4</ele>
        <time>2013-04-03T18:17:18.000Z</time>
      </trkpt>
      <trkpt lat="48.8429" lon="2.36942">
        <ele>72.9</ele>
        <time>2013-04-03T18:17:19.000Z</time>
      </trkpt>
      <trkpt lat="48.84289" lon="2.36939">
        <ele>72.5</ele>
        <time>2013-04-03T18:17:20.000Z</time>
      </trkpt>
      <trkpt lat="48.84286" lon="2.36934">
        <ele>73.6</ele>
        <time>2013-04-03T18:17:21.000Z</time>
      </trkpt>
      <trkpt lat="48.84284" lon="2.3693">
        <ele>73.4</ele>
        <time>2013-04-03T18:17:22.000Z</time>
      </trkpt>
      <trkpt lat="48.84282" lon="2.36927">
        <ele>71.4</ele>
        <time>2013-04-03T18:17:23.000Z</time>
      </trkpt>
      <trkpt lat="48.84281" lon="2.36924">
        <ele>70.7</ele>
        <time>2013-04-03T18:17:24.000Z</time>
      </trkpt>
      <trkpt lat="48.84279" lon="2.36921">
        <ele>72</ele>
        <time>2013-04-03T18:17:25.000Z</time>
      </trkpt>
      <trkpt lat="48.84278" lon="2.36918">
        <ele>71.8</ele>
        <time>2013-04-03T18:17:26.000Z</time>
      </trkpt>
      <trkpt lat="48.84275" lon="2.36915">
        <ele>71.5</ele>
        <time>2013-04-03T18:17:27.000Z</time>
      </trkpt>
      <trkpt lat="48.84273" lon="2.36911">
        <ele>71.5</ele>
        <time>2013-04-03T18:17:28.000Z</time>
      </trkpt>
      <trkpt lat="48.84271" lon="2.36907">
        <ele>72.7</ele>
        <time>2013-04-03T18:17:29.000Z</time>
      </trkpt>
      <trkpt lat="48.84269" lon="2.36904">
        <ele>73</ele>
        <time>2013-04-03T18:17:30.000Z</time>
      </trkpt>
      <trkpt lat="48.84267" lon="2.36899">
        <ele>73.6</ele>
        <time>2013-04-03T18:17:31.000Z</time>
      </trkpt>
      <trkpt lat="48.84266" lon="2.36896">
        <ele>71.6</ele>
        <time>2013-04-03T18:17:32.000Z</time>
      </trkpt>
      <trkpt lat="48.84264" lon="2.36892">
        <ele>71.4</ele>
        <time>2013-04-03T18:17:33.000Z</time>
      </trkpt>
      <trkpt lat="48.84262" lon="2.36888">
        <ele>71.4</ele>
        <time>2013-04-03T18:17:34.000Z</time>
      </trkpt>
      <trkpt lat="48.8426" lon="2.36884">
        <ele>71.6</ele>
        <time>2013-04-03T18:17:35.000Z</time>
      </trkpt>
      <trkpt lat="48.84258" lon="2.36881">
        <ele>71.6</ele>
        <time>2013-04-03T18:17:36.000Z</time>
      </trkpt>
      <trkpt lat="48.84256" lon="2.36877">
        <ele>73.6</ele>
        <time>2013-04-03T18:17:37.000Z</time>
      </trkpt>
      <trkpt lat="48.84254" lon="2.36874">
        <ele>73.9</ele>
        <time>2013-04-03T18:17:38.000Z</time>
      </trkpt>
      <trkpt lat="48.84251" lon="2.36869">
        <ele>77.5</ele>
        <time>2013-04-03T18:17:39.000Z</time>
      </trkpt>
      <trkpt lat="48.84249" lon="2.36865">
        <ele>77.5</ele>
        <time>2013-04-03T18:17:40.000Z</time>
      </trkpt>
      <trkpt lat="48.84247" lon="2.36861">
        <ele>77.1</ele>
        <time>2013-04-03T18:17:41.000Z</time>
      </trkpt>
      <trkpt lat="48.84245" lon="2.36857">
        <ele>77.3</ele>
        <time>2013-04-03T18:17:42.000Z</time>
      </trkpt>
      <trkpt lat="48.84243" lon="2.36854">
        <ele>77.1</ele>
        <time>2013-04-03T18:17:43.000Z</time>
      </trkpt>
      <trkpt lat="48.84241" lon="2.3685">
        <ele>77.4</ele>
        <time>2013-04-03T18:17:44.000Z</time>
      </trkpt>
      <trkpt lat="48.84239" lon="2.36846">
        <ele>78.1</ele>
        <time>2013-04-03T18:17:45.000Z</time>
      </trkpt>
      <trkpt lat="48.84237" lon="2.36843">
        <ele>78.9</ele>
        <time>2013-04-03T18:17:46.000Z</time>
      </trkpt>
      <trkpt lat="48.84235" lon="2.36839">
        <ele>78.2</ele>
        <time>2013-04-03T18:17:47.000Z</time>
      </trkpt>
      <trkpt lat="48.84233" lon="2.36836">
        <ele>78.1</ele>
        <time>2013-04-03T18:17:48.000Z</time>
      </trkpt>
      <trkpt lat="48.84232" lon="2.36833">
        <ele>78</ele>
        <time>2013-04-03T18:17:49.000Z</time>
      </trkpt>
      <trkpt lat="48.84229" lon="2.36829">
        <ele>75.9</ele>
        <time>2013-04-03T18:17:51.000Z</time>
      </trkpt>
      <trkpt lat="48.84228" lon="2.36826">
        <ele>75.3</ele>
        <time>2013-04-03T18:17:52.000Z</time>
      </trkpt>
      <trkpt lat="48.84226" lon="2.36822">
        <ele>72.5</ele>
        <time>2013-04-03T18:17:53.673Z</time>
      </trkpt>
      <trkpt lat="48.84224" lon="2.36819">
        <ele>71.4</ele>
        <time>2013-04-03T18:17:55.000Z</time>
      </trkpt>
      <trkpt lat="48.84222" lon="2.36816">
        <ele>74.7</ele>
        <time>2013-04-03T18:17:56.000Z</time>
      </trkpt>
      <trkpt lat="48.84219" lon="2.36813">
        <ele>75.1</ele>
        <time>2013-04-03T18:17:57.000Z</time>
      </trkpt>
      <trkpt lat="48.84217" lon="2.3681">
        <ele>75.3</ele>
        <time>2013-04-03T18:17:58.000Z</time>
      </trkpt>
      <trkpt lat="48.84215" lon="2.36807">
        <ele>77.4</ele>
        <time>2013-04-03T18:17:59.000Z</time>
      </trkpt>
      <trkpt lat="48.84213" lon="2.36804">
        <ele>79.5</ele>
        <time>2013-04-03T18:18:00.000Z</time>
      </trkpt>
      <trkpt lat="48.84211" lon="2.36802">
        <ele>83.1</ele>
        <time>2013-04-03T18:18:01.000Z</time>
      </trkpt>
      <trkpt lat="48.8421" lon="2.36799">
        <ele>85.7</ele>
        <time>2013-04-03T18:18:02.000Z</time>
      </trkpt>
      <trkpt lat="48.84208" lon="2.36797">
        <ele>87.7</ele>
        <time>2013-04-03T18:18:03.000Z</time>
      </trkpt>
      <trkpt lat="48.84206" lon="2.36791">
        <ele>87.2</ele>
        <time>2013-04-03T18:18:05.000Z</time>
      </trkpt>
      <trkpt lat="48.84205" lon="2.36789">
        <ele>86.5</ele>
        <time>2013-04-03T18:18:06.000Z</time>
      </trkpt>
      <trkpt lat="48.84202" lon="2.36786">
        <ele>79.3</ele>
        <time>2013-04-03T18:19:38.000Z</time>
      </trkpt>
      <trkpt lat="48.842" lon="2.36786">
        <ele>79.1</ele>
        <time>2013-04-03T18:19:39.000Z</time>
      </trkpt>
      <trkpt lat="48.84199" lon="2.3678">
        <ele>78.2</ele>
        <time>2013-04-03T18:19:51.000Z</time>
      </trkpt>
      <trkpt lat="48.84198" lon="2.36778">
        <ele>78.4</ele>
        <time>2013-04-03T18:19:52.000Z</time>
      </trkpt>
      <trkpt lat="48.84196" lon="2.36772">
        <ele>76.8</ele>
        <time>2013-04-03T18:19:54.000Z</time>
      </trkpt>
      <trkpt lat="48.84195" lon="2.3677">
        <ele>76.3</ele>
        <time>2013-04-03T18:19:55.000Z</time>
      </trkpt>
      <trkpt lat="48.84192" lon="2.36765">
        <ele>76.1</ele>
        <time>2013-04-03T18:19:58.000Z</time>
      </trkpt>
      <trkpt lat="48.84189" lon="2.36766">
        <ele>76.5</ele>
        <time>2013-04-03T18:19:59.000Z</time>
      </trkpt>
      <trkpt lat="48.84188" lon="2.36765">
        <ele>76.5</ele>
        <time>2013-04-03T18:20:00.000Z</time>
      </trkpt>
      <trkpt lat="48.84184" lon="2.36765">
        <ele>77.1</ele>
        <time>2013-04-03T18:20:01.000Z</time>
      </trkpt>
      <trkpt lat="48.84182" lon="2.36763">
        <ele>77.2</ele>
        <time>2013-04-03T18:20:02.000Z</time>
      </trkpt>
      <trkpt lat="48.8418" lon="2.36762">
        <ele>76</ele>
        <time>2013-04-03T18:20:03.000Z</time>
      </trkpt>
      <trkpt lat="48.84178" lon="2.3676">
        <ele>75.8</ele>
        <time>2013-04-03T18:20:04.000Z</time>
      </trkpt>
      <trkpt lat="48.84175" lon="2.3676">
        <ele>76.4</ele>
        <time>2013-04-03T18:20:05.000Z</time>
      </trkpt>
      <trkpt lat="48.84173" lon="2.36759">
        <ele>76.7</ele>
        <time>2013-04-03T18:20:06.000Z</time>
      </trkpt>
      <trkpt lat="48.8417" lon="2.3676">
        <ele>77.3</ele>
        <time>2013-04-03T18:20:07.000Z</time>
      </trkpt>
      <trkpt lat="48.84167" lon="2.36763">
        <ele>78.5</ele>
        <time>2013-04-03T18:20:09.000Z</time>
      </trkpt>
      <trkpt lat="48.84166" lon="2.36764">
        <ele>78.9</ele>
        <time>2013-04-03T18:20:10.000Z</time>
      </trkpt>
      <trkpt lat="48.84163" lon="2.36769">
        <ele>79.5</ele>
        <time>2013-04-03T18:20:12.000Z</time>
      </trkpt>
      <trkpt lat="48.84161" lon="2.36771">
        <ele>80.6</ele>
        <time>2013-04-03T18:20:13.000Z</time>
      </trkpt>
      <trkpt lat="48.84158" lon="2.36774">
        <ele>83.1</ele>
        <time>2013-04-03T18:20:15.000Z</time>
      </trkpt>
      <trkpt lat="48.84156" lon="2.36776">
        <ele>84</ele>
        <time>2013-04-03T18:20:16.000Z</time>
      </trkpt>
      <trkpt lat="48.84152" lon="2.36779">
        <ele>84.7</ele>
        <time>2013-04-03T18:20:18.000Z</time>
      </trkpt>
      <trkpt lat="48.8415" lon="2.36782">
        <ele>85.1</ele>
        <time>2013-04-03T18:20:19.000Z</time>
      </trkpt>
      <trkpt lat="48.84149" lon="2.36784">
        <ele>85.4</ele>
        <time>2013-04-03T18:20:20.000Z</time>
      </trkpt>
      <trkpt lat="48.84147" lon="2.36786">
        <ele>86.3</ele>
        <time>2013-04-03T18:20:21.000Z</time>
      </trkpt>
      <trkpt lat="48.84144" lon="2.36789">
        <ele>86.5</ele>
        <time>2013-04-03T18:20:22.000Z</time>
      </trkpt>
      <trkpt lat="48.84142" lon="2.36792">
        <ele>86.8</ele>
        <time>2013-04-03T18:20:23.000Z</time>
      </trkpt>
      <trkpt lat="48.8414" lon="2.36794">
        <ele>87</ele>
        <time>2013-04-03T18:20:24.000Z</time>
      </trkpt>
      <trkpt lat="48.84139" lon="2.36797">
        <ele>87.4</ele>
        <time>2013-04-03T18:20:25.000Z</time>
      </trkpt>
      <trkpt lat="48.84137" lon="2.36799">
        <ele>88</ele>
        <time>2013-04-03T18:20:26.000Z</time>
      </trkpt>
      <trkpt lat="48.84135" lon="2.36801">
        <ele>88.2</ele>
        <time>2013-04-03T18:20:27.000Z</time>
      </trkpt>
      <trkpt lat="48.84133" lon="2.36803">
        <ele>88.3</ele>
        <time>2013-04-03T18:20:28.000Z</time>
      </trkpt>
      <trkpt lat="48.84131" lon="2.36806">
        <ele>88.4</ele>
        <time>2013-04-03T18:20:29.000Z</time>
      </trkpt>
      <trkpt lat="48.84129" lon="2.36807">
        <ele>88.5</ele>
        <time>2013-04-03T18:20:30.000Z</time>
      </trkpt>
      <trkpt lat="48.84127" lon="2.36811">
        <ele>86.9</ele>
        <time>2013-04-03T18:20:31.000Z</time>
      </trkpt>
      <trkpt lat="48.84125" lon="2.36814">
        <ele>87</ele>
        <time>2013-04-03T18:20:32.000Z</time>
      </trkpt>
      <trkpt lat="48.84123" lon="2.36817">
        <ele>87</ele>
        <time>2013-04-03T18:20:33.000Z</time>
      </trkpt>
      <trkpt lat="48.84122" lon="2.36819">
        <ele>86.2</ele>
        <time>2013-04-03T18:20:34.000Z</time>
      </trkpt>
      <trkpt lat="48.8412" lon="2.36822">
        <ele>86.4</ele>
        <time>2013-04-03T18:20:35.000Z</time>
      </trkpt>
      <trkpt lat="48.84118" lon="2.36825">
        <ele>85.2</ele>
        <time>2013-04-03T18:20:36.000Z</time>
      </trkpt>
      <trkpt lat="48.84116" lon="2.36828">
        <ele>85.1</ele>
        <time>2013-04-03T18:20:37.000Z</time>
      </trkpt>
      <trkpt lat="48.84114" lon="2.3683">
        <ele>85.6</ele>
        <time>2013-04-03T18:20:38.000Z</time>
      </trkpt>
      <trkpt lat="48.84112" lon="2.36833">
        <ele>86.4</ele>
        <time>2013-04-03T18:20:39.000Z</time>
      </trkpt>
      <trkpt lat="48.84109" lon="2.36835">
        <ele>86.6</ele>
        <time>2013-04-03T18:20:40.000Z</time>
      </trkpt>
      <trkpt lat="48.84107" lon="2.36838">
        <ele>86.8</ele>
        <time>2013-04-03T18:20:41.000Z</time>
      </trkpt>
      <trkpt lat="48.84105" lon="2.3684">
        <ele>87.4</ele>
        <time>2013-04-03T18:20:42.000Z</time>
      </trkpt>
      <trkpt lat="48.84103" lon="2.36843">
        <ele>87.7</ele>
        <time>2013-04-03T18:20:43.000Z</time>
      </trkpt>
      <trkpt lat="48.841" lon="2.36845">
        <ele>87.8</ele>
        <time>2013-04-03T18:20:44.000Z</time>
      </trkpt>
      <trkpt lat="48.84098" lon="2.36847">
        <ele>88.4</ele>
        <time>2013-04-03T18:20:45.000Z</time>
      </trkpt>
      <trkpt lat="48.84096" lon="2.36849">
        <ele>88.8</ele>
        <time>2013-04-03T18:20:46.000Z</time>
      </trkpt>
      <trkpt lat="48.84093" lon="2.36851">
        <ele>89.6</ele>
        <time>2013-04-03T18:20:47.000Z</time>
      </trkpt>
      <trkpt lat="48.84091" lon="2.36853">
        <ele>85</ele>
        <time>2013-04-03T18:20:48.000Z</time>
      </trkpt>
      <trkpt lat="48.84089" lon="2.36855">
        <ele>86.3</ele>
        <time>2013-04-03T18:20:49.000Z</time>
      </trkpt>
      <trkpt lat="48.84085" lon="2.36857">
        <ele>88.4</ele>
        <time>2013-04-03T18:20:51.000Z</time>
      </trkpt>
      <trkpt lat="48.84084" lon="2.36858">
        <ele>88.7</ele>
        <time>2013-04-03T18:20:52.000Z</time>
      </trkpt>
      <trkpt lat="48.8408" lon="2.36859">
        <ele>88.7</ele>
        <time>2013-04-03T18:20:57.000Z</time>
      </trkpt>
      <trkpt lat="48.84079" lon="2.36859">
        <ele>90</ele>
        <time>2013-04-03T18:20:58.000Z</time>
      </trkpt>
      <trkpt lat="48.84075" lon="2.36859">
        <ele>92.9</ele>
        <time>2013-04-03T18:21:02.000Z</time>
      </trkpt>
      <trkpt lat="48.84074" lon="2.3686">
        <ele>92.9</ele>
        <time>2013-04-03T18:21:03.000Z</time>
      </trkpt>
      <trkpt lat="48.8407" lon="2.36863">
        <ele>91.9</ele>
        <time>2013-04-03T18:21:07.000Z</time>
      </trkpt>
      <trkpt lat="48.84069" lon="2.36863">
        <ele>94.6</ele>
        <time>2013-04-03T18:21:08.000Z</time>
      </trkpt>
      <trkpt lat="48.84065" lon="2.36865">
        <ele>99.5</ele>
        <time>2013-04-03T18:21:11.000Z</time>
      </trkpt>
      <trkpt lat="48.84063" lon="2.36864">
        <ele>102.9</ele>
        <time>2013-04-03T18:21:12.000Z</time>
      </trkpt>
      <trkpt lat="48.8406" lon="2.36862">
        <ele>103.5</ele>
        <time>2013-04-03T18:21:14.000Z</time>
      </trkpt>
      <trkpt lat="48.84058" lon="2.36862">
        <ele>103.7</ele>
        <time>2013-04-03T18:21:15.000Z</time>
      </trkpt>
      <trkpt lat="48.84056" lon="2.36865">
        <ele>102.7</ele>
        <time>2013-04-03T18:21:17.000Z</time>
      </trkpt>
      <trkpt lat="48.84055" lon="2.36867">
        <ele>102.5</ele>
        <time>2013-04-03T18:21:18.000Z</time>
      </trkpt>
      <trkpt lat="48.84052" lon="2.36871">
        <ele>102.7</ele>
        <time>2013-04-03T18:21:20.000Z</time>
      </trkpt>
      <trkpt lat="48.84051" lon="2.36872">
        <ele>102.9</ele>
        <time>2013-04-03T18:21:21.000Z</time>
      </trkpt>
      <trkpt lat="48.84048" lon="2.36875">
        <ele>103</ele>
        <time>2013-04-03T18:21:23.000Z</time>
      </trkpt>
      <trkpt lat="48.84047" lon="2.36876">
        <ele>103.4</ele>
        <time>2013-04-03T18:21:24.000Z</time>
      </trkpt>
      <trkpt lat="48.84043" lon="2.3688">
        <ele>102.7</ele>
        <time>2013-04-03T18:21:26.000Z</time>
      </trkpt>
      <trkpt lat="48.84042" lon="2.36882">
        <ele>103</ele>
        <time>2013-04-03T18:21:27.000Z</time>
      </trkpt>
      <trkpt lat="48.84039" lon="2.36885">
        <ele>102.6</ele>
        <time>2013-04-03T18:21:29.000Z</time>
      </trkpt>
      <trkpt lat="48.84037" lon="2.36887">
        <ele>102.8</ele>
        <time>2013-04-03T18:21:30.000Z</time>
      </trkpt>
      <trkpt lat="48.84034" lon="2.3689">
        <ele>103.8</ele>
        <time>2013-04-03T18:21:32.000Z</time>
      </trkpt>
      <trkpt lat="48.84033" lon="2.36891">
        <ele>103.4</ele>
        <time>2013-04-03T18:21:33.000Z</time>
      </trkpt>
      <trkpt lat="48.8403" lon="2.36893">
        <ele>103.8</ele>
        <time>2013-04-03T18:21:35.000Z</time>
      </trkpt>
      <trkpt lat="48.84028" lon="2.36895">
        <ele>103.6</ele>
        <time>2013-04-03T18:21:36.000Z</time>
      </trkpt>
      <trkpt lat="48.84025" lon="2.36897">
        <ele>105.8</ele>
        <time>2013-04-03T18:21:38.000Z</time>
      </trkpt>
      <trkpt lat="48.84022" lon="2.369">
        <ele>106.8</ele>
        <time>2013-04-03T18:21:39.000Z</time>
      </trkpt>
      <trkpt lat="48.84019" lon="2.36903">
        <ele>104.7</ele>
        <time>2013-04-03T18:21:41.000Z</time>
      </trkpt>
      <trkpt lat="48.84017" lon="2.36905">
        <ele>104.6</ele>
        <time>2013-04-03T18:21:42.000Z</time>
      </trkpt>
      <trkpt lat="48.84014" lon="2.36908">
        <ele>105.3</ele>
        <time>2013-04-03T18:21:44.000Z</time>
      </trkpt>
      <trkpt lat="48.84012" lon="2.3691">
        <ele>105.7</ele>
        <time>2013-04-03T18:21:45.000Z</time>
      </trkpt>
      <trkpt lat="48.84009" lon="2.36913">
        <ele>104.4</ele>
        <time>2013-04-03T18:21:47.000Z</time>
      </trkpt>
      <trkpt lat="48.84007" lon="2.36915">
        <ele>104.2</ele>
        <time>2013-04-03T18:21:48.000Z</time>
      </trkpt>
      <trkpt lat="48.84003" lon="2.36919">
        <ele>103.3</ele>
        <time>2013-04-03T18:21:50.000Z</time>
      </trkpt>
      <trkpt lat="48.84001" lon="2.3692">
        <ele>104.5</ele>
        <time>2013-04-03T18:21:51.000Z</time>
      </trkpt>
      <trkpt lat="48.83997" lon="2.36924">
        <ele>104.3</ele>
        <time>2013-04-03T18:21:53.000Z</time>
      </trkpt>
      <trkpt lat="48.83996" lon="2.36925">
        <ele>104.6</ele>
        <time>2013-04-03T18:21:54.000Z</time>
      </trkpt>
      <trkpt lat="48.83993" lon="2.36928">
        <ele>105.1</ele>
        <time>2013-04-03T18:21:55.000Z</time>
      </trkpt>
      <trkpt lat="48.83991" lon="2.36929">
        <ele>105.9</ele>
        <time>2013-04-03T18:21:56.000Z</time>
      </trkpt>
      <trkpt lat="48.83989" lon="2.36931">
        <ele>105.9</ele>
        <time>2013-04-03T18:21:57.000Z</time>
      </trkpt>
      <trkpt lat="48.83986" lon="2.36934">
        <ele>104.9</ele>
        <time>2013-04-03T18:21:58.000Z</time>
      </trkpt>
      <trkpt lat="48.83983" lon="2.36936">
        <ele>105.3</ele>
        <time>2013-04-03T18:21:59.000Z</time>
      </trkpt>
      <trkpt lat="48.8398" lon="2.36939">
        <ele>105.9</ele>
        <time>2013-04-03T18:22:00.000Z</time>
      </trkpt>
      <trkpt lat="48.83977" lon="2.36941">
        <ele>105.5</ele>
        <time>2013-04-03T18:22:01.000Z</time>
      </trkpt>
      <trkpt lat="48.83974" lon="2.36943">
        <ele>105.7</ele>
        <time>2013-04-03T18:22:02.000Z</time>
      </trkpt>
      <trkpt lat="48.83971" lon="2.36946">
        <ele>106.5</ele>
        <time>2013-04-03T18:22:03.000Z</time>
      </trkpt>
      <trkpt lat="48.83968" lon="2.36948">
        <ele>107.2</ele>
        <time>2013-04-03T18:22:04.000Z</time>
      </trkpt>
      <trkpt lat="48.83965" lon="2.3695">
        <ele>107.6</ele>
        <time>2013-04-03T18:22:05.000Z</time>
      </trkpt>
      <trkpt lat="48.83961" lon="2.36952">
        <ele>108.3</ele>
        <time>2013-04-03T18:22:06.000Z</time>
      </trkpt>
      <trkpt lat="48.83958" lon="2.36955">
        <ele>107.3</ele>
        <time>2013-04-03T18:22:07.000Z</time>
      </trkpt>
      <trkpt lat="48.83955" lon="2.36957">
        <ele>109</ele>
        <time>2013-04-03T18:22:08.000Z</time>
      </trkpt>
      <trkpt lat="48.83952" lon="2.36959">
        <ele>108.6</ele>
        <time>2013-04-03T18:22:09.000Z</time>
      </trkpt>
      <trkpt lat="48.83949" lon="2.3696">
        <ele>108.9</ele>
        <time>2013-04-03T18:22:10.000Z</time>
      </trkpt>
      <trkpt lat="48.83946" lon="2.36962">
        <ele>108.8</ele>
        <time>2013-04-03T18:22:11.000Z</time>
      </trkpt>
      <trkpt lat="48.83943" lon="2.36964">
        <ele>109.2</ele>
        <time>2013-04-03T18:22:12.000Z</time>
      </trkpt>
      <trkpt lat="48.8394" lon="2.36965">
        <ele>111.4</ele>
        <time>2013-04-03T18:22:13.000Z</time>
      </trkpt>
      <trkpt lat="48.83937" lon="2.36967">
        <ele>112.1</ele>
        <time>2013-04-03T18:22:14.000Z</time>
      </trkpt>
      <trkpt lat="48.83935" lon="2.36969">
        <ele>112.7</ele>
        <time>2013-04-03T18:22:15.000Z</time>
      </trkpt>
      <trkpt lat="48.83932" lon="2.36971">
        <ele>111.6</ele>
        <time>2013-04-03T18:22:16.000Z</time>
      </trkpt>
      <trkpt lat="48.83929" lon="2.36974">
        <ele>111.1</ele>
        <time>2013-04-03T18:22:17.000Z</time>
      </trkpt>
      <trkpt lat="48.83927" lon="2.36976">
        <ele>110.7</ele>
        <time>2013-04-03T18:22:18.000Z</time>
      </trkpt>
      <trkpt lat="48.83925" lon="2.36978">
        <ele>110.4</ele>
        <time>2013-04-03T18:22:19.000Z</time>
      </trkpt>
      <trkpt lat="48.83922" lon="2.36981">
        <ele>110.6</ele>
        <time>2013-04-03T18:22:20.000Z</time>
      </trkpt>
      <trkpt lat="48.8392" lon="2.36983">
        <ele>110.7</ele>
        <time>2013-04-03T18:22:21.000Z</time>
      </trkpt>
      <trkpt lat="48.83918" lon="2.36985">
        <ele>110.8</ele>
        <time>2013-04-03T18:22:22.000Z</time>
      </trkpt>
      <trkpt lat="48.83916" lon="2.36988">
        <ele>109.9</ele>
        <time>2013-04-03T18:22:23.000Z</time>
      </trkpt>
      <trkpt lat="48.83914" lon="2.3699">
        <ele>111.1</ele>
        <time>2013-04-03T18:22:24.000Z</time>
      </trkpt>
      <trkpt lat="48.83912" lon="2.36993">
        <ele>112</ele>
        <time>2013-04-03T18:22:25.000Z</time>
      </trkpt>
      <trkpt lat="48.8391" lon="2.36994">
        <ele>112.1</ele>
        <time>2013-04-03T18:22:26.000Z</time>
      </trkpt>
      <trkpt lat="48.83906" lon="2.36997">
        <ele>112.4</ele>
        <time>2013-04-03T18:22:28.000Z</time>
      </trkpt>
      <trkpt lat="48.83904" lon="2.36998">
        <ele>112.5</ele>
        <time>2013-04-03T18:22:29.000Z</time>
      </trkpt>
      <trkpt lat="48.83901" lon="2.37001">
        <ele>111.6</ele>
        <time>2013-04-03T18:22:31.000Z</time>
      </trkpt>
      <trkpt lat="48.83899" lon="2.37003">
        <ele>110.5</ele>
        <time>2013-04-03T18:22:32.000Z</time>
      </trkpt>
      <trkpt lat="48.83899" lon="2.3701">
        <ele>106.3</ele>
        <time>2013-04-03T18:22:58.000Z</time>
      </trkpt>
      <trkpt lat="48.83899" lon="2.3701">
        <ele>106.3</ele>
        <time>2013-04-03T18:22:59.000Z</time>
      </trkpt>
      <trkpt lat="48.83896" lon="2.37013">
        <ele>107.4</ele>
        <time>2013-04-03T18:23:45.000Z</time>
      </trkpt>
      <trkpt lat="48.83894" lon="2.37014">
        <ele>108.8</ele>
        <time>2013-04-03T18:23:46.000Z</time>
      </trkpt>
      <trkpt lat="48.83891" lon="2.37015">
        <ele>107.4</ele>
        <time>2013-04-03T18:23:47.000Z</time>
      </trkpt>
      <trkpt lat="48.83889" lon="2.37016">
        <ele>107.9</ele>
        <time>2013-04-03T18:23:48.000Z</time>
      </trkpt>
      <trkpt lat="48.83886" lon="2.37017">
        <ele>107.7</ele>
        <time>2013-04-03T18:23:49.000Z</time>
      </trkpt>
      <trkpt lat="48.83883" lon="2.37018">
        <ele>106.9</ele>
        <time>2013-04-03T18:23:50.000Z</time>
      </trkpt>
      <trkpt lat="48.8388" lon="2.3702">
        <ele>106.8</ele>
        <time>2013-04-03T18:23:51.000Z</time>
      </trkpt>
      <trkpt lat="48.83877" lon="2.37021">
        <ele>107.4</ele>
        <time>2013-04-03T18:23:52.000Z</time>
      </trkpt>
      <trkpt lat="48.83871" lon="2.37024">
        <ele>108.3</ele>
        <time>2013-04-03T18:23:54.047Z</time>
      </trkpt>
      <trkpt lat="48.83868" lon="2.37025">
        <ele>108</ele>
        <time>2013-04-03T18:23:55.000Z</time>
      </trkpt>
      <trkpt lat="48.83865" lon="2.37027">
        <ele>107.6</ele>
        <time>2013-04-03T18:23:56.000Z</time>
      </trkpt>
      <trkpt lat="48.83862" lon="2.37029">
        <ele>107.4</ele>
        <time>2013-04-03T18:23:57.000Z</time>
      </trkpt>
      <trkpt lat="48.83859" lon="2.37031">
        <ele>106.6</ele>
        <time>2013-04-03T18:23:58.000Z</time>
      </trkpt>
      <trkpt lat="48.83857" lon="2.37033">
        <ele>105.5</ele>
        <time>2013-04-03T18:23:59.000Z</time>
      </trkpt>
      <trkpt lat="48.83853" lon="2.37035">
        <ele>106</ele>
        <time>2013-04-03T18:24:00.000Z</time>
      </trkpt>
      <trkpt lat="48.8385" lon="2.37036">
        <ele>105</ele>
        <time>2013-04-03T18:24:01.000Z</time>
      </trkpt>
      <trkpt lat="48.83847" lon="2.37038">
        <ele>103.6</ele>
        <time>2013-04-03T18:24:02.000Z</time>
      </trkpt>
      <trkpt lat="48.83843" lon="2.3704">
        <ele>103.6</ele>
        <time>2013-04-03T18:24:03.000Z</time>
      </trkpt>
      <trkpt lat="48.83839" lon="2.37042">
        <ele>103.4</ele>
        <time>2013-04-03T18:24:04.000Z</time>
      </trkpt>
      <trkpt lat="48.83835" lon="2.37043">
        <ele>103.4</ele>
        <time>2013-04-03T18:24:05.000Z</time>
      </trkpt>
      <trkpt lat="48.83831" lon="2.37045">
        <ele>103.6</ele>
        <time>2013-04-03T18:24:06.000Z</time>
      </trkpt>
      <trkpt lat="48.83826" lon="2.37047">
        <ele>102.9</ele>
        <time>2013-04-03T18:24:07.000Z</time>
      </trkpt>
      <trkpt lat="48.83822" lon="2.37048">
        <ele>103.4</ele>
        <time>2013-04-03T18:24:08.000Z</time>
      </trkpt>
      <trkpt lat="48.83818" lon="2.3705">
        <ele>104.5</ele>
        <time>2013-04-03T18:24:09.000Z</time>
      </trkpt>
      <trkpt lat="48.83815" lon="2.37052">
        <ele>101.8</ele>
        <time>2013-04-03T18:24:10.000Z</time>
      </trkpt>
      <trkpt lat="48.83811" lon="2.37054">
        <ele>100.8</ele>
        <time>2013-04-03T18:24:11.000Z</time>
      </trkpt>
      <trkpt lat="48.83807" lon="2.37056">
        <ele>97.6</ele>
        <time>2013-04-03T18:24:12.000Z</time>
      </trkpt>
      <trkpt lat="48.83803" lon="2.37058">
        <ele>96.7</ele>
        <time>2013-04-03T18:24:13.000Z</time>
      </trkpt>
      <trkpt lat="48.83799" lon="2.3706">
        <ele>94.5</ele>
        <time>2013-04-03T18:24:14.000Z</time>
      </trkpt>
      <trkpt lat="48.83795" lon="2.37062">
        <ele>93.2</ele>
        <time>2013-04-03T18:24:15.000Z</time>
      </trkpt>
      <trkpt lat="48.83791" lon="2.37064">
        <ele>92.2</ele>
        <time>2013-04-03T18:24:16.000Z</time>
      </trkpt>
      <trkpt lat="48.83787" lon="2.37065">
        <ele>92.9</ele>
        <time>2013-04-03T18:24:17.000Z</time>
      </trkpt>
      <trkpt lat="48.83784" lon="2.37067">
        <ele>92.6</ele>
        <time>2013-04-03T18:24:18.000Z</time>
      </trkpt>
      <trkpt lat="48.8378" lon="2.37069">
        <ele>92.2</ele>
        <time>2013-04-03T18:24:19.000Z</time>
      </trkpt>
      <trkpt lat="48.83776" lon="2.3707">
        <ele>92.2</ele>
        <time>2013-04-03T18:24:20.000Z</time>
      </trkpt>
      <trkpt lat="48.83773" lon="2.37071">
        <ele>92.2</ele>
        <time>2013-04-03T18:24:21.000Z</time>
      </trkpt>
      <trkpt lat="48.83769" lon="2.37072">
        <ele>92.3</ele>
        <time>2013-04-03T18:24:22.000Z</time>
      </trkpt>
      <trkpt lat="48.83766" lon="2.37074">
        <ele>91.8</ele>
        <time>2013-04-03T18:24:23.000Z</time>
      </trkpt>
      <trkpt lat="48.83762" lon="2.37076">
        <ele>91.5</ele>
        <time>2013-04-03T18:24:24.000Z</time>
      </trkpt>
      <trkpt lat="48.83758" lon="2.37078">
        <ele>91.1</ele>
        <time>2013-04-03T18:24:25.000Z</time>
      </trkpt>
      <trkpt lat="48.83755" lon="2.37079">
        <ele>91.2</ele>
        <time>2013-04-03T18:24:26.000Z</time>
      </trkpt>
      <trkpt lat="48.8375" lon="2.37081">
        <ele>91</ele>
        <time>2013-04-03T18:24:27.000Z</time>
      </trkpt>
      <trkpt lat="48.83745" lon="2.37084">
        <ele>90.2</ele>
        <time>2013-04-03T18:24:28.000Z</time>
      </trkpt>
      <trkpt lat="48.83741" lon="2.37085">
        <ele>90</ele>
        <time>2013-04-03T18:24:29.000Z</time>
      </trkpt>
      <trkpt lat="48.83736" lon="2.37088">
        <ele>89.4</ele>
        <time>2013-04-03T18:24:30.000Z</time>
      </trkpt>
      <trkpt lat="48.83732" lon="2.37089">
        <ele>88.2</ele>
        <time>2013-04-03T18:24:31.000Z</time>
      </trkpt>
      <trkpt lat="48.83728" lon="2.37091">
        <ele>87.7</ele>
        <time>2013-04-03T18:24:32.000Z</time>
      </trkpt>
      <trkpt lat="48.83723" lon="2.37093">
        <ele>87.1</ele>
        <time>2013-04-03T18:24:33.000Z</time>
      </trkpt>
      <trkpt lat="48.83719" lon="2.37095">
        <ele>87.1</ele>
        <time>2013-04-03T18:24:34.000Z</time>
      </trkpt>
      <trkpt lat="48.83715" lon="2.37097">
        <ele>87.8</ele>
        <time>2013-04-03T18:24:35.000Z</time>
      </trkpt>
      <trkpt lat="48.83711" lon="2.37099">
        <ele>87.1</ele>
        <time>2013-04-03T18:24:36.000Z</time>
      </trkpt>
      <trkpt lat="48.83707" lon="2.371">
        <ele>87.5</ele>
        <time>2013-04-03T18:24:37.000Z</time>
      </trkpt>
      <trkpt lat="48.83703" lon="2.37102">
        <ele>88.8</ele>
        <time>2013-04-03T18:24:38.000Z</time>
      </trkpt>
      <trkpt lat="48.83699" lon="2.37103">
        <ele>89</ele>
        <time>2013-04-03T18:24:39.000Z</time>
      </trkpt>
      <trkpt lat="48.83695" lon="2.37105">
        <ele>89</ele>
        <time>2013-04-03T18:24:40.000Z</time>
      </trkpt>
      <trkpt lat="48.83691" lon="2.37107">
        <ele>88.8</ele>
        <time>2013-04-03T18:24:41.000Z</time>
      </trkpt>
      <trkpt lat="48.83687" lon="2.37109">
        <ele>88.9</ele>
        <time>2013-04-03T18:24:42.000Z</time>
      </trkpt>
      <trkpt lat="48.83684" lon="2.37111">
        <ele>88.9</ele>
        <time>2013-04-03T18:24:43.000Z</time>
      </trkpt>
      <trkpt lat="48.83681" lon="2.37112">
        <ele>88.7</ele>
        <time>2013-04-03T18:24:44.000Z</time>
      </trkpt>
      <trkpt lat="48.83678" lon="2.37114">
        <ele>88</ele>
        <time>2013-04-03T18:24:45.000Z</time>
      </trkpt>
      <trkpt lat="48.83674" lon="2.37116">
        <ele>88.2</ele>
        <time>2013-04-03T18:24:46.000Z</time>
      </trkpt>
      <trkpt lat="48.83671" lon="2.37118">
        <ele>87.8</ele>
        <time>2013-04-03T18:24:47.000Z</time>
      </trkpt>
      <trkpt lat="48.83668" lon="2.37119">
        <ele>88.4</ele>
        <time>2013-04-03T18:24:48.000Z</time>
      </trkpt>
      <trkpt lat="48.83665" lon="2.37121">
        <ele>88.5</ele>
        <time>2013-04-03T18:24:49.000Z</time>
      </trkpt>
      <trkpt lat="48.83662" lon="2.37123">
        <ele>88.8</ele>
        <time>2013-04-03T18:24:50.000Z</time>
      </trkpt>
      <trkpt lat="48.83659" lon="2.37125">
        <ele>89.6</ele>
        <time>2013-04-03T18:24:51.000Z</time>
      </trkpt>
      <trkpt lat="48.83656" lon="2.37127">
        <ele>89.5</ele>
        <time>2013-04-03T18:24:52.000Z</time>
      </trkpt>
      <trkpt lat="48.83652" lon="2.37128">
        <ele>89.3</ele>
        <time>2013-04-03T18:24:53.930Z</time>
      </trkpt>
      <trkpt lat="48.83649" lon="2.37129">
        <ele>86.5</ele>
        <time>2013-04-03T18:24:56.000Z</time>
      </trkpt>
      <trkpt lat="48.83647" lon="2.37129">
        <ele>87.8</ele>
        <time>2013-04-03T18:24:57.000Z</time>
      </trkpt>
      <trkpt lat="48.83644" lon="2.37131">
        <ele>91</ele>
        <time>2013-04-03T18:24:59.000Z</time>
      </trkpt>
      <trkpt lat="48.83643" lon="2.37132">
        <ele>90.8</ele>
        <time>2013-04-03T18:25:00.000Z</time>
      </trkpt>
      <trkpt lat="48.83642" lon="2.37125">
        <ele>91.2</ele>
        <time>2013-04-03T18:25:08.000Z</time>
      </trkpt>
      <trkpt lat="48.83642" lon="2.37125">
        <ele>91.6</ele>
        <time>2013-04-03T18:25:09.000Z</time>
      </trkpt>
      <trkpt lat="48.83638" lon="2.37122">
        <ele>90.5</ele>
        <time>2013-04-03T18:25:22.000Z</time>
      </trkpt>
      <trkpt lat="48.83637" lon="2.37122">
        <ele>89.9</ele>
        <time>2013-04-03T18:25:23.000Z</time>
      </trkpt>
      <trkpt lat="48.83633" lon="2.37121">
        <ele>91</ele>
        <time>2013-04-03T18:25:44.000Z</time>
      </trkpt>
      <trkpt lat="48.83633" lon="2.37121">
        <ele>91.2</ele>
        <time>2013-04-03T18:25:45.000Z</time>
      </trkpt>
      <trkpt lat="48.83632" lon="2.37116">
        <ele>92.3</ele>
        <time>2013-04-03T18:26:23.000Z</time>
      </trkpt>
      <trkpt lat="48.83631" lon="2.37115">
        <ele>91.7</ele>
        <time>2013-04-03T18:26:24.000Z</time>
      </trkpt>
      <trkpt lat="48.83629" lon="2.3711">
        <ele>91.8</ele>
        <time>2013-04-03T18:26:26.000Z</time>
      </trkpt>
      <trkpt lat="48.83628" lon="2.37107">
        <ele>93.3</ele>
        <time>2013-04-03T18:26:27.000Z</time>
      </trkpt>
      <trkpt lat="48.83626" lon="2.37102">
        <ele>95.3</ele>
        <time>2013-04-03T18:26:29.000Z</time>
      </trkpt>
      <trkpt lat="48.83624" lon="2.371">
        <ele>95.6</ele>
        <time>2013-04-03T18:26:30.000Z</time>
      </trkpt>
      <trkpt lat="48.83622" lon="2.37094">
        <ele>98.1</ele>
        <time>2013-04-03T18:26:32.000Z</time>
      </trkpt>
      <trkpt lat="48.83621" lon="2.37092">
        <ele>97.6</ele>
        <time>2013-04-03T18:26:33.000Z</time>
      </trkpt>
      <trkpt lat="48.83619" lon="2.37089">
        <ele>98.3</ele>
        <time>2013-04-03T18:26:34.000Z</time>
      </trkpt>
      <trkpt lat="48.83617" lon="2.37086">
        <ele>97.3</ele>
        <time>2013-04-03T18:26:35.000Z</time>
      </trkpt>
      <trkpt lat="48.83613" lon="2.37083">
        <ele>97.3</ele>
        <time>2013-04-03T18:26:37.000Z</time>
      </trkpt>
      <trkpt lat="48.83612" lon="2.37081">
        <ele>97.8</ele>
        <time>2013-04-03T18:26:38.000Z</time>
      </trkpt>
      <trkpt lat="48.8361" lon="2.37078">
        <ele>98.3</ele>
        <time>2013-04-03T18:26:40.000Z</time>
      </trkpt>
      <trkpt lat="48.83609" lon="2.37076">
        <ele>98.6</ele>
        <time>2013-04-03T18:26:41.000Z</time>
      </trkpt>
      <trkpt lat="48.83608" lon="2.3707">
        <ele>99.9</ele>
        <time>2013-04-03T18:26:45.000Z</time>
      </trkpt>
      <trkpt lat="48.83607" lon="2.37069">
        <ele>100.9</ele>
        <time>2013-04-03T18:26:46.000Z</time>
      </trkpt>
      <trkpt lat="48.83605" lon="2.37063">
        <ele>102.6</ele>
        <time>2013-04-03T18:26:48.000Z</time>
      </trkpt>
      <trkpt lat="48.83604" lon="2.37061">
        <ele>103.1</ele>
        <time>2013-04-03T18:26:49.000Z</time>
      </trkpt>
      <trkpt lat="48.83601" lon="2.37056">
        <ele>102.8</ele>
        <time>2013-04-03T18:26:51.000Z</time>
      </trkpt>
      <trkpt lat="48.836" lon="2.37054">
        <ele>102.6</ele>
        <time>2013-04-03T18:26:52.000Z</time>
      </trkpt>
      <trkpt lat="48.83597" lon="2.37049">
        <ele>99.2</ele>
        <time>2013-04-03T18:26:55.000Z</time>
      </trkpt>
      <trkpt lat="48.83596" lon="2.37047">
        <ele>97.8</ele>
        <time>2013-04-03T18:26:56.000Z</time>
      </trkpt>
      <trkpt lat="48.83595" lon="2.37042">
        <ele>95.8</ele>
        <time>2013-04-03T18:26:59.000Z</time>
      </trkpt>
      <trkpt lat="48.83594" lon="2.3704">
        <ele>96.2</ele>
        <time>2013-04-03T18:27:00.000Z</time>
      </trkpt>
      <trkpt lat="48.83592" lon="2.37035">
        <ele>94.6</ele>
        <time>2013-04-03T18:27:02.000Z</time>
      </trkpt>
      <trkpt lat="48.83591" lon="2.37033">
        <ele>95.6</ele>
        <time>2013-04-03T18:27:03.000Z</time>
      </trkpt>
      <trkpt lat="48.83589" lon="2.37028">
        <ele>95.4</ele>
        <time>2013-04-03T18:27:05.000Z</time>
      </trkpt>
      <trkpt lat="48.83588" lon="2.37025">
        <ele>95.5</ele>
        <time>2013-04-03T18:27:06.000Z</time>
      </trkpt>
      <trkpt lat="48.83587" lon="2.37021">
        <ele>95.4</ele>
        <time>2013-04-03T18:27:07.000Z</time>
      </trkpt>
      <trkpt lat="48.83586" lon="2.37017">
        <ele>96.1</ele>
        <time>2013-04-03T18:27:08.000Z</time>
      </trkpt>
      <trkpt lat="48.83584" lon="2.37012">
        <ele>95</ele>
        <time>2013-04-03T18:27:09.000Z</time>
      </trkpt>
      <trkpt lat="48.83582" lon="2.37007">
        <ele>93.6</ele>
        <time>2013-04-03T18:27:10.000Z</time>
      </trkpt>
      <trkpt lat="48.8358" lon="2.37001">
        <ele>93.9</ele>
        <time>2013-04-03T18:27:11.000Z</time>
      </trkpt>
      <trkpt lat="48.83577" lon="2.36995">
        <ele>94.7</ele>
        <time>2013-04-03T18:27:12.000Z</time>
      </trkpt>
      <trkpt lat="48.83575" lon="2.36989">
        <ele>95</ele>
        <time>2013-04-03T18:27:13.000Z</time>
      </trkpt>
      <trkpt lat="48.83574" lon="2.36985">
        <ele>95.5</ele>
        <time>2013-04-03T18:27:14.000Z</time>
      </trkpt>
      <trkpt lat="48.83572" lon="2.36982">
        <ele>96.1</ele>
        <time>2013-04-03T18:27:15.000Z</time>
      </trkpt>
      <trkpt lat="48.83571" lon="2.36976">
        <ele>97.8</ele>
        <time>2013-04-03T18:27:17.000Z</time>
      </trkpt>
      <trkpt lat="48.8357" lon="2.36972">
        <ele>97.7</ele>
        <time>2013-04-03T18:27:18.000Z</time>
      </trkpt>
      <trkpt lat="48.83569" lon="2.36969">
        <ele>97.6</ele>
        <time>2013-04-03T18:27:19.000Z</time>
      </trkpt>
      <trkpt lat="48.83568" lon="2.36966">
        <ele>97.9</ele>
        <time>2013-04-03T18:27:20.000Z</time>
      </trkpt>
      <trkpt lat="48.83567" lon="2.36963">
        <ele>98.2</ele>
        <time>2013-04-03T18:27:21.000Z</time>
      </trkpt>
      <trkpt lat="48.83566" lon="2.36959">
        <ele>99</ele>
        <time>2013-04-03T18:27:22.000Z</time>
      </trkpt>
      <trkpt lat="48.83565" lon="2.36956">
        <ele>100.2</ele>
        <time>2013-04-03T18:27:23.000Z</time>
      </trkpt>
      <trkpt lat="48.83564" lon="2.36953">
        <ele>100.5</ele>
        <time>2013-04-03T18:27:24.000Z</time>
      </trkpt>
      <trkpt lat="48.83561" lon="2.36948">
        <ele>100.3</ele>
        <time>2013-04-03T18:27:26.000Z</time>
      </trkpt>
      <trkpt lat="48.83559" lon="2.36944">
        <ele>100.5</ele>
        <time>2013-04-03T18:27:27.000Z</time>
      </trkpt>
      <trkpt lat="48.83556" lon="2.36938">
        <ele>100.9</ele>
        <time>2013-04-03T18:27:29.000Z</time>
      </trkpt>
      <trkpt lat="48.83556" lon="2.36936">
        <ele>101.8</ele>
        <time>2013-04-03T18:27:30.000Z</time>
      </trkpt>
      <trkpt lat="48.83553" lon="2.36932">
        <ele>105.3</ele>
        <time>2013-04-03T18:27:34.000Z</time>
      </trkpt>
      <trkpt lat="48.83552" lon="2.36931">
        <ele>106</ele>
        <time>2013-04-03T18:27:35.000Z</time>
      </trkpt>
      <trkpt lat="48.83551" lon="2.36925">
        <ele>104.5</ele>
        <time>2013-04-03T18:28:01.000Z</time>
      </trkpt>
      <trkpt lat="48.83551" lon="2.36923">
        <ele>104.2</ele>
        <time>2013-04-03T18:28:02.000Z</time>
      </trkpt>
      <trkpt lat="48.83551" lon="2.36916">
        <ele>103</ele>
        <time>2013-04-03T18:28:07.000Z</time>
      </trkpt>
      <trkpt lat="48.83551" lon="2.36915">
        <ele>103.1</ele>
        <time>2013-04-03T18:28:08.000Z</time>
      </trkpt>
      <trkpt lat="48.83549" lon="2.36919">
        <ele>106.3</ele>
        <time>2013-04-03T18:29:04.000Z</time>
      </trkpt>
      <trkpt lat="48.83547" lon="2.36919">
        <ele>106.4</ele>
        <time>2013-04-03T18:29:05.000Z</time>
      </trkpt>
      <trkpt lat="48.83544" lon="2.36917">
        <ele>106.8</ele>
        <time>2013-04-03T18:29:07.000Z</time>
      </trkpt>
      <trkpt lat="48.83542" lon="2.36916">
        <ele>106.5</ele>
        <time>2013-04-03T18:29:08.000Z</time>
      </trkpt>
      <trkpt lat="48.83539" lon="2.36915">
        <ele>105.3</ele>
        <time>2013-04-03T18:29:10.000Z</time>
      </trkpt>
      <trkpt lat="48.83537" lon="2.36916">
        <ele>104.5</ele>
        <time>2013-04-03T18:29:11.000Z</time>
      </trkpt>
      <trkpt lat="48.83533" lon="2.36915">
        <ele>105</ele>
        <time>2013-04-03T18:29:14.000Z</time>
      </trkpt>
      <trkpt lat="48.83532" lon="2.36916">
        <ele>105</ele>
        <time>2013-04-03T18:29:15.000Z</time>
      </trkpt>
      <trkpt lat="48.83528" lon="2.36917">
        <ele>105.7</ele>
        <time>2013-04-03T18:30:05.000Z</time>
      </trkpt>
      <trkpt lat="48.83527" lon="2.36916">
        <ele>104.6</ele>
        <time>2013-04-03T18:30:06.000Z</time>
      </trkpt>
      <trkpt lat="48.83522" lon="2.36915">
        <ele>103.1</ele>
        <time>2013-04-03T18:30:09.000Z</time>
      </trkpt>
      <trkpt lat="48.83521" lon="2.36915">
        <ele>102.3</ele>
        <time>2013-04-03T18:30:10.000Z</time>
      </trkpt>
      <trkpt lat="48.83517" lon="2.36917">
        <ele>104.9</ele>
        <time>2013-04-03T18:30:13.000Z</time>
      </trkpt>
      <trkpt lat="48.83516" lon="2.36918">
        <ele>105.6</ele>
        <time>2013-04-03T18:30:14.000Z</time>
      </trkpt>
      <trkpt lat="48.83512" lon="2.36919">
        <ele>105.3</ele>
        <time>2013-04-03T18:30:16.000Z</time>
      </trkpt>
      <trkpt lat="48.8351" lon="2.3692">
        <ele>105.5</ele>
        <time>2013-04-03T18:30:17.000Z</time>
      </trkpt>
      <trkpt lat="48.83507" lon="2.36921">
        <ele>105.5</ele>
        <time>2013-04-03T18:30:18.000Z</time>
      </trkpt>
      <trkpt lat="48.83505" lon="2.36923">
        <ele>105.2</ele>
        <time>2013-04-03T18:30:19.000Z</time>
      </trkpt>
      <trkpt lat="48.83503" lon="2.36925">
        <ele>105.5</ele>
        <time>2013-04-03T18:30:20.000Z</time>
      </trkpt>
      <trkpt lat="48.83501" lon="2.36928">
        <ele>104.9</ele>
        <time>2013-04-03T18:30:21.000Z</time>
      </trkpt>
      <trkpt lat="48.83498" lon="2.3693">
        <ele>102.8</ele>
        <time>2013-04-03T18:30:22.000Z</time>
      </trkpt>
      <trkpt lat="48.83496" lon="2.36932">
        <ele>102.1</ele>
        <time>2013-04-03T18:30:23.000Z</time>
      </trkpt>
      <trkpt lat="48.83493" lon="2.36933">
        <ele>102</ele>
        <time>2013-04-03T18:30:24.000Z</time>
      </trkpt>
      <trkpt lat="48.83491" lon="2.36935">
        <ele>101.8</ele>
        <time>2013-04-03T18:30:25.000Z</time>
      </trkpt>
      <trkpt lat="48.83488" lon="2.36936">
        <ele>101.7</ele>
        <time>2013-04-03T18:30:26.000Z</time>
      </trkpt>
      <trkpt lat="48.83485" lon="2.36937">
        <ele>101.6</ele>
        <time>2013-04-03T18:30:27.000Z</time>
      </trkpt>
      <trkpt lat="48.83481" lon="2.3694">
        <ele>101.7</ele>
        <time>2013-04-03T18:30:29.000Z</time>
      </trkpt>
      <trkpt lat="48.83479" lon="2.36943">
        <ele>102</ele>
        <time>2013-04-03T18:30:30.000Z</time>
      </trkpt>
      <trkpt lat="48.83477" lon="2.36945">
        <ele>101</ele>
        <time>2013-04-03T18:30:31.000Z</time>
      </trkpt>
      <trkpt lat="48.83475" lon="2.36948">
        <ele>101.6</ele>
        <time>2013-04-03T18:30:32.000Z</time>
      </trkpt>
      <trkpt lat="48.83473" lon="2.3695">
        <ele>100.3</ele>
        <time>2013-04-03T18:30:33.000Z</time>
      </trkpt>
      <trkpt lat="48.83471" lon="2.36951">
        <ele>100.7</ele>
        <time>2013-04-03T18:30:34.000Z</time>
      </trkpt>
      <trkpt lat="48.83469" lon="2.36952">
        <ele>101.1</ele>
        <time>2013-04-03T18:30:35.000Z</time>
      </trkpt>
      <trkpt lat="48.83466" lon="2.36954">
        <ele>102</ele>
        <time>2013-04-03T18:30:36.000Z</time>
      </trkpt>
      <trkpt lat="48.83464" lon="2.36954">
        <ele>101.9</ele>
        <time>2013-04-03T18:30:37.000Z</time>
      </trkpt>
      <trkpt lat="48.83461" lon="2.36956">
        <ele>101.9</ele>
        <time>2013-04-03T18:30:38.000Z</time>
      </trkpt>
      <trkpt lat="48.83458" lon="2.36958">
        <ele>102.2</ele>
        <time>2013-04-03T18:30:39.000Z</time>
      </trkpt>
      <trkpt lat="48.83454" lon="2.3696">
        <ele>102.4</ele>
        <time>2013-04-03T18:30:40.000Z</time>
      </trkpt>
      <trkpt lat="48.83452" lon="2.36961">
        <ele>102.1</ele>
        <time>2013-04-03T18:30:41.000Z</time>
      </trkpt>
      <trkpt lat="48.83448" lon="2.36963">
        <ele>103.1</ele>
        <time>2013-04-03T18:30:43.000Z</time>
      </trkpt>
      <trkpt lat="48.83446" lon="2.36964">
        <ele>102.8</ele>
        <time>2013-04-03T18:30:44.000Z</time>
      </trkpt>
      <trkpt lat="48.83443" lon="2.36966">
        <ele>105</ele>
        <time>2013-04-03T18:30:46.000Z</time>
      </trkpt>
      <trkpt lat="48.83441" lon="2.36968">
        <ele>105.8</ele>
        <time>2013-04-03T18:30:47.000Z</time>
      </trkpt>
      <trkpt lat="48.8344" lon="2.3697">
        <ele>106.4</ele>
        <time>2013-04-03T18:30:48.000Z</time>
      </trkpt>
      <trkpt lat="48.83438" lon="2.36972">
        <ele>106.9</ele>
        <time>2013-04-03T18:30:49.000Z</time>
      </trkpt>
      <trkpt lat="48.83435" lon="2.36973">
        <ele>107.8</ele>
        <time>2013-04-03T18:30:50.000Z</time>
      </trkpt>
      <trkpt lat="48.83433" lon="2.36975">
        <ele>107.4</ele>
        <time>2013-04-03T18:30:51.000Z</time>
      </trkpt>
      <trkpt lat="48.83431" lon="2.36975">
        <ele>106.9</ele>
        <time>2013-04-03T18:30:52.000Z</time>
      </trkpt>
      <trkpt lat="48.83425" lon="2.36978">
        <ele>105.6</ele>
        <time>2013-04-03T18:30:55.000Z</time>
      </trkpt>
      <trkpt lat="48.8342" lon="2.36977">
        <ele>104.6</ele>
        <time>2013-04-03T18:30:57.000Z</time>
      </trkpt>
      <trkpt lat="48.83418" lon="2.36977">
        <ele>104.4</ele>
        <time>2013-04-03T18:30:58.000Z</time>
      </trkpt>
      <trkpt lat="48.83416" lon="2.36978">
        <ele>104.6</ele>
        <time>2013-04-03T18:30:59.000Z</time>
      </trkpt>
      <trkpt lat="48.83413" lon="2.36979">
        <ele>104.7</ele>
        <time>2013-04-03T18:31:00.000Z</time>
      </trkpt>
      <trkpt lat="48.8341" lon="2.3698">
        <ele>104.6</ele>
        <time>2013-04-03T18:31:01.000Z</time>
      </trkpt>
      <trkpt lat="48.83407" lon="2.36982">
        <ele>104.2</ele>
        <time>2013-04-03T18:31:02.000Z</time>
      </trkpt>
      <trkpt lat="48.83404" lon="2.36984">
        <ele>104.1</ele>
        <time>2013-04-03T18:31:03.000Z</time>
      </trkpt>
      <trkpt lat="48.83402" lon="2.36986">
        <ele>104.1</ele>
        <time>2013-04-03T18:31:04.000Z</time>
      </trkpt>
      <trkpt lat="48.83399" lon="2.36988">
        <ele>103.8</ele>
        <time>2013-04-03T18:31:05.000Z</time>
      </trkpt>
      <trkpt lat="48.83397" lon="2.3699">
        <ele>102.1</ele>
        <time>2013-04-03T18:31:06.000Z</time>
      </trkpt>
      <trkpt lat="48.83394" lon="2.36992">
        <ele>101.8</ele>
        <time>2013-04-03T18:31:07.000Z</time>
      </trkpt>
      <trkpt lat="48.83392" lon="2.36994">
        <ele>101.3</ele>
        <time>2013-04-03T18:31:08.000Z</time>
      </trkpt>
      <trkpt lat="48.83389" lon="2.36996">
        <ele>101.7</ele>
        <time>2013-04-03T18:31:09.000Z</time>
      </trkpt>
      <trkpt lat="48.83385" lon="2.36999">
        <ele>101.6</ele>
        <time>2013-04-03T18:31:10.000Z</time>
      </trkpt>
      <trkpt lat="48.83382" lon="2.37002">
        <ele>101.8</ele>
        <time>2013-04-03T18:31:11.000Z</time>
      </trkpt>
      <trkpt lat="48.8338" lon="2.37005">
        <ele>101.6</ele>
        <time>2013-04-03T18:31:12.000Z</time>
      </trkpt>
      <trkpt lat="48.83377" lon="2.37008">
        <ele>101.5</ele>
        <time>2013-04-03T18:31:13.000Z</time>
      </trkpt>
      <trkpt lat="48.83375" lon="2.37011">
        <ele>102.3</ele>
        <time>2013-04-03T18:31:14.000Z</time>
      </trkpt>
      <trkpt lat="48.83374" lon="2.37014">
        <ele>100.5</ele>
        <time>2013-04-03T18:31:15.000Z</time>
      </trkpt>
      <trkpt lat="48.83372" lon="2.37017">
        <ele>102.9</ele>
        <time>2013-04-03T18:31:16.000Z</time>
      </trkpt>
      <trkpt lat="48.83371" lon="2.3702">
        <ele>107.3</ele>
        <time>2013-04-03T18:31:17.000Z</time>
      </trkpt>
      <trkpt lat="48.83369" lon="2.37024">
        <ele>106.3</ele>
        <time>2013-04-03T18:31:18.000Z</time>
      </trkpt>
      <trkpt lat="48.83367" lon="2.37027">
        <ele>106.2</ele>
        <time>2013-04-03T18:31:19.000Z</time>
      </trkpt>
      <trkpt lat="48.83365" lon="2.37029">
        <ele>107.3</ele>
        <time>2013-04-03T18:31:20.000Z</time>
      </trkpt>
      <trkpt lat="48.83363" lon="2.37031">
        <ele>106.9</ele>
        <time>2013-04-03T18:31:21.000Z</time>
      </trkpt>
      <trkpt lat="48.83361" lon="2.37033">
        <ele>107.6</ele>
        <time>2013-04-03T18:31:22.000Z</time>
      </trkpt>
      <trkpt lat="48.83357" lon="2.37036">
        <ele>108.8</ele>
        <time>2013-04-03T18:31:24.000Z</time>
      </trkpt>
      <trkpt lat="48.83355" lon="2.37038">
        <ele>109.7</ele>
        <time>2013-04-03T18:31:25.000Z</time>
      </trkpt>
      <trkpt lat="48.83352" lon="2.3704">
        <ele>110.1</ele>
        <time>2013-04-03T18:31:26.000Z</time>
      </trkpt>
      <trkpt lat="48.8335" lon="2.37043">
        <ele>110.8</ele>
        <time>2013-04-03T18:31:27.000Z</time>
      </trkpt>
      <trkpt lat="48.83347" lon="2.37046">
        <ele>110.2</ele>
        <time>2013-04-03T18:31:28.000Z</time>
      </trkpt>
      <trkpt lat="48.83344" lon="2.37048">
        <ele>109.1</ele>
        <time>2013-04-03T18:31:29.000Z</time>
      </trkpt>
      <trkpt lat="48.83342" lon="2.37051">
        <ele>107.2</ele>
        <time>2013-04-03T18:31:30.000Z</time>
      </trkpt>
      <trkpt lat="48.83339" lon="2.37053">
        <ele>107.7</ele>
        <time>2013-04-03T18:31:31.000Z</time>
      </trkpt>
      <trkpt lat="48.83337" lon="2.37055">
        <ele>106.8</ele>
        <time>2013-04-03T18:31:32.000Z</time>
      </trkpt>
      <trkpt lat="48.83334" lon="2.37058">
        <ele>107.7</ele>
        <time>2013-04-03T18:31:33.000Z</time>
      </trkpt>
      <trkpt lat="48.83332" lon="2.3706">
        <ele>107.9</ele>
        <time>2013-04-03T18:31:34.000Z</time>
      </trkpt>
      <trkpt lat="48.8333" lon="2.37062">
        <ele>109.7</ele>
        <time>2013-04-03T18:31:35.000Z</time>
      </trkpt>
      <trkpt lat="48.83327" lon="2.37064">
        <ele>106.5</ele>
        <time>2013-04-03T18:31:36.000Z</time>
      </trkpt>
      <trkpt lat="48.83325" lon="2.37067">
        <ele>106.8</ele>
        <time>2013-04-03T18:31:37.000Z</time>
      </trkpt>
      <trkpt lat="48.83323" lon="2.37069">
        <ele>107.6</ele>
        <time>2013-04-03T18:31:38.000Z</time>
      </trkpt>
      <trkpt lat="48.83321" lon="2.3707">
        <ele>107.7</ele>
        <time>2013-04-03T18:31:39.000Z</time>
      </trkpt>
      <trkpt lat="48.83317" lon="2.37074">
        <ele>107.9</ele>
        <time>2013-04-03T18:31:41.000Z</time>
      </trkpt>
      <trkpt lat="48.83316" lon="2.37075">
        <ele>107.1</ele>
        <time>2013-04-03T18:31:42.000Z</time>
      </trkpt>
      <trkpt lat="48.83314" lon="2.37079">
        <ele>106.5</ele>
        <time>2013-04-03T18:31:44.000Z</time>
      </trkpt>
      <trkpt lat="48.83312" lon="2.3708">
        <ele>106.1</ele>
        <time>2013-04-03T18:31:45.000Z</time>
      </trkpt>
      <trkpt lat="48.8331" lon="2.37084">
        <ele>106.3</ele>
        <time>2013-04-03T18:31:47.000Z</time>
      </trkpt>
      <trkpt lat="48.83308" lon="2.37087">
        <ele>106</ele>
        <time>2013-04-03T18:31:48.000Z</time>
      </trkpt>
      <trkpt lat="48.83305" lon="2.37091">
        <ele>105.1</ele>
        <time>2013-04-03T18:31:50.000Z</time>
      </trkpt>
      <trkpt lat="48.83304" lon="2.37093">
        <ele>103.5</ele>
        <time>2013-04-03T18:31:51.000Z</time>
      </trkpt>
      <trkpt lat="48.83302" lon="2.37095">
        <ele>102.1</ele>
        <time>2013-04-03T18:31:52.000Z</time>
      </trkpt>
      <trkpt lat="48.83299" lon="2.371">
        <ele>101.1</ele>
        <time>2013-04-03T18:31:55.000Z</time>
      </trkpt>
      <trkpt lat="48.83298" lon="2.37106">
        <ele>100.9</ele>
        <time>2013-04-03T18:31:58.000Z</time>
      </trkpt>
      <trkpt lat="48.83297" lon="2.37107">
        <ele>101</ele>
        <time>2013-04-03T18:31:59.000Z</time>
      </trkpt>
      <trkpt lat="48.83293" lon="2.37105">
        <ele>106.4</ele>
        <time>2013-04-03T18:32:06.000Z</time>
      </trkpt>
      <trkpt lat="48.83292" lon="2.37105">
        <ele>106.8</ele>
        <time>2013-04-03T18:32:07.000Z</time>
      </trkpt>
      <trkpt lat="48.83288" lon="2.37104">
        <ele>109.7</ele>
        <time>2013-04-03T18:32:47.000Z</time>
      </trkpt>
      <trkpt lat="48.83285" lon="2.37104">
        <ele>111</ele>
        <time>2013-04-03T18:32:48.000Z</time>
      </trkpt>
      <trkpt lat="48.83281" lon="2.371">
        <ele>114.8</ele>
        <time>2013-04-03T18:33:07.000Z</time>
      </trkpt>
      <trkpt lat="48.83281" lon="2.37101">
        <ele>114.4</ele>
        <time>2013-04-03T18:33:08.000Z</time>
      </trkpt>
      <trkpt lat="48.83278" lon="2.37104">
        <ele>113.3</ele>
        <time>2013-04-03T18:33:11.000Z</time>
      </trkpt>
      <trkpt lat="48.83277" lon="2.37107">
        <ele>113.5</ele>
        <time>2013-04-03T18:33:12.000Z</time>
      </trkpt>
      <trkpt lat="48.83275" lon="2.37109">
        <ele>113.4</ele>
        <time>2013-04-03T18:33:13.000Z</time>
      </trkpt>
      <trkpt lat="48.83273" lon="2.37112">
        <ele>112.8</ele>
        <time>2013-04-03T18:33:14.000Z</time>
      </trkpt>
      <trkpt lat="48.83271" lon="2.37115">
        <ele>112.2</ele>
        <time>2013-04-03T18:33:15.000Z</time>
      </trkpt>
      <trkpt lat="48.83269" lon="2.37117">
        <ele>111.9</ele>
        <time>2013-04-03T18:33:16.000Z</time>
      </trkpt>
      <trkpt lat="48.83267" lon="2.37123">
        <ele>110.8</ele>
        <time>2013-04-03T18:33:18.000Z</time>
      </trkpt>
      <trkpt lat="48.83266" lon="2.37126">
        <ele>110.8</ele>
        <time>2013-04-03T18:33:19.000Z</time>
      </trkpt>
      <trkpt lat="48.83264" lon="2.37128">
        <ele>110.6</ele>
        <time>2013-04-03T18:33:20.000Z</time>
      </trkpt>
      <trkpt lat="48.83262" lon="2.37132">
        <ele>114.1</ele>
        <time>2013-04-03T18:33:21.000Z</time>
      </trkpt>
      <trkpt lat="48.8326" lon="2.37135">
        <ele>113.6</ele>
        <time>2013-04-03T18:33:22.000Z</time>
      </trkpt>
      <trkpt lat="48.83257" lon="2.37137">
        <ele>113.6</ele>
        <time>2013-04-03T18:33:23.000Z</time>
      </trkpt>
      <trkpt lat="48.83254" lon="2.3714">
        <ele>111.2</ele>
        <time>2013-04-03T18:33:24.000Z</time>
      </trkpt>
      <trkpt lat="48.83253" lon="2.37143">
        <ele>97.1</ele>
        <time>2013-04-03T18:33:25.000Z</time>
      </trkpt>
      <trkpt lat="48.83252" lon="2.37149">
        <ele>88.6</ele>
        <time>2013-04-03T18:33:27.000Z</time>
      </trkpt>
      <trkpt lat="48.83251" lon="2.37152">
        <ele>88.1</ele>
        <time>2013-04-03T18:33:28.000Z</time>
      </trkpt>
      <trkpt lat="48.83249" lon="2.37157">
        <ele>90.2</ele>
        <time>2013-04-03T18:33:30.000Z</time>
      </trkpt>
      <trkpt lat="48.83247" lon="2.37159">
        <ele>88.2</ele>
        <time>2013-04-03T18:33:31.000Z</time>
      </trkpt>
      <trkpt lat="48.83246" lon="2.37162">
        <ele>88.8</ele>
        <time>2013-04-03T18:33:32.000Z</time>
      </trkpt>
      <trkpt lat="48.83244" lon="2.37165">
        <ele>88.7</ele>
        <time>2013-04-03T18:33:33.000Z</time>
      </trkpt>
      <trkpt lat="48.83242" lon="2.3717">
        <ele>91.3</ele>
        <time>2013-04-03T18:33:35.000Z</time>
      </trkpt>
      <trkpt lat="48.8324" lon="2.37172">
        <ele>91.2</ele>
        <time>2013-04-03T18:33:36.000Z</time>
      </trkpt>
      <trkpt lat="48.83237" lon="2.37176">
        <ele>93</ele>
        <time>2013-04-03T18:33:38.000Z</time>
      </trkpt>
      <trkpt lat="48.83236" lon="2.37178">
        <ele>93.3</ele>
        <time>2013-04-03T18:33:39.000Z</time>
      </trkpt>
      <trkpt lat="48.83233" lon="2.37183">
        <ele>93.9</ele>
        <time>2013-04-03T18:33:41.000Z</time>
      </trkpt>
      <trkpt lat="48.83231" lon="2.37185">
        <ele>94.8</ele>
        <time>2013-04-03T18:33:42.000Z</time>
      </trkpt>
      <trkpt lat="48.8323" lon="2.37188">
        <ele>95.7</ele>
        <time>2013-04-03T18:33:43.000Z</time>
      </trkpt>
      <trkpt lat="48.83228" lon="2.3719">
        <ele>95.6</ele>
        <time>2013-04-03T18:33:44.000Z</time>
      </trkpt>
      <trkpt lat="48.83225" lon="2.37195">
        <ele>95.5</ele>
        <time>2013-04-03T18:33:46.000Z</time>
      </trkpt>
      <trkpt lat="48.83224" lon="2.37197">
        <ele>95.8</ele>
        <time>2013-04-03T18:33:47.000Z</time>
      </trkpt>
      <trkpt lat="48.83221" lon="2.37198">
        <ele>95.3</ele>
        <time>2013-04-03T18:34:00.000Z</time>
      </trkpt>
      <trkpt lat="48.8322" lon="2.372">
        <ele>93.7</ele>
        <time>2013-04-03T18:34:01.000Z</time>
      </trkpt>
      <trkpt lat="48.83218" lon="2.37205">
        <ele>93.2</ele>
        <time>2013-04-03T18:34:04.000Z</time>
      </trkpt>
      <trkpt lat="48.83218" lon="2.37206">
        <ele>93.8</ele>
        <time>2013-04-03T18:34:05.000Z</time>
      </trkpt>
      <trkpt lat="48.83214" lon="2.37205">
        <ele>91.1</ele>
        <time>2013-04-03T18:34:13.000Z</time>
      </trkpt>
      <trkpt lat="48.83212" lon="2.37202">
        <ele>90.5</ele>
        <time>2013-04-03T18:34:14.000Z</time>
      </trkpt>
      <trkpt lat="48.8321" lon="2.37199">
        <ele>89.8</ele>
        <time>2013-04-03T18:34:15.000Z</time>
      </trkpt>
      <trkpt lat="48.83208" lon="2.37196">
        <ele>89.6</ele>
        <time>2013-04-03T18:34:16.000Z</time>
      </trkpt>
      <trkpt lat="48.83206" lon="2.37194">
        <ele>89.2</ele>
        <time>2013-04-03T18:34:17.000Z</time>
      </trkpt>
      <trkpt lat="48.83205" lon="2.37191">
        <ele>88.9</ele>
        <time>2013-04-03T18:34:18.000Z</time>
      </trkpt>
      <trkpt lat="48.83203" lon="2.37188">
        <ele>88.8</ele>
        <time>2013-04-03T18:34:19.000Z</time>
      </trkpt>
      <trkpt lat="48.83202" lon="2.37185">
        <ele>88.6</ele>
        <time>2013-04-03T18:34:20.000Z</time>
      </trkpt>
      <trkpt lat="48.83199" lon="2.3718">
        <ele>88.4</ele>
        <time>2013-04-03T18:34:22.000Z</time>
      </trkpt>
      <trkpt lat="48.83199" lon="2.37177">
        <ele>88.4</ele>
        <time>2013-04-03T18:34:23.000Z</time>
      </trkpt>
      <trkpt lat="48.83198" lon="2.37171">
        <ele>85.4</ele>
        <time>2013-04-03T18:34:25.000Z</time>
      </trkpt>
      <trkpt lat="48.83197" lon="2.37168">
        <ele>84.2</ele>
        <time>2013-04-03T18:34:26.000Z</time>
      </trkpt>
      <trkpt lat="48.83194" lon="2.37162">
        <ele>84.3</ele>
        <time>2013-04-03T18:34:28.000Z</time>
      </trkpt>
      <trkpt lat="48.83193" lon="2.37159">
        <ele>83.6</ele>
        <time>2013-04-03T18:34:29.000Z</time>
      </trkpt>
      <trkpt lat="48.83191" lon="2.37157">
        <ele>82.8</ele>
        <time>2013-04-03T18:34:30.000Z</time>
      </trkpt>
      <trkpt lat="48.83188" lon="2.37155">
        <ele>84.7</ele>
        <time>2013-04-03T18:34:31.000Z</time>
      </trkpt>
      <trkpt lat="48.83186" lon="2.37154">
        <ele>84.6</ele>
        <time>2013-04-03T18:34:32.000Z</time>
      </trkpt>
      <trkpt lat="48.83183" lon="2.37153">
        <ele>84</ele>
        <time>2013-04-03T18:34:33.000Z</time>
      </trkpt>
      <trkpt lat="48.8318" lon="2.37153">
        <ele>83.1</ele>
        <time>2013-04-03T18:34:34.000Z</time>
      </trkpt>
      <trkpt lat="48.83177" lon="2.37152">
        <ele>83.2</ele>
        <time>2013-04-03T18:34:35.000Z</time>
      </trkpt>
      <trkpt lat="48.83174" lon="2.37151">
        <ele>83.8</ele>
        <time>2013-04-03T18:34:36.000Z</time>
      </trkpt>
      <trkpt lat="48.83172" lon="2.3715">
        <ele>83.7</ele>
        <time>2013-04-03T18:34:37.000Z</time>
      </trkpt>
      <trkpt lat="48.83169" lon="2.37146">
        <ele>84.8</ele>
        <time>2013-04-03T18:34:39.000Z</time>
      </trkpt>
      <trkpt lat="48.83168" lon="2.37145">
        <ele>85.4</ele>
        <time>2013-04-03T18:34:40.000Z</time>
      </trkpt>
      <trkpt lat="48.83164" lon="2.37142">
        <ele>86.7</ele>
        <time>2013-04-03T18:34:49.000Z</time>
      </trkpt>
      <trkpt lat="48.83164" lon="2.37142">
        <ele>86.8</ele>
        <time>2013-04-03T18:34:50.000Z</time>
      </trkpt>
      <trkpt lat="48.8316" lon="2.37141">
        <ele>88.2</ele>
        <time>2013-04-03T18:35:02.000Z</time>
      </trkpt>
      <trkpt lat="48.83159" lon="2.37142">
        <ele>87.2</ele>
        <time>2013-04-03T18:35:03.000Z</time>
      </trkpt>
      <trkpt lat="48.83156" lon="2.37143">
        <ele>87</ele>
        <time>2013-04-03T18:35:06.000Z</time>
      </trkpt>
      <trkpt lat="48.83154" lon="2.37144">
        <ele>88.4</ele>
        <time>2013-04-03T18:35:08.000Z</time>
      </trkpt>
      <trkpt lat="48.83152" lon="2.37148">
        <ele>88.7</ele>
        <time>2013-04-03T18:35:10.000Z</time>
      </trkpt>
      <trkpt lat="48.8315" lon="2.37152">
        <ele>89.5</ele>
        <time>2013-04-03T18:35:11.000Z</time>
      </trkpt>
      <trkpt lat="48.83149" lon="2.37155">
        <ele>91.3</ele>
        <time>2013-04-03T18:35:12.000Z</time>
      </trkpt>
      <trkpt lat="48.83147" lon="2.37158">
        <ele>91.8</ele>
        <time>2013-04-03T18:35:13.000Z</time>
      </trkpt>
      <trkpt lat="48.83145" lon="2.37162">
        <ele>92.3</ele>
        <time>2013-04-03T18:35:14.000Z</time>
      </trkpt>
      <trkpt lat="48.83143" lon="2.37165">
        <ele>92.2</ele>
        <time>2013-04-03T18:35:15.000Z</time>
      </trkpt>
      <trkpt lat="48.83141" lon="2.37168">
        <ele>90.8</ele>
        <time>2013-04-03T18:35:16.000Z</time>
      </trkpt>
      <trkpt lat="48.83139" lon="2.37172">
        <ele>90</ele>
        <time>2013-04-03T18:35:17.000Z</time>
      </trkpt>
      <trkpt lat="48.83138" lon="2.37175">
        <ele>88.4</ele>
        <time>2013-04-03T18:35:18.000Z</time>
      </trkpt>
      <trkpt lat="48.83136" lon="2.37178">
        <ele>88.7</ele>
        <time>2013-04-03T18:35:19.000Z</time>
      </trkpt>
      <trkpt lat="48.83134" lon="2.37182">
        <ele>87.9</ele>
        <time>2013-04-03T18:35:20.000Z</time>
      </trkpt>
      <trkpt lat="48.83132" lon="2.37185">
        <ele>88.2</ele>
        <time>2013-04-03T18:35:21.000Z</time>
      </trkpt>
      <trkpt lat="48.8313" lon="2.37189">
        <ele>89.9</ele>
        <time>2013-04-03T18:35:23.000Z</time>
      </trkpt>
      <trkpt lat="48.83129" lon="2.3719">
        <ele>91.9</ele>
        <time>2013-04-03T18:35:24.000Z</time>
      </trkpt>
      <trkpt lat="48.83124" lon="2.37187">
        <ele>93.3</ele>
        <time>2013-04-03T18:35:28.000Z</time>
      </trkpt>
      <trkpt lat="48.83123" lon="2.37185">
        <ele>95.4</ele>
        <time>2013-04-03T18:35:29.000Z</time>
      </trkpt>
      <trkpt lat="48.83121" lon="2.37181">
        <ele>101.2</ele>
        <time>2013-04-03T18:35:32.000Z</time>
      </trkpt>
      <trkpt lat="48.83121" lon="2.37179">
        <ele>101.5</ele>
        <time>2013-04-03T18:35:33.000Z</time>
      </trkpt>
      <trkpt lat="48.8312" lon="2.37174">
        <ele>103.9</ele>
        <time>2013-04-03T18:35:36.000Z</time>
      </trkpt>
      <trkpt lat="48.83119" lon="2.37172">
        <ele>104.4</ele>
        <time>2013-04-03T18:35:37.000Z</time>
      </trkpt>
      <trkpt lat="48.8312" lon="2.37166">
        <ele>104.6</ele>
        <time>2013-04-03T18:35:43.000Z</time>
      </trkpt>
      <trkpt lat="48.83119" lon="2.37165">
        <ele>105.1</ele>
        <time>2013-04-03T18:35:44.000Z</time>
      </trkpt>
      <trkpt lat="48.83116" lon="2.37163">
        <ele>105.5</ele>
        <time>2013-04-03T18:35:46.000Z</time>
      </trkpt>
      <trkpt lat="48.83114" lon="2.37161">
        <ele>106.1</ele>
        <time>2013-04-03T18:35:47.000Z</time>
      </trkpt>
      <trkpt lat="48.83111" lon="2.37159">
        <ele>106.8</ele>
        <time>2013-04-03T18:35:49.000Z</time>
      </trkpt>
      <trkpt lat="48.83111" lon="2.37157">
        <ele>105.3</ele>
        <time>2013-04-03T18:35:50.000Z</time>
      </trkpt>
      <trkpt lat="48.83109" lon="2.37153">
        <ele>103.1</ele>
        <time>2013-04-03T18:35:52.000Z</time>
      </trkpt>
      <trkpt lat="48.83107" lon="2.37149">
        <ele>101.3</ele>
        <time>2013-04-03T18:35:55.000Z</time>
      </trkpt>
      <trkpt lat="48.83104" lon="2.37144">
        <ele>101.1</ele>
        <time>2013-04-03T18:35:59.000Z</time>
      </trkpt>
      <trkpt lat="48.83103" lon="2.37143">
        <ele>100.2</ele>
        <time>2013-04-03T18:36:00.000Z</time>
      </trkpt>
      <trkpt lat="48.831" lon="2.37139">
        <ele>102.1</ele>
        <time>2013-04-03T18:36:03.000Z</time>
      </trkpt>
      <trkpt lat="48.83099" lon="2.37137">
        <ele>102.8</ele>
        <time>2013-04-03T18:36:04.000Z</time>
      </trkpt>
      <trkpt lat="48.83095" lon="2.37134">
        <ele>102.7</ele>
        <time>2013-04-03T18:36:06.000Z</time>
      </trkpt>
      <trkpt lat="48.83093" lon="2.3713">
        <ele>103.4</ele>
        <time>2013-04-03T18:36:07.000Z</time>
      </trkpt>
      <trkpt lat="48.8309" lon="2.37127">
        <ele>103.4</ele>
        <time>2013-04-03T18:36:08.000Z</time>
      </trkpt>
      <trkpt lat="48.83088" lon="2.37123">
        <ele>103.6</ele>
        <time>2013-04-03T18:36:09.000Z</time>
      </trkpt>
      <trkpt lat="48.83085" lon="2.37119">
        <ele>103.7</ele>
        <time>2013-04-03T18:36:10.000Z</time>
      </trkpt>
      <trkpt lat="48.83083" lon="2.37115">
        <ele>103</ele>
        <time>2013-04-03T18:36:11.000Z</time>
      </trkpt>
      <trkpt lat="48.8308" lon="2.37111">
        <ele>103.7</ele>
        <time>2013-04-03T18:36:12.000Z</time>
      </trkpt>
      <trkpt lat="48.83078" lon="2.37107">
        <ele>103.6</ele>
        <time>2013-04-03T18:36:13.000Z</time>
      </trkpt>
      <trkpt lat="48.83075" lon="2.37104">
        <ele>105</ele>
        <time>2013-04-03T18:36:14.000Z</time>
      </trkpt>
      <trkpt lat="48.83073" lon="2.371">
        <ele>105.9</ele>
        <time>2013-04-03T18:36:15.000Z</time>
      </trkpt>
      <trkpt lat="48.8307" lon="2.37097">
        <ele>105.7</ele>
        <time>2013-04-03T18:36:16.000Z</time>
      </trkpt>
      <trkpt lat="48.83068" lon="2.37094">
        <ele>106.7</ele>
        <time>2013-04-03T18:36:17.000Z</time>
      </trkpt>
      <trkpt lat="48.83065" lon="2.37091">
        <ele>106.8</ele>
        <time>2013-04-03T18:36:18.000Z</time>
      </trkpt>
      <trkpt lat="48.83063" lon="2.37088">
        <ele>108.6</ele>
        <time>2013-04-03T18:36:19.000Z</time>
      </trkpt>
      <trkpt lat="48.83061" lon="2.37086">
        <ele>108.9</ele>
        <time>2013-04-03T18:36:20.000Z</time>
      </trkpt>
      <trkpt lat="48.83059" lon="2.37083">
        <ele>108.2</ele>
        <time>2013-04-03T18:36:21.000Z</time>
      </trkpt>
      <trkpt lat="48.83056" lon="2.3708">
        <ele>106.6</ele>
        <time>2013-04-03T18:36:23.000Z</time>
      </trkpt>
      <trkpt lat="48.83055" lon="2.37078">
        <ele>106.3</ele>
        <time>2013-04-03T18:36:24.000Z</time>
      </trkpt>
      <trkpt lat="48.83053" lon="2.37074">
        <ele>105.7</ele>
        <time>2013-04-03T18:36:26.000Z</time>
      </trkpt>
      <trkpt lat="48.83052" lon="2.37072">
        <ele>105.6</ele>
        <time>2013-04-03T18:36:27.000Z</time>
      </trkpt>
      <trkpt lat="48.83051" lon="2.37066">
        <ele>105.2</ele>
        <time>2013-04-03T18:36:33.000Z</time>
      </trkpt>
      <trkpt lat="48.83051" lon="2.37065">
        <ele>105.6</ele>
        <time>2013-04-03T18:36:34.000Z</time>
      </trkpt>
      <trkpt lat="48.8305" lon="2.37061">
        <ele>106</ele>
        <time>2013-04-03T18:37:10.000Z</time>
      </trkpt>
      <trkpt lat="48.83049" lon="2.37059">
        <ele>105.1</ele>
        <time>2013-04-03T18:37:11.000Z</time>
      </trkpt>
      <trkpt lat="48.83047" lon="2.37054">
        <ele>104</ele>
        <time>2013-04-03T18:37:13.000Z</time>
      </trkpt>
      <trkpt lat="48.83045" lon="2.37053">
        <ele>105.4</ele>
        <time>2013-04-03T18:37:14.000Z</time>
      </trkpt>
      <trkpt lat="48.83043" lon="2.37048">
        <ele>103.9</ele>
        <time>2013-04-03T18:37:16.000Z</time>
      </trkpt>
      <trkpt lat="48.83042" lon="2.37046">
        <ele>105.2</ele>
        <time>2013-04-03T18:37:17.000Z</time>
      </trkpt>
      <trkpt lat="48.83039" lon="2.37041">
        <ele>107.2</ele>
        <time>2013-04-03T18:37:20.000Z</time>
      </trkpt>
      <trkpt lat="48.83038" lon="2.3704">
        <ele>105</ele>
        <time>2013-04-03T18:37:21.000Z</time>
      </trkpt>
      <trkpt lat="48.83036" lon="2.37036">
        <ele>104.8</ele>
        <time>2013-04-03T18:37:23.000Z</time>
      </trkpt>
      <trkpt lat="48.83035" lon="2.37034">
        <ele>104.8</ele>
        <time>2013-04-03T18:37:24.000Z</time>
      </trkpt>
      <trkpt lat="48.83032" lon="2.37029">
        <ele>104.7</ele>
        <time>2013-04-03T18:37:26.000Z</time>
      </trkpt>
      <trkpt lat="48.83031" lon="2.37027">
        <ele>104.5</ele>
        <time>2013-04-03T18:37:27.000Z</time>
      </trkpt>
      <trkpt lat="48.83031" lon="2.3702">
        <ele>108.8</ele>
        <time>2013-04-03T18:37:31.000Z</time>
      </trkpt>
      <trkpt lat="48.83031" lon="2.37019">
        <ele>109.1</ele>
        <time>2013-04-03T18:37:32.000Z</time>
      </trkpt>
      <trkpt lat="48.83029" lon="2.37014">
        <ele>111.1</ele>
        <time>2013-04-03T18:37:35.000Z</time>
      </trkpt>
      <trkpt lat="48.83028" lon="2.37011">
        <ele>111.5</ele>
        <time>2013-04-03T18:37:36.000Z</time>
      </trkpt>
      <trkpt lat="48.83027" lon="2.37006">
        <ele>113.9</ele>
        <time>2013-04-03T18:37:38.000Z</time>
      </trkpt>
      <trkpt lat="48.83025" lon="2.37004">
        <ele>114.5</ele>
        <time>2013-04-03T18:37:39.000Z</time>
      </trkpt>
      <trkpt lat="48.83024" lon="2.37001">
        <ele>114.1</ele>
        <time>2013-04-03T18:37:40.000Z</time>
      </trkpt>
      <trkpt lat="48.83022" lon="2.36998">
        <ele>113.4</ele>
        <time>2013-04-03T18:37:41.000Z</time>
      </trkpt>
      <trkpt lat="48.83021" lon="2.36995">
        <ele>113.7</ele>
        <time>2013-04-03T18:37:42.000Z</time>
      </trkpt>
      <trkpt lat="48.8302" lon="2.36992">
        <ele>113.8</ele>
        <time>2013-04-03T18:37:43.000Z</time>
      </trkpt>
      <trkpt lat="48.83018" lon="2.36989">
        <ele>113.5</ele>
        <time>2013-04-03T18:37:44.000Z</time>
      </trkpt>
      <trkpt lat="48.83016" lon="2.36986">
        <ele>112</ele>
        <time>2013-04-03T18:37:45.000Z</time>
      </trkpt>
      <trkpt lat="48.83014" lon="2.36984">
        <ele>112.1</ele>
        <time>2013-04-03T18:37:46.000Z</time>
      </trkpt>
      <trkpt lat="48.83012" lon="2.36982">
        <ele>112.9</ele>
        <time>2013-04-03T18:37:47.000Z</time>
      </trkpt>
      <trkpt lat="48.83009" lon="2.36978">
        <ele>115.2</ele>
        <time>2013-04-03T18:37:49.000Z</time>
      </trkpt>
      <trkpt lat="48.83008" lon="2.36977">
        <ele>116.5</ele>
        <time>2013-04-03T18:37:50.000Z</time>
      </trkpt>
      <trkpt lat="48.83005" lon="2.36973">
        <ele>117.2</ele>
        <time>2013-04-03T18:37:52.000Z</time>
      </trkpt>
      <trkpt lat="48.83003" lon="2.36969">
        <ele>118.6</ele>
        <time>2013-04-03T18:37:54.123Z</time>
      </trkpt>
      <trkpt lat="48.83001" lon="2.36965">
        <ele>119.8</ele>
        <time>2013-04-03T18:37:56.000Z</time>
      </trkpt>
      <trkpt lat="48.82999" lon="2.36962">
        <ele>116.8</ele>
        <time>2013-04-03T18:37:57.000Z</time>
      </trkpt>
      <trkpt lat="48.82996" lon="2.3696">
        <ele>117.8</ele>
        <time>2013-04-03T18:37:58.000Z</time>
      </trkpt>
      <trkpt lat="48.82993" lon="2.36958">
        <ele>114.5</ele>
        <time>2013-04-03T18:37:59.000Z</time>
      </trkpt>
      <trkpt lat="48.8299" lon="2.36956">
        <ele>112.5</ele>
        <time>2013-04-03T18:38:00.000Z</time>
      </trkpt>
      <trkpt lat="48.82987" lon="2.36954">
        <ele>111.2</ele>
        <time>2013-04-03T18:38:01.000Z</time>
      </trkpt>
      <trkpt lat="48.82985" lon="2.36951">
        <ele>109.8</ele>
        <time>2013-04-03T18:38:02.000Z</time>
      </trkpt>
      <trkpt lat="48.82982" lon="2.36949">
        <ele>109.3</ele>
        <time>2013-04-03T18:38:03.000Z</time>
      </trkpt>
      <trkpt lat="48.82979" lon="2.36945">
        <ele>108.8</ele>
        <time>2013-04-03T18:38:05.000Z</time>
      </trkpt>
      <trkpt lat="48.82978" lon="2.36944">
        <ele>109.4</ele>
        <time>2013-04-03T18:38:06.000Z</time>
      </trkpt>
      <trkpt lat="48.82974" lon="2.36942">
        <ele>110.8</ele>
        <time>2013-04-03T18:38:08.000Z</time>
      </trkpt>
      <trkpt lat="48.82973" lon="2.36941">
        <ele>110.8</ele>
        <time>2013-04-03T18:38:09.000Z</time>
      </trkpt>
      <trkpt lat="48.82977" lon="2.36938">
        <ele>103.3</ele>
        <time>2013-04-03T18:38:19.000Z</time>
      </trkpt>
      <trkpt lat="48.82977" lon="2.36938">
        <ele>103.2</ele>
        <time>2013-04-03T18:38:20.000Z</time>
      </trkpt>
      <trkpt lat="48.82981" lon="2.36935">
        <ele>104.6</ele>
        <time>2013-04-03T18:38:43.000Z</time>
      </trkpt>
      <trkpt lat="48.82981" lon="2.36934">
        <ele>104.7</ele>
        <time>2013-04-03T18:38:44.000Z</time>
      </trkpt>
      <trkpt lat="48.82985" lon="2.36933">
        <ele>106</ele>
        <time>2013-04-03T18:39:08.000Z</time>
      </trkpt>
      <trkpt lat="48.82986" lon="2.36933">
        <ele>108.2</ele>
        <time>2013-04-03T18:39:09.000Z</time>
      </trkpt>
      <trkpt lat="48.82989" lon="2.36931">
        <ele>103.5</ele>
        <time>2013-04-03T18:39:31.000Z</time>
      </trkpt>
      <trkpt lat="48.82991" lon="2.3693">
        <ele>101.7</ele>
        <time>2013-04-03T18:39:32.000Z</time>
      </trkpt>
      <trkpt lat="48.82994" lon="2.36928">
        <ele>100.6</ele>
        <time>2013-04-03T18:39:34.000Z</time>
      </trkpt>
      <trkpt lat="48.82995" lon="2.36927">
        <ele>99.1</ele>
        <time>2013-04-03T18:39:35.000Z</time>
      </trkpt>
      <trkpt lat="48.82998" lon="2.36924">
        <ele>97.8</ele>
        <time>2013-04-03T18:39:37.000Z</time>
      </trkpt>
      <trkpt lat="48.83" lon="2.36923">
        <ele>99.4</ele>
        <time>2013-04-03T18:39:38.000Z</time>
      </trkpt>
      <trkpt lat="48.83003" lon="2.36921">
        <ele>96</ele>
        <time>2013-04-03T18:39:40.000Z</time>
      </trkpt>
      <trkpt lat="48.83005" lon="2.36918">
        <ele>95</ele>
        <time>2013-04-03T18:39:41.000Z</time>
      </trkpt>
      <trkpt lat="48.83006" lon="2.36914">
        <ele>95</ele>
        <time>2013-04-03T18:39:42.000Z</time>
      </trkpt>
      <trkpt lat="48.83008" lon="2.36911">
        <ele>94.9</ele>
        <time>2013-04-03T18:39:43.000Z</time>
      </trkpt>
      <trkpt lat="48.8301" lon="2.36908">
        <ele>94.6</ele>
        <time>2013-04-03T18:39:44.000Z</time>
      </trkpt>
      <trkpt lat="48.83011" lon="2.36904">
        <ele>93</ele>
        <time>2013-04-03T18:39:45.000Z</time>
      </trkpt>
      <trkpt lat="48.83013" lon="2.36901">
        <ele>93.7</ele>
        <time>2013-04-03T18:39:46.000Z</time>
      </trkpt>
      <trkpt lat="48.83015" lon="2.36897">
        <ele>93.6</ele>
        <time>2013-04-03T18:39:47.000Z</time>
      </trkpt>
      <trkpt lat="48.83017" lon="2.36894">
        <ele>93.8</ele>
        <time>2013-04-03T18:39:48.000Z</time>
      </trkpt>
      <trkpt lat="48.83019" lon="2.36891">
        <ele>92.9</ele>
        <time>2013-04-03T18:39:49.000Z</time>
      </trkpt>
      <trkpt lat="48.83021" lon="2.36888">
        <ele>92.1</ele>
        <time>2013-04-03T18:39:50.000Z</time>
      </trkpt>
      <trkpt lat="48.83023" lon="2.36884">
        <ele>91.6</ele>
        <time>2013-04-03T18:39:51.000Z</time>
      </trkpt>
      <trkpt lat="48.83025" lon="2.3688">
        <ele>91.7</ele>
        <time>2013-04-03T18:39:52.000Z</time>
      </trkpt>
      <trkpt lat="48.83028" lon="2.36872">
        <ele>93.2</ele>
        <time>2013-04-03T18:39:53.790Z</time>
      </trkpt>
      <trkpt lat="48.83029" lon="2.36867">
        <ele>94.4</ele>
        <time>2013-04-03T18:39:55.000Z</time>
      </trkpt>
      <trkpt lat="48.83029" lon="2.36865">
        <ele>95.2</ele>
        <time>2013-04-03T18:39:56.000Z</time>
      </trkpt>
      <trkpt lat="48.8303" lon="2.36859">
        <ele>97.5</ele>
        <time>2013-04-03T18:39:58.000Z</time>
      </trkpt>
      <trkpt lat="48.83031" lon="2.36856">
        <ele>98.5</ele>
        <time>2013-04-03T18:39:59.000Z</time>
      </trkpt>
      <trkpt lat="48.83032" lon="2.3685">
        <ele>100</ele>
        <time>2013-04-03T18:40:01.000Z</time>
      </trkpt>
      <trkpt lat="48.83033" lon="2.36846">
        <ele>100.2</ele>
        <time>2013-04-03T18:40:02.000Z</time>
      </trkpt>
      <trkpt lat="48.83034" lon="2.36843">
        <ele>100.1</ele>
        <time>2013-04-03T18:40:03.000Z</time>
      </trkpt>
      <trkpt lat="48.83035" lon="2.36839">
        <ele>100.5</ele>
        <time>2013-04-03T18:40:04.000Z</time>
      </trkpt>
      <trkpt lat="48.83036" lon="2.36836">
        <ele>101.1</ele>
        <time>2013-04-03T18:40:05.000Z</time>
      </trkpt>
      <trkpt lat="48.83037" lon="2.36833">
        <ele>102.2</ele>
        <time>2013-04-03T18:40:06.000Z</time>
      </trkpt>
      <trkpt lat="48.83039" lon="2.36828">
        <ele>107</ele>
        <time>2013-04-03T18:40:09.000Z</time>
      </trkpt>
      <trkpt lat="48.8304" lon="2.36827">
        <ele>107.7</ele>
        <time>2013-04-03T18:40:10.000Z</time>
      </trkpt>
      <trkpt lat="48.8304" lon="2.36822">
        <ele>106.5</ele>
        <time>2013-04-03T18:40:12.000Z</time>
      </trkpt>
      <trkpt lat="48.83039" lon="2.36819">
        <ele>104.3</ele>
        <time>2013-04-03T18:40:13.000Z</time>
      </trkpt>
      <trkpt lat="48.83039" lon="2.36813">
        <ele>99.9</ele>
        <time>2013-04-03T18:40:15.000Z</time>
      </trkpt>
      <trkpt lat="48.83039" lon="2.3681">
        <ele>99.8</ele>
        <time>2013-04-03T18:40:16.000Z</time>
      </trkpt>
      <trkpt lat="48.83038" lon="2.36805">
        <ele>98.5</ele>
        <time>2013-04-03T18:40:18.000Z</time>
      </trkpt>
      <trkpt lat="48.83037" lon="2.36802">
        <ele>97.6</ele>
        <time>2013-04-03T18:40:19.000Z</time>
      </trkpt>
      <trkpt lat="48.83036" lon="2.36797">
        <ele>99.2</ele>
        <time>2013-04-03T18:40:21.000Z</time>
      </trkpt>
      <trkpt lat="48.83036" lon="2.36794">
        <ele>99</ele>
        <time>2013-04-03T18:40:22.000Z</time>
      </trkpt>
      <trkpt lat="48.83039" lon="2.36789">
        <ele>97.8</ele>
        <time>2013-04-03T18:40:24.000Z</time>
      </trkpt>
      <trkpt lat="48.8304" lon="2.36786">
        <ele>97.7</ele>
        <time>2013-04-03T18:40:25.000Z</time>
      </trkpt>
      <trkpt lat="48.8304" lon="2.3678">
        <ele>99.3</ele>
        <time>2013-04-03T18:40:31.000Z</time>
      </trkpt>
      <trkpt lat="48.83041" lon="2.36779">
        <ele>99.2</ele>
        <time>2013-04-03T18:40:32.000Z</time>
      </trkpt>
      <trkpt lat="48.8304" lon="2.36773">
        <ele>96.7</ele>
        <time>2013-04-03T18:41:30.000Z</time>
      </trkpt>
      <trkpt lat="48.8304" lon="2.36772">
        <ele>96.8</ele>
        <time>2013-04-03T18:41:31.000Z</time>
      </trkpt>
      <trkpt lat="48.83037" lon="2.36768">
        <ele>95.6</ele>
        <time>2013-04-03T18:41:34.000Z</time>
      </trkpt>
      <trkpt lat="48.83036" lon="2.36767">
        <ele>95.5</ele>
        <time>2013-04-03T18:41:35.000Z</time>
      </trkpt>
      <trkpt lat="48.83032" lon="2.36765">
        <ele>92.4</ele>
        <time>2013-04-03T18:41:42.000Z</time>
      </trkpt>
      <trkpt lat="48.83031" lon="2.36763">
        <ele>92.2</ele>
        <time>2013-04-03T18:41:43.000Z</time>
      </trkpt>
      <trkpt lat="48.8303" lon="2.36758">
        <ele>89.2</ele>
        <time>2013-04-03T18:41:45.000Z</time>
      </trkpt>
      <trkpt lat="48.8303" lon="2.36755">
        <ele>89.1</ele>
        <time>2013-04-03T18:41:46.000Z</time>
      </trkpt>
      <trkpt lat="48.83027" lon="2.36751">
        <ele>91.6</ele>
        <time>2013-04-03T18:41:50.000Z</time>
      </trkpt>
      <trkpt lat="48.83025" lon="2.36751">
        <ele>90.9</ele>
        <time>2013-04-03T18:41:51.000Z</time>
      </trkpt>
      <trkpt lat="48.83024" lon="2.36752">
        <ele>90.4</ele>
        <time>2013-04-03T18:41:52.000Z</time>
      </trkpt>
      <trkpt lat="48.8302" lon="2.36751">
        <ele>91.3</ele>
        <time>2013-04-03T18:41:53.960Z</time>
      </trkpt>
      <trkpt lat="48.83017" lon="2.36747">
        <ele>88.2</ele>
        <time>2013-04-03T18:41:57.000Z</time>
      </trkpt>
      <trkpt lat="48.83015" lon="2.36746">
        <ele>85.6</ele>
        <time>2013-04-03T18:41:58.000Z</time>
      </trkpt>
      <trkpt lat="48.83013" lon="2.36742">
        <ele>83.8</ele>
        <time>2013-04-03T18:42:00.000Z</time>
      </trkpt>
      <trkpt lat="48.83012" lon="2.3674">
        <ele>83.6</ele>
        <time>2013-04-03T18:42:01.000Z</time>
      </trkpt>
      <trkpt lat="48.83009" lon="2.36737">
        <ele>82.7</ele>
        <time>2013-04-03T18:42:03.000Z</time>
      </trkpt>
      <trkpt lat="48.83007" lon="2.36735">
        <ele>82.2</ele>
        <time>2013-04-03T18:42:04.000Z</time>
      </trkpt>
      <trkpt lat="48.83004" lon="2.36732">
        <ele>82.1</ele>
        <time>2013-04-03T18:42:06.000Z</time>
      </trkpt>
      <trkpt lat="48.83003" lon="2.3673">
        <ele>82.2</ele>
        <time>2013-04-03T18:42:07.000Z</time>
      </trkpt>
      <trkpt lat="48.83001" lon="2.36724">
        <ele>81.3</ele>
        <time>2013-04-03T18:42:09.000Z</time>
      </trkpt>
      <trkpt lat="48.83001" lon="2.36721">
        <ele>82.3</ele>
        <time>2013-04-03T18:42:10.000Z</time>
      </trkpt>
      <trkpt lat="48.83001" lon="2.36715">
        <ele>82.8</ele>
        <time>2013-04-03T18:42:12.000Z</time>
      </trkpt>
      <trkpt lat="48.83001" lon="2.36712">
        <ele>82.7</ele>
        <time>2013-04-03T18:42:13.000Z</time>
      </trkpt>
      <trkpt lat="48.83002" lon="2.36706">
        <ele>82.8</ele>
        <time>2013-04-03T18:42:15.000Z</time>
      </trkpt>
      <trkpt lat="48.83002" lon="2.36703">
        <ele>82.7</ele>
        <time>2013-04-03T18:42:16.000Z</time>
      </trkpt>
      <trkpt lat="48.83003" lon="2.36697">
        <ele>80.6</ele>
        <time>2013-04-03T18:42:18.000Z</time>
      </trkpt>
      <trkpt lat="48.83003" lon="2.36694">
        <ele>80.1</ele>
        <time>2013-04-03T18:42:19.000Z</time>
      </trkpt>
      <trkpt lat="48.83002" lon="2.36688">
        <ele>81.1</ele>
        <time>2013-04-03T18:42:22.000Z</time>
      </trkpt>
      <trkpt lat="48.83001" lon="2.36686">
        <ele>81.5</ele>
        <time>2013-04-03T18:42:23.000Z</time>
      </trkpt>
      <trkpt lat="48.82998" lon="2.36682">
        <ele>83.8</ele>
        <time>2013-04-03T18:42:27.000Z</time>
      </trkpt>
      <trkpt lat="48.82998" lon="2.3668">
        <ele>84.5</ele>
        <time>2013-04-03T18:42:28.000Z</time>
      </trkpt>
      <trkpt lat="48.82996" lon="2.36676">
        <ele>86.9</ele>
        <time>2013-04-03T18:42:31.000Z</time>
      </trkpt>
      <trkpt lat="48.82993" lon="2.36674">
        <ele>88.6</ele>
        <time>2013-04-03T18:42:32.000Z</time>
      </trkpt>
      <trkpt lat="48.82989" lon="2.36672">
        <ele>94.2</ele>
        <time>2013-04-03T18:42:36.000Z</time>
      </trkpt>
      <trkpt lat="48.82989" lon="2.36671">
        <ele>95.3</ele>
        <time>2013-04-03T18:42:37.000Z</time>
      </trkpt>
      <trkpt lat="48.82991" lon="2.36668">
        <ele>96.6</ele>
        <time>2013-04-03T18:42:42.000Z</time>
      </trkpt>
      <trkpt lat="48.82992" lon="2.36666">
        <ele>96.6</ele>
        <time>2013-04-03T18:42:43.000Z</time>
      </trkpt>
      <trkpt lat="48.82993" lon="2.36661">
        <ele>95.6</ele>
        <time>2013-04-03T18:42:44.000Z</time>
      </trkpt>
      <trkpt lat="48.82994" lon="2.36657">
        <ele>94.6</ele>
        <time>2013-04-03T18:42:45.000Z</time>
      </trkpt>
      <trkpt lat="48.82995" lon="2.36652">
        <ele>94.4</ele>
        <time>2013-04-03T18:42:46.000Z</time>
      </trkpt>
      <trkpt lat="48.82995" lon="2.36647">
        <ele>93.5</ele>
        <time>2013-04-03T18:42:47.000Z</time>
      </trkpt>
      <trkpt lat="48.82996" lon="2.36643">
        <ele>92.7</ele>
        <time>2013-04-03T18:42:48.000Z</time>
      </trkpt>
      <trkpt lat="48.82995" lon="2.36639">
        <ele>90.4</ele>
        <time>2013-04-03T18:42:49.000Z</time>
      </trkpt>
      <trkpt lat="48.82993" lon="2.36636">
        <ele>90.6</ele>
        <time>2013-04-03T18:42:50.000Z</time>
      </trkpt>
      <trkpt lat="48.8299" lon="2.36633">
        <ele>89.8</ele>
        <time>2013-04-03T18:42:51.000Z</time>
      </trkpt>
      <trkpt lat="48.82989" lon="2.36631">
        <ele>89.7</ele>
        <time>2013-04-03T18:42:52.000Z</time>
      </trkpt>
      <trkpt lat="48.82981" lon="2.36621">
        <ele>86</ele>
        <time>2013-04-03T18:42:56.000Z</time>
      </trkpt>
      <trkpt lat="48.82977" lon="2.36618">
        <ele>82.5</ele>
        <time>2013-04-03T18:42:57.000Z</time>
      </trkpt>
      <trkpt lat="48.82972" lon="2.36614">
        <ele>81.4</ele>
        <time>2013-04-03T18:42:58.000Z</time>
      </trkpt>
      <trkpt lat="48.82966" lon="2.3661">
        <ele>80.6</ele>
        <time>2013-04-03T18:42:59.000Z</time>
      </trkpt>
      <trkpt lat="48.82961" lon="2.36605">
        <ele>79.1</ele>
        <time>2013-04-03T18:43:00.000Z</time>
      </trkpt>
      <trkpt lat="48.82957" lon="2.36598">
        <ele>78.9</ele>
        <time>2013-04-03T18:43:01.000Z</time>
      </trkpt>
      <trkpt lat="48.82954" lon="2.3659">
        <ele>78.9</ele>
        <time>2013-04-03T18:43:02.000Z</time>
      </trkpt>
      <trkpt lat="48.82951" lon="2.36584">
        <ele>79.1</ele>
        <time>2013-04-03T18:43:03.000Z</time>
      </trkpt>
      <trkpt lat="48.82948" lon="2.36579">
        <ele>78.3</ele>
        <time>2013-04-03T18:43:04.000Z</time>
      </trkpt>
      <trkpt lat="48.82944" lon="2.36574">
        <ele>78.9</ele>
        <time>2013-04-03T18:43:05.000Z</time>
      </trkpt>
      <trkpt lat="48.82942" lon="2.3657">
        <ele>81</ele>
        <time>2013-04-03T18:43:06.000Z</time>
      </trkpt>
      <trkpt lat="48.8294" lon="2.36567">
        <ele>82</ele>
        <time>2013-04-03T18:43:07.000Z</time>
      </trkpt>
      <trkpt lat="48.82938" lon="2.36563">
        <ele>83.8</ele>
        <time>2013-04-03T18:43:09.000Z</time>
      </trkpt>
      <trkpt lat="48.82937" lon="2.36561">
        <ele>84.7</ele>
        <time>2013-04-03T18:43:10.000Z</time>
      </trkpt>
      <trkpt lat="48.82936" lon="2.36555">
        <ele>85.1</ele>
        <time>2013-04-03T18:43:13.000Z</time>
      </trkpt>
      <trkpt lat="48.82936" lon="2.36555">
        <ele>84.7</ele>
        <time>2013-04-03T18:43:14.000Z</time>
      </trkpt>
      <trkpt lat="48.82935" lon="2.36549">
        <ele>84.9</ele>
        <time>2013-04-03T18:44:16.000Z</time>
      </trkpt>
      <trkpt lat="48.82935" lon="2.36547">
        <ele>84.4</ele>
        <time>2013-04-03T18:44:17.000Z</time>
      </trkpt>
      <trkpt lat="48.82936" lon="2.36542">
        <ele>81.7</ele>
        <time>2013-04-03T18:44:20.000Z</time>
      </trkpt>
      <trkpt lat="48.82936" lon="2.36539">
        <ele>81.6</ele>
        <time>2013-04-03T18:44:21.000Z</time>
      </trkpt>
      <trkpt lat="48.82934" lon="2.36534">
        <ele>83.4</ele>
        <time>2013-04-03T18:44:23.000Z</time>
      </trkpt>
      <trkpt lat="48.82934" lon="2.36531">
        <ele>83.9</ele>
        <time>2013-04-03T18:44:24.000Z</time>
      </trkpt>
      <trkpt lat="48.82932" lon="2.36526">
        <ele>83.2</ele>
        <time>2013-04-03T18:44:26.000Z</time>
      </trkpt>
      <trkpt lat="48.8293" lon="2.36524">
        <ele>83.6</ele>
        <time>2013-04-03T18:44:27.000Z</time>
      </trkpt>
      <trkpt lat="48.82928" lon="2.3652">
        <ele>82.8</ele>
        <time>2013-04-03T18:44:29.000Z</time>
      </trkpt>
      <trkpt lat="48.82928" lon="2.36518">
        <ele>81.7</ele>
        <time>2013-04-03T18:44:30.000Z</time>
      </trkpt>
      <trkpt lat="48.82926" lon="2.36513">
        <ele>84.7</ele>
        <time>2013-04-03T18:44:32.000Z</time>
      </trkpt>
      <trkpt lat="48.82926" lon="2.36511">
        <ele>87.3</ele>
        <time>2013-04-03T18:44:33.000Z</time>
      </trkpt>
      <trkpt lat="48.82925" lon="2.36505">
        <ele>87.8</ele>
        <time>2013-04-03T18:44:36.000Z</time>
      </trkpt>
      <trkpt lat="48.82925" lon="2.36504">
        <ele>90.2</ele>
        <time>2013-04-03T18:44:37.000Z</time>
      </trkpt>
      <trkpt lat="48.82928" lon="2.365">
        <ele>91.6</ele>
        <time>2013-04-03T18:44:41.000Z</time>
      </trkpt>
      <trkpt lat="48.82929" lon="2.36499">
        <ele>92.1</ele>
        <time>2013-04-03T18:44:42.000Z</time>
      </trkpt>
      <trkpt lat="48.82931" lon="2.36495">
        <ele>89.3</ele>
        <time>2013-04-03T18:44:44.000Z</time>
      </trkpt>
      <trkpt lat="48.82932" lon="2.36493">
        <ele>87.2</ele>
        <time>2013-04-03T18:44:45.000Z</time>
      </trkpt>
      <trkpt lat="48.82934" lon="2.36491">
        <ele>85.1</ele>
        <time>2013-04-03T18:44:46.000Z</time>
      </trkpt>
      <trkpt lat="48.82935" lon="2.36488">
        <ele>83.8</ele>
        <time>2013-04-03T18:44:47.000Z</time>
      </trkpt>
      <trkpt lat="48.82936" lon="2.36483">
        <ele>79.6</ele>
        <time>2013-04-03T18:44:49.000Z</time>
      </trkpt>
      <trkpt lat="48.82937" lon="2.3648">
        <ele>78.8</ele>
        <time>2013-04-03T18:44:50.000Z</time>
      </trkpt>
      <trkpt lat="48.8294" lon="2.36476">
        <ele>77.4</ele>
        <time>2013-04-03T18:44:52.000Z</time>
      </trkpt>
      <trkpt lat="48.82944" lon="2.36468">
        <ele>76.2</ele>
        <time>2013-04-03T18:44:55.000Z</time>
      </trkpt>
      <trkpt lat="48.82946" lon="2.36465">
        <ele>76.6</ele>
        <time>2013-04-03T18:44:56.000Z</time>
      </trkpt>
      <trkpt lat="48.82948" lon="2.36462">
        <ele>76.3</ele>
        <time>2013-04-03T18:44:57.000Z</time>
      </trkpt>
      <trkpt lat="48.8295" lon="2.36459">
        <ele>76.8</ele>
        <time>2013-04-03T18:44:58.000Z</time>
      </trkpt>
      <trkpt lat="48.82951" lon="2.36456">
        <ele>76.3</ele>
        <time>2013-04-03T18:44:59.000Z</time>
      </trkpt>
      <trkpt lat="48.82953" lon="2.36452">
        <ele>76.6</ele>
        <time>2013-04-03T18:45:00.000Z</time>
      </trkpt>
      <trkpt lat="48.82955" lon="2.36449">
        <ele>75.9</ele>
        <time>2013-04-03T18:45:01.000Z</time>
      </trkpt>
      <trkpt lat="48.82957" lon="2.36445">
        <ele>76.7</ele>
        <time>2013-04-03T18:45:02.000Z</time>
      </trkpt>
      <trkpt lat="48.82959" lon="2.36441">
        <ele>75.7</ele>
        <time>2013-04-03T18:45:03.000Z</time>
      </trkpt>
      <trkpt lat="48.8296" lon="2.36438">
        <ele>75.2</ele>
        <time>2013-04-03T18:45:04.000Z</time>
      </trkpt>
      <trkpt lat="48.82962" lon="2.36435">
        <ele>74.3</ele>
        <time>2013-04-03T18:45:05.000Z</time>
      </trkpt>
      <trkpt lat="48.82964" lon="2.36432">
        <ele>74</ele>
        <time>2013-04-03T18:45:06.000Z</time>
      </trkpt>
      <trkpt lat="48.82966" lon="2.36429">
        <ele>74.2</ele>
        <time>2013-04-03T18:45:07.000Z</time>
      </trkpt>
      <trkpt lat="48.82967" lon="2.36426">
        <ele>73.5</ele>
        <time>2013-04-03T18:45:08.000Z</time>
      </trkpt>
      <trkpt lat="48.82968" lon="2.36422">
        <ele>74</ele>
        <time>2013-04-03T18:45:09.000Z</time>
      </trkpt>
      <trkpt lat="48.8297" lon="2.36417">
        <ele>72.7</ele>
        <time>2013-04-03T18:45:11.000Z</time>
      </trkpt>
      <trkpt lat="48.82972" lon="2.36414">
        <ele>72.3</ele>
        <time>2013-04-03T18:45:12.000Z</time>
      </trkpt>
      <trkpt lat="48.82973" lon="2.3641">
        <ele>71.8</ele>
        <time>2013-04-03T18:45:13.000Z</time>
      </trkpt>
      <trkpt lat="48.82975" lon="2.36407">
        <ele>73.9</ele>
        <time>2013-04-03T18:45:14.000Z</time>
      </trkpt>
      <trkpt lat="48.82977" lon="2.36404">
        <ele>72.9</ele>
        <time>2013-04-03T18:45:15.000Z</time>
      </trkpt>
      <trkpt lat="48.82979" lon="2.364">
        <ele>72.6</ele>
        <time>2013-04-03T18:45:16.000Z</time>
      </trkpt>
      <trkpt lat="48.8298" lon="2.36397">
        <ele>73.8</ele>
        <time>2013-04-03T18:45:17.000Z</time>
      </trkpt>
      <trkpt lat="48.82982" lon="2.36393">
        <ele>74</ele>
        <time>2013-04-03T18:45:18.000Z</time>
      </trkpt>
      <trkpt lat="48.82983" lon="2.36389">
        <ele>74.7</ele>
        <time>2013-04-03T18:45:19.000Z</time>
      </trkpt>
      <trkpt lat="48.82983" lon="2.36385">
        <ele>75.8</ele>
        <time>2013-04-03T18:45:20.000Z</time>
      </trkpt>
      <trkpt lat="48.82984" lon="2.36381">
        <ele>78.3</ele>
        <time>2013-04-03T18:45:21.000Z</time>
      </trkpt>
      <trkpt lat="48.82984" lon="2.36377">
        <ele>80.3</ele>
        <time>2013-04-03T18:45:22.000Z</time>
      </trkpt>
      <trkpt lat="48.82985" lon="2.36373">
        <ele>82.6</ele>
        <time>2013-04-03T18:45:23.000Z</time>
      </trkpt>
      <trkpt lat="48.82985" lon="2.36369">
        <ele>84.2</ele>
        <time>2013-04-03T18:45:24.000Z</time>
      </trkpt>
      <trkpt lat="48.82986" lon="2.36365">
        <ele>85.2</ele>
        <time>2013-04-03T18:45:25.000Z</time>
      </trkpt>
      <trkpt lat="48.82987" lon="2.36361">
        <ele>86</ele>
        <time>2013-04-03T18:45:26.000Z</time>
      </trkpt>
      <trkpt lat="48.82987" lon="2.36357">
        <ele>85.8</ele>
        <time>2013-04-03T18:45:27.000Z</time>
      </trkpt>
      <trkpt lat="48.82988" lon="2.36352">
        <ele>85.5</ele>
        <time>2013-04-03T18:45:28.000Z</time>
      </trkpt>
      <trkpt lat="48.82988" lon="2.36349">
        <ele>85.8</ele>
        <time>2013-04-03T18:45:29.000Z</time>
      </trkpt>
      <trkpt lat="48.82989" lon="2.36345">
        <ele>86</ele>
        <time>2013-04-03T18:45:30.000Z</time>
      </trkpt>
      <trkpt lat="48.82991" lon="2.36341">
        <ele>86.6</ele>
        <time>2013-04-03T18:45:31.000Z</time>
      </trkpt>
      <trkpt lat="48.82992" lon="2.36337">
        <ele>86.6</ele>
        <time>2013-04-03T18:45:32.000Z</time>
      </trkpt>
      <trkpt lat="48.82994" lon="2.36334">
        <ele>86.4</ele>
        <time>2013-04-03T18:45:33.000Z</time>
      </trkpt>
      <trkpt lat="48.82995" lon="2.36331">
        <ele>85.8</ele>
        <time>2013-04-03T18:45:34.000Z</time>
      </trkpt>
      <trkpt lat="48.82996" lon="2.36327">
        <ele>86.8</ele>
        <time>2013-04-03T18:45:35.000Z</time>
      </trkpt>
      <trkpt lat="48.82998" lon="2.36323">
        <ele>87</ele>
        <time>2013-04-03T18:45:36.000Z</time>
      </trkpt>
      <trkpt lat="48.82999" lon="2.3632">
        <ele>86.9</ele>
        <time>2013-04-03T18:45:37.000Z</time>
      </trkpt>
      <trkpt lat="48.83001" lon="2.36316">
        <ele>86.9</ele>
        <time>2013-04-03T18:45:38.000Z</time>
      </trkpt>
      <trkpt lat="48.83003" lon="2.36313">
        <ele>87.3</ele>
        <time>2013-04-03T18:45:39.000Z</time>
      </trkpt>
      <trkpt lat="48.83004" lon="2.36309">
        <ele>86.8</ele>
        <time>2013-04-03T18:45:40.000Z</time>
      </trkpt>
      <trkpt lat="48.83006" lon="2.36306">
        <ele>87</ele>
        <time>2013-04-03T18:45:41.000Z</time>
      </trkpt>
      <trkpt lat="48.83008" lon="2.36303">
        <ele>85.9</ele>
        <time>2013-04-03T18:45:42.000Z</time>
      </trkpt>
      <trkpt lat="48.83009" lon="2.36299">
        <ele>85.3</ele>
        <time>2013-04-03T18:45:43.000Z</time>
      </trkpt>
      <trkpt lat="48.8301" lon="2.36296">
        <ele>84.2</ele>
        <time>2013-04-03T18:45:44.000Z</time>
      </trkpt>
      <trkpt lat="48.83011" lon="2.36293">
        <ele>84.6</ele>
        <time>2013-04-03T18:45:45.000Z</time>
      </trkpt>
      <trkpt lat="48.83012" lon="2.36289">
        <ele>86.1</ele>
        <time>2013-04-03T18:45:46.000Z</time>
      </trkpt>
      <trkpt lat="48.83014" lon="2.36285">
        <ele>85.8</ele>
        <time>2013-04-03T18:45:47.000Z</time>
      </trkpt>
      <trkpt lat="48.83015" lon="2.36282">
        <ele>86.2</ele>
        <time>2013-04-03T18:45:48.000Z</time>
      </trkpt>
      <trkpt lat="48.83017" lon="2.36277">
        <ele>86.7</ele>
        <time>2013-04-03T18:45:50.000Z</time>
      </trkpt>
      <trkpt lat="48.83017" lon="2.36275">
        <ele>86.6</ele>
        <time>2013-04-03T18:45:51.000Z</time>
      </trkpt>
      <trkpt lat="48.83019" lon="2.3627">
        <ele>85.5</ele>
        <time>2013-04-03T18:45:53.845Z</time>
      </trkpt>
      <trkpt lat="48.8302" lon="2.36268">
        <ele>85</ele>
        <time>2013-04-03T18:45:55.000Z</time>
      </trkpt>
      <trkpt lat="48.83022" lon="2.36263">
        <ele>85.6</ele>
        <time>2013-04-03T18:45:57.000Z</time>
      </trkpt>
      <trkpt lat="48.83023" lon="2.3626">
        <ele>85.8</ele>
        <time>2013-04-03T18:45:58.000Z</time>
      </trkpt>
      <trkpt lat="48.83025" lon="2.36254">
        <ele>86.6</ele>
        <time>2013-04-03T18:46:00.000Z</time>
      </trkpt>
      <trkpt lat="48.83027" lon="2.36251">
        <ele>87.6</ele>
        <time>2013-04-03T18:46:01.000Z</time>
      </trkpt>
      <trkpt lat="48.83028" lon="2.36246">
        <ele>89.8</ele>
        <time>2013-04-03T18:46:03.000Z</time>
      </trkpt>
      <trkpt lat="48.83028" lon="2.36244">
        <ele>90.8</ele>
        <time>2013-04-03T18:46:04.000Z</time>
      </trkpt>
      <trkpt lat="48.83025" lon="2.36239">
        <ele>90.8</ele>
        <time>2013-04-03T18:46:09.000Z</time>
      </trkpt>
      <trkpt lat="48.83025" lon="2.36239">
        <ele>91.7</ele>
        <time>2013-04-03T18:46:10.000Z</time>
      </trkpt>
      <trkpt lat="48.83024" lon="2.36233">
        <ele>95.7</ele>
        <time>2013-04-03T18:46:29.000Z</time>
      </trkpt>
      <trkpt lat="48.83024" lon="2.36232">
        <ele>95.8</ele>
        <time>2013-04-03T18:46:30.000Z</time>
      </trkpt>
      <trkpt lat="48.83024" lon="2.36226">
        <ele>99</ele>
        <time>2013-04-03T18:46:45.000Z</time>
      </trkpt>
      <trkpt lat="48.83024" lon="2.36224">
        <ele>100.6</ele>
        <time>2013-04-03T18:46:46.000Z</time>
      </trkpt>
      <trkpt lat="48.83023" lon="2.36218">
        <ele>99.5</ele>
        <time>2013-04-03T18:46:49.000Z</time>
      </trkpt>
      <trkpt lat="48.83022" lon="2.36217">
        <ele>99.7</ele>
        <time>2013-04-03T18:46:50.000Z</time>
      </trkpt>
      <trkpt lat="48.83019" lon="2.36213">
        <ele>100.2</ele>
        <time>2013-04-03T18:46:52.000Z</time>
      </trkpt>
      <trkpt lat="48.83015" lon="2.36208">
        <ele>100.1</ele>
        <time>2013-04-03T18:46:55.000Z</time>
      </trkpt>
      <trkpt lat="48.83012" lon="2.36206">
        <ele>99.5</ele>
        <time>2013-04-03T18:46:57.000Z</time>
      </trkpt>
      <trkpt lat="48.8301" lon="2.36203">
        <ele>99.6</ele>
        <time>2013-04-03T18:46:58.000Z</time>
      </trkpt>
      <trkpt lat="48.83007" lon="2.36199">
        <ele>99.1</ele>
        <time>2013-04-03T18:47:00.000Z</time>
      </trkpt>
      <trkpt lat="48.83005" lon="2.36197">
        <ele>99.5</ele>
        <time>2013-04-03T18:47:01.000Z</time>
      </trkpt>
      <trkpt lat="48.83003" lon="2.36195">
        <ele>99.5</ele>
        <time>2013-04-03T18:47:02.000Z</time>
      </trkpt>
      <trkpt lat="48.83001" lon="2.36193">
        <ele>99</ele>
        <time>2013-04-03T18:47:03.000Z</time>
      </trkpt>
      <trkpt lat="48.82999" lon="2.3619">
        <ele>97.9</ele>
        <time>2013-04-03T18:47:04.000Z</time>
      </trkpt>
      <trkpt lat="48.82997" lon="2.36187">
        <ele>97.4</ele>
        <time>2013-04-03T18:47:05.000Z</time>
      </trkpt>
      <trkpt lat="48.82995" lon="2.36184">
        <ele>97.2</ele>
        <time>2013-04-03T18:47:06.000Z</time>
      </trkpt>
      <trkpt lat="48.82992" lon="2.36181">
        <ele>97.1</ele>
        <time>2013-04-03T18:47:07.000Z</time>
      </trkpt>
      <trkpt lat="48.8299" lon="2.36179">
        <ele>96.9</ele>
        <time>2013-04-03T18:47:08.000Z</time>
      </trkpt>
      <trkpt lat="48.82989" lon="2.36176">
        <ele>96.5</ele>
        <time>2013-04-03T18:47:09.000Z</time>
      </trkpt>
      <trkpt lat="48.82986" lon="2.36171">
        <ele>94.9</ele>
        <time>2013-04-03T18:47:11.000Z</time>
      </trkpt>
      <trkpt lat="48.82985" lon="2.36169">
        <ele>93.9</ele>
        <time>2013-04-03T18:47:12.000Z</time>
      </trkpt>
      <trkpt lat="48.82981" lon="2.36164">
        <ele>91.4</ele>
        <time>2013-04-03T18:47:14.000Z</time>
      </trkpt>
      <trkpt lat="48.82979" lon="2.36162">
        <ele>91.4</ele>
        <time>2013-04-03T18:47:15.000Z</time>
      </trkpt>
      <trkpt lat="48.82977" lon="2.36159">
        <ele>91.5</ele>
        <time>2013-04-03T18:47:16.000Z</time>
      </trkpt>
      <trkpt lat="48.82975" lon="2.36155">
        <ele>91.7</ele>
        <time>2013-04-03T18:47:17.000Z</time>
      </trkpt>
      <trkpt lat="48.82973" lon="2.36151">
        <ele>92.5</ele>
        <time>2013-04-03T18:47:18.000Z</time>
      </trkpt>
      <trkpt lat="48.82971" lon="2.36147">
        <ele>92.6</ele>
        <time>2013-04-03T18:47:19.000Z</time>
      </trkpt>
      <trkpt lat="48.82968" lon="2.36144">
        <ele>91.4</ele>
        <time>2013-04-03T18:47:20.000Z</time>
      </trkpt>
      <trkpt lat="48.82966" lon="2.3614">
        <ele>91.1</ele>
        <time>2013-04-03T18:47:21.000Z</time>
      </trkpt>
      <trkpt lat="48.82963" lon="2.36137">
        <ele>91.8</ele>
        <time>2013-04-03T18:47:22.000Z</time>
      </trkpt>
      <trkpt lat="48.82961" lon="2.36133">
        <ele>93</ele>
        <time>2013-04-03T18:47:23.000Z</time>
      </trkpt>
      <trkpt lat="48.82959" lon="2.3613">
        <ele>94</ele>
        <time>2013-04-03T18:47:24.000Z</time>
      </trkpt>
      <trkpt lat="48.82957" lon="2.36126">
        <ele>94.8</ele>
        <time>2013-04-03T18:47:25.000Z</time>
      </trkpt>
      <trkpt lat="48.82955" lon="2.36123">
        <ele>93.9</ele>
        <time>2013-04-03T18:47:26.000Z</time>
      </trkpt>
      <trkpt lat="48.82953" lon="2.36121">
        <ele>92</ele>
        <time>2013-04-03T18:47:27.000Z</time>
      </trkpt>
      <trkpt lat="48.8295" lon="2.36119">
        <ele>87.1</ele>
        <time>2013-04-03T18:47:28.000Z</time>
      </trkpt>
      <trkpt lat="48.82947" lon="2.36118">
        <ele>85</ele>
        <time>2013-04-03T18:47:29.000Z</time>
      </trkpt>
      <trkpt lat="48.82944" lon="2.36117">
        <ele>85.1</ele>
        <time>2013-04-03T18:47:30.000Z</time>
      </trkpt>
      <trkpt lat="48.82942" lon="2.36115">
        <ele>84.5</ele>
        <time>2013-04-03T18:47:31.000Z</time>
      </trkpt>
      <trkpt lat="48.8294" lon="2.36112">
        <ele>85.6</ele>
        <time>2013-04-03T18:47:32.000Z</time>
      </trkpt>
      <trkpt lat="48.82938" lon="2.36109">
        <ele>85.8</ele>
        <time>2013-04-03T18:47:33.000Z</time>
      </trkpt>
      <trkpt lat="48.82937" lon="2.36107">
        <ele>85.6</ele>
        <time>2013-04-03T18:47:34.000Z</time>
      </trkpt>
      <trkpt lat="48.82936" lon="2.36102">
        <ele>86</ele>
        <time>2013-04-03T18:47:35.000Z</time>
      </trkpt>
      <trkpt lat="48.82934" lon="2.36096">
        <ele>85.8</ele>
        <time>2013-04-03T18:47:40.000Z</time>
      </trkpt>
      <trkpt lat="48.82934" lon="2.36096">
        <ele>85.5</ele>
        <time>2013-04-03T18:47:41.000Z</time>
      </trkpt>
      <trkpt lat="48.82935" lon="2.3609">
        <ele>80.9</ele>
        <time>2013-04-03T18:47:52.000Z</time>
      </trkpt>
      <trkpt lat="48.82937" lon="2.36082">
        <ele>79.8</ele>
        <time>2013-04-03T18:47:55.000Z</time>
      </trkpt>
      <trkpt lat="48.82938" lon="2.3608">
        <ele>78.9</ele>
        <time>2013-04-03T18:47:56.000Z</time>
      </trkpt>
      <trkpt lat="48.8294" lon="2.36077">
        <ele>77</ele>
        <time>2013-04-03T18:47:57.000Z</time>
      </trkpt>
      <trkpt lat="48.82941" lon="2.36074">
        <ele>76.3</ele>
        <time>2013-04-03T18:47:58.000Z</time>
      </trkpt>
      <trkpt lat="48.82942" lon="2.36071">
        <ele>77.5</ele>
        <time>2013-04-03T18:47:59.000Z</time>
      </trkpt>
      <trkpt lat="48.82943" lon="2.36067">
        <ele>79.1</ele>
        <time>2013-04-03T18:48:00.000Z</time>
      </trkpt>
      <trkpt lat="48.82943" lon="2.36063">
        <ele>79.5</ele>
        <time>2013-04-03T18:48:01.000Z</time>
      </trkpt>
      <trkpt lat="48.82944" lon="2.36059">
        <ele>80.1</ele>
        <time>2013-04-03T18:48:02.000Z</time>
      </trkpt>
      <trkpt lat="48.82945" lon="2.36055">
        <ele>79.6</ele>
        <time>2013-04-03T18:48:03.000Z</time>
      </trkpt>
      <trkpt lat="48.82947" lon="2.3605">
        <ele>78.7</ele>
        <time>2013-04-03T18:48:04.000Z</time>
      </trkpt>
      <trkpt lat="48.82949" lon="2.36047">
        <ele>78.8</ele>
        <time>2013-04-03T18:48:05.000Z</time>
      </trkpt>
      <trkpt lat="48.82951" lon="2.36043">
        <ele>79.2</ele>
        <time>2013-04-03T18:48:06.000Z</time>
      </trkpt>
      <trkpt lat="48.82952" lon="2.3604">
        <ele>79.3</ele>
        <time>2013-04-03T18:48:07.000Z</time>
      </trkpt>
      <trkpt lat="48.82954" lon="2.36034">
        <ele>81</ele>
        <time>2013-04-03T18:48:09.000Z</time>
      </trkpt>
      <trkpt lat="48.82954" lon="2.36031">
        <ele>81</ele>
        <time>2013-04-03T18:48:10.000Z</time>
      </trkpt>
      <trkpt lat="48.82955" lon="2.36024">
        <ele>81.6</ele>
        <time>2013-04-03T18:48:12.000Z</time>
      </trkpt>
      <trkpt lat="48.82955" lon="2.36022">
        <ele>81.2</ele>
        <time>2013-04-03T18:48:13.000Z</time>
      </trkpt>
      <trkpt lat="48.82953" lon="2.36017">
        <ele>81.5</ele>
        <time>2013-04-03T18:48:15.000Z</time>
      </trkpt>
      <trkpt lat="48.82953" lon="2.36014">
        <ele>81.8</ele>
        <time>2013-04-03T18:48:16.000Z</time>
      </trkpt>
      <trkpt lat="48.82951" lon="2.36009">
        <ele>83</ele>
        <time>2013-04-03T18:48:18.000Z</time>
      </trkpt>
      <trkpt lat="48.82949" lon="2.36006">
        <ele>83.2</ele>
        <time>2013-04-03T18:48:19.000Z</time>
      </trkpt>
      <trkpt lat="48.82947" lon="2.36001">
        <ele>84.8</ele>
        <time>2013-04-03T18:48:21.000Z</time>
      </trkpt>
      <trkpt lat="48.82946" lon="2.35999">
        <ele>84.8</ele>
        <time>2013-04-03T18:48:22.000Z</time>
      </trkpt>
      <trkpt lat="48.82944" lon="2.35993">
        <ele>85.5</ele>
        <time>2013-04-03T18:48:24.000Z</time>
      </trkpt>
      <trkpt lat="48.82944" lon="2.3599">
        <ele>84.8</ele>
        <time>2013-04-03T18:48:25.000Z</time>
      </trkpt>
      <trkpt lat="48.82942" lon="2.35984">
        <ele>86.8</ele>
        <time>2013-04-03T18:48:27.000Z</time>
      </trkpt>
      <trkpt lat="48.82941" lon="2.35982">
        <ele>87</ele>
        <time>2013-04-03T18:48:28.000Z</time>
      </trkpt>
      <trkpt lat="48.82938" lon="2.35977">
        <ele>86</ele>
        <time>2013-04-03T18:48:30.000Z</time>
      </trkpt>
      <trkpt lat="48.82936" lon="2.35975">
        <ele>86.5</ele>
        <time>2013-04-03T18:48:31.000Z</time>
      </trkpt>
      <trkpt lat="48.82935" lon="2.35972">
        <ele>86.3</ele>
        <time>2013-04-03T18:48:32.000Z</time>
      </trkpt>
      <trkpt lat="48.82933" lon="2.35969">
        <ele>86.8</ele>
        <time>2013-04-03T18:48:33.000Z</time>
      </trkpt>
      <trkpt lat="48.82931" lon="2.35966">
        <ele>87.2</ele>
        <time>2013-04-03T18:48:34.000Z</time>
      </trkpt>
      <trkpt lat="48.8293" lon="2.35963">
        <ele>87.6</ele>
        <time>2013-04-03T18:48:35.000Z</time>
      </trkpt>
      <trkpt lat="48.82928" lon="2.3596">
        <ele>88.1</ele>
        <time>2013-04-03T18:48:36.000Z</time>
      </trkpt>
      <trkpt lat="48.82926" lon="2.35958">
        <ele>88</ele>
        <time>2013-04-03T18:48:37.000Z</time>
      </trkpt>
      <trkpt lat="48.82924" lon="2.35955">
        <ele>88.1</ele>
        <time>2013-04-03T18:48:38.000Z</time>
      </trkpt>
      <trkpt lat="48.82922" lon="2.35952">
        <ele>88</ele>
        <time>2013-04-03T18:48:39.000Z</time>
      </trkpt>
      <trkpt lat="48.82921" lon="2.3595">
        <ele>87.8</ele>
        <time>2013-04-03T18:48:40.000Z</time>
      </trkpt>
      <trkpt lat="48.82919" lon="2.35947">
        <ele>87.8</ele>
        <time>2013-04-03T18:48:41.000Z</time>
      </trkpt>
      <trkpt lat="48.82917" lon="2.35945">
        <ele>88.4</ele>
        <time>2013-04-03T18:48:42.000Z</time>
      </trkpt>
      <trkpt lat="48.82915" lon="2.35942">
        <ele>88.5</ele>
        <time>2013-04-03T18:48:43.000Z</time>
      </trkpt>
      <trkpt lat="48.82913" lon="2.35938">
        <ele>88.2</ele>
        <time>2013-04-03T18:48:44.000Z</time>
      </trkpt>
      <trkpt lat="48.82911" lon="2.35934">
        <ele>87.2</ele>
        <time>2013-04-03T18:48:45.000Z</time>
      </trkpt>
      <trkpt lat="48.82909" lon="2.3593">
        <ele>87.8</ele>
        <time>2013-04-03T18:48:46.000Z</time>
      </trkpt>
      <trkpt lat="48.82907" lon="2.35927">
        <ele>87.6</ele>
        <time>2013-04-03T18:48:47.000Z</time>
      </trkpt>
      <trkpt lat="48.82905" lon="2.35924">
        <ele>88.2</ele>
        <time>2013-04-03T18:48:48.000Z</time>
      </trkpt>
      <trkpt lat="48.82903" lon="2.3592">
        <ele>88</ele>
        <time>2013-04-03T18:48:49.000Z</time>
      </trkpt>
      <trkpt lat="48.82901" lon="2.35917">
        <ele>88.4</ele>
        <time>2013-04-03T18:48:50.000Z</time>
      </trkpt>
      <trkpt lat="48.82899" lon="2.35914">
        <ele>87.7</ele>
        <time>2013-04-03T18:48:51.000Z</time>
      </trkpt>
      <trkpt lat="48.82896" lon="2.35911">
        <ele>87.9</ele>
        <time>2013-04-03T18:48:52.000Z</time>
      </trkpt>
      <trkpt lat="48.8289" lon="2.35902">
        <ele>86.9</ele>
        <time>2013-04-03T18:48:55.000Z</time>
      </trkpt>
      <trkpt lat="48.82888" lon="2.35898">
        <ele>86.5</ele>
        <time>2013-04-03T18:48:56.000Z</time>
      </trkpt>
      <trkpt lat="48.82886" lon="2.35894">
        <ele>89.9</ele>
        <time>2013-04-03T18:48:57.000Z</time>
      </trkpt>
      <trkpt lat="48.82884" lon="2.3589">
        <ele>91.1</ele>
        <time>2013-04-03T18:48:58.000Z</time>
      </trkpt>
      <trkpt lat="48.82883" lon="2.35886">
        <ele>91.1</ele>
        <time>2013-04-03T18:48:59.000Z</time>
      </trkpt>
      <trkpt lat="48.82881" lon="2.35881">
        <ele>91.6</ele>
        <time>2013-04-03T18:49:00.000Z</time>
      </trkpt>
      <trkpt lat="48.82879" lon="2.35877">
        <ele>92.3</ele>
        <time>2013-04-03T18:49:01.000Z</time>
      </trkpt>
      <trkpt lat="48.82878" lon="2.35873">
        <ele>91.6</ele>
        <time>2013-04-03T18:49:02.000Z</time>
      </trkpt>
      <trkpt lat="48.82876" lon="2.35869">
        <ele>92.3</ele>
        <time>2013-04-03T18:49:03.000Z</time>
      </trkpt>
      <trkpt lat="48.82874" lon="2.35865">
        <ele>92.4</ele>
        <time>2013-04-03T18:49:04.000Z</time>
      </trkpt>
      <trkpt lat="48.82872" lon="2.35862">
        <ele>92.3</ele>
        <time>2013-04-03T18:49:05.000Z</time>
      </trkpt>
      <trkpt lat="48.8287" lon="2.35859">
        <ele>93.5</ele>
        <time>2013-04-03T18:49:06.000Z</time>
      </trkpt>
      <trkpt lat="48.82868" lon="2.35855">
        <ele>93.9</ele>
        <time>2013-04-03T18:49:07.000Z</time>
      </trkpt>
      <trkpt lat="48.82866" lon="2.35852">
        <ele>94.5</ele>
        <time>2013-04-03T18:49:08.000Z</time>
      </trkpt>
      <trkpt lat="48.82864" lon="2.35848">
        <ele>93.9</ele>
        <time>2013-04-03T18:49:09.000Z</time>
      </trkpt>
      <trkpt lat="48.82862" lon="2.35843">
        <ele>95.5</ele>
        <time>2013-04-03T18:49:11.000Z</time>
      </trkpt>
      <trkpt lat="48.82861" lon="2.3584">
        <ele>95.6</ele>
        <time>2013-04-03T18:49:12.000Z</time>
      </trkpt>
      <trkpt lat="48.82858" lon="2.35835">
        <ele>94.8</ele>
        <time>2013-04-03T18:49:15.000Z</time>
      </trkpt>
      <trkpt lat="48.82858" lon="2.35834">
        <ele>96.7</ele>
        <time>2013-04-03T18:49:16.000Z</time>
      </trkpt>
      <trkpt lat="48.82861" lon="2.35829">
        <ele>96.8</ele>
        <time>2013-04-03T18:49:21.000Z</time>
      </trkpt>
      <trkpt lat="48.82861" lon="2.35828">
        <ele>97.3</ele>
        <time>2013-04-03T18:49:22.000Z</time>
      </trkpt>
      <trkpt lat="48.8286" lon="2.35822">
        <ele>97</ele>
        <time>2013-04-03T18:49:48.000Z</time>
      </trkpt>
      <trkpt lat="48.82859" lon="2.35821">
        <ele>97.1</ele>
        <time>2013-04-03T18:49:49.000Z</time>
      </trkpt>
      <trkpt lat="48.82855" lon="2.3582">
        <ele>95.3</ele>
        <time>2013-04-03T18:49:52.000Z</time>
      </trkpt>
      <trkpt lat="48.82852" lon="2.3582">
        <ele>95.3</ele>
        <time>2013-04-03T18:49:53.824Z</time>
      </trkpt>
      <trkpt lat="48.82848" lon="2.35822">
        <ele>99.7</ele>
        <time>2013-04-03T18:49:57.000Z</time>
      </trkpt>
      <trkpt lat="48.82847" lon="2.35824">
        <ele>99.5</ele>
        <time>2013-04-03T18:49:58.000Z</time>
      </trkpt>
      <trkpt lat="48.82844" lon="2.35827">
        <ele>99.4</ele>
        <time>2013-04-03T18:50:00.000Z</time>
      </trkpt>
      <trkpt lat="48.82842" lon="2.35829">
        <ele>99.2</ele>
        <time>2013-04-03T18:50:01.000Z</time>
      </trkpt>
      <trkpt lat="48.8284" lon="2.35831">
        <ele>98.4</ele>
        <time>2013-04-03T18:50:02.000Z</time>
      </trkpt>
      <trkpt lat="48.82838" lon="2.35833">
        <ele>98.4</ele>
        <time>2013-04-03T18:50:03.000Z</time>
      </trkpt>
      <trkpt lat="48.82836" lon="2.35835">
        <ele>97.5</ele>
        <time>2013-04-03T18:50:04.000Z</time>
      </trkpt>
      <trkpt lat="48.82833" lon="2.35837">
        <ele>97.6</ele>
        <time>2013-04-03T18:50:05.000Z</time>
      </trkpt>
      <trkpt lat="48.82831" lon="2.35839">
        <ele>97.9</ele>
        <time>2013-04-03T18:50:06.000Z</time>
      </trkpt>
      <trkpt lat="48.82829" lon="2.3584">
        <ele>97.7</ele>
        <time>2013-04-03T18:50:07.000Z</time>
      </trkpt>
      <trkpt lat="48.82826" lon="2.35844">
        <ele>98.8</ele>
        <time>2013-04-03T18:50:09.000Z</time>
      </trkpt>
      <trkpt lat="48.82824" lon="2.35846">
        <ele>99.1</ele>
        <time>2013-04-03T18:50:10.000Z</time>
      </trkpt>
      <trkpt lat="48.82822" lon="2.35849">
        <ele>98.9</ele>
        <time>2013-04-03T18:50:12.000Z</time>
      </trkpt>
      <trkpt lat="48.82821" lon="2.35851">
        <ele>99.6</ele>
        <time>2013-04-03T18:50:13.000Z</time>
      </trkpt>
      <trkpt lat="48.82818" lon="2.35856">
        <ele>99</ele>
        <time>2013-04-03T18:50:16.000Z</time>
      </trkpt>
      <trkpt lat="48.82818" lon="2.35857">
        <ele>98.7</ele>
        <time>2013-04-03T18:50:17.000Z</time>
      </trkpt>
      <trkpt lat="48.82816" lon="2.35854">
        <ele>100.2</ele>
        <time>2013-04-03T18:51:01.000Z</time>
      </trkpt>
      <trkpt lat="48.82815" lon="2.35851">
        <ele>99.6</ele>
        <time>2013-04-03T18:51:02.000Z</time>
      </trkpt>
      <trkpt lat="48.82814" lon="2.35845">
        <ele>100.1</ele>
        <time>2013-04-03T18:51:05.000Z</time>
      </trkpt>
      <trkpt lat="48.82814" lon="2.35843">
        <ele>100.5</ele>
        <time>2013-04-03T18:51:06.000Z</time>
      </trkpt>
      <trkpt lat="48.82811" lon="2.35843">
        <ele>101.9</ele>
        <time>2013-04-03T18:51:08.000Z</time>
      </trkpt>
      <trkpt lat="48.82809" lon="2.35843">
        <ele>102.1</ele>
        <time>2013-04-03T18:51:09.000Z</time>
      </trkpt>
      <trkpt lat="48.82805" lon="2.35846">
        <ele>101</ele>
        <time>2013-04-03T18:51:12.000Z</time>
      </trkpt>
      <trkpt lat="48.82804" lon="2.35847">
        <ele>100.6</ele>
        <time>2013-04-03T18:51:13.000Z</time>
      </trkpt>
      <trkpt lat="48.82801" lon="2.35849">
        <ele>101.3</ele>
        <time>2013-04-03T18:51:15.000Z</time>
      </trkpt>
      <trkpt lat="48.828" lon="2.3585">
        <ele>102.2</ele>
        <time>2013-04-03T18:51:16.000Z</time>
      </trkpt>
      <trkpt lat="48.82796" lon="2.35852">
        <ele>102.4</ele>
        <time>2013-04-03T18:51:18.000Z</time>
      </trkpt>
      <trkpt lat="48.82794" lon="2.35854">
        <ele>102.8</ele>
        <time>2013-04-03T18:51:19.000Z</time>
      </trkpt>
      <trkpt lat="48.8279" lon="2.35855">
        <ele>103.6</ele>
        <time>2013-04-03T18:51:21.000Z</time>
      </trkpt>
      <trkpt lat="48.82788" lon="2.35856">
        <ele>103.8</ele>
        <time>2013-04-03T18:51:22.000Z</time>
      </trkpt>
      <trkpt lat="48.82785" lon="2.35859">
        <ele>103.2</ele>
        <time>2013-04-03T18:51:24.000Z</time>
      </trkpt>
      <trkpt lat="48.82783" lon="2.3586">
        <ele>103.6</ele>
        <time>2013-04-03T18:51:25.000Z</time>
      </trkpt>
      <trkpt lat="48.82779" lon="2.35863">
        <ele>103.8</ele>
        <time>2013-04-03T18:51:27.000Z</time>
      </trkpt>
      <trkpt lat="48.82776" lon="2.35865">
        <ele>104.1</ele>
        <time>2013-04-03T18:51:28.000Z</time>
      </trkpt>
      <trkpt lat="48.82774" lon="2.35867">
        <ele>105.3</ele>
        <time>2013-04-03T18:51:29.000Z</time>
      </trkpt>
      <trkpt lat="48.82771" lon="2.3587">
        <ele>106</ele>
        <time>2013-04-03T18:51:30.000Z</time>
      </trkpt>
      <trkpt lat="48.82768" lon="2.35873">
        <ele>106.8</ele>
        <time>2013-04-03T18:51:31.000Z</time>
      </trkpt>
      <trkpt lat="48.82766" lon="2.35875">
        <ele>107.3</ele>
        <time>2013-04-03T18:51:32.000Z</time>
      </trkpt>
      <trkpt lat="48.82764" lon="2.35877">
        <ele>106.8</ele>
        <time>2013-04-03T18:51:33.000Z</time>
      </trkpt>
      <trkpt lat="48.82762" lon="2.35879">
        <ele>106.5</ele>
        <time>2013-04-03T18:51:34.000Z</time>
      </trkpt>
      <trkpt lat="48.8276" lon="2.35881">
        <ele>107.3</ele>
        <time>2013-04-03T18:51:35.000Z</time>
      </trkpt>
      <trkpt lat="48.82758" lon="2.35883">
        <ele>107.5</ele>
        <time>2013-04-03T18:51:36.000Z</time>
      </trkpt>
      <trkpt lat="48.82755" lon="2.35888">
        <ele>109</ele>
        <time>2013-04-03T18:51:38.000Z</time>
      </trkpt>
      <trkpt lat="48.82753" lon="2.3589">
        <ele>109.4</ele>
        <time>2013-04-03T18:51:39.000Z</time>
      </trkpt>
      <trkpt lat="48.82751" lon="2.35892">
        <ele>110.3</ele>
        <time>2013-04-03T18:51:40.000Z</time>
      </trkpt>
      <trkpt lat="48.82749" lon="2.35895">
        <ele>110.5</ele>
        <time>2013-04-03T18:51:41.000Z</time>
      </trkpt>
      <trkpt lat="48.82747" lon="2.35898">
        <ele>111.4</ele>
        <time>2013-04-03T18:51:42.000Z</time>
      </trkpt>
      <trkpt lat="48.82745" lon="2.35902">
        <ele>112.4</ele>
        <time>2013-04-03T18:51:43.000Z</time>
      </trkpt>
      <trkpt lat="48.82742" lon="2.35905">
        <ele>112.3</ele>
        <time>2013-04-03T18:51:44.000Z</time>
      </trkpt>
      <trkpt lat="48.82739" lon="2.35908">
        <ele>112.3</ele>
        <time>2013-04-03T18:51:45.000Z</time>
      </trkpt>
      <trkpt lat="48.82737" lon="2.3591">
        <ele>112.6</ele>
        <time>2013-04-03T18:51:46.000Z</time>
      </trkpt>
      <trkpt lat="48.82735" lon="2.35912">
        <ele>112.5</ele>
        <time>2013-04-03T18:51:47.000Z</time>
      </trkpt>
      <trkpt lat="48.82731" lon="2.35908">
        <ele>110.8</ele>
        <time>2013-04-03T18:51:52.000Z</time>
      </trkpt>
      <trkpt lat="48.8273" lon="2.35905">
        <ele>110.8</ele>
        <time>2013-04-03T18:51:53.865Z</time>
      </trkpt>
      <trkpt lat="48.82729" lon="2.359">
        <ele>110.4</ele>
        <time>2013-04-03T18:51:57.000Z</time>
      </trkpt>
      <trkpt lat="48.82728" lon="2.35897">
        <ele>106.8</ele>
        <time>2013-04-03T18:51:58.000Z</time>
      </trkpt>
      <trkpt lat="48.82726" lon="2.35894">
        <ele>104.4</ele>
        <time>2013-04-03T18:51:59.000Z</time>
      </trkpt>
      <trkpt lat="48.82725" lon="2.35891">
        <ele>103.1</ele>
        <time>2013-04-03T18:52:00.000Z</time>
      </trkpt>
      <trkpt lat="48.82723" lon="2.35885">
        <ele>102.3</ele>
        <time>2013-04-03T18:52:02.000Z</time>
      </trkpt>
      <trkpt lat="48.82723" lon="2.35881">
        <ele>101.2</ele>
        <time>2013-04-03T18:52:03.000Z</time>
      </trkpt>
      <trkpt lat="48.82722" lon="2.35877">
        <ele>100.1</ele>
        <time>2013-04-03T18:52:04.000Z</time>
      </trkpt>
      <trkpt lat="48.82721" lon="2.35872">
        <ele>97.8</ele>
        <time>2013-04-03T18:52:05.000Z</time>
      </trkpt>
      <trkpt lat="48.82721" lon="2.35866">
        <ele>95.7</ele>
        <time>2013-04-03T18:52:06.000Z</time>
      </trkpt>
      <trkpt lat="48.8272" lon="2.35861">
        <ele>94.3</ele>
        <time>2013-04-03T18:52:07.000Z</time>
      </trkpt>
      <trkpt lat="48.82719" lon="2.35856">
        <ele>93.2</ele>
        <time>2013-04-03T18:52:08.000Z</time>
      </trkpt>
      <trkpt lat="48.82718" lon="2.35851">
        <ele>91</ele>
        <time>2013-04-03T18:52:09.000Z</time>
      </trkpt>
      <trkpt lat="48.82717" lon="2.35847">
        <ele>90.7</ele>
        <time>2013-04-03T18:52:10.000Z</time>
      </trkpt>
      <trkpt lat="48.82716" lon="2.35842">
        <ele>91.6</ele>
        <time>2013-04-03T18:52:11.000Z</time>
      </trkpt>
      <trkpt lat="48.82715" lon="2.35837">
        <ele>91.1</ele>
        <time>2013-04-03T18:52:12.000Z</time>
      </trkpt>
      <trkpt lat="48.82713" lon="2.35832">
        <ele>91.6</ele>
        <time>2013-04-03T18:52:13.000Z</time>
      </trkpt>
      <trkpt lat="48.82712" lon="2.35827">
        <ele>92.8</ele>
        <time>2013-04-03T18:52:14.000Z</time>
      </trkpt>
      <trkpt lat="48.8271" lon="2.35821">
        <ele>93.6</ele>
        <time>2013-04-03T18:52:15.000Z</time>
      </trkpt>
      <trkpt lat="48.82707" lon="2.35816">
        <ele>93.1</ele>
        <time>2013-04-03T18:52:16.000Z</time>
      </trkpt>
      <trkpt lat="48.82705" lon="2.35811">
        <ele>93.2</ele>
        <time>2013-04-03T18:52:17.000Z</time>
      </trkpt>
      <trkpt lat="48.82703" lon="2.35807">
        <ele>93.7</ele>
        <time>2013-04-03T18:52:18.000Z</time>
      </trkpt>
      <trkpt lat="48.82702" lon="2.35802">
        <ele>94.4</ele>
        <time>2013-04-03T18:52:19.000Z</time>
      </trkpt>
      <trkpt lat="48.827" lon="2.35798">
        <ele>94.6</ele>
        <time>2013-04-03T18:52:20.000Z</time>
      </trkpt>
      <trkpt lat="48.827" lon="2.35794">
        <ele>97.3</ele>
        <time>2013-04-03T18:52:21.000Z</time>
      </trkpt>
      <trkpt lat="48.82704" lon="2.35791">
        <ele>96.7</ele>
        <time>2013-04-03T18:52:22.000Z</time>
      </trkpt>
      <trkpt lat="48.82707" lon="2.35789">
        <ele>95.7</ele>
        <time>2013-04-03T18:52:23.000Z</time>
      </trkpt>
      <trkpt lat="48.82709" lon="2.35786">
        <ele>95.4</ele>
        <time>2013-04-03T18:52:24.000Z</time>
      </trkpt>
      <trkpt lat="48.82711" lon="2.35783">
        <ele>94.1</ele>
        <time>2013-04-03T18:52:25.000Z</time>
      </trkpt>
      <trkpt lat="48.82711" lon="2.35777">
        <ele>94.2</ele>
        <time>2013-04-03T18:52:29.000Z</time>
      </trkpt>
      <trkpt lat="48.8271" lon="2.35775">
        <ele>94.9</ele>
        <time>2013-04-03T18:52:30.000Z</time>
      </trkpt>
      <trkpt lat="48.8271" lon="2.3577">
        <ele>93.1</ele>
        <time>2013-04-03T18:52:32.000Z</time>
      </trkpt>
      <trkpt lat="48.82709" lon="2.35767">
        <ele>93.6</ele>
        <time>2013-04-03T18:52:33.000Z</time>
      </trkpt>
      <trkpt lat="48.82709" lon="2.35762">
        <ele>89.7</ele>
        <time>2013-04-03T18:52:35.000Z</time>
      </trkpt>
      <trkpt lat="48.82708" lon="2.35759">
        <ele>88</ele>
        <time>2013-04-03T18:52:36.000Z</time>
      </trkpt>
      <trkpt lat="48.82706" lon="2.35756">
        <ele>84.6</ele>
        <time>2013-04-03T18:52:37.000Z</time>
      </trkpt>
      <trkpt lat="48.82704" lon="2.35753">
        <ele>83.7</ele>
        <time>2013-04-03T18:52:38.000Z</time>
      </trkpt>
      <trkpt lat="48.82701" lon="2.35751">
        <ele>80.3</ele>
        <time>2013-04-03T18:52:40.000Z</time>
      </trkpt>
      <trkpt lat="48.827" lon="2.35751">
        <ele>81</ele>
        <time>2013-04-03T18:52:41.000Z</time>
      </trkpt>
      <trkpt lat="48.82697" lon="2.3575">
        <ele>80.2</ele>
        <time>2013-04-03T18:52:43.000Z</time>
      </trkpt>
      <trkpt lat="48.82695" lon="2.35748">
        <ele>79.3</ele>
        <time>2013-04-03T18:52:44.000Z</time>
      </trkpt>
      <trkpt lat="48.82691" lon="2.35744">
        <ele>78.8</ele>
        <time>2013-04-03T18:52:48.000Z</time>
      </trkpt>
      <trkpt lat="48.82691" lon="2.35743">
        <ele>79.7</ele>
        <time>2013-04-03T18:52:49.000Z</time>
      </trkpt>
      <trkpt lat="48.82688" lon="2.3574">
        <ele>82</ele>
        <time>2013-04-03T18:52:58.000Z</time>
      </trkpt>
      <trkpt lat="48.82687" lon="2.35739">
        <ele>84</ele>
        <time>2013-04-03T18:52:59.000Z</time>
      </trkpt>
      <trkpt lat="48.82683" lon="2.35738">
        <ele>87.8</ele>
        <time>2013-04-03T18:53:01.000Z</time>
      </trkpt>
      <trkpt lat="48.82681" lon="2.35737">
        <ele>88.4</ele>
        <time>2013-04-03T18:53:02.000Z</time>
      </trkpt>
      <trkpt lat="48.82677" lon="2.35737">
        <ele>87.8</ele>
        <time>2013-04-03T18:53:04.000Z</time>
      </trkpt>
      <trkpt lat="48.82675" lon="2.35737">
        <ele>87.2</ele>
        <time>2013-04-03T18:53:05.000Z</time>
      </trkpt>
      <trkpt lat="48.82671" lon="2.35739">
        <ele>87.3</ele>
        <time>2013-04-03T18:53:07.000Z</time>
      </trkpt>
      <trkpt lat="48.82669" lon="2.35739">
        <ele>87.6</ele>
        <time>2013-04-03T18:53:08.000Z</time>
      </trkpt>
      <trkpt lat="48.82665" lon="2.35739">
        <ele>87.5</ele>
        <time>2013-04-03T18:53:10.000Z</time>
      </trkpt>
      <trkpt lat="48.82663" lon="2.35739">
        <ele>88.1</ele>
        <time>2013-04-03T18:53:11.000Z</time>
      </trkpt>
      <trkpt lat="48.8266" lon="2.35739">
        <ele>87.6</ele>
        <time>2013-04-03T18:53:13.000Z</time>
      </trkpt>
      <trkpt lat="48.82658" lon="2.35739">
        <ele>87.3</ele>
        <time>2013-04-03T18:53:14.000Z</time>
      </trkpt>
      <trkpt lat="48.82655" lon="2.35738">
        <ele>91.3</ele>
        <time>2013-04-03T18:53:16.000Z</time>
      </trkpt>
      <trkpt lat="48.82654" lon="2.35738">
        <ele>93.4</ele>
        <time>2013-04-03T18:53:17.000Z</time>
      </trkpt>
      <trkpt lat="48.8265" lon="2.35739">
        <ele>96.9</ele>
        <time>2013-04-03T18:53:19.000Z</time>
      </trkpt>
      <trkpt lat="48.82648" lon="2.3574">
        <ele>97.8</ele>
        <time>2013-04-03T18:53:20.000Z</time>
      </trkpt>
      <trkpt lat="48.82644" lon="2.3574">
        <ele>100.6</ele>
        <time>2013-04-03T18:53:22.000Z</time>
      </trkpt>
      <trkpt lat="48.82642" lon="2.3574">
        <ele>101.3</ele>
        <time>2013-04-03T18:53:23.000Z</time>
      </trkpt>
      <trkpt lat="48.82639" lon="2.3574">
        <ele>103.1</ele>
        <time>2013-04-03T18:53:24.000Z</time>
      </trkpt>
      <trkpt lat="48.82637" lon="2.3574">
        <ele>103.5</ele>
        <time>2013-04-03T18:53:25.000Z</time>
      </trkpt>
      <trkpt lat="48.82633" lon="2.35739">
        <ele>106.1</ele>
        <time>2013-04-03T18:53:27.000Z</time>
      </trkpt>
      <trkpt lat="48.82632" lon="2.35739">
        <ele>106.8</ele>
        <time>2013-04-03T18:53:28.000Z</time>
      </trkpt>
      <trkpt lat="48.82628" lon="2.35737">
        <ele>111.7</ele>
        <time>2013-04-03T18:53:40.000Z</time>
      </trkpt>
      <trkpt lat="48.82627" lon="2.35736">
        <ele>112.8</ele>
        <time>2013-04-03T18:53:41.000Z</time>
      </trkpt>
      <trkpt lat="48.82625" lon="2.35732">
        <ele>116.1</ele>
        <time>2013-04-03T18:54:02.000Z</time>
      </trkpt>
      <trkpt lat="48.82625" lon="2.3573">
        <ele>116.6</ele>
        <time>2013-04-03T18:54:03.000Z</time>
      </trkpt>
      <trkpt lat="48.82623" lon="2.35724">
        <ele>116.2</ele>
        <time>2013-04-03T18:54:06.000Z</time>
      </trkpt>
      <trkpt lat="48.82623" lon="2.35722">
        <ele>116.4</ele>
        <time>2013-04-03T18:54:07.000Z</time>
      </trkpt>
      <trkpt lat="48.82622" lon="2.35717">
        <ele>116.6</ele>
        <time>2013-04-03T18:54:09.000Z</time>
      </trkpt>
      <trkpt lat="48.82622" lon="2.35715">
        <ele>116.5</ele>
        <time>2013-04-03T18:54:10.000Z</time>
      </trkpt>
      <trkpt lat="48.82621" lon="2.35709">
        <ele>114.4</ele>
        <time>2013-04-03T18:54:12.000Z</time>
      </trkpt>
      <trkpt lat="48.8262" lon="2.35706">
        <ele>109.5</ele>
        <time>2013-04-03T18:54:13.000Z</time>
      </trkpt>
      <trkpt lat="48.82622" lon="2.35701">
        <ele>103.4</ele>
        <time>2013-04-03T18:54:17.000Z</time>
      </trkpt>
      <trkpt lat="48.82623" lon="2.357">
        <ele>102.9</ele>
        <time>2013-04-03T18:54:18.000Z</time>
      </trkpt>
      <trkpt lat="48.82625" lon="2.35696">
        <ele>99.7</ele>
        <time>2013-04-03T18:54:25.000Z</time>
      </trkpt>
      <trkpt lat="48.82626" lon="2.35695">
        <ele>98</ele>
        <time>2013-04-03T18:54:26.000Z</time>
      </trkpt>
      <trkpt lat="48.82628" lon="2.35689">
        <ele>95.8</ele>
        <time>2013-04-03T18:54:31.000Z</time>
      </trkpt>
      <trkpt lat="48.82628" lon="2.35688">
        <ele>95.9</ele>
        <time>2013-04-03T18:54:32.000Z</time>
      </trkpt>
      <trkpt lat="48.82628" lon="2.35682">
        <ele>98.2</ele>
        <time>2013-04-03T18:54:34.000Z</time>
      </trkpt>
      <trkpt lat="48.82629" lon="2.35679">
        <ele>97.1</ele>
        <time>2013-04-03T18:54:35.000Z</time>
      </trkpt>
      <trkpt lat="48.82629" lon="2.35672">
        <ele>95.6</ele>
        <time>2013-04-03T18:54:37.000Z</time>
      </trkpt>
      <trkpt lat="48.82628" lon="2.35669">
        <ele>95.2</ele>
        <time>2013-04-03T18:54:38.000Z</time>
      </trkpt>
      <trkpt lat="48.82628" lon="2.35665">
        <ele>94.8</ele>
        <time>2013-04-03T18:54:39.000Z</time>
      </trkpt>
      <trkpt lat="48.82628" lon="2.35661">
        <ele>94.7</ele>
        <time>2013-04-03T18:54:40.000Z</time>
      </trkpt>
      <trkpt lat="48.82627" lon="2.35657">
        <ele>94.6</ele>
        <time>2013-04-03T18:54:41.000Z</time>
      </trkpt>
      <trkpt lat="48.82627" lon="2.35652">
        <ele>94.5</ele>
        <time>2013-04-03T18:54:42.000Z</time>
      </trkpt>
      <trkpt lat="48.82626" lon="2.35648">
        <ele>94.8</ele>
        <time>2013-04-03T18:54:43.000Z</time>
      </trkpt>
      <trkpt lat="48.82626" lon="2.35644">
        <ele>94</ele>
        <time>2013-04-03T18:54:44.000Z</time>
      </trkpt>
      <trkpt lat="48.82627" lon="2.3564">
        <ele>93.6</ele>
        <time>2013-04-03T18:54:45.000Z</time>
      </trkpt>
      <trkpt lat="48.82628" lon="2.35636">
        <ele>93</ele>
        <time>2013-04-03T18:54:46.000Z</time>
      </trkpt>
      <trkpt lat="48.82629" lon="2.35632">
        <ele>93.1</ele>
        <time>2013-04-03T18:54:47.000Z</time>
      </trkpt>
      <trkpt lat="48.8263" lon="2.35628">
        <ele>92.8</ele>
        <time>2013-04-03T18:54:48.000Z</time>
      </trkpt>
      <trkpt lat="48.82631" lon="2.35625">
        <ele>92.1</ele>
        <time>2013-04-03T18:54:49.000Z</time>
      </trkpt>
      <trkpt lat="48.82632" lon="2.35621">
        <ele>92.4</ele>
        <time>2013-04-03T18:54:50.000Z</time>
      </trkpt>
      <trkpt lat="48.82633" lon="2.35616">
        <ele>92.6</ele>
        <time>2013-04-03T18:54:51.000Z</time>
      </trkpt>
      <trkpt lat="48.82634" lon="2.35612">
        <ele>93.4</ele>
        <time>2013-04-03T18:54:52.000Z</time>
      </trkpt>
      <trkpt lat="48.82635" lon="2.35606">
        <ele>93.5</ele>
        <time>2013-04-03T18:54:54.097Z</time>
      </trkpt>
      <trkpt lat="48.82635" lon="2.35602">
        <ele>93.6</ele>
        <time>2013-04-03T18:54:55.000Z</time>
      </trkpt>
      <trkpt lat="48.82635" lon="2.35597">
        <ele>93.8</ele>
        <time>2013-04-03T18:54:56.000Z</time>
      </trkpt>
      <trkpt lat="48.82635" lon="2.35591">
        <ele>93.5</ele>
        <time>2013-04-03T18:54:57.000Z</time>
      </trkpt>
      <trkpt lat="48.82635" lon="2.35586">
        <ele>92.4</ele>
        <time>2013-04-03T18:54:58.000Z</time>
      </trkpt>
      <trkpt lat="48.82636" lon="2.35581">
        <ele>92.6</ele>
        <time>2013-04-03T18:54:59.000Z</time>
      </trkpt>
      <trkpt lat="48.82637" lon="2.35575">
        <ele>91.6</ele>
        <time>2013-04-03T18:55:00.000Z</time>
      </trkpt>
      <trkpt lat="48.82637" lon="2.3557">
        <ele>91.5</ele>
        <time>2013-04-03T18:55:01.000Z</time>
      </trkpt>
      <trkpt lat="48.82638" lon="2.35564">
        <ele>90.6</ele>
        <time>2013-04-03T18:55:02.000Z</time>
      </trkpt>
      <trkpt lat="48.82638" lon="2.35559">
        <ele>91.1</ele>
        <time>2013-04-03T18:55:03.000Z</time>
      </trkpt>
      <trkpt lat="48.82636" lon="2.35554">
        <ele>89</ele>
        <time>2013-04-03T18:55:04.000Z</time>
      </trkpt>
      <trkpt lat="48.82634" lon="2.35549">
        <ele>89.4</ele>
        <time>2013-04-03T18:55:05.000Z</time>
      </trkpt>
      <trkpt lat="48.82632" lon="2.35544">
        <ele>95.4</ele>
        <time>2013-04-03T18:55:06.000Z</time>
      </trkpt>
      <trkpt lat="48.82631" lon="2.35539">
        <ele>94.4</ele>
        <time>2013-04-03T18:55:07.000Z</time>
      </trkpt>
      <trkpt lat="48.8263" lon="2.35535">
        <ele>93.6</ele>
        <time>2013-04-03T18:55:08.000Z</time>
      </trkpt>
      <trkpt lat="48.82629" lon="2.35531">
        <ele>92.5</ele>
        <time>2013-04-03T18:55:09.000Z</time>
      </trkpt>
      <trkpt lat="48.82628" lon="2.35526">
        <ele>91.1</ele>
        <time>2013-04-03T18:55:10.000Z</time>
      </trkpt>
      <trkpt lat="48.82627" lon="2.35523">
        <ele>90.9</ele>
        <time>2013-04-03T18:55:11.000Z</time>
      </trkpt>
      <trkpt lat="48.82627" lon="2.35517">
        <ele>90.2</ele>
        <time>2013-04-03T18:55:13.000Z</time>
      </trkpt>
      <trkpt lat="48.82627" lon="2.35513">
        <ele>89.2</ele>
        <time>2013-04-03T18:55:14.000Z</time>
      </trkpt>
      <trkpt lat="48.82628" lon="2.35507">
        <ele>88.2</ele>
        <time>2013-04-03T18:55:16.000Z</time>
      </trkpt>
      <trkpt lat="48.82629" lon="2.35504">
        <ele>88</ele>
        <time>2013-04-03T18:55:17.000Z</time>
      </trkpt>
      <trkpt lat="48.82629" lon="2.35498">
        <ele>87.8</ele>
        <time>2013-04-03T18:55:19.000Z</time>
      </trkpt>
      <trkpt lat="48.82629" lon="2.35495">
        <ele>87.4</ele>
        <time>2013-04-03T18:55:20.000Z</time>
      </trkpt>
      <trkpt lat="48.8263" lon="2.35488">
        <ele>86.1</ele>
        <time>2013-04-03T18:55:22.000Z</time>
      </trkpt>
      <trkpt lat="48.8263" lon="2.35483">
        <ele>85.3</ele>
        <time>2013-04-03T18:55:23.000Z</time>
      </trkpt>
      <trkpt lat="48.82629" lon="2.35479">
        <ele>85.9</ele>
        <time>2013-04-03T18:55:24.000Z</time>
      </trkpt>
      <trkpt lat="48.82629" lon="2.35474">
        <ele>86.3</ele>
        <time>2013-04-03T18:55:25.000Z</time>
      </trkpt>
      <trkpt lat="48.82628" lon="2.3547">
        <ele>86.7</ele>
        <time>2013-04-03T18:55:26.000Z</time>
      </trkpt>
      <trkpt lat="48.82628" lon="2.35466">
        <ele>87.1</ele>
        <time>2013-04-03T18:55:27.000Z</time>
      </trkpt>
      <trkpt lat="48.82626" lon="2.3546">
        <ele>85</ele>
        <time>2013-04-03T18:55:29.000Z</time>
      </trkpt>
      <trkpt lat="48.82626" lon="2.35458">
        <ele>84.4</ele>
        <time>2013-04-03T18:55:30.000Z</time>
      </trkpt>
      <trkpt lat="48.82624" lon="2.35452">
        <ele>85.6</ele>
        <time>2013-04-03T18:55:32.000Z</time>
      </trkpt>
      <trkpt lat="48.82623" lon="2.35449">
        <ele>86.3</ele>
        <time>2013-04-03T18:55:33.000Z</time>
      </trkpt>
      <trkpt lat="48.82622" lon="2.35446">
        <ele>86.4</ele>
        <time>2013-04-03T18:55:34.000Z</time>
      </trkpt>
      <trkpt lat="48.82621" lon="2.35442">
        <ele>86.3</ele>
        <time>2013-04-03T18:55:35.000Z</time>
      </trkpt>
      <trkpt lat="48.8262" lon="2.35439">
        <ele>87.1</ele>
        <time>2013-04-03T18:55:36.000Z</time>
      </trkpt>
      <trkpt lat="48.82619" lon="2.35435">
        <ele>87.1</ele>
        <time>2013-04-03T18:55:37.000Z</time>
      </trkpt>
      <trkpt lat="48.82618" lon="2.35432">
        <ele>86.9</ele>
        <time>2013-04-03T18:55:38.000Z</time>
      </trkpt>
      <trkpt lat="48.82617" lon="2.35428">
        <ele>87.2</ele>
        <time>2013-04-03T18:55:39.000Z</time>
      </trkpt>
      <trkpt lat="48.82616" lon="2.35424">
        <ele>87.9</ele>
        <time>2013-04-03T18:55:40.000Z</time>
      </trkpt>
      <trkpt lat="48.82615" lon="2.35421">
        <ele>87.9</ele>
        <time>2013-04-03T18:55:41.000Z</time>
      </trkpt>
      <trkpt lat="48.82614" lon="2.35417">
        <ele>88.9</ele>
        <time>2013-04-03T18:55:42.000Z</time>
      </trkpt>
      <trkpt lat="48.82613" lon="2.35414">
        <ele>89.3</ele>
        <time>2013-04-03T18:55:43.000Z</time>
      </trkpt>
      <trkpt lat="48.82612" lon="2.3541">
        <ele>89.7</ele>
        <time>2013-04-03T18:55:44.000Z</time>
      </trkpt>
      <trkpt lat="48.8261" lon="2.35407">
        <ele>91.7</ele>
        <time>2013-04-03T18:55:45.000Z</time>
      </trkpt>
      <trkpt lat="48.82608" lon="2.35402">
        <ele>95.3</ele>
        <time>2013-04-03T18:55:47.000Z</time>
      </trkpt>
      <trkpt lat="48.82608" lon="2.354">
        <ele>95.8</ele>
        <time>2013-04-03T18:55:48.000Z</time>
      </trkpt>
      <trkpt lat="48.82609" lon="2.35395">
        <ele>97.3</ele>
        <time>2013-04-03T18:55:50.000Z</time>
      </trkpt>
      <trkpt lat="48.82608" lon="2.35393">
        <ele>96.9</ele>
        <time>2013-04-03T18:55:51.000Z</time>
      </trkpt>
      <trkpt lat="48.82608" lon="2.3539">
        <ele>97.5</ele>
        <time>2013-04-03T18:55:52.000Z</time>
      </trkpt>
      <trkpt lat="48.82607" lon="2.35384">
        <ele>98.3</ele>
        <time>2013-04-03T18:55:55.000Z</time>
      </trkpt>
      <trkpt lat="48.82605" lon="2.3538">
        <ele>100.9</ele>
        <time>2013-04-03T18:55:57.000Z</time>
      </trkpt>
      <trkpt lat="48.82604" lon="2.35378">
        <ele>101.5</ele>
        <time>2013-04-03T18:55:58.000Z</time>
      </trkpt>
      <trkpt lat="48.82599" lon="2.35375">
        <ele>105.1</ele>
        <time>2013-04-03T18:56:05.000Z</time>
      </trkpt>
      <trkpt lat="48.82599" lon="2.35375">
        <ele>105</ele>
        <time>2013-04-03T18:56:06.000Z</time>
      </trkpt>
      <trkpt lat="48.82597" lon="2.3537">
        <ele>103.7</ele>
        <time>2013-04-03T18:56:45.000Z</time>
      </trkpt>
      <trkpt lat="48.82597" lon="2.35368">
        <ele>103.3</ele>
        <time>2013-04-03T18:56:46.000Z</time>
      </trkpt>
      <trkpt lat="48.82596" lon="2.35364">
        <ele>103.7</ele>
        <time>2013-04-03T18:56:48.000Z</time>
      </trkpt>
      <trkpt lat="48.82596" lon="2.35361">
        <ele>102.9</ele>
        <time>2013-04-03T18:56:49.000Z</time>
      </trkpt>
      <trkpt lat="48.82596" lon="2.35354">
        <ele>103.6</ele>
        <time>2013-04-03T18:56:51.000Z</time>
      </trkpt>
      <trkpt lat="48.82596" lon="2.35351">
        <ele>104.3</ele>
        <time>2013-04-03T18:56:52.000Z</time>
      </trkpt>
      <trkpt lat="48.82596" lon="2.35343">
        <ele>105.1</ele>
        <time>2013-04-03T18:56:55.000Z</time>
      </trkpt>
      <trkpt lat="48.82597" lon="2.35339">
        <ele>106</ele>
        <time>2013-04-03T18:56:57.000Z</time>
      </trkpt>
      <trkpt lat="48.82598" lon="2.35336">
        <ele>106.5</ele>
        <time>2013-04-03T18:56:58.000Z</time>
      </trkpt>
      <trkpt lat="48.82599" lon="2.3533">
        <ele>105.8</ele>
        <time>2013-04-03T18:57:00.000Z</time>
      </trkpt>
      <trkpt lat="48.826" lon="2.35327">
        <ele>105.8</ele>
        <time>2013-04-03T18:57:01.000Z</time>
      </trkpt>
      <trkpt lat="48.826" lon="2.35323">
        <ele>106</ele>
        <time>2013-04-03T18:57:02.000Z</time>
      </trkpt>
      <trkpt lat="48.82599" lon="2.35319">
        <ele>106.2</ele>
        <time>2013-04-03T18:57:03.000Z</time>
      </trkpt>
      <trkpt lat="48.82599" lon="2.35315">
        <ele>106.6</ele>
        <time>2013-04-03T18:57:04.000Z</time>
      </trkpt>
      <trkpt lat="48.82599" lon="2.35312">
        <ele>106.6</ele>
        <time>2013-04-03T18:57:05.000Z</time>
      </trkpt>
      <trkpt lat="48.82595" lon="2.35311">
        <ele>109</ele>
        <time>2013-04-03T18:57:13.000Z</time>
      </trkpt>
      <trkpt lat="48.82594" lon="2.35311">
        <ele>109</ele>
        <time>2013-04-03T18:57:14.000Z</time>
      </trkpt>
      <trkpt lat="48.82591" lon="2.35306">
        <ele>108.9</ele>
        <time>2013-04-03T18:57:26.000Z</time>
      </trkpt>
      <trkpt lat="48.82592" lon="2.35303">
        <ele>107.8</ele>
        <time>2013-04-03T18:57:27.000Z</time>
      </trkpt>
      <trkpt lat="48.82592" lon="2.35299">
        <ele>105</ele>
        <time>2013-04-03T18:57:28.000Z</time>
      </trkpt>
      <trkpt lat="48.82592" lon="2.35295">
        <ele>103.3</ele>
        <time>2013-04-03T18:57:29.000Z</time>
      </trkpt>
      <trkpt lat="48.82593" lon="2.35291">
        <ele>103.4</ele>
        <time>2013-04-03T18:57:30.000Z</time>
      </trkpt>
      <trkpt lat="48.82594" lon="2.35287">
        <ele>100.7</ele>
        <time>2013-04-03T18:57:31.000Z</time>
      </trkpt>
      <trkpt lat="48.82596" lon="2.35284">
        <ele>100.9</ele>
        <time>2013-04-03T18:57:32.000Z</time>
      </trkpt>
      <trkpt lat="48.82598" lon="2.35281">
        <ele>102</ele>
        <time>2013-04-03T18:57:33.000Z</time>
      </trkpt>
      <trkpt lat="48.826" lon="2.35278">
        <ele>101.6</ele>
        <time>2013-04-03T18:57:34.000Z</time>
      </trkpt>
      <trkpt lat="48.82601" lon="2.35275">
        <ele>101</ele>
        <time>2013-04-03T18:57:35.000Z</time>
      </trkpt>
      <trkpt lat="48.82603" lon="2.35271">
        <ele>100.3</ele>
        <time>2013-04-03T18:57:36.000Z</time>
      </trkpt>
      <trkpt lat="48.82604" lon="2.35267">
        <ele>100.7</ele>
        <time>2013-04-03T18:57:37.000Z</time>
      </trkpt>
      <trkpt lat="48.82604" lon="2.35263">
        <ele>100.6</ele>
        <time>2013-04-03T18:57:38.000Z</time>
      </trkpt>
      <trkpt lat="48.82605" lon="2.35259">
        <ele>99.8</ele>
        <time>2013-04-03T18:57:39.000Z</time>
      </trkpt>
      <trkpt lat="48.82606" lon="2.35255">
        <ele>99.9</ele>
        <time>2013-04-03T18:57:40.000Z</time>
      </trkpt>
      <trkpt lat="48.82606" lon="2.35252">
        <ele>104.8</ele>
        <time>2013-04-03T18:57:41.000Z</time>
      </trkpt>
      <trkpt lat="48.82606" lon="2.35247">
        <ele>103.9</ele>
        <time>2013-04-03T18:57:42.000Z</time>
      </trkpt>
      <trkpt lat="48.82607" lon="2.35244">
        <ele>101.3</ele>
        <time>2013-04-03T18:57:43.000Z</time>
      </trkpt>
      <trkpt lat="48.82608" lon="2.35241">
        <ele>99.6</ele>
        <time>2013-04-03T18:57:44.000Z</time>
      </trkpt>
      <trkpt lat="48.8261" lon="2.35238">
        <ele>98.1</ele>
        <time>2013-04-03T18:57:45.000Z</time>
      </trkpt>
      <trkpt lat="48.82611" lon="2.35235">
        <ele>96.9</ele>
        <time>2013-04-03T18:57:46.000Z</time>
      </trkpt>
      <trkpt lat="48.82611" lon="2.35232">
        <ele>96</ele>
        <time>2013-04-03T18:57:47.000Z</time>
      </trkpt>
      <trkpt lat="48.82611" lon="2.35228">
        <ele>94.6</ele>
        <time>2013-04-03T18:57:48.000Z</time>
      </trkpt>
      <trkpt lat="48.82611" lon="2.35224">
        <ele>94.8</ele>
        <time>2013-04-03T18:57:49.000Z</time>
      </trkpt>
      <trkpt lat="48.82611" lon="2.3522">
        <ele>93</ele>
        <time>2013-04-03T18:57:50.000Z</time>
      </trkpt>
      <trkpt lat="48.82609" lon="2.35217">
        <ele>90.6</ele>
        <time>2013-04-03T18:57:51.000Z</time>
      </trkpt>
      <trkpt lat="48.82608" lon="2.35214">
        <ele>90.1</ele>
        <time>2013-04-03T18:57:52.000Z</time>
      </trkpt>
      <trkpt lat="48.82606" lon="2.35206">
        <ele>90.9</ele>
        <time>2013-04-03T18:57:55.000Z</time>
      </trkpt>
      <trkpt lat="48.82604" lon="2.35203">
        <ele>91.4</ele>
        <time>2013-04-03T18:57:56.000Z</time>
      </trkpt>
      <trkpt lat="48.82603" lon="2.35199">
        <ele>91.1</ele>
        <time>2013-04-03T18:57:57.000Z</time>
      </trkpt>
      <trkpt lat="48.82602" lon="2.35193">
        <ele>91.3</ele>
        <time>2013-04-03T18:57:59.000Z</time>
      </trkpt>
      <trkpt lat="48.82602" lon="2.3519">
        <ele>91</ele>
        <time>2013-04-03T18:58:00.000Z</time>
      </trkpt>
      <trkpt lat="48.82603" lon="2.35183">
        <ele>91</ele>
        <time>2013-04-03T18:58:02.000Z</time>
      </trkpt>
      <trkpt lat="48.82603" lon="2.3518">
        <ele>90.7</ele>
        <time>2013-04-03T18:58:03.000Z</time>
      </trkpt>
      <trkpt lat="48.82603" lon="2.35176">
        <ele>90.1</ele>
        <time>2013-04-03T18:58:04.000Z</time>
      </trkpt>
      <trkpt lat="48.82603" lon="2.35173">
        <ele>90</ele>
        <time>2013-04-03T18:58:05.000Z</time>
      </trkpt>
      <trkpt lat="48.82603" lon="2.35166">
        <ele>90.6</ele>
        <time>2013-04-03T18:58:07.000Z</time>
      </trkpt>
      <trkpt lat="48.82603" lon="2.35163">
        <ele>91.5</ele>
        <time>2013-04-03T18:58:08.000Z</time>
      </trkpt>
      <trkpt lat="48.82604" lon="2.35157">
        <ele>91</ele>
        <time>2013-04-03T18:58:10.000Z</time>
      </trkpt>
      <trkpt lat="48.82605" lon="2.35154">
        <ele>90.3</ele>
        <time>2013-04-03T18:58:11.000Z</time>
      </trkpt>
      <trkpt lat="48.82606" lon="2.35149">
        <ele>90</ele>
        <time>2013-04-03T18:58:13.000Z</time>
      </trkpt>
      <trkpt lat="48.82607" lon="2.35146">
        <ele>89.6</ele>
        <time>2013-04-03T18:58:14.000Z</time>
      </trkpt>
      <trkpt lat="48.82607" lon="2.35142">
        <ele>89.5</ele>
        <time>2013-04-03T18:58:15.000Z</time>
      </trkpt>
      <trkpt lat="48.82607" lon="2.35138">
        <ele>89.4</ele>
        <time>2013-04-03T18:58:16.000Z</time>
      </trkpt>
      <trkpt lat="48.82607" lon="2.35135">
        <ele>90.3</ele>
        <time>2013-04-03T18:58:17.000Z</time>
      </trkpt>
      <trkpt lat="48.82607" lon="2.35131">
        <ele>90</ele>
        <time>2013-04-03T18:58:18.000Z</time>
      </trkpt>
      <trkpt lat="48.82608" lon="2.35127">
        <ele>89.6</ele>
        <time>2013-04-03T18:58:19.000Z</time>
      </trkpt>
      <trkpt lat="48.82608" lon="2.35123">
        <ele>89.1</ele>
        <time>2013-04-03T18:58:20.000Z</time>
      </trkpt>
      <trkpt lat="48.82608" lon="2.3512">
        <ele>88.4</ele>
        <time>2013-04-03T18:58:21.000Z</time>
      </trkpt>
      <trkpt lat="48.82608" lon="2.35115">
        <ele>88.1</ele>
        <time>2013-04-03T18:58:22.000Z</time>
      </trkpt>
      <trkpt lat="48.82609" lon="2.35109">
        <ele>88.2</ele>
        <time>2013-04-03T18:58:23.000Z</time>
      </trkpt>
      <trkpt lat="48.82609" lon="2.35104">
        <ele>88.5</ele>
        <time>2013-04-03T18:58:24.000Z</time>
      </trkpt>
      <trkpt lat="48.8261" lon="2.35101">
        <ele>88.4</ele>
        <time>2013-04-03T18:58:25.000Z</time>
      </trkpt>
      <trkpt lat="48.8261" lon="2.35097">
        <ele>88.6</ele>
        <time>2013-04-03T18:58:26.000Z</time>
      </trkpt>
      <trkpt lat="48.82611" lon="2.35091">
        <ele>88.6</ele>
        <time>2013-04-03T18:58:28.000Z</time>
      </trkpt>
      <trkpt lat="48.82608" lon="2.35087">
        <ele>90.6</ele>
        <time>2013-04-03T18:58:29.000Z</time>
      </trkpt>
      <trkpt lat="48.82606" lon="2.35085">
        <ele>90.8</ele>
        <time>2013-04-03T18:58:30.000Z</time>
      </trkpt>
      <trkpt lat="48.82604" lon="2.35082">
        <ele>90.1</ele>
        <time>2013-04-03T18:58:31.000Z</time>
      </trkpt>
      <trkpt lat="48.82601" lon="2.35077">
        <ele>90.1</ele>
        <time>2013-04-03T18:58:33.000Z</time>
      </trkpt>
      <trkpt lat="48.82599" lon="2.35075">
        <ele>89.4</ele>
        <time>2013-04-03T18:58:34.000Z</time>
      </trkpt>
      <trkpt lat="48.82595" lon="2.35074">
        <ele>86.4</ele>
        <time>2013-04-03T18:59:58.000Z</time>
      </trkpt>
      <trkpt lat="48.82594" lon="2.35072">
        <ele>88.2</ele>
        <time>2013-04-03T18:59:59.000Z</time>
      </trkpt>
      <trkpt lat="48.82592" lon="2.3507">
        <ele>88.2</ele>
        <time>2013-04-03T19:00:00.000Z</time>
      </trkpt>
      <trkpt lat="48.82591" lon="2.35067">
        <ele>89.6</ele>
        <time>2013-04-03T19:00:01.000Z</time>
      </trkpt>
      <trkpt lat="48.82589" lon="2.35063">
        <ele>90.5</ele>
        <time>2013-04-03T19:00:02.000Z</time>
      </trkpt>
      <trkpt lat="48.82588" lon="2.35059">
        <ele>90.3</ele>
        <time>2013-04-03T19:00:03.000Z</time>
      </trkpt>
      <trkpt lat="48.82587" lon="2.35055">
        <ele>89.8</ele>
        <time>2013-04-03T19:00:04.000Z</time>
      </trkpt>
      <trkpt lat="48.82585" lon="2.35052">
        <ele>89.8</ele>
        <time>2013-04-03T19:00:05.000Z</time>
      </trkpt>
      <trkpt lat="48.82584" lon="2.35048">
        <ele>89.4</ele>
        <time>2013-04-03T19:00:06.000Z</time>
      </trkpt>
      <trkpt lat="48.82582" lon="2.35045">
        <ele>89.4</ele>
        <time>2013-04-03T19:00:07.000Z</time>
      </trkpt>
      <trkpt lat="48.82581" lon="2.35039">
        <ele>87.8</ele>
        <time>2013-04-03T19:00:09.000Z</time>
      </trkpt>
      <trkpt lat="48.82581" lon="2.35035">
        <ele>88.2</ele>
        <time>2013-04-03T19:00:10.000Z</time>
      </trkpt>
      <trkpt lat="48.8258" lon="2.35029">
        <ele>89.5</ele>
        <time>2013-04-03T19:00:12.000Z</time>
      </trkpt>
      <trkpt lat="48.8258" lon="2.35026">
        <ele>88.7</ele>
        <time>2013-04-03T19:00:13.000Z</time>
      </trkpt>
      <trkpt lat="48.82581" lon="2.3502">
        <ele>87.6</ele>
        <time>2013-04-03T19:00:16.000Z</time>
      </trkpt>
      <trkpt lat="48.82582" lon="2.35019">
        <ele>87.7</ele>
        <time>2013-04-03T19:00:17.000Z</time>
      </trkpt>
      <trkpt lat="48.82582" lon="2.35013">
        <ele>87.8</ele>
        <time>2013-04-03T19:00:20.000Z</time>
      </trkpt>
      <trkpt lat="48.82582" lon="2.35011">
        <ele>89.6</ele>
        <time>2013-04-03T19:00:21.000Z</time>
      </trkpt>
      <trkpt lat="48.82582" lon="2.35007">
        <ele>89.4</ele>
        <time>2013-04-03T19:00:23.000Z</time>
      </trkpt>
      <trkpt lat="48.82582" lon="2.35004">
        <ele>89.1</ele>
        <time>2013-04-03T19:00:24.000Z</time>
      </trkpt>
      <trkpt lat="48.82582" lon="2.34998">
        <ele>87.1</ele>
        <time>2013-04-03T19:00:26.000Z</time>
      </trkpt>
      <trkpt lat="48.82582" lon="2.34995">
        <ele>87.9</ele>
        <time>2013-04-03T19:00:27.000Z</time>
      </trkpt>
      <trkpt lat="48.82582" lon="2.34989">
        <ele>88.3</ele>
        <time>2013-04-03T19:00:30.000Z</time>
      </trkpt>
      <trkpt lat="48.82583" lon="2.34987">
        <ele>88.2</ele>
        <time>2013-04-03T19:00:31.000Z</time>
      </trkpt>
      <trkpt lat="48.82586" lon="2.34986">
        <ele>90.1</ele>
        <time>2013-04-03T19:00:45.000Z</time>
      </trkpt>
      <trkpt lat="48.82587" lon="2.34987">
        <ele>89.9</ele>
        <time>2013-04-03T19:00:46.000Z</time>
      </trkpt>
      <trkpt lat="48.82587" lon="2.34982">
        <ele>87.9</ele>
        <time>2013-04-03T19:01:06.000Z</time>
      </trkpt>
      <trkpt lat="48.82586" lon="2.34979">
        <ele>87.7</ele>
        <time>2013-04-03T19:01:07.000Z</time>
      </trkpt>
      <trkpt lat="48.82585" lon="2.34973">
        <ele>86.8</ele>
        <time>2013-04-03T19:01:09.000Z</time>
      </trkpt>
      <trkpt lat="48.82584" lon="2.34968">
        <ele>85.7</ele>
        <time>2013-04-03T19:01:10.000Z</time>
      </trkpt>
      <trkpt lat="48.82584" lon="2.34962">
        <ele>86.1</ele>
        <time>2013-04-03T19:01:11.000Z</time>
      </trkpt>
      <trkpt lat="48.82583" lon="2.34956">
        <ele>86.2</ele>
        <time>2013-04-03T19:01:12.000Z</time>
      </trkpt>
      <trkpt lat="48.82583" lon="2.34951">
        <ele>86.9</ele>
        <time>2013-04-03T19:01:13.000Z</time>
      </trkpt>
      <trkpt lat="48.82582" lon="2.34945">
        <ele>87.4</ele>
        <time>2013-04-03T19:01:14.000Z</time>
      </trkpt>
      <trkpt lat="48.82582" lon="2.3494">
        <ele>87.1</ele>
        <time>2013-04-03T19:01:15.000Z</time>
      </trkpt>
      <trkpt lat="48.82582" lon="2.34935">
        <ele>88.1</ele>
        <time>2013-04-03T19:01:16.000Z</time>
      </trkpt>
      <trkpt lat="48.82583" lon="2.34931">
        <ele>87.3</ele>
        <time>2013-04-03T19:01:17.000Z</time>
      </trkpt>
      <trkpt lat="48.82584" lon="2.34928">
        <ele>87.2</ele>
        <time>2013-04-03T19:01:18.000Z</time>
      </trkpt>
      <trkpt lat="48.82585" lon="2.34925">
        <ele>87.5</ele>
        <time>2013-04-03T19:01:19.000Z</time>
      </trkpt>
      <trkpt lat="48.82586" lon="2.34921">
        <ele>87</ele>
        <time>2013-04-03T19:01:20.000Z</time>
      </trkpt>
      <trkpt lat="48.82587" lon="2.34917">
        <ele>87.8</ele>
        <time>2013-04-03T19:01:21.000Z</time>
      </trkpt>
      <trkpt lat="48.82587" lon="2.34913">
        <ele>87.6</ele>
        <time>2013-04-03T19:01:22.000Z</time>
      </trkpt>
      <trkpt lat="48.82587" lon="2.3491">
        <ele>88.6</ele>
        <time>2013-04-03T19:01:23.000Z</time>
      </trkpt>
      <trkpt lat="48.82587" lon="2.34906">
        <ele>89.7</ele>
        <time>2013-04-03T19:01:24.000Z</time>
      </trkpt>
      <trkpt lat="48.82587" lon="2.34902">
        <ele>89.6</ele>
        <time>2013-04-03T19:01:25.000Z</time>
      </trkpt>
      <trkpt lat="48.82586" lon="2.34898">
        <ele>88.7</ele>
        <time>2013-04-03T19:01:26.000Z</time>
      </trkpt>
      <trkpt lat="48.82585" lon="2.34894">
        <ele>89</ele>
        <time>2013-04-03T19:01:27.000Z</time>
      </trkpt>
      <trkpt lat="48.82584" lon="2.34889">
        <ele>88.7</ele>
        <time>2013-04-03T19:01:28.000Z</time>
      </trkpt>
      <trkpt lat="48.82583" lon="2.34885">
        <ele>89.3</ele>
        <time>2013-04-03T19:01:29.000Z</time>
      </trkpt>
      <trkpt lat="48.82583" lon="2.34882">
        <ele>90.2</ele>
        <time>2013-04-03T19:01:30.000Z</time>
      </trkpt>
      <trkpt lat="48.82583" lon="2.34878">
        <ele>88.4</ele>
        <time>2013-04-03T19:01:31.000Z</time>
      </trkpt>
      <trkpt lat="48.82582" lon="2.34874">
        <ele>87.8</ele>
        <time>2013-04-03T19:01:32.000Z</time>
      </trkpt>
      <trkpt lat="48.82581" lon="2.3487">
        <ele>86.3</ele>
        <time>2013-04-03T19:01:33.000Z</time>
      </trkpt>
      <trkpt lat="48.8258" lon="2.34867">
        <ele>87.1</ele>
        <time>2013-04-03T19:01:34.000Z</time>
      </trkpt>
      <trkpt lat="48.82579" lon="2.34862">
        <ele>89.1</ele>
        <time>2013-04-03T19:01:36.000Z</time>
      </trkpt>
      <trkpt lat="48.82578" lon="2.3486">
        <ele>88.1</ele>
        <time>2013-04-03T19:01:37.000Z</time>
      </trkpt>
      <trkpt lat="48.82576" lon="2.34855">
        <ele>89</ele>
        <time>2013-04-03T19:01:39.000Z</time>
      </trkpt>
      <trkpt lat="48.82576" lon="2.34853">
        <ele>89.9</ele>
        <time>2013-04-03T19:01:40.000Z</time>
      </trkpt>
      <trkpt lat="48.82576" lon="2.34848">
        <ele>91.7</ele>
        <time>2013-04-03T19:01:42.000Z</time>
      </trkpt>
      <trkpt lat="48.82576" lon="2.34845">
        <ele>92</ele>
        <time>2013-04-03T19:01:43.000Z</time>
      </trkpt>
      <trkpt lat="48.82576" lon="2.34842">
        <ele>93.7</ele>
        <time>2013-04-03T19:01:44.000Z</time>
      </trkpt>
      <trkpt lat="48.82575" lon="2.34838">
        <ele>93.8</ele>
        <time>2013-04-03T19:01:45.000Z</time>
      </trkpt>
      <trkpt lat="48.82574" lon="2.34832">
        <ele>90.5</ele>
        <time>2013-04-03T19:01:47.000Z</time>
      </trkpt>
      <trkpt lat="48.82574" lon="2.34829">
        <ele>89.2</ele>
        <time>2013-04-03T19:01:48.000Z</time>
      </trkpt>
      <trkpt lat="48.82573" lon="2.34823">
        <ele>87.5</ele>
        <time>2013-04-03T19:01:50.000Z</time>
      </trkpt>
      <trkpt lat="48.82573" lon="2.34821">
        <ele>84.5</ele>
        <time>2013-04-03T19:01:51.000Z</time>
      </trkpt>
      <trkpt lat="48.82572" lon="2.34818">
        <ele>82.6</ele>
        <time>2013-04-03T19:01:52.000Z</time>
      </trkpt>
      <trkpt lat="48.82571" lon="2.34814">
        <ele>81.8</ele>
        <time>2013-04-03T19:01:53.745Z</time>
      </trkpt>
      <trkpt lat="48.82571" lon="2.34808">
        <ele>80.3</ele>
        <time>2013-04-03T19:01:56.000Z</time>
      </trkpt>
      <trkpt lat="48.8257" lon="2.34806">
        <ele>81.4</ele>
        <time>2013-04-03T19:01:57.000Z</time>
      </trkpt>
      <trkpt lat="48.82569" lon="2.34801">
        <ele>83.1</ele>
        <time>2013-04-03T19:01:59.000Z</time>
      </trkpt>
      <trkpt lat="48.82568" lon="2.34799">
        <ele>83.2</ele>
        <time>2013-04-03T19:02:00.000Z</time>
      </trkpt>
      <trkpt lat="48.82568" lon="2.34793">
        <ele>84.8</ele>
        <time>2013-04-03T19:02:02.000Z</time>
      </trkpt>
      <trkpt lat="48.82568" lon="2.34789">
        <ele>85</ele>
        <time>2013-04-03T19:02:03.000Z</time>
      </trkpt>
      <trkpt lat="48.82569" lon="2.34783">
        <ele>85.4</ele>
        <time>2013-04-03T19:02:05.000Z</time>
      </trkpt>
      <trkpt lat="48.82569" lon="2.3478">
        <ele>86.1</ele>
        <time>2013-04-03T19:02:06.000Z</time>
      </trkpt>
      <trkpt lat="48.82568" lon="2.34773">
        <ele>86.8</ele>
        <time>2013-04-03T19:02:08.000Z</time>
      </trkpt>
      <trkpt lat="48.82568" lon="2.3477">
        <ele>87.6</ele>
        <time>2013-04-03T19:02:09.000Z</time>
      </trkpt>
      <trkpt lat="48.82568" lon="2.34765">
        <ele>87.4</ele>
        <time>2013-04-03T19:02:11.000Z</time>
      </trkpt>
      <trkpt lat="48.82568" lon="2.34762">
        <ele>87.9</ele>
        <time>2013-04-03T19:02:12.000Z</time>
      </trkpt>
      <trkpt lat="48.82569" lon="2.34757">
        <ele>86.4</ele>
        <time>2013-04-03T19:02:14.000Z</time>
      </trkpt>
      <trkpt lat="48.82569" lon="2.34754">
        <ele>86.7</ele>
        <time>2013-04-03T19:02:15.000Z</time>
      </trkpt>
      <trkpt lat="48.82571" lon="2.34748">
        <ele>86.2</ele>
        <time>2013-04-03T19:02:20.000Z</time>
      </trkpt>
      <trkpt lat="48.82571" lon="2.34748">
        <ele>87.9</ele>
        <time>2013-04-03T19:02:21.000Z</time>
      </trkpt>
      <trkpt lat="48.82575" lon="2.34745">
        <ele>87.8</ele>
        <time>2013-04-03T19:02:27.000Z</time>
      </trkpt>
      <trkpt lat="48.82575" lon="2.34744">
        <ele>88.5</ele>
        <time>2013-04-03T19:02:28.000Z</time>
      </trkpt>
      <trkpt lat="48.82574" lon="2.34739">
        <ele>90.2</ele>
        <time>2013-04-03T19:03:02.000Z</time>
      </trkpt>
      <trkpt lat="48.82575" lon="2.34736">
        <ele>91.5</ele>
        <time>2013-04-03T19:03:03.000Z</time>
      </trkpt>
      <trkpt lat="48.82576" lon="2.34732">
        <ele>92</ele>
        <time>2013-04-03T19:03:05.000Z</time>
      </trkpt>
      <trkpt lat="48.82576" lon="2.3473">
        <ele>93.3</ele>
        <time>2013-04-03T19:03:06.000Z</time>
      </trkpt>
      <trkpt lat="48.82576" lon="2.34724">
        <ele>98.7</ele>
        <time>2013-04-03T19:03:08.000Z</time>
      </trkpt>
      <trkpt lat="48.82576" lon="2.34721">
        <ele>99.7</ele>
        <time>2013-04-03T19:03:09.000Z</time>
      </trkpt>
      <trkpt lat="48.82574" lon="2.34714">
        <ele>103.2</ele>
        <time>2013-04-03T19:03:11.000Z</time>
      </trkpt>
      <trkpt lat="48.82573" lon="2.34711">
        <ele>102.4</ele>
        <time>2013-04-03T19:03:12.000Z</time>
      </trkpt>
      <trkpt lat="48.82572" lon="2.34708">
        <ele>103.1</ele>
        <time>2013-04-03T19:03:13.000Z</time>
      </trkpt>
      <trkpt lat="48.82571" lon="2.34705">
        <ele>104.5</ele>
        <time>2013-04-03T19:03:14.000Z</time>
      </trkpt>
      <trkpt lat="48.82571" lon="2.34701">
        <ele>105.2</ele>
        <time>2013-04-03T19:03:15.000Z</time>
      </trkpt>
      <trkpt lat="48.8257" lon="2.34698">
        <ele>105.5</ele>
        <time>2013-04-03T19:03:16.000Z</time>
      </trkpt>
      <trkpt lat="48.82569" lon="2.34692">
        <ele>106.6</ele>
        <time>2013-04-03T19:03:18.000Z</time>
      </trkpt>
      <trkpt lat="48.82568" lon="2.34689">
        <ele>106.7</ele>
        <time>2013-04-03T19:03:19.000Z</time>
      </trkpt>
      <trkpt lat="48.82569" lon="2.34683">
        <ele>106</ele>
        <time>2013-04-03T19:03:21.000Z</time>
      </trkpt>
      <trkpt lat="48.82569" lon="2.3468">
        <ele>105.8</ele>
        <time>2013-04-03T19:03:22.000Z</time>
      </trkpt>
      <trkpt lat="48.8257" lon="2.34677">
        <ele>105.8</ele>
        <time>2013-04-03T19:03:23.000Z</time>
      </trkpt>
      <trkpt lat="48.82571" lon="2.34674">
        <ele>106.8</ele>
        <time>2013-04-03T19:03:24.000Z</time>
      </trkpt>
      <trkpt lat="48.82571" lon="2.34668">
        <ele>106.9</ele>
        <time>2013-04-03T19:03:26.000Z</time>
      </trkpt>
      <trkpt lat="48.82572" lon="2.34666">
        <ele>106</ele>
        <time>2013-04-03T19:03:27.000Z</time>
      </trkpt>
      <trkpt lat="48.82576" lon="2.3467">
        <ele>99.3</ele>
        <time>2013-04-03T19:03:34.000Z</time>
      </trkpt>
      <trkpt lat="48.82576" lon="2.34671">
        <ele>99.6</ele>
        <time>2013-04-03T19:03:35.000Z</time>
      </trkpt>
      <trkpt lat="48.82576" lon="2.34665">
        <ele>96</ele>
        <time>2013-04-03T19:03:50.000Z</time>
      </trkpt>
      <trkpt lat="48.82576" lon="2.34663">
        <ele>95.4</ele>
        <time>2013-04-03T19:03:51.000Z</time>
      </trkpt>
      <trkpt lat="48.82576" lon="2.34659">
        <ele>95.2</ele>
        <time>2013-04-03T19:03:52.000Z</time>
      </trkpt>
      <trkpt lat="48.82576" lon="2.34651">
        <ele>96.2</ele>
        <time>2013-04-03T19:03:55.000Z</time>
      </trkpt>
      <trkpt lat="48.82577" lon="2.34646">
        <ele>98.7</ele>
        <time>2013-04-03T19:03:57.000Z</time>
      </trkpt>
      <trkpt lat="48.82578" lon="2.34643">
        <ele>97.8</ele>
        <time>2013-04-03T19:03:58.000Z</time>
      </trkpt>
      <trkpt lat="48.82578" lon="2.3464">
        <ele>98.6</ele>
        <time>2013-04-03T19:03:59.000Z</time>
      </trkpt>
      <trkpt lat="48.82579" lon="2.34636">
        <ele>98.7</ele>
        <time>2013-04-03T19:04:00.000Z</time>
      </trkpt>
      <trkpt lat="48.82579" lon="2.34633">
        <ele>99.3</ele>
        <time>2013-04-03T19:04:01.000Z</time>
      </trkpt>
      <trkpt lat="48.82579" lon="2.34629">
        <ele>98.6</ele>
        <time>2013-04-03T19:04:02.000Z</time>
      </trkpt>
      <trkpt lat="48.82579" lon="2.34625">
        <ele>97.7</ele>
        <time>2013-04-03T19:04:03.000Z</time>
      </trkpt>
      <trkpt lat="48.82578" lon="2.34621">
        <ele>99.2</ele>
        <time>2013-04-03T19:04:04.000Z</time>
      </trkpt>
      <trkpt lat="48.82578" lon="2.34617">
        <ele>99.2</ele>
        <time>2013-04-03T19:04:05.000Z</time>
      </trkpt>
      <trkpt lat="48.82578" lon="2.34613">
        <ele>100</ele>
        <time>2013-04-03T19:04:06.000Z</time>
      </trkpt>
      <trkpt lat="48.82578" lon="2.34609">
        <ele>100.4</ele>
        <time>2013-04-03T19:04:07.000Z</time>
      </trkpt>
      <trkpt lat="48.82578" lon="2.34605">
        <ele>100.2</ele>
        <time>2013-04-03T19:04:08.000Z</time>
      </trkpt>
      <trkpt lat="48.82578" lon="2.34601">
        <ele>100.5</ele>
        <time>2013-04-03T19:04:09.000Z</time>
      </trkpt>
      <trkpt lat="48.82577" lon="2.34597">
        <ele>99.9</ele>
        <time>2013-04-03T19:04:10.000Z</time>
      </trkpt>
      <trkpt lat="48.82577" lon="2.34593">
        <ele>100.6</ele>
        <time>2013-04-03T19:04:11.000Z</time>
      </trkpt>
      <trkpt lat="48.82576" lon="2.34589">
        <ele>100.9</ele>
        <time>2013-04-03T19:04:12.000Z</time>
      </trkpt>
      <trkpt lat="48.82576" lon="2.34582">
        <ele>98.1</ele>
        <time>2013-04-03T19:04:14.000Z</time>
      </trkpt>
      <trkpt lat="48.82577" lon="2.34579">
        <ele>97.6</ele>
        <time>2013-04-03T19:04:15.000Z</time>
      </trkpt>
      <trkpt lat="48.82579" lon="2.34575">
        <ele>98</ele>
        <time>2013-04-03T19:04:17.000Z</time>
      </trkpt>
      <trkpt lat="48.82581" lon="2.34572">
        <ele>96.8</ele>
        <time>2013-04-03T19:04:18.000Z</time>
      </trkpt>
      <trkpt lat="48.82583" lon="2.34568">
        <ele>97</ele>
        <time>2013-04-03T19:04:19.000Z</time>
      </trkpt>
      <trkpt lat="48.82585" lon="2.34565">
        <ele>97.2</ele>
        <time>2013-04-03T19:04:20.000Z</time>
      </trkpt>
      <trkpt lat="48.82586" lon="2.34561">
        <ele>97.5</ele>
        <time>2013-04-03T19:04:21.000Z</time>
      </trkpt>
      <trkpt lat="48.82587" lon="2.34558">
        <ele>98.6</ele>
        <time>2013-04-03T19:04:22.000Z</time>
      </trkpt>
      <trkpt lat="48.82588" lon="2.34554">
        <ele>98.8</ele>
        <time>2013-04-03T19:04:23.000Z</time>
      </trkpt>
      <trkpt lat="48.82588" lon="2.3455">
        <ele>100</ele>
        <time>2013-04-03T19:04:24.000Z</time>
      </trkpt>
      <trkpt lat="48.8259" lon="2.34544">
        <ele>100.5</ele>
        <time>2013-04-03T19:04:26.000Z</time>
      </trkpt>
      <trkpt lat="48.8259" lon="2.34541">
        <ele>100.3</ele>
        <time>2013-04-03T19:04:27.000Z</time>
      </trkpt>
      <trkpt lat="48.82592" lon="2.34536">
        <ele>100.9</ele>
        <time>2013-04-03T19:04:29.000Z</time>
      </trkpt>
      <trkpt lat="48.82593" lon="2.34534">
        <ele>101.3</ele>
        <time>2013-04-03T19:04:30.000Z</time>
      </trkpt>
      <trkpt lat="48.82594" lon="2.3453">
        <ele>100.5</ele>
        <time>2013-04-03T19:05:03.000Z</time>
      </trkpt>
      <trkpt lat="48.82595" lon="2.34528">
        <ele>101.5</ele>
        <time>2013-04-03T19:05:04.000Z</time>
      </trkpt>
      <trkpt lat="48.82598" lon="2.34527">
        <ele>100.9</ele>
        <time>2013-04-03T19:05:05.000Z</time>
      </trkpt>
      <trkpt lat="48.82602" lon="2.34526">
        <ele>100.3</ele>
        <time>2013-04-03T19:05:06.000Z</time>
      </trkpt>
      <trkpt lat="48.82605" lon="2.34526">
        <ele>102.7</ele>
        <time>2013-04-03T19:05:07.000Z</time>
      </trkpt>
      <trkpt lat="48.82608" lon="2.34526">
        <ele>102.8</ele>
        <time>2013-04-03T19:05:08.000Z</time>
      </trkpt>
      <trkpt lat="48.8261" lon="2.34527">
        <ele>104.2</ele>
        <time>2013-04-03T19:05:09.000Z</time>
      </trkpt>
      <trkpt lat="48.82612" lon="2.34528">
        <ele>105.1</ele>
        <time>2013-04-03T19:05:10.000Z</time>
      </trkpt>
      <trkpt lat="48.82615" lon="2.34528">
        <ele>104.2</ele>
        <time>2013-04-03T19:05:11.000Z</time>
      </trkpt>
      <trkpt lat="48.82618" lon="2.34528">
        <ele>104.1</ele>
        <time>2013-04-03T19:05:12.000Z</time>
      </trkpt>
      <trkpt lat="48.8262" lon="2.34528">
        <ele>104.1</ele>
        <time>2013-04-03T19:05:13.000Z</time>
      </trkpt>
      <trkpt lat="48.82623" lon="2.34527">
        <ele>103.3</ele>
        <time>2013-04-03T19:05:14.000Z</time>
      </trkpt>
      <trkpt lat="48.82625" lon="2.34526">
        <ele>102.8</ele>
        <time>2013-04-03T19:05:15.000Z</time>
      </trkpt>
      <trkpt lat="48.82628" lon="2.34525">
        <ele>102.1</ele>
        <time>2013-04-03T19:05:16.000Z</time>
      </trkpt>
      <trkpt lat="48.82631" lon="2.34524">
        <ele>101.9</ele>
        <time>2013-04-03T19:05:17.000Z</time>
      </trkpt>
      <trkpt lat="48.82635" lon="2.34523">
        <ele>100.7</ele>
        <time>2013-04-03T19:05:18.000Z</time>
      </trkpt>
      <trkpt lat="48.82638" lon="2.34522">
        <ele>99.6</ele>
        <time>2013-04-03T19:05:19.000Z</time>
      </trkpt>
      <trkpt lat="48.82642" lon="2.34523">
        <ele>98.6</ele>
        <time>2013-04-03T19:05:20.000Z</time>
      </trkpt>
      <trkpt lat="48.82645" lon="2.34523">
        <ele>97.5</ele>
        <time>2013-04-03T19:05:21.000Z</time>
      </trkpt>
      <trkpt lat="48.82649" lon="2.34523">
        <ele>95.8</ele>
        <time>2013-04-03T19:05:22.000Z</time>
      </trkpt>
      <trkpt lat="48.82653" lon="2.34523">
        <ele>95.3</ele>
        <time>2013-04-03T19:05:23.000Z</time>
      </trkpt>
      <trkpt lat="48.82656" lon="2.34523">
        <ele>93.3</ele>
        <time>2013-04-03T19:05:24.000Z</time>
      </trkpt>
      <trkpt lat="48.8266" lon="2.34523">
        <ele>92.7</ele>
        <time>2013-04-03T19:05:25.000Z</time>
      </trkpt>
      <trkpt lat="48.82663" lon="2.34523">
        <ele>91.8</ele>
        <time>2013-04-03T19:05:26.000Z</time>
      </trkpt>
      <trkpt lat="48.82666" lon="2.34523">
        <ele>91.6</ele>
        <time>2013-04-03T19:05:27.000Z</time>
      </trkpt>
      <trkpt lat="48.82669" lon="2.34524">
        <ele>91</ele>
        <time>2013-04-03T19:05:28.000Z</time>
      </trkpt>
      <trkpt lat="48.82673" lon="2.34524">
        <ele>91.2</ele>
        <time>2013-04-03T19:05:29.000Z</time>
      </trkpt>
      <trkpt lat="48.82676" lon="2.34524">
        <ele>92</ele>
        <time>2013-04-03T19:05:30.000Z</time>
      </trkpt>
      <trkpt lat="48.8268" lon="2.34525">
        <ele>93.9</ele>
        <time>2013-04-03T19:05:31.000Z</time>
      </trkpt>
      <trkpt lat="48.82683" lon="2.34527">
        <ele>93.9</ele>
        <time>2013-04-03T19:05:32.000Z</time>
      </trkpt>
      <trkpt lat="48.82687" lon="2.34528">
        <ele>93.9</ele>
        <time>2013-04-03T19:05:33.000Z</time>
      </trkpt>
      <trkpt lat="48.8269" lon="2.34529">
        <ele>94.8</ele>
        <time>2013-04-03T19:05:34.000Z</time>
      </trkpt>
      <trkpt lat="48.82693" lon="2.3453">
        <ele>95</ele>
        <time>2013-04-03T19:05:35.000Z</time>
      </trkpt>
      <trkpt lat="48.82695" lon="2.34531">
        <ele>96.1</ele>
        <time>2013-04-03T19:05:36.000Z</time>
      </trkpt>
      <trkpt lat="48.82698" lon="2.34533">
        <ele>97.3</ele>
        <time>2013-04-03T19:05:37.000Z</time>
      </trkpt>
      <trkpt lat="48.827" lon="2.34534">
        <ele>98.9</ele>
        <time>2013-04-03T19:05:38.000Z</time>
      </trkpt>
      <trkpt lat="48.82702" lon="2.34534">
        <ele>99.4</ele>
        <time>2013-04-03T19:05:39.000Z</time>
      </trkpt>
      <trkpt lat="48.82704" lon="2.34535">
        <ele>96.8</ele>
        <time>2013-04-03T19:05:40.000Z</time>
      </trkpt>
      <trkpt lat="48.82707" lon="2.34535">
        <ele>96.9</ele>
        <time>2013-04-03T19:05:41.000Z</time>
      </trkpt>
      <trkpt lat="48.8271" lon="2.34536">
        <ele>97.6</ele>
        <time>2013-04-03T19:05:42.000Z</time>
      </trkpt>
      <trkpt lat="48.82714" lon="2.34536">
        <ele>96.4</ele>
        <time>2013-04-03T19:05:44.000Z</time>
      </trkpt>
      <trkpt lat="48.82716" lon="2.34536">
        <ele>96.8</ele>
        <time>2013-04-03T19:05:45.000Z</time>
      </trkpt>
      <trkpt lat="48.82719" lon="2.34537">
        <ele>97.4</ele>
        <time>2013-04-03T19:05:47.000Z</time>
      </trkpt>
      <trkpt lat="48.82721" lon="2.34538">
        <ele>98.4</ele>
        <time>2013-04-03T19:05:48.000Z</time>
      </trkpt>
      <trkpt lat="48.82724" lon="2.3454">
        <ele>99.5</ele>
        <time>2013-04-03T19:05:51.000Z</time>
      </trkpt>
      <trkpt lat="48.82726" lon="2.34541">
        <ele>99.7</ele>
        <time>2013-04-03T19:05:52.000Z</time>
      </trkpt>
      <trkpt lat="48.8273" lon="2.34541">
        <ele>99.8</ele>
        <time>2013-04-03T19:05:53.728Z</time>
      </trkpt>
      <trkpt lat="48.82733" lon="2.34543">
        <ele>99.7</ele>
        <time>2013-04-03T19:05:55.000Z</time>
      </trkpt>
      <trkpt lat="48.82736" lon="2.34544">
        <ele>99.5</ele>
        <time>2013-04-03T19:05:56.000Z</time>
      </trkpt>
      <trkpt lat="48.82738" lon="2.34546">
        <ele>100.4</ele>
        <time>2013-04-03T19:05:57.000Z</time>
      </trkpt>
      <trkpt lat="48.82742" lon="2.34547">
        <ele>101.1</ele>
        <time>2013-04-03T19:05:59.000Z</time>
      </trkpt>
      <trkpt lat="48.82744" lon="2.34547">
        <ele>101.9</ele>
        <time>2013-04-03T19:06:00.000Z</time>
      </trkpt>
      <trkpt lat="48.82748" lon="2.34548">
        <ele>104</ele>
        <time>2013-04-03T19:06:03.000Z</time>
      </trkpt>
      <trkpt lat="48.82749" lon="2.34548">
        <ele>103.5</ele>
        <time>2013-04-03T19:06:04.000Z</time>
      </trkpt>
      <trkpt lat="48.82753" lon="2.34549">
        <ele>106.5</ele>
        <time>2013-04-03T19:06:06.000Z</time>
      </trkpt>
      <trkpt lat="48.82755" lon="2.34549">
        <ele>107.1</ele>
        <time>2013-04-03T19:06:07.000Z</time>
      </trkpt>
      <trkpt lat="48.82759" lon="2.3455">
        <ele>107</ele>
        <time>2013-04-03T19:06:09.000Z</time>
      </trkpt>
      <trkpt lat="48.82761" lon="2.34551">
        <ele>106.8</ele>
        <time>2013-04-03T19:06:10.000Z</time>
      </trkpt>
      <trkpt lat="48.82764" lon="2.34552">
        <ele>98.4</ele>
        <time>2013-04-03T19:06:11.000Z</time>
      </trkpt>
      <trkpt lat="48.82767" lon="2.34553">
        <ele>96.8</ele>
        <time>2013-04-03T19:06:12.000Z</time>
      </trkpt>
      <trkpt lat="48.82769" lon="2.34553">
        <ele>95.4</ele>
        <time>2013-04-03T19:06:13.000Z</time>
      </trkpt>
      <trkpt lat="48.82772" lon="2.34555">
        <ele>95.7</ele>
        <time>2013-04-03T19:06:14.000Z</time>
      </trkpt>
      <trkpt lat="48.82775" lon="2.34559">
        <ele>94.7</ele>
        <time>2013-04-03T19:06:17.000Z</time>
      </trkpt>
      <trkpt lat="48.82775" lon="2.3456">
        <ele>95.1</ele>
        <time>2013-04-03T19:06:18.000Z</time>
      </trkpt>
      <trkpt lat="48.82779" lon="2.34562">
        <ele>92.6</ele>
        <time>2013-04-03T19:06:22.000Z</time>
      </trkpt>
      <trkpt lat="48.82779" lon="2.34563">
        <ele>92.7</ele>
        <time>2013-04-03T19:06:23.000Z</time>
      </trkpt>
      <trkpt lat="48.82783" lon="2.34566">
        <ele>93.8</ele>
        <time>2013-04-03T19:06:42.000Z</time>
      </trkpt>
      <trkpt lat="48.82783" lon="2.34568">
        <ele>92.7</ele>
        <time>2013-04-03T19:06:43.000Z</time>
      </trkpt>
      <trkpt lat="48.82786" lon="2.34563">
        <ele>90.7</ele>
        <time>2013-04-03T19:07:14.000Z</time>
      </trkpt>
      <trkpt lat="48.82786" lon="2.34562">
        <ele>91.1</ele>
        <time>2013-04-03T19:07:15.000Z</time>
      </trkpt>
      <trkpt lat="48.8279" lon="2.34562">
        <ele>92.6</ele>
        <time>2013-04-03T19:07:27.000Z</time>
      </trkpt>
      <trkpt lat="48.82792" lon="2.34562">
        <ele>91.5</ele>
        <time>2013-04-03T19:07:28.000Z</time>
      </trkpt>
      <trkpt lat="48.82795" lon="2.34563">
        <ele>91.3</ele>
        <time>2013-04-03T19:07:30.000Z</time>
      </trkpt>
      <trkpt lat="48.82796" lon="2.34564">
        <ele>91.5</ele>
        <time>2013-04-03T19:07:31.000Z</time>
      </trkpt>
      <trkpt lat="48.828" lon="2.34566">
        <ele>90.8</ele>
        <time>2013-04-03T19:07:33.000Z</time>
      </trkpt>
      <trkpt lat="48.82802" lon="2.34567">
        <ele>90.6</ele>
        <time>2013-04-03T19:07:34.000Z</time>
      </trkpt>
      <trkpt lat="48.82806" lon="2.34568">
        <ele>90.6</ele>
        <time>2013-04-03T19:07:36.000Z</time>
      </trkpt>
      <trkpt lat="48.82808" lon="2.34569">
        <ele>90.1</ele>
        <time>2013-04-03T19:07:37.000Z</time>
      </trkpt>
      <trkpt lat="48.82812" lon="2.3457">
        <ele>89.6</ele>
        <time>2013-04-03T19:07:39.000Z</time>
      </trkpt>
      <trkpt lat="48.82814" lon="2.34571">
        <ele>89.5</ele>
        <time>2013-04-03T19:07:40.000Z</time>
      </trkpt>
      <trkpt lat="48.82818" lon="2.34571">
        <ele>90.2</ele>
        <time>2013-04-03T19:07:42.000Z</time>
      </trkpt>
      <trkpt lat="48.82819" lon="2.34571">
        <ele>91.6</ele>
        <time>2013-04-03T19:07:43.000Z</time>
      </trkpt>
      <trkpt lat="48.82823" lon="2.34573">
        <ele>94.5</ele>
        <time>2013-04-03T19:07:46.000Z</time>
      </trkpt>
      <trkpt lat="48.82825" lon="2.34574">
        <ele>95.1</ele>
        <time>2013-04-03T19:07:47.000Z</time>
      </trkpt>
      <trkpt lat="48.82828" lon="2.34575">
        <ele>95.5</ele>
        <time>2013-04-03T19:07:49.000Z</time>
      </trkpt>
      <trkpt lat="48.82829" lon="2.34575">
        <ele>96.8</ele>
        <time>2013-04-03T19:07:50.000Z</time>
      </trkpt>
      <trkpt lat="48.82833" lon="2.34575">
        <ele>105.7</ele>
        <time>2013-04-03T19:07:58.000Z</time>
      </trkpt>
      <trkpt lat="48.82834" lon="2.34575">
        <ele>108.6</ele>
        <time>2013-04-03T19:07:59.000Z</time>
      </trkpt>
      <trkpt lat="48.82837" lon="2.34572">
        <ele>112.6</ele>
        <time>2013-04-03T19:08:02.000Z</time>
      </trkpt>
      <trkpt lat="48.82838" lon="2.34571">
        <ele>111.9</ele>
        <time>2013-04-03T19:08:03.000Z</time>
      </trkpt>
      <trkpt lat="48.82841" lon="2.34567">
        <ele>113.2</ele>
        <time>2013-04-03T19:08:05.000Z</time>
      </trkpt>
      <trkpt lat="48.82843" lon="2.34566">
        <ele>114</ele>
        <time>2013-04-03T19:08:06.000Z</time>
      </trkpt>
      <trkpt lat="48.82846" lon="2.34562">
        <ele>113.7</ele>
        <time>2013-04-03T19:08:08.000Z</time>
      </trkpt>
      <trkpt lat="48.82847" lon="2.34561">
        <ele>113.4</ele>
        <time>2013-04-03T19:08:09.000Z</time>
      </trkpt>
      <trkpt lat="48.82849" lon="2.34557">
        <ele>113.8</ele>
        <time>2013-04-03T19:08:13.000Z</time>
      </trkpt>
      <trkpt lat="48.82852" lon="2.34554">
        <ele>107.7</ele>
        <time>2013-04-03T19:08:14.000Z</time>
      </trkpt>
      <trkpt lat="48.82854" lon="2.34552">
        <ele>106.1</ele>
        <time>2013-04-03T19:08:15.000Z</time>
      </trkpt>
      <trkpt lat="48.82856" lon="2.3455">
        <ele>104.2</ele>
        <time>2013-04-03T19:08:16.000Z</time>
      </trkpt>
      <trkpt lat="48.82858" lon="2.34547">
        <ele>102.8</ele>
        <time>2013-04-03T19:08:18.000Z</time>
      </trkpt>
      <trkpt lat="48.82859" lon="2.34544">
        <ele>94.8</ele>
        <time>2013-04-03T19:08:19.000Z</time>
      </trkpt>
      <trkpt lat="48.8286" lon="2.34539">
        <ele>91.4</ele>
        <time>2013-04-03T19:08:21.000Z</time>
      </trkpt>
      <trkpt lat="48.8286" lon="2.34537">
        <ele>96.6</ele>
        <time>2013-04-03T19:08:22.000Z</time>
      </trkpt>
      <trkpt lat="48.82859" lon="2.34531">
        <ele>96.1</ele>
        <time>2013-04-03T19:08:24.000Z</time>
      </trkpt>
      <trkpt lat="48.82858" lon="2.34527">
        <ele>95.6</ele>
        <time>2013-04-03T19:08:25.000Z</time>
      </trkpt>
      <trkpt lat="48.82857" lon="2.34523">
        <ele>95.1</ele>
        <time>2013-04-03T19:08:26.000Z</time>
      </trkpt>
      <trkpt lat="48.82854" lon="2.34519">
        <ele>94</ele>
        <time>2013-04-03T19:08:27.000Z</time>
      </trkpt>
      <trkpt lat="48.82852" lon="2.34514">
        <ele>93.6</ele>
        <time>2013-04-03T19:08:28.000Z</time>
      </trkpt>
      <trkpt lat="48.82849" lon="2.34509">
        <ele>93.4</ele>
        <time>2013-04-03T19:08:29.000Z</time>
      </trkpt>
      <trkpt lat="48.82846" lon="2.34505">
        <ele>93.5</ele>
        <time>2013-04-03T19:08:30.000Z</time>
      </trkpt>
      <trkpt lat="48.82843" lon="2.345">
        <ele>94.3</ele>
        <time>2013-04-03T19:08:31.000Z</time>
      </trkpt>
      <trkpt lat="48.82841" lon="2.34495">
        <ele>95.6</ele>
        <time>2013-04-03T19:08:32.000Z</time>
      </trkpt>
      <trkpt lat="48.8284" lon="2.3449">
        <ele>95.3</ele>
        <time>2013-04-03T19:08:33.000Z</time>
      </trkpt>
      <trkpt lat="48.8284" lon="2.34484">
        <ele>90.8</ele>
        <time>2013-04-03T19:08:35.000Z</time>
      </trkpt>
      <trkpt lat="48.82841" lon="2.34481">
        <ele>83.3</ele>
        <time>2013-04-03T19:08:36.000Z</time>
      </trkpt>
      <trkpt lat="48.82845" lon="2.34476">
        <ele>81.4</ele>
        <time>2013-04-03T19:08:38.000Z</time>
      </trkpt>
      <trkpt lat="48.82846" lon="2.34473">
        <ele>82.3</ele>
        <time>2013-04-03T19:08:39.000Z</time>
      </trkpt>
      <trkpt lat="48.82847" lon="2.3447">
        <ele>82.8</ele>
        <time>2013-04-03T19:08:40.000Z</time>
      </trkpt>
      <trkpt lat="48.82848" lon="2.34467">
        <ele>83.8</ele>
        <time>2013-04-03T19:08:41.000Z</time>
      </trkpt>
      <trkpt lat="48.82848" lon="2.34463">
        <ele>84.2</ele>
        <time>2013-04-03T19:08:42.000Z</time>
      </trkpt>
      <trkpt lat="48.82849" lon="2.34459">
        <ele>86.1</ele>
        <time>2013-04-03T19:08:43.000Z</time>
      </trkpt>
      <trkpt lat="48.82849" lon="2.34452">
        <ele>87.4</ele>
        <time>2013-04-03T19:08:45.000Z</time>
      </trkpt>
      <trkpt lat="48.82849" lon="2.34449">
        <ele>87.3</ele>
        <time>2013-04-03T19:08:46.000Z</time>
      </trkpt>
      <trkpt lat="48.8285" lon="2.34444">
        <ele>90.9</ele>
        <time>2013-04-03T19:08:48.000Z</time>
      </trkpt>
      <trkpt lat="48.8285" lon="2.34442">
        <ele>92.5</ele>
        <time>2013-04-03T19:08:49.000Z</time>
      </trkpt>
      <trkpt lat="48.8285" lon="2.34437">
        <ele>94.5</ele>
        <time>2013-04-03T19:08:51.000Z</time>
      </trkpt>
      <trkpt lat="48.8285" lon="2.34434">
        <ele>95.7</ele>
        <time>2013-04-03T19:08:52.000Z</time>
      </trkpt>
      <trkpt lat="48.82849" lon="2.34426">
        <ele>95.3</ele>
        <time>2013-04-03T19:08:55.000Z</time>
      </trkpt>
      <trkpt lat="48.82847" lon="2.3442">
        <ele>92.8</ele>
        <time>2013-04-03T19:08:57.000Z</time>
      </trkpt>
      <trkpt lat="48.82847" lon="2.34417">
        <ele>93.8</ele>
        <time>2013-04-03T19:08:58.000Z</time>
      </trkpt>
      <trkpt lat="48.82849" lon="2.34415">
        <ele>90.2</ele>
        <time>2013-04-03T19:08:59.000Z</time>
      </trkpt>
      <trkpt lat="48.82851" lon="2.34413">
        <ele>91.2</ele>
        <time>2013-04-03T19:09:00.000Z</time>
      </trkpt>
      <trkpt lat="48.82854" lon="2.34413">
        <ele>90.6</ele>
        <time>2013-04-03T19:09:01.000Z</time>
      </trkpt>
      <trkpt lat="48.82858" lon="2.34412">
        <ele>90.9</ele>
        <time>2013-04-03T19:09:02.000Z</time>
      </trkpt>
      <trkpt lat="48.82861" lon="2.34411">
        <ele>90.7</ele>
        <time>2013-04-03T19:09:03.000Z</time>
      </trkpt>
      <trkpt lat="48.82866" lon="2.34411">
        <ele>91.9</ele>
        <time>2013-04-03T19:09:04.000Z</time>
      </trkpt>
      <trkpt lat="48.82886" lon="2.34399">
        <ele>86.5</ele>
        <time>2013-04-03T19:09:05.000Z</time>
      </trkpt>
      <trkpt lat="48.8289" lon="2.34397">
        <ele>83.9</ele>
        <time>2013-04-03T19:09:06.000Z</time>
      </trkpt>
      <trkpt lat="48.82894" lon="2.34396">
        <ele>82.1</ele>
        <time>2013-04-03T19:09:07.000Z</time>
      </trkpt>
      <trkpt lat="48.82897" lon="2.34395">
        <ele>80</ele>
        <time>2013-04-03T19:09:08.000Z</time>
      </trkpt>
      <trkpt lat="48.82899" lon="2.34394">
        <ele>78.8</ele>
        <time>2013-04-03T19:09:09.000Z</time>
      </trkpt>
      <trkpt lat="48.82901" lon="2.34392">
        <ele>78.4</ele>
        <time>2013-04-03T19:09:10.000Z</time>
      </trkpt>
      <trkpt lat="48.82903" lon="2.34388">
        <ele>79.5</ele>
        <time>2013-04-03T19:09:11.000Z</time>
      </trkpt>
      <trkpt lat="48.82905" lon="2.34384">
        <ele>81.1</ele>
        <time>2013-04-03T19:09:12.000Z</time>
      </trkpt>
      <trkpt lat="48.82905" lon="2.3438">
        <ele>80.9</ele>
        <time>2013-04-03T19:09:13.000Z</time>
      </trkpt>
      <trkpt lat="48.82906" lon="2.34376">
        <ele>80.8</ele>
        <time>2013-04-03T19:09:14.000Z</time>
      </trkpt>
      <trkpt lat="48.82907" lon="2.34373">
        <ele>80.6</ele>
        <time>2013-04-03T19:09:15.000Z</time>
      </trkpt>
      <trkpt lat="48.82908" lon="2.3437">
        <ele>80.4</ele>
        <time>2013-04-03T19:09:16.000Z</time>
      </trkpt>
      <trkpt lat="48.8291" lon="2.34366">
        <ele>80.4</ele>
        <time>2013-04-03T19:09:20.000Z</time>
      </trkpt>
      <trkpt lat="48.82912" lon="2.34366">
        <ele>81.7</ele>
        <time>2013-04-03T19:09:21.000Z</time>
      </trkpt>
      <trkpt lat="48.82916" lon="2.34364">
        <ele>82.4</ele>
        <time>2013-04-03T19:09:25.000Z</time>
      </trkpt>
      <trkpt lat="48.82917" lon="2.34363">
        <ele>83.2</ele>
        <time>2013-04-03T19:09:26.000Z</time>
      </trkpt>
      <trkpt lat="48.82921" lon="2.34362">
        <ele>83.5</ele>
        <time>2013-04-03T19:11:25.000Z</time>
      </trkpt>
      <trkpt lat="48.82921" lon="2.34363">
        <ele>83.4</ele>
        <time>2013-04-03T19:11:26.000Z</time>
      </trkpt>
      <trkpt lat="48.82923" lon="2.34367">
        <ele>86</ele>
        <time>2013-04-03T19:11:58.000Z</time>
      </trkpt>
      <trkpt lat="48.82923" lon="2.34367">
        <ele>85.2</ele>
        <time>2013-04-03T19:20:42.000Z</time>
      </trkpt>
      <trkpt lat="48.82922" lon="2.3437">
        <ele>82</ele>
        <time>2013-04-03T19:21:46.000Z</time>
      </trkpt>
      <trkpt lat="48.82919" lon="2.34373">
        <ele>83.3</ele>
        <time>2013-04-03T19:21:47.000Z</time>
      </trkpt>
      <trkpt lat="48.82916" lon="2.34378">
        <ele>86.5</ele>
        <time>2013-04-03T19:21:53.000Z</time>
      </trkpt>
      <trkpt lat="48.82915" lon="2.34378">
        <ele>86.2</ele>
        <time>2013-04-03T19:21:54.000Z</time>
      </trkpt>
      <trkpt lat="48.82917" lon="2.34375">
        <ele>86.1</ele>
        <time>2013-04-03T19:21:58.000Z</time>
      </trkpt>
      <trkpt lat="48.82919" lon="2.34372">
        <ele>86.1</ele>
        <time>2013-04-03T19:21:59.000Z</time>
      </trkpt>
      <trkpt lat="48.82921" lon="2.3437">
        <ele>87.3</ele>
        <time>2013-04-03T19:22:00.000Z</time>
      </trkpt>
      <trkpt lat="48.82923" lon="2.34368">
        <ele>87.3</ele>
        <time>2013-04-03T19:22:01.000Z</time>
      </trkpt>
      <trkpt lat="48.82926" lon="2.34364">
        <ele>88.2</ele>
        <time>2013-04-03T19:22:03.000Z</time>
      </trkpt>
      <trkpt lat="48.82927" lon="2.34363">
        <ele>87.7</ele>
        <time>2013-04-03T19:22:04.000Z</time>
      </trkpt>
      <trkpt lat="48.82925" lon="2.34358">
        <ele>86.2</ele>
        <time>2013-04-03T19:22:06.000Z</time>
      </trkpt>
      <trkpt lat="48.82924" lon="2.34356">
        <ele>85.8</ele>
        <time>2013-04-03T19:22:07.000Z</time>
      </trkpt>
      <trkpt lat="48.82927" lon="2.34352">
        <ele>84.8</ele>
        <time>2013-04-03T19:22:13.000Z</time>
      </trkpt>
      <trkpt lat="48.82928" lon="2.34352">
        <ele>85.7</ele>
        <time>2013-04-03T19:22:14.000Z</time>
      </trkpt>
      <trkpt lat="48.82932" lon="2.34349">
        <ele>91.7</ele>
        <time>2013-04-03T19:22:26.000Z</time>
      </trkpt>
      <trkpt lat="48.82933" lon="2.34349">
        <ele>91.8</ele>
        <time>2013-04-03T19:22:27.000Z</time>
      </trkpt>
      <trkpt lat="48.82936" lon="2.34348">
        <ele>93.7</ele>
        <time>2013-04-03T19:22:32.000Z</time>
      </trkpt>
      <trkpt lat="48.82937" lon="2.34348">
        <ele>93.5</ele>
        <time>2013-04-03T19:22:33.000Z</time>
      </trkpt>
      <trkpt lat="48.8294" lon="2.34348">
        <ele>94.8</ele>
        <time>2013-04-03T19:22:36.000Z</time>
      </trkpt>
      <trkpt lat="48.82942" lon="2.34349">
        <ele>97.6</ele>
        <time>2013-04-03T19:22:37.000Z</time>
      </trkpt>
      <trkpt lat="48.82946" lon="2.34352">
        <ele>98.7</ele>
        <time>2013-04-03T19:22:39.000Z</time>
      </trkpt>
      <trkpt lat="48.82948" lon="2.34354">
        <ele>98.9</ele>
        <time>2013-04-03T19:22:40.000Z</time>
      </trkpt>
      <trkpt lat="48.8295" lon="2.34354">
        <ele>100.9</ele>
        <time>2013-04-03T19:22:41.000Z</time>
      </trkpt>
      <trkpt lat="48.82953" lon="2.34355">
        <ele>101.3</ele>
        <time>2013-04-03T19:22:42.000Z</time>
      </trkpt>
      <trkpt lat="48.82956" lon="2.34355">
        <ele>103</ele>
        <time>2013-04-03T19:22:44.000Z</time>
      </trkpt>
      <trkpt lat="48.82957" lon="2.34355">
        <ele>105.1</ele>
        <time>2013-04-03T19:22:45.000Z</time>
      </trkpt>
      <trkpt lat="48.82961" lon="2.34356">
        <ele>105</ele>
        <time>2013-04-03T19:22:47.000Z</time>
      </trkpt>
      <trkpt lat="48.82964" lon="2.34357">
        <ele>106.1</ele>
        <time>2013-04-03T19:22:48.000Z</time>
      </trkpt>
      <trkpt lat="48.82967" lon="2.34359">
        <ele>106.3</ele>
        <time>2013-04-03T19:22:49.000Z</time>
      </trkpt>
      <trkpt lat="48.82969" lon="2.3436">
        <ele>105.6</ele>
        <time>2013-04-03T19:22:50.000Z</time>
      </trkpt>
      <trkpt lat="48.82972" lon="2.34361">
        <ele>104.9</ele>
        <time>2013-04-03T19:22:51.000Z</time>
      </trkpt>
      <trkpt lat="48.82974" lon="2.34362">
        <ele>106.8</ele>
        <time>2013-04-03T19:22:52.000Z</time>
      </trkpt>
      <trkpt lat="48.82977" lon="2.34363">
        <ele>106.4</ele>
        <time>2013-04-03T19:22:53.000Z</time>
      </trkpt>
      <trkpt lat="48.8298" lon="2.34363">
        <ele>105</ele>
        <time>2013-04-03T19:22:54.000Z</time>
      </trkpt>
      <trkpt lat="48.82983" lon="2.34364">
        <ele>104.3</ele>
        <time>2013-04-03T19:22:55.000Z</time>
      </trkpt>
      <trkpt lat="48.82986" lon="2.34364">
        <ele>104.1</ele>
        <time>2013-04-03T19:22:56.000Z</time>
      </trkpt>
      <trkpt lat="48.8299" lon="2.34363">
        <ele>103.6</ele>
        <time>2013-04-03T19:22:58.000Z</time>
      </trkpt>
      <trkpt lat="48.82992" lon="2.34363">
        <ele>104.8</ele>
        <time>2013-04-03T19:22:59.000Z</time>
      </trkpt>
      <trkpt lat="48.82996" lon="2.34363">
        <ele>104.9</ele>
        <time>2013-04-03T19:23:01.000Z</time>
      </trkpt>
      <trkpt lat="48.82998" lon="2.34362">
        <ele>104.4</ele>
        <time>2013-04-03T19:23:02.000Z</time>
      </trkpt>
      <trkpt lat="48.83001" lon="2.34361">
        <ele>105</ele>
        <time>2013-04-03T19:23:04.000Z</time>
      </trkpt>
      <trkpt lat="48.83003" lon="2.34362">
        <ele>104.5</ele>
        <time>2013-04-03T19:23:05.000Z</time>
      </trkpt>
      <trkpt lat="48.83007" lon="2.34363">
        <ele>105.3</ele>
        <time>2013-04-03T19:23:07.000Z</time>
      </trkpt>
      <trkpt lat="48.83008" lon="2.34364">
        <ele>106.9</ele>
        <time>2013-04-03T19:23:08.000Z</time>
      </trkpt>
      <trkpt lat="48.83012" lon="2.34366">
        <ele>107.5</ele>
        <time>2013-04-03T19:23:10.000Z</time>
      </trkpt>
      <trkpt lat="48.83013" lon="2.34367">
        <ele>108.1</ele>
        <time>2013-04-03T19:23:11.000Z</time>
      </trkpt>
      <trkpt lat="48.83015" lon="2.3437">
        <ele>107.8</ele>
        <time>2013-04-03T19:23:14.000Z</time>
      </trkpt>
      <trkpt lat="48.83016" lon="2.34372">
        <ele>107.5</ele>
        <time>2013-04-03T19:23:15.000Z</time>
      </trkpt>
      <trkpt lat="48.83019" lon="2.34375">
        <ele>109.3</ele>
        <time>2013-04-03T19:23:17.000Z</time>
      </trkpt>
      <trkpt lat="48.8302" lon="2.34376">
        <ele>108.6</ele>
        <time>2013-04-03T19:23:18.000Z</time>
      </trkpt>
      <trkpt lat="48.83024" lon="2.34379">
        <ele>109.5</ele>
        <time>2013-04-03T19:23:20.000Z</time>
      </trkpt>
      <trkpt lat="48.83026" lon="2.34381">
        <ele>108.5</ele>
        <time>2013-04-03T19:23:21.000Z</time>
      </trkpt>
      <trkpt lat="48.8303" lon="2.34383">
        <ele>106.4</ele>
        <time>2013-04-03T19:23:23.000Z</time>
      </trkpt>
      <trkpt lat="48.83032" lon="2.34383">
        <ele>105.1</ele>
        <time>2013-04-03T19:23:24.000Z</time>
      </trkpt>
      <trkpt lat="48.83035" lon="2.34383">
        <ele>105.9</ele>
        <time>2013-04-03T19:23:25.000Z</time>
      </trkpt>
      <trkpt lat="48.83037" lon="2.34383">
        <ele>107.3</ele>
        <time>2013-04-03T19:23:26.000Z</time>
      </trkpt>
      <trkpt lat="48.83039" lon="2.34383">
        <ele>105.2</ele>
        <time>2013-04-03T19:23:27.000Z</time>
      </trkpt>
      <trkpt lat="48.83042" lon="2.34384">
        <ele>102.8</ele>
        <time>2013-04-03T19:23:28.000Z</time>
      </trkpt>
      <trkpt lat="48.83045" lon="2.34384">
        <ele>104.3</ele>
        <time>2013-04-03T19:23:29.000Z</time>
      </trkpt>
      <trkpt lat="48.83047" lon="2.34385">
        <ele>104.4</ele>
        <time>2013-04-03T19:23:30.000Z</time>
      </trkpt>
      <trkpt lat="48.83051" lon="2.34386">
        <ele>104.6</ele>
        <time>2013-04-03T19:23:34.000Z</time>
      </trkpt>
      <trkpt lat="48.83052" lon="2.34386">
        <ele>104</ele>
        <time>2013-04-03T19:23:35.000Z</time>
      </trkpt>
      <trkpt lat="48.83056" lon="2.34386">
        <ele>103.5</ele>
        <time>2013-04-03T19:23:42.000Z</time>
      </trkpt>
      <trkpt lat="48.83057" lon="2.34386">
        <ele>103.4</ele>
        <time>2013-04-03T19:23:43.000Z</time>
      </trkpt>
      <trkpt lat="48.83059" lon="2.34389">
        <ele>102.7</ele>
        <time>2013-04-03T19:24:37.000Z</time>
      </trkpt>
      <trkpt lat="48.83061" lon="2.34393">
        <ele>99.5</ele>
        <time>2013-04-03T19:24:38.000Z</time>
      </trkpt>
      <trkpt lat="48.83063" lon="2.34397">
        <ele>99.4</ele>
        <time>2013-04-03T19:24:39.000Z</time>
      </trkpt>
      <trkpt lat="48.83064" lon="2.344">
        <ele>100.4</ele>
        <time>2013-04-03T19:24:40.000Z</time>
      </trkpt>
      <trkpt lat="48.83068" lon="2.34403">
        <ele>100.1</ele>
        <time>2013-04-03T19:24:42.000Z</time>
      </trkpt>
      <trkpt lat="48.83069" lon="2.34405">
        <ele>99</ele>
        <time>2013-04-03T19:24:43.000Z</time>
      </trkpt>
      <trkpt lat="48.83073" lon="2.34408">
        <ele>98.1</ele>
        <time>2013-04-03T19:24:45.000Z</time>
      </trkpt>
      <trkpt lat="48.83074" lon="2.34409">
        <ele>97.8</ele>
        <time>2013-04-03T19:24:46.000Z</time>
      </trkpt>
      <trkpt lat="48.83077" lon="2.34411">
        <ele>98.1</ele>
        <time>2013-04-03T19:24:48.000Z</time>
      </trkpt>
      <trkpt lat="48.83079" lon="2.34412">
        <ele>97</ele>
        <time>2013-04-03T19:24:49.000Z</time>
      </trkpt>
      <trkpt lat="48.83082" lon="2.34415">
        <ele>93.7</ele>
        <time>2013-04-03T19:24:51.000Z</time>
      </trkpt>
      <trkpt lat="48.83084" lon="2.34416">
        <ele>93.3</ele>
        <time>2013-04-03T19:24:52.000Z</time>
      </trkpt>
      <trkpt lat="48.83087" lon="2.34419">
        <ele>91.7</ele>
        <time>2013-04-03T19:24:53.000Z</time>
      </trkpt>
      <trkpt lat="48.83089" lon="2.34421">
        <ele>92.1</ele>
        <time>2013-04-03T19:24:54.000Z</time>
      </trkpt>
      <trkpt lat="48.83092" lon="2.34424">
        <ele>88.4</ele>
        <time>2013-04-03T19:24:59.000Z</time>
      </trkpt>
      <trkpt lat="48.83094" lon="2.34424">
        <ele>87.1</ele>
        <time>2013-04-03T19:25:00.000Z</time>
      </trkpt>
      <trkpt lat="48.83098" lon="2.34424">
        <ele>86.2</ele>
        <time>2013-04-03T19:25:02.000Z</time>
      </trkpt>
      <trkpt lat="48.831" lon="2.34424">
        <ele>87.5</ele>
        <time>2013-04-03T19:25:03.000Z</time>
      </trkpt>
      <trkpt lat="48.83103" lon="2.34425">
        <ele>88.7</ele>
        <time>2013-04-03T19:25:04.000Z</time>
      </trkpt>
      <trkpt lat="48.83106" lon="2.34426">
        <ele>89.3</ele>
        <time>2013-04-03T19:25:05.000Z</time>
      </trkpt>
      <trkpt lat="48.8311" lon="2.34427">
        <ele>92.5</ele>
        <time>2013-04-03T19:25:07.000Z</time>
      </trkpt>
      <trkpt lat="48.8311" lon="2.34427">
        <ele>92.5</ele>
        <time>2013-04-03T19:25:08.000Z</time>
      </trkpt>
      <trkpt lat="48.8311" lon="2.34434">
        <ele>85.4</ele>
        <time>2013-04-03T19:25:12.000Z</time>
      </trkpt>
      <trkpt lat="48.83109" lon="2.34435">
        <ele>84.9</ele>
        <time>2013-04-03T19:25:13.000Z</time>
      </trkpt>
      <trkpt lat="48.83112" lon="2.34439">
        <ele>88.2</ele>
        <time>2013-04-03T19:25:31.000Z</time>
      </trkpt>
      <trkpt lat="48.83113" lon="2.34439">
        <ele>90</ele>
        <time>2013-04-03T19:25:32.000Z</time>
      </trkpt>
      <trkpt lat="48.83117" lon="2.34439">
        <ele>92.6</ele>
        <time>2013-04-03T19:25:34.000Z</time>
      </trkpt>
      <trkpt lat="48.83119" lon="2.34439">
        <ele>93.6</ele>
        <time>2013-04-03T19:25:35.000Z</time>
      </trkpt>
      <trkpt lat="48.83122" lon="2.34441">
        <ele>94.7</ele>
        <time>2013-04-03T19:25:37.000Z</time>
      </trkpt>
      <trkpt lat="48.83124" lon="2.34441">
        <ele>95.2</ele>
        <time>2013-04-03T19:25:38.000Z</time>
      </trkpt>
      <trkpt lat="48.83127" lon="2.34443">
        <ele>96.9</ele>
        <time>2013-04-03T19:25:40.000Z</time>
      </trkpt>
      <trkpt lat="48.83128" lon="2.34444">
        <ele>97</ele>
        <time>2013-04-03T19:25:41.000Z</time>
      </trkpt>
      <trkpt lat="48.83132" lon="2.34444">
        <ele>97.1</ele>
        <time>2013-04-03T19:25:43.000Z</time>
      </trkpt>
      <trkpt lat="48.83134" lon="2.34444">
        <ele>98.8</ele>
        <time>2013-04-03T19:25:44.000Z</time>
      </trkpt>
      <trkpt lat="48.83137" lon="2.34443">
        <ele>97.2</ele>
        <time>2013-04-03T19:25:46.000Z</time>
      </trkpt>
      <trkpt lat="48.83139" lon="2.34442">
        <ele>92.5</ele>
        <time>2013-04-03T19:25:47.000Z</time>
      </trkpt>
      <trkpt lat="48.83143" lon="2.34441">
        <ele>88.9</ele>
        <time>2013-04-03T19:25:48.000Z</time>
      </trkpt>
      <trkpt lat="48.83146" lon="2.34439">
        <ele>87.8</ele>
        <time>2013-04-03T19:25:49.000Z</time>
      </trkpt>
      <trkpt lat="48.83149" lon="2.34437">
        <ele>86.3</ele>
        <time>2013-04-03T19:25:50.000Z</time>
      </trkpt>
      <trkpt lat="48.83153" lon="2.34436">
        <ele>85.6</ele>
        <time>2013-04-03T19:25:51.000Z</time>
      </trkpt>
      <trkpt lat="48.83156" lon="2.34434">
        <ele>84.7</ele>
        <time>2013-04-03T19:25:52.000Z</time>
      </trkpt>
      <trkpt lat="48.83159" lon="2.34434">
        <ele>83</ele>
        <time>2013-04-03T19:25:53.000Z</time>
      </trkpt>
      <trkpt lat="48.83162" lon="2.34435">
        <ele>82.8</ele>
        <time>2013-04-03T19:25:54.000Z</time>
      </trkpt>
      <trkpt lat="48.83164" lon="2.34436">
        <ele>83.2</ele>
        <time>2013-04-03T19:25:55.000Z</time>
      </trkpt>
      <trkpt lat="48.83166" lon="2.34438">
        <ele>82.8</ele>
        <time>2013-04-03T19:25:56.000Z</time>
      </trkpt>
      <trkpt lat="48.83168" lon="2.34441">
        <ele>83.7</ele>
        <time>2013-04-03T19:25:57.000Z</time>
      </trkpt>
      <trkpt lat="48.83169" lon="2.34445">
        <ele>84.9</ele>
        <time>2013-04-03T19:25:58.000Z</time>
      </trkpt>
      <trkpt lat="48.83169" lon="2.34448">
        <ele>84.6</ele>
        <time>2013-04-03T19:25:59.000Z</time>
      </trkpt>
      <trkpt lat="48.8317" lon="2.34452">
        <ele>84.1</ele>
        <time>2013-04-03T19:26:00.000Z</time>
      </trkpt>
      <trkpt lat="48.8317" lon="2.34456">
        <ele>82.5</ele>
        <time>2013-04-03T19:26:01.000Z</time>
      </trkpt>
      <trkpt lat="48.8317" lon="2.3446">
        <ele>82.1</ele>
        <time>2013-04-03T19:26:02.000Z</time>
      </trkpt>
      <trkpt lat="48.8317" lon="2.34465">
        <ele>80.7</ele>
        <time>2013-04-03T19:26:03.000Z</time>
      </trkpt>
      <trkpt lat="48.8317" lon="2.3447">
        <ele>80.7</ele>
        <time>2013-04-03T19:26:04.000Z</time>
      </trkpt>
      <trkpt lat="48.8317" lon="2.34475">
        <ele>80.4</ele>
        <time>2013-04-03T19:26:05.000Z</time>
      </trkpt>
      <trkpt lat="48.8317" lon="2.34479">
        <ele>79.4</ele>
        <time>2013-04-03T19:26:06.000Z</time>
      </trkpt>
      <trkpt lat="48.83172" lon="2.34482">
        <ele>78.4</ele>
        <time>2013-04-03T19:26:07.000Z</time>
      </trkpt>
      <trkpt lat="48.83174" lon="2.34484">
        <ele>76.7</ele>
        <time>2013-04-03T19:26:08.000Z</time>
      </trkpt>
      <trkpt lat="48.83177" lon="2.34487">
        <ele>75.4</ele>
        <time>2013-04-03T19:26:09.000Z</time>
      </trkpt>
      <trkpt lat="48.83179" lon="2.34488">
        <ele>71.7</ele>
        <time>2013-04-03T19:26:10.000Z</time>
      </trkpt>
      <trkpt lat="48.83181" lon="2.3449">
        <ele>70.6</ele>
        <time>2013-04-03T19:26:11.000Z</time>
      </trkpt>
      <trkpt lat="48.83183" lon="2.34492">
        <ele>71</ele>
        <time>2013-04-03T19:26:12.000Z</time>
      </trkpt>
      <trkpt lat="48.83185" lon="2.34494">
        <ele>72.5</ele>
        <time>2013-04-03T19:26:13.000Z</time>
      </trkpt>
      <trkpt lat="48.83187" lon="2.34496">
        <ele>72.6</ele>
        <time>2013-04-03T19:26:14.000Z</time>
      </trkpt>
      <trkpt lat="48.83189" lon="2.34499">
        <ele>74.2</ele>
        <time>2013-04-03T19:26:15.000Z</time>
      </trkpt>
      <trkpt lat="48.83191" lon="2.34502">
        <ele>74.6</ele>
        <time>2013-04-03T19:26:16.000Z</time>
      </trkpt>
      <trkpt lat="48.83193" lon="2.34505">
        <ele>75.5</ele>
        <time>2013-04-03T19:26:17.000Z</time>
      </trkpt>
      <trkpt lat="48.83195" lon="2.34508">
        <ele>76.6</ele>
        <time>2013-04-03T19:26:18.000Z</time>
      </trkpt>
      <trkpt lat="48.83198" lon="2.34511">
        <ele>78.4</ele>
        <time>2013-04-03T19:26:19.000Z</time>
      </trkpt>
      <trkpt lat="48.832" lon="2.34513">
        <ele>80.1</ele>
        <time>2013-04-03T19:26:20.000Z</time>
      </trkpt>
      <trkpt lat="48.83202" lon="2.34517">
        <ele>82.4</ele>
        <time>2013-04-03T19:26:21.000Z</time>
      </trkpt>
      <trkpt lat="48.83203" lon="2.34521">
        <ele>82.9</ele>
        <time>2013-04-03T19:26:22.000Z</time>
      </trkpt>
      <trkpt lat="48.83204" lon="2.34525">
        <ele>82.7</ele>
        <time>2013-04-03T19:26:23.000Z</time>
      </trkpt>
      <trkpt lat="48.83205" lon="2.34529">
        <ele>82.8</ele>
        <time>2013-04-03T19:26:24.000Z</time>
      </trkpt>
      <trkpt lat="48.83206" lon="2.34533">
        <ele>83.3</ele>
        <time>2013-04-03T19:26:25.000Z</time>
      </trkpt>
      <trkpt lat="48.83207" lon="2.34537">
        <ele>84.1</ele>
        <time>2013-04-03T19:26:26.000Z</time>
      </trkpt>
      <trkpt lat="48.83209" lon="2.34542">
        <ele>85.3</ele>
        <time>2013-04-03T19:26:27.000Z</time>
      </trkpt>
      <trkpt lat="48.83211" lon="2.34545">
        <ele>86.1</ele>
        <time>2013-04-03T19:26:28.000Z</time>
      </trkpt>
      <trkpt lat="48.83213" lon="2.34548">
        <ele>86.2</ele>
        <time>2013-04-03T19:26:29.000Z</time>
      </trkpt>
      <trkpt lat="48.83215" lon="2.34551">
        <ele>86.3</ele>
        <time>2013-04-03T19:26:30.000Z</time>
      </trkpt>
      <trkpt lat="48.83217" lon="2.34554">
        <ele>86.9</ele>
        <time>2013-04-03T19:26:31.000Z</time>
      </trkpt>
      <trkpt lat="48.83218" lon="2.34556">
        <ele>85.8</ele>
        <time>2013-04-03T19:26:32.000Z</time>
      </trkpt>
      <trkpt lat="48.8322" lon="2.34559">
        <ele>86.5</ele>
        <time>2013-04-03T19:26:33.000Z</time>
      </trkpt>
      <trkpt lat="48.83223" lon="2.34563">
        <ele>87.8</ele>
        <time>2013-04-03T19:26:35.000Z</time>
      </trkpt>
      <trkpt lat="48.83225" lon="2.34565">
        <ele>88</ele>
        <time>2013-04-03T19:26:36.000Z</time>
      </trkpt>
      <trkpt lat="48.83227" lon="2.3457">
        <ele>88.6</ele>
        <time>2013-04-03T19:26:38.000Z</time>
      </trkpt>
      <trkpt lat="48.83228" lon="2.34572">
        <ele>88.7</ele>
        <time>2013-04-03T19:26:39.000Z</time>
      </trkpt>
      <trkpt lat="48.83231" lon="2.34578">
        <ele>88.2</ele>
        <time>2013-04-03T19:26:41.000Z</time>
      </trkpt>
      <trkpt lat="48.83232" lon="2.3458">
        <ele>87.8</ele>
        <time>2013-04-03T19:26:42.000Z</time>
      </trkpt>
      <trkpt lat="48.83234" lon="2.34582">
        <ele>87.2</ele>
        <time>2013-04-03T19:26:43.000Z</time>
      </trkpt>
      <trkpt lat="48.83235" lon="2.34586">
        <ele>86.7</ele>
        <time>2013-04-03T19:26:44.000Z</time>
      </trkpt>
      <trkpt lat="48.83235" lon="2.34589">
        <ele>85.9</ele>
        <time>2013-04-03T19:26:45.000Z</time>
      </trkpt>
      <trkpt lat="48.83236" lon="2.34593">
        <ele>85.6</ele>
        <time>2013-04-03T19:26:46.000Z</time>
      </trkpt>
      <trkpt lat="48.83238" lon="2.34598">
        <ele>85.3</ele>
        <time>2013-04-03T19:26:48.000Z</time>
      </trkpt>
      <trkpt lat="48.83239" lon="2.346">
        <ele>85.8</ele>
        <time>2013-04-03T19:26:49.000Z</time>
      </trkpt>
      <trkpt lat="48.83241" lon="2.34603">
        <ele>86.5</ele>
        <time>2013-04-03T19:26:50.000Z</time>
      </trkpt>
      <trkpt lat="48.83242" lon="2.34606">
        <ele>85.3</ele>
        <time>2013-04-03T19:26:51.000Z</time>
      </trkpt>
      <trkpt lat="48.83244" lon="2.34609">
        <ele>85.4</ele>
        <time>2013-04-03T19:26:52.000Z</time>
      </trkpt>
      <trkpt lat="48.83246" lon="2.34611">
        <ele>85.2</ele>
        <time>2013-04-03T19:26:53.000Z</time>
      </trkpt>
      <trkpt lat="48.83249" lon="2.34615">
        <ele>83.7</ele>
        <time>2013-04-03T19:26:55.000Z</time>
      </trkpt>
      <trkpt lat="48.83251" lon="2.34617">
        <ele>83.9</ele>
        <time>2013-04-03T19:26:56.000Z</time>
      </trkpt>
      <trkpt lat="48.83252" lon="2.34624">
        <ele>84.8</ele>
        <time>2013-04-03T19:26:58.000Z</time>
      </trkpt>
      <trkpt lat="48.83253" lon="2.34627">
        <ele>84</ele>
        <time>2013-04-03T19:26:59.000Z</time>
      </trkpt>
      <trkpt lat="48.83253" lon="2.34631">
        <ele>84.1</ele>
        <time>2013-04-03T19:27:00.000Z</time>
      </trkpt>
      <trkpt lat="48.83253" lon="2.34635">
        <ele>83.6</ele>
        <time>2013-04-03T19:27:01.000Z</time>
      </trkpt>
      <trkpt lat="48.83254" lon="2.34638">
        <ele>82.9</ele>
        <time>2013-04-03T19:27:02.000Z</time>
      </trkpt>
      <trkpt lat="48.83255" lon="2.34642">
        <ele>83.1</ele>
        <time>2013-04-03T19:27:03.000Z</time>
      </trkpt>
      <trkpt lat="48.83256" lon="2.34645">
        <ele>82.9</ele>
        <time>2013-04-03T19:27:04.000Z</time>
      </trkpt>
      <trkpt lat="48.83256" lon="2.34648">
        <ele>82.8</ele>
        <time>2013-04-03T19:27:05.000Z</time>
      </trkpt>
      <trkpt lat="48.83257" lon="2.34655">
        <ele>84</ele>
        <time>2013-04-03T19:27:09.000Z</time>
      </trkpt>
      <trkpt lat="48.83257" lon="2.34656">
        <ele>84.8</ele>
        <time>2013-04-03T19:27:10.000Z</time>
      </trkpt>
      <trkpt lat="48.8326" lon="2.34661">
        <ele>87.3</ele>
        <time>2013-04-03T19:27:15.000Z</time>
      </trkpt>
      <trkpt lat="48.8326" lon="2.34662">
        <ele>87.1</ele>
        <time>2013-04-03T19:27:16.000Z</time>
      </trkpt>
      <trkpt lat="48.83258" lon="2.34667">
        <ele>87.3</ele>
        <time>2013-04-03T19:27:25.000Z</time>
      </trkpt>
      <trkpt lat="48.83258" lon="2.34668">
        <ele>86.7</ele>
        <time>2013-04-03T19:27:26.000Z</time>
      </trkpt>
      <trkpt lat="48.83258" lon="2.34673">
        <ele>89.4</ele>
        <time>2013-04-03T19:28:07.000Z</time>
      </trkpt>
      <trkpt lat="48.83259" lon="2.34675">
        <ele>88.1</ele>
        <time>2013-04-03T19:28:08.000Z</time>
      </trkpt>
      <trkpt lat="48.83261" lon="2.34678">
        <ele>89.7</ele>
        <time>2013-04-03T19:28:09.000Z</time>
      </trkpt>
      <trkpt lat="48.83263" lon="2.3468">
        <ele>91.9</ele>
        <time>2013-04-03T19:28:10.000Z</time>
      </trkpt>
      <trkpt lat="48.83266" lon="2.34682">
        <ele>93.6</ele>
        <time>2013-04-03T19:28:11.000Z</time>
      </trkpt>
      <trkpt lat="48.83268" lon="2.34684">
        <ele>93.6</ele>
        <time>2013-04-03T19:28:12.000Z</time>
      </trkpt>
      <trkpt lat="48.83271" lon="2.34687">
        <ele>97.7</ele>
        <time>2013-04-03T19:28:14.000Z</time>
      </trkpt>
      <trkpt lat="48.83273" lon="2.34688">
        <ele>97.3</ele>
        <time>2013-04-03T19:28:15.000Z</time>
      </trkpt>
      <trkpt lat="48.83276" lon="2.34691">
        <ele>98.9</ele>
        <time>2013-04-03T19:28:17.000Z</time>
      </trkpt>
      <trkpt lat="48.83277" lon="2.34694">
        <ele>96.4</ele>
        <time>2013-04-03T19:28:18.000Z</time>
      </trkpt>
      <trkpt lat="48.83279" lon="2.347">
        <ele>93.1</ele>
        <time>2013-04-03T19:28:20.000Z</time>
      </trkpt>
      <trkpt lat="48.83279" lon="2.34702">
        <ele>91.5</ele>
        <time>2013-04-03T19:28:21.000Z</time>
      </trkpt>
      <trkpt lat="48.83281" lon="2.34707">
        <ele>91.5</ele>
        <time>2013-04-03T19:28:23.000Z</time>
      </trkpt>
      <trkpt lat="48.83281" lon="2.3471">
        <ele>92.4</ele>
        <time>2013-04-03T19:28:24.000Z</time>
      </trkpt>
      <trkpt lat="48.83281" lon="2.34715">
        <ele>92.3</ele>
        <time>2013-04-03T19:28:26.000Z</time>
      </trkpt>
      <trkpt lat="48.83281" lon="2.34718">
        <ele>91.8</ele>
        <time>2013-04-03T19:28:27.000Z</time>
      </trkpt>
      <trkpt lat="48.8328" lon="2.34724">
        <ele>89.9</ele>
        <time>2013-04-03T19:28:29.000Z</time>
      </trkpt>
      <trkpt lat="48.83279" lon="2.34726">
        <ele>90.3</ele>
        <time>2013-04-03T19:28:30.000Z</time>
      </trkpt>
      <trkpt lat="48.83278" lon="2.34732">
        <ele>89</ele>
        <time>2013-04-03T19:28:33.000Z</time>
      </trkpt>
      <trkpt lat="48.83277" lon="2.34733">
        <ele>88.2</ele>
        <time>2013-04-03T19:28:34.000Z</time>
      </trkpt>
      <trkpt lat="48.8328" lon="2.34729">
        <ele>89</ele>
        <time>2013-04-03T19:28:49.000Z</time>
      </trkpt>
      <trkpt lat="48.8328" lon="2.34728">
        <ele>89.7</ele>
        <time>2013-04-03T19:28:50.000Z</time>
      </trkpt>
      <trkpt lat="48.83279" lon="2.34733">
        <ele>86.2</ele>
        <time>2013-04-03T19:29:29.000Z</time>
      </trkpt>
      <trkpt lat="48.83279" lon="2.34736">
        <ele>86.5</ele>
        <time>2013-04-03T19:29:30.000Z</time>
      </trkpt>
      <trkpt lat="48.83281" lon="2.34742">
        <ele>86.5</ele>
        <time>2013-04-03T19:29:32.000Z</time>
      </trkpt>
      <trkpt lat="48.83283" lon="2.34745">
        <ele>87.5</ele>
        <time>2013-04-03T19:29:33.000Z</time>
      </trkpt>
      <trkpt lat="48.83285" lon="2.34748">
        <ele>89.6</ele>
        <time>2013-04-03T19:29:34.000Z</time>
      </trkpt>
      <trkpt lat="48.83288" lon="2.34751">
        <ele>88.5</ele>
        <time>2013-04-03T19:29:35.000Z</time>
      </trkpt>
      <trkpt lat="48.8329" lon="2.34754">
        <ele>88.8</ele>
        <time>2013-04-03T19:29:36.000Z</time>
      </trkpt>
      <trkpt lat="48.83292" lon="2.34757">
        <ele>89.5</ele>
        <time>2013-04-03T19:29:37.000Z</time>
      </trkpt>
      <trkpt lat="48.83294" lon="2.3476">
        <ele>88.2</ele>
        <time>2013-04-03T19:29:38.000Z</time>
      </trkpt>
      <trkpt lat="48.83296" lon="2.34763">
        <ele>89.1</ele>
        <time>2013-04-03T19:29:39.000Z</time>
      </trkpt>
      <trkpt lat="48.83298" lon="2.34766">
        <ele>88.4</ele>
        <time>2013-04-03T19:29:40.000Z</time>
      </trkpt>
      <trkpt lat="48.833" lon="2.34769">
        <ele>88.3</ele>
        <time>2013-04-03T19:29:41.000Z</time>
      </trkpt>
      <trkpt lat="48.83302" lon="2.34771">
        <ele>87.8</ele>
        <time>2013-04-03T19:29:42.000Z</time>
      </trkpt>
      <trkpt lat="48.83304" lon="2.34775">
        <ele>87.4</ele>
        <time>2013-04-03T19:29:43.000Z</time>
      </trkpt>
      <trkpt lat="48.83307" lon="2.34779">
        <ele>87.9</ele>
        <time>2013-04-03T19:29:44.000Z</time>
      </trkpt>
      <trkpt lat="48.83309" lon="2.34782">
        <ele>88.5</ele>
        <time>2013-04-03T19:29:45.000Z</time>
      </trkpt>
      <trkpt lat="48.83311" lon="2.34786">
        <ele>89.2</ele>
        <time>2013-04-03T19:29:46.000Z</time>
      </trkpt>
      <trkpt lat="48.83313" lon="2.34791">
        <ele>90</ele>
        <time>2013-04-03T19:29:47.000Z</time>
      </trkpt>
      <trkpt lat="48.83315" lon="2.34795">
        <ele>90</ele>
        <time>2013-04-03T19:29:48.000Z</time>
      </trkpt>
      <trkpt lat="48.83317" lon="2.34798">
        <ele>90</ele>
        <time>2013-04-03T19:29:49.000Z</time>
      </trkpt>
      <trkpt lat="48.83318" lon="2.34802">
        <ele>89.9</ele>
        <time>2013-04-03T19:29:50.000Z</time>
      </trkpt>
      <trkpt lat="48.8332" lon="2.34805">
        <ele>89</ele>
        <time>2013-04-03T19:29:51.000Z</time>
      </trkpt>
      <trkpt lat="48.83323" lon="2.3481">
        <ele>88.9</ele>
        <time>2013-04-03T19:29:53.000Z</time>
      </trkpt>
      <trkpt lat="48.83323" lon="2.3481">
        <ele>88.7</ele>
        <time>2013-04-03T19:29:54.000Z</time>
      </trkpt>
      <trkpt lat="48.83324" lon="2.34815">
        <ele>88.3</ele>
        <time>2013-04-03T19:29:56.000Z</time>
      </trkpt>
      <trkpt lat="48.83325" lon="2.34819">
        <ele>90</ele>
        <time>2013-04-03T19:29:57.000Z</time>
      </trkpt>
      <trkpt lat="48.83326" lon="2.34823">
        <ele>90.9</ele>
        <time>2013-04-03T19:29:58.000Z</time>
      </trkpt>
      <trkpt lat="48.83328" lon="2.34827">
        <ele>93.3</ele>
        <time>2013-04-03T19:29:59.000Z</time>
      </trkpt>
      <trkpt lat="48.8333" lon="2.34832">
        <ele>94.2</ele>
        <time>2013-04-03T19:30:00.000Z</time>
      </trkpt>
      <trkpt lat="48.83332" lon="2.34836">
        <ele>94.5</ele>
        <time>2013-04-03T19:30:01.000Z</time>
      </trkpt>
      <trkpt lat="48.83335" lon="2.34841">
        <ele>94.8</ele>
        <time>2013-04-03T19:30:02.000Z</time>
      </trkpt>
      <trkpt lat="48.83337" lon="2.34844">
        <ele>94.5</ele>
        <time>2013-04-03T19:30:03.000Z</time>
      </trkpt>
      <trkpt lat="48.83339" lon="2.34847">
        <ele>92.9</ele>
        <time>2013-04-03T19:30:04.000Z</time>
      </trkpt>
      <trkpt lat="48.83342" lon="2.3485">
        <ele>93.6</ele>
        <time>2013-04-03T19:30:05.000Z</time>
      </trkpt>
      <trkpt lat="48.83343" lon="2.34853">
        <ele>94.1</ele>
        <time>2013-04-03T19:30:06.000Z</time>
      </trkpt>
      <trkpt lat="48.83345" lon="2.34856">
        <ele>94.8</ele>
        <time>2013-04-03T19:30:07.000Z</time>
      </trkpt>
      <trkpt lat="48.83347" lon="2.34859">
        <ele>94.6</ele>
        <time>2013-04-03T19:30:08.000Z</time>
      </trkpt>
      <trkpt lat="48.83349" lon="2.34861">
        <ele>94</ele>
        <time>2013-04-03T19:30:09.000Z</time>
      </trkpt>
      <trkpt lat="48.83353" lon="2.34864">
        <ele>93.2</ele>
        <time>2013-04-03T19:30:11.000Z</time>
      </trkpt>
      <trkpt lat="48.83354" lon="2.34864">
        <ele>93.5</ele>
        <time>2013-04-03T19:30:12.000Z</time>
      </trkpt>
      <trkpt lat="48.83357" lon="2.34866">
        <ele>95.4</ele>
        <time>2013-04-03T19:30:14.000Z</time>
      </trkpt>
      <trkpt lat="48.83359" lon="2.34867">
        <ele>95.4</ele>
        <time>2013-04-03T19:30:15.000Z</time>
      </trkpt>
      <trkpt lat="48.83362" lon="2.34871">
        <ele>95</ele>
        <time>2013-04-03T19:30:17.000Z</time>
      </trkpt>
      <trkpt lat="48.83364" lon="2.34873">
        <ele>94.3</ele>
        <time>2013-04-03T19:30:18.000Z</time>
      </trkpt>
      <trkpt lat="48.83367" lon="2.34874">
        <ele>95</ele>
        <time>2013-04-03T19:30:19.000Z</time>
      </trkpt>
      <trkpt lat="48.83369" lon="2.34874">
        <ele>95.4</ele>
        <time>2013-04-03T19:30:20.000Z</time>
      </trkpt>
      <trkpt lat="48.83372" lon="2.34876">
        <ele>96.4</ele>
        <time>2013-04-03T19:30:22.000Z</time>
      </trkpt>
      <trkpt lat="48.83373" lon="2.34877">
        <ele>95.6</ele>
        <time>2013-04-03T19:30:23.000Z</time>
      </trkpt>
      <trkpt lat="48.83377" lon="2.34876">
        <ele>93.4</ele>
        <time>2013-04-03T19:30:28.000Z</time>
      </trkpt>
      <trkpt lat="48.83378" lon="2.34877">
        <ele>93.4</ele>
        <time>2013-04-03T19:30:29.000Z</time>
      </trkpt>
      <trkpt lat="48.83382" lon="2.34879">
        <ele>93.6</ele>
        <time>2013-04-03T19:30:31.000Z</time>
      </trkpt>
      <trkpt lat="48.83384" lon="2.34879">
        <ele>88.7</ele>
        <time>2013-04-03T19:30:32.000Z</time>
      </trkpt>
      <trkpt lat="48.83387" lon="2.34879">
        <ele>85.9</ele>
        <time>2013-04-03T19:30:34.000Z</time>
      </trkpt>
      <trkpt lat="48.83389" lon="2.34879">
        <ele>84.5</ele>
        <time>2013-04-03T19:30:35.000Z</time>
      </trkpt>
      <trkpt lat="48.83392" lon="2.34882">
        <ele>82.4</ele>
        <time>2013-04-03T19:30:37.000Z</time>
      </trkpt>
      <trkpt lat="48.83394" lon="2.34883">
        <ele>79.2</ele>
        <time>2013-04-03T19:30:38.000Z</time>
      </trkpt>
      <trkpt lat="48.83397" lon="2.34885">
        <ele>76.9</ele>
        <time>2013-04-03T19:30:40.000Z</time>
      </trkpt>
      <trkpt lat="48.834" lon="2.34885">
        <ele>77</ele>
        <time>2013-04-03T19:30:41.000Z</time>
      </trkpt>
      <trkpt lat="48.83402" lon="2.34885">
        <ele>77.8</ele>
        <time>2013-04-03T19:30:42.000Z</time>
      </trkpt>
      <trkpt lat="48.83406" lon="2.34886">
        <ele>78.8</ele>
        <time>2013-04-03T19:30:43.000Z</time>
      </trkpt>
      <trkpt lat="48.83409" lon="2.34886">
        <ele>79.7</ele>
        <time>2013-04-03T19:30:44.000Z</time>
      </trkpt>
      <trkpt lat="48.83412" lon="2.34886">
        <ele>80.6</ele>
        <time>2013-04-03T19:30:45.000Z</time>
      </trkpt>
      <trkpt lat="48.83416" lon="2.34887">
        <ele>79.3</ele>
        <time>2013-04-03T19:30:47.000Z</time>
      </trkpt>
      <trkpt lat="48.83417" lon="2.34887">
        <ele>80.2</ele>
        <time>2013-04-03T19:30:48.000Z</time>
      </trkpt>
      <trkpt lat="48.83421" lon="2.34889">
        <ele>90.3</ele>
        <time>2013-04-03T19:30:52.000Z</time>
      </trkpt>
      <trkpt lat="48.83423" lon="2.34889">
        <ele>88</ele>
        <time>2013-04-03T19:30:53.000Z</time>
      </trkpt>
      <trkpt lat="48.83425" lon="2.34891">
        <ele>86.1</ele>
        <time>2013-04-03T19:30:55.000Z</time>
      </trkpt>
      <trkpt lat="48.83427" lon="2.34892">
        <ele>85.7</ele>
        <time>2013-04-03T19:30:56.000Z</time>
      </trkpt>
      <trkpt lat="48.8343" lon="2.34893">
        <ele>85.3</ele>
        <time>2013-04-03T19:30:58.000Z</time>
      </trkpt>
      <trkpt lat="48.83432" lon="2.34895">
        <ele>85.1</ele>
        <time>2013-04-03T19:30:59.000Z</time>
      </trkpt>
      <trkpt lat="48.83435" lon="2.34898">
        <ele>85.9</ele>
        <time>2013-04-03T19:31:02.000Z</time>
      </trkpt>
      <trkpt lat="48.83437" lon="2.34898">
        <ele>86.7</ele>
        <time>2013-04-03T19:31:03.000Z</time>
      </trkpt>
      <trkpt lat="48.8344" lon="2.34897">
        <ele>89.7</ele>
        <time>2013-04-03T19:31:07.000Z</time>
      </trkpt>
      <trkpt lat="48.83441" lon="2.34897">
        <ele>90.3</ele>
        <time>2013-04-03T19:31:08.000Z</time>
      </trkpt>
      <trkpt lat="48.83445" lon="2.34897">
        <ele>89.8</ele>
        <time>2013-04-03T19:31:10.000Z</time>
      </trkpt>
      <trkpt lat="48.83448" lon="2.34895">
        <ele>90.6</ele>
        <time>2013-04-03T19:31:11.000Z</time>
      </trkpt>
      <trkpt lat="48.83452" lon="2.34893">
        <ele>89.9</ele>
        <time>2013-04-03T19:31:12.000Z</time>
      </trkpt>
      <trkpt lat="48.83456" lon="2.34892">
        <ele>88.9</ele>
        <time>2013-04-03T19:31:13.000Z</time>
      </trkpt>
      <trkpt lat="48.8346" lon="2.3489">
        <ele>87.7</ele>
        <time>2013-04-03T19:31:14.000Z</time>
      </trkpt>
      <trkpt lat="48.83464" lon="2.34888">
        <ele>87.4</ele>
        <time>2013-04-03T19:31:15.000Z</time>
      </trkpt>
      <trkpt lat="48.83469" lon="2.34887">
        <ele>87.6</ele>
        <time>2013-04-03T19:31:16.000Z</time>
      </trkpt>
      <trkpt lat="48.83473" lon="2.34886">
        <ele>87.8</ele>
        <time>2013-04-03T19:31:17.000Z</time>
      </trkpt>
      <trkpt lat="48.83477" lon="2.34885">
        <ele>87.3</ele>
        <time>2013-04-03T19:31:18.000Z</time>
      </trkpt>
      <trkpt lat="48.83481" lon="2.34882">
        <ele>85.6</ele>
        <time>2013-04-03T19:31:19.000Z</time>
      </trkpt>
      <trkpt lat="48.83484" lon="2.34879">
        <ele>85.4</ele>
        <time>2013-04-03T19:31:20.000Z</time>
      </trkpt>
      <trkpt lat="48.83487" lon="2.34877">
        <ele>85.4</ele>
        <time>2013-04-03T19:31:21.000Z</time>
      </trkpt>
      <trkpt lat="48.83489" lon="2.34876">
        <ele>84.5</ele>
        <time>2013-04-03T19:31:22.000Z</time>
      </trkpt>
      <trkpt lat="48.83492" lon="2.34876">
        <ele>84.4</ele>
        <time>2013-04-03T19:31:23.000Z</time>
      </trkpt>
      <trkpt lat="48.83494" lon="2.34876">
        <ele>85</ele>
        <time>2013-04-03T19:31:24.000Z</time>
      </trkpt>
      <trkpt lat="48.83497" lon="2.34876">
        <ele>86.7</ele>
        <time>2013-04-03T19:31:25.000Z</time>
      </trkpt>
      <trkpt lat="48.83501" lon="2.34877">
        <ele>86.4</ele>
        <time>2013-04-03T19:31:27.000Z</time>
      </trkpt>
      <trkpt lat="48.83503" lon="2.34876">
        <ele>87.3</ele>
        <time>2013-04-03T19:31:28.000Z</time>
      </trkpt>
      <trkpt lat="48.83505" lon="2.34876">
        <ele>87.5</ele>
        <time>2013-04-03T19:31:29.000Z</time>
      </trkpt>
      <trkpt lat="48.83508" lon="2.34875">
        <ele>85.4</ele>
        <time>2013-04-03T19:31:30.000Z</time>
      </trkpt>
      <trkpt lat="48.83512" lon="2.34873">
        <ele>83.6</ele>
        <time>2013-04-03T19:31:31.000Z</time>
      </trkpt>
      <trkpt lat="48.83515" lon="2.34871">
        <ele>81.1</ele>
        <time>2013-04-03T19:31:32.000Z</time>
      </trkpt>
      <trkpt lat="48.83519" lon="2.34869">
        <ele>79.3</ele>
        <time>2013-04-03T19:31:33.000Z</time>
      </trkpt>
      <trkpt lat="48.83524" lon="2.34868">
        <ele>79.2</ele>
        <time>2013-04-03T19:31:34.000Z</time>
      </trkpt>
      <trkpt lat="48.83528" lon="2.34866">
        <ele>77.6</ele>
        <time>2013-04-03T19:31:35.000Z</time>
      </trkpt>
      <trkpt lat="48.83531" lon="2.34865">
        <ele>76.3</ele>
        <time>2013-04-03T19:31:36.000Z</time>
      </trkpt>
      <trkpt lat="48.83534" lon="2.34863">
        <ele>76.1</ele>
        <time>2013-04-03T19:31:37.000Z</time>
      </trkpt>
      <trkpt lat="48.83537" lon="2.34861">
        <ele>75.2</ele>
        <time>2013-04-03T19:31:38.000Z</time>
      </trkpt>
      <trkpt lat="48.83539" lon="2.3486">
        <ele>76</ele>
        <time>2013-04-03T19:31:39.000Z</time>
      </trkpt>
      <trkpt lat="48.83542" lon="2.34859">
        <ele>76.1</ele>
        <time>2013-04-03T19:31:40.000Z</time>
      </trkpt>
      <trkpt lat="48.83544" lon="2.34859">
        <ele>76.8</ele>
        <time>2013-04-03T19:31:41.000Z</time>
      </trkpt>
      <trkpt lat="48.83547" lon="2.34859">
        <ele>77</ele>
        <time>2013-04-03T19:31:42.000Z</time>
      </trkpt>
      <trkpt lat="48.83551" lon="2.34859">
        <ele>77.8</ele>
        <time>2013-04-03T19:31:44.000Z</time>
      </trkpt>
      <trkpt lat="48.83553" lon="2.34859">
        <ele>77.3</ele>
        <time>2013-04-03T19:31:45.000Z</time>
      </trkpt>
      <trkpt lat="48.83556" lon="2.34857">
        <ele>76.5</ele>
        <time>2013-04-03T19:31:48.000Z</time>
      </trkpt>
      <trkpt lat="48.83557" lon="2.34857">
        <ele>76.9</ele>
        <time>2013-04-03T19:31:49.000Z</time>
      </trkpt>
      <trkpt lat="48.8356" lon="2.34862">
        <ele>72.8</ele>
        <time>2013-04-03T19:32:35.000Z</time>
      </trkpt>
      <trkpt lat="48.8356" lon="2.34864">
        <ele>70.3</ele>
        <time>2013-04-03T19:32:36.000Z</time>
      </trkpt>
      <trkpt lat="48.83563" lon="2.34869">
        <ele>70.4</ele>
        <time>2013-04-03T19:32:38.000Z</time>
      </trkpt>
      <trkpt lat="48.83565" lon="2.34872">
        <ele>70.5</ele>
        <time>2013-04-03T19:32:39.000Z</time>
      </trkpt>
      <trkpt lat="48.83566" lon="2.34875">
        <ele>70.7</ele>
        <time>2013-04-03T19:32:40.000Z</time>
      </trkpt>
      <trkpt lat="48.83567" lon="2.34878">
        <ele>70.2</ele>
        <time>2013-04-03T19:32:41.000Z</time>
      </trkpt>
      <trkpt lat="48.83569" lon="2.34882">
        <ele>70</ele>
        <time>2013-04-03T19:32:43.000Z</time>
      </trkpt>
      <trkpt lat="48.8357" lon="2.34884">
        <ele>70.7</ele>
        <time>2013-04-03T19:32:44.000Z</time>
      </trkpt>
      <trkpt lat="48.83573" lon="2.34887">
        <ele>71.7</ele>
        <time>2013-04-03T19:32:47.000Z</time>
      </trkpt>
      <trkpt lat="48.83574" lon="2.34887">
        <ele>71.6</ele>
        <time>2013-04-03T19:32:48.000Z</time>
      </trkpt>
      <trkpt lat="48.83579" lon="2.34885">
        <ele>71.4</ele>
        <time>2013-04-03T19:32:51.000Z</time>
      </trkpt>
      <trkpt lat="48.83579" lon="2.34884">
        <ele>70.7</ele>
        <time>2013-04-03T19:32:52.000Z</time>
      </trkpt>
      <trkpt lat="48.83582" lon="2.34879">
        <ele>74.3</ele>
        <time>2013-04-03T19:33:10.000Z</time>
      </trkpt>
      <trkpt lat="48.83583" lon="2.34878">
        <ele>73.8</ele>
        <time>2013-04-03T19:33:11.000Z</time>
      </trkpt>
      <trkpt lat="48.83587" lon="2.34876">
        <ele>73.4</ele>
        <time>2013-04-03T19:33:13.000Z</time>
      </trkpt>
      <trkpt lat="48.83589" lon="2.34874">
        <ele>73.5</ele>
        <time>2013-04-03T19:33:14.000Z</time>
      </trkpt>
      <trkpt lat="48.83592" lon="2.34872">
        <ele>76.3</ele>
        <time>2013-04-03T19:33:16.000Z</time>
      </trkpt>
      <trkpt lat="48.83593" lon="2.34871">
        <ele>76.9</ele>
        <time>2013-04-03T19:33:17.000Z</time>
      </trkpt>
      <trkpt lat="48.83595" lon="2.34865">
        <ele>79.8</ele>
        <time>2013-04-03T19:33:20.000Z</time>
      </trkpt>
      <trkpt lat="48.83595" lon="2.34864">
        <ele>80.3</ele>
        <time>2013-04-03T19:33:21.000Z</time>
      </trkpt>
      <trkpt lat="48.83599" lon="2.34859">
        <ele>82.4</ele>
        <time>2013-04-03T19:33:24.000Z</time>
      </trkpt>
      <trkpt lat="48.836" lon="2.34859">
        <ele>83.5</ele>
        <time>2013-04-03T19:33:25.000Z</time>
      </trkpt>
      <trkpt lat="48.83603" lon="2.34862">
        <ele>88.1</ele>
        <time>2013-04-03T19:33:28.000Z</time>
      </trkpt>
      <trkpt lat="48.83604" lon="2.34863">
        <ele>88.8</ele>
        <time>2013-04-03T19:33:29.000Z</time>
      </trkpt>
      <trkpt lat="48.83609" lon="2.34863">
        <ele>87.4</ele>
        <time>2013-04-03T19:33:32.000Z</time>
      </trkpt>
      <trkpt lat="48.8361" lon="2.34863">
        <ele>87.9</ele>
        <time>2013-04-03T19:33:33.000Z</time>
      </trkpt>
      <trkpt lat="48.83614" lon="2.34864">
        <ele>87</ele>
        <time>2013-04-03T19:33:36.000Z</time>
      </trkpt>
      <trkpt lat="48.83616" lon="2.34864">
        <ele>87.4</ele>
        <time>2013-04-03T19:33:37.000Z</time>
      </trkpt>
      <trkpt lat="48.83619" lon="2.34865">
        <ele>83.9</ele>
        <time>2013-04-03T19:33:39.000Z</time>
      </trkpt>
      <trkpt lat="48.83621" lon="2.34866">
        <ele>83</ele>
        <time>2013-04-03T19:33:40.000Z</time>
      </trkpt>
      <trkpt lat="48.83624" lon="2.34868">
        <ele>85.2</ele>
        <time>2013-04-03T19:33:42.000Z</time>
      </trkpt>
      <trkpt lat="48.83626" lon="2.34869">
        <ele>85</ele>
        <time>2013-04-03T19:33:43.000Z</time>
      </trkpt>
      <trkpt lat="48.83629" lon="2.34871">
        <ele>84.6</ele>
        <time>2013-04-03T19:33:45.000Z</time>
      </trkpt>
      <trkpt lat="48.8363" lon="2.34872">
        <ele>83.7</ele>
        <time>2013-04-03T19:33:46.000Z</time>
      </trkpt>
      <trkpt lat="48.83634" lon="2.34872">
        <ele>81.1</ele>
        <time>2013-04-03T19:33:50.000Z</time>
      </trkpt>
      <trkpt lat="48.83635" lon="2.34873">
        <ele>81.3</ele>
        <time>2013-04-03T19:33:51.000Z</time>
      </trkpt>
      <trkpt lat="48.83637" lon="2.34879">
        <ele>82.8</ele>
        <time>2013-04-03T19:33:56.000Z</time>
      </trkpt>
      <trkpt lat="48.83637" lon="2.34879">
        <ele>83.2</ele>
        <time>2013-04-03T19:33:57.000Z</time>
      </trkpt>
      <trkpt lat="48.8364" lon="2.34879">
        <ele>77.7</ele>
        <time>2013-04-03T19:34:02.000Z</time>
      </trkpt>
      <trkpt lat="48.83641" lon="2.34877">
        <ele>73.8</ele>
        <time>2013-04-03T19:34:03.000Z</time>
      </trkpt>
      <trkpt lat="48.83645" lon="2.34875">
        <ele>73.6</ele>
        <time>2013-04-03T19:34:05.000Z</time>
      </trkpt>
      <trkpt lat="48.83647" lon="2.34875">
        <ele>72.8</ele>
        <time>2013-04-03T19:34:06.000Z</time>
      </trkpt>
      <trkpt lat="48.8365" lon="2.34873">
        <ele>72.9</ele>
        <time>2013-04-03T19:34:09.000Z</time>
      </trkpt>
      <trkpt lat="48.83652" lon="2.34873">
        <ele>72.8</ele>
        <time>2013-04-03T19:34:10.000Z</time>
      </trkpt>
      <trkpt lat="48.83655" lon="2.34873">
        <ele>72.8</ele>
        <time>2013-04-03T19:34:13.000Z</time>
      </trkpt>
      <trkpt lat="48.83657" lon="2.34876">
        <ele>69.6</ele>
        <time>2013-04-03T19:34:14.000Z</time>
      </trkpt>
      <trkpt lat="48.83659" lon="2.34877">
        <ele>68.3</ele>
        <time>2013-04-03T19:34:15.000Z</time>
      </trkpt>
      <trkpt lat="48.83662" lon="2.3488">
        <ele>66.2</ele>
        <time>2013-04-03T19:34:16.000Z</time>
      </trkpt>
      <trkpt lat="48.83664" lon="2.34882">
        <ele>63.2</ele>
        <time>2013-04-03T19:34:17.000Z</time>
      </trkpt>
      <trkpt lat="48.83665" lon="2.34888">
        <ele>61.5</ele>
        <time>2013-04-03T19:34:18.000Z</time>
      </trkpt>
      <trkpt lat="48.8367" lon="2.3492">
        <ele>58.2</ele>
        <time>2013-04-03T19:34:19.000Z</time>
      </trkpt>
      <trkpt lat="48.83671" lon="2.34927">
        <ele>54</ele>
        <time>2013-04-03T19:34:20.000Z</time>
      </trkpt>
      <trkpt lat="48.83673" lon="2.3493">
        <ele>51.5</ele>
        <time>2013-04-03T19:34:21.000Z</time>
      </trkpt>
      <trkpt lat="48.83674" lon="2.34934">
        <ele>51.4</ele>
        <time>2013-04-03T19:34:22.000Z</time>
      </trkpt>
      <trkpt lat="48.83677" lon="2.34936">
        <ele>51.9</ele>
        <time>2013-04-03T19:34:23.000Z</time>
      </trkpt>
      <trkpt lat="48.8368" lon="2.34937">
        <ele>53.9</ele>
        <time>2013-04-03T19:34:24.000Z</time>
      </trkpt>
      <trkpt lat="48.837" lon="2.34924">
        <ele>51.1</ele>
        <time>2013-04-03T19:34:25.000Z</time>
      </trkpt>
      <trkpt lat="48.83704" lon="2.34926">
        <ele>50.1</ele>
        <time>2013-04-03T19:34:26.000Z</time>
      </trkpt>
      <trkpt lat="48.83707" lon="2.34926">
        <ele>50.2</ele>
        <time>2013-04-03T19:34:27.000Z</time>
      </trkpt>
      <trkpt lat="48.8371" lon="2.34927">
        <ele>50.7</ele>
        <time>2013-04-03T19:34:28.000Z</time>
      </trkpt>
      <trkpt lat="48.83712" lon="2.34927">
        <ele>52.2</ele>
        <time>2013-04-03T19:34:29.000Z</time>
      </trkpt>
      <trkpt lat="48.83715" lon="2.34927">
        <ele>56.2</ele>
        <time>2013-04-03T19:34:31.000Z</time>
      </trkpt>
      <trkpt lat="48.83717" lon="2.34927">
        <ele>56</ele>
        <time>2013-04-03T19:34:32.000Z</time>
      </trkpt>
      <trkpt lat="48.83721" lon="2.34926">
        <ele>58.6</ele>
        <time>2013-04-03T19:34:34.000Z</time>
      </trkpt>
      <trkpt lat="48.83724" lon="2.34925">
        <ele>59</ele>
        <time>2013-04-03T19:34:35.000Z</time>
      </trkpt>
      <trkpt lat="48.83726" lon="2.34924">
        <ele>60</ele>
        <time>2013-04-03T19:34:36.000Z</time>
      </trkpt>
      <trkpt lat="48.83729" lon="2.34924">
        <ele>61</ele>
        <time>2013-04-03T19:34:37.000Z</time>
      </trkpt>
      <trkpt lat="48.83732" lon="2.34924">
        <ele>62.6</ele>
        <time>2013-04-03T19:34:38.000Z</time>
      </trkpt>
      <trkpt lat="48.83738" lon="2.34925">
        <ele>63.4</ele>
        <time>2013-04-03T19:34:39.000Z</time>
      </trkpt>
      <trkpt lat="48.83742" lon="2.34925">
        <ele>63.2</ele>
        <time>2013-04-03T19:34:40.000Z</time>
      </trkpt>
      <trkpt lat="48.83744" lon="2.34925">
        <ele>63.9</ele>
        <time>2013-04-03T19:34:41.000Z</time>
      </trkpt>
      <trkpt lat="48.83748" lon="2.34923">
        <ele>62.9</ele>
        <time>2013-04-03T19:34:47.000Z</time>
      </trkpt>
      <trkpt lat="48.83749" lon="2.34922">
        <ele>63.3</ele>
        <time>2013-04-03T19:34:48.000Z</time>
      </trkpt>
      <trkpt lat="48.83752" lon="2.34921">
        <ele>64.6</ele>
        <time>2013-04-03T19:35:03.000Z</time>
      </trkpt>
      <trkpt lat="48.83754" lon="2.34922">
        <ele>66.8</ele>
        <time>2013-04-03T19:35:04.000Z</time>
      </trkpt>
      <trkpt lat="48.83756" lon="2.34923">
        <ele>70.9</ele>
        <time>2013-04-03T19:35:05.000Z</time>
      </trkpt>
      <trkpt lat="48.83758" lon="2.34926">
        <ele>72.5</ele>
        <time>2013-04-03T19:35:06.000Z</time>
      </trkpt>
      <trkpt lat="48.83761" lon="2.34929">
        <ele>74.3</ele>
        <time>2013-04-03T19:35:07.000Z</time>
      </trkpt>
      <trkpt lat="48.83764" lon="2.34932">
        <ele>76.4</ele>
        <time>2013-04-03T19:35:08.000Z</time>
      </trkpt>
      <trkpt lat="48.83766" lon="2.34935">
        <ele>78.8</ele>
        <time>2013-04-03T19:35:09.000Z</time>
      </trkpt>
      <trkpt lat="48.8377" lon="2.34937">
        <ele>82</ele>
        <time>2013-04-03T19:35:10.000Z</time>
      </trkpt>
      <trkpt lat="48.83773" lon="2.3494">
        <ele>84.8</ele>
        <time>2013-04-03T19:35:11.000Z</time>
      </trkpt>
      <trkpt lat="48.83776" lon="2.34942">
        <ele>86</ele>
        <time>2013-04-03T19:35:12.000Z</time>
      </trkpt>
      <trkpt lat="48.83778" lon="2.34945">
        <ele>85.2</ele>
        <time>2013-04-03T19:35:13.000Z</time>
      </trkpt>
      <trkpt lat="48.8378" lon="2.34947">
        <ele>87.6</ele>
        <time>2013-04-03T19:35:14.000Z</time>
      </trkpt>
      <trkpt lat="48.83783" lon="2.34948">
        <ele>88.7</ele>
        <time>2013-04-03T19:35:15.000Z</time>
      </trkpt>
      <trkpt lat="48.83786" lon="2.3495">
        <ele>89.7</ele>
        <time>2013-04-03T19:35:16.000Z</time>
      </trkpt>
      <trkpt lat="48.8379" lon="2.34952">
        <ele>89.6</ele>
        <time>2013-04-03T19:35:17.000Z</time>
      </trkpt>
      <trkpt lat="48.83794" lon="2.34953">
        <ele>89.6</ele>
        <time>2013-04-03T19:35:18.000Z</time>
      </trkpt>
      <trkpt lat="48.83798" lon="2.34953">
        <ele>90.8</ele>
        <time>2013-04-03T19:35:19.000Z</time>
      </trkpt>
      <trkpt lat="48.83803" lon="2.34953">
        <ele>90.5</ele>
        <time>2013-04-03T19:35:20.000Z</time>
      </trkpt>
      <trkpt lat="48.83807" lon="2.34954">
        <ele>91</ele>
        <time>2013-04-03T19:35:21.000Z</time>
      </trkpt>
      <trkpt lat="48.83811" lon="2.34956">
        <ele>90.8</ele>
        <time>2013-04-03T19:35:22.000Z</time>
      </trkpt>
      <trkpt lat="48.83816" lon="2.34957">
        <ele>90.3</ele>
        <time>2013-04-03T19:35:23.000Z</time>
      </trkpt>
      <trkpt lat="48.8382" lon="2.34958">
        <ele>91</ele>
        <time>2013-04-03T19:35:24.000Z</time>
      </trkpt>
      <trkpt lat="48.83825" lon="2.34958">
        <ele>90.7</ele>
        <time>2013-04-03T19:35:25.000Z</time>
      </trkpt>
      <trkpt lat="48.83829" lon="2.3496">
        <ele>91.1</ele>
        <time>2013-04-03T19:35:26.000Z</time>
      </trkpt>
      <trkpt lat="48.83833" lon="2.34961">
        <ele>91.1</ele>
        <time>2013-04-03T19:35:27.000Z</time>
      </trkpt>
      <trkpt lat="48.83837" lon="2.34964">
        <ele>91.5</ele>
        <time>2013-04-03T19:35:28.000Z</time>
      </trkpt>
      <trkpt lat="48.8384" lon="2.34966">
        <ele>92.1</ele>
        <time>2013-04-03T19:35:29.000Z</time>
      </trkpt>
      <trkpt lat="48.83842" lon="2.34967">
        <ele>91</ele>
        <time>2013-04-03T19:35:30.000Z</time>
      </trkpt>
      <trkpt lat="48.83845" lon="2.34969">
        <ele>90.7</ele>
        <time>2013-04-03T19:35:31.000Z</time>
      </trkpt>
      <trkpt lat="48.83847" lon="2.3497">
        <ele>87.3</ele>
        <time>2013-04-03T19:35:32.000Z</time>
      </trkpt>
      <trkpt lat="48.83849" lon="2.34972">
        <ele>85.4</ele>
        <time>2013-04-03T19:35:33.000Z</time>
      </trkpt>
      <trkpt lat="48.83852" lon="2.34976">
        <ele>84</ele>
        <time>2013-04-03T19:35:35.000Z</time>
      </trkpt>
      <trkpt lat="48.83853" lon="2.34978">
        <ele>83</ele>
        <time>2013-04-03T19:35:36.000Z</time>
      </trkpt>
      <trkpt lat="48.83856" lon="2.34982">
        <ele>82.2</ele>
        <time>2013-04-03T19:35:38.000Z</time>
      </trkpt>
      <trkpt lat="48.83858" lon="2.34983">
        <ele>81.6</ele>
        <time>2013-04-03T19:35:39.000Z</time>
      </trkpt>
      <trkpt lat="48.83862" lon="2.34982">
        <ele>79.1</ele>
        <time>2013-04-03T19:35:43.000Z</time>
      </trkpt>
      <trkpt lat="48.83863" lon="2.34981">
        <ele>78.7</ele>
        <time>2013-04-03T19:35:44.000Z</time>
      </trkpt>
      <trkpt lat="48.83867" lon="2.34979">
        <ele>78.2</ele>
        <time>2013-04-03T19:36:14.000Z</time>
      </trkpt>
      <trkpt lat="48.83868" lon="2.3498">
        <ele>78.5</ele>
        <time>2013-04-03T19:36:15.000Z</time>
      </trkpt>
      <trkpt lat="48.83872" lon="2.34982">
        <ele>82.7</ele>
        <time>2013-04-03T19:36:20.000Z</time>
      </trkpt>
      <trkpt lat="48.83872" lon="2.34982">
        <ele>82.4</ele>
        <time>2013-04-03T19:36:21.000Z</time>
      </trkpt>
      <trkpt lat="48.83874" lon="2.34977">
        <ele>82.2</ele>
        <time>2013-04-03T19:36:35.000Z</time>
      </trkpt>
      <trkpt lat="48.83876" lon="2.34976">
        <ele>81.4</ele>
        <time>2013-04-03T19:36:36.000Z</time>
      </trkpt>
      <trkpt lat="48.8388" lon="2.34977">
        <ele>81.4</ele>
        <time>2013-04-03T19:36:39.000Z</time>
      </trkpt>
      <trkpt lat="48.83881" lon="2.34979">
        <ele>80.4</ele>
        <time>2013-04-03T19:36:40.000Z</time>
      </trkpt>
      <trkpt lat="48.83883" lon="2.34982">
        <ele>79.2</ele>
        <time>2013-04-03T19:36:42.000Z</time>
      </trkpt>
      <trkpt lat="48.83885" lon="2.34983">
        <ele>78.5</ele>
        <time>2013-04-03T19:36:43.000Z</time>
      </trkpt>
      <trkpt lat="48.83887" lon="2.34985">
        <ele>76.5</ele>
        <time>2013-04-03T19:36:44.000Z</time>
      </trkpt>
      <trkpt lat="48.8389" lon="2.34987">
        <ele>74.1</ele>
        <time>2013-04-03T19:36:45.000Z</time>
      </trkpt>
      <trkpt lat="48.83892" lon="2.34989">
        <ele>75.9</ele>
        <time>2013-04-03T19:36:46.000Z</time>
      </trkpt>
      <trkpt lat="48.83894" lon="2.3499">
        <ele>74.6</ele>
        <time>2013-04-03T19:36:47.000Z</time>
      </trkpt>
      <trkpt lat="48.83898" lon="2.34994">
        <ele>72.1</ele>
        <time>2013-04-03T19:36:49.000Z</time>
      </trkpt>
      <trkpt lat="48.83899" lon="2.34996">
        <ele>71.5</ele>
        <time>2013-04-03T19:36:50.000Z</time>
      </trkpt>
      <trkpt lat="48.83902" lon="2.34997">
        <ele>70.5</ele>
        <time>2013-04-03T19:36:52.000Z</time>
      </trkpt>
      <trkpt lat="48.83904" lon="2.34999">
        <ele>73.3</ele>
        <time>2013-04-03T19:36:53.000Z</time>
      </trkpt>
      <trkpt lat="48.83908" lon="2.35">
        <ele>73.6</ele>
        <time>2013-04-03T19:36:56.000Z</time>
      </trkpt>
      <trkpt lat="48.83909" lon="2.35">
        <ele>73.8</ele>
        <time>2013-04-03T19:36:57.000Z</time>
      </trkpt>
      <trkpt lat="48.83913" lon="2.35003">
        <ele>74.9</ele>
        <time>2013-04-03T19:37:13.000Z</time>
      </trkpt>
      <trkpt lat="48.83913" lon="2.35005">
        <ele>74.8</ele>
        <time>2013-04-03T19:37:14.000Z</time>
      </trkpt>
      <trkpt lat="48.83915" lon="2.35009">
        <ele>73.8</ele>
        <time>2013-04-03T19:37:17.000Z</time>
      </trkpt>
      <trkpt lat="48.83916" lon="2.35011">
        <ele>73.6</ele>
        <time>2013-04-03T19:37:18.000Z</time>
      </trkpt>
      <trkpt lat="48.83919" lon="2.35012">
        <ele>73.9</ele>
        <time>2013-04-03T19:37:20.000Z</time>
      </trkpt>
      <trkpt lat="48.8392" lon="2.35014">
        <ele>73.5</ele>
        <time>2013-04-03T19:37:21.000Z</time>
      </trkpt>
      <trkpt lat="48.83924" lon="2.35018">
        <ele>73.7</ele>
        <time>2013-04-03T19:37:23.000Z</time>
      </trkpt>
      <trkpt lat="48.83926" lon="2.3502">
        <ele>74.2</ele>
        <time>2013-04-03T19:37:24.000Z</time>
      </trkpt>
      <trkpt lat="48.83928" lon="2.35023">
        <ele>73.6</ele>
        <time>2013-04-03T19:37:25.000Z</time>
      </trkpt>
      <trkpt lat="48.8393" lon="2.35025">
        <ele>73.8</ele>
        <time>2013-04-03T19:37:26.000Z</time>
      </trkpt>
      <trkpt lat="48.83932" lon="2.35027">
        <ele>72.1</ele>
        <time>2013-04-03T19:37:27.000Z</time>
      </trkpt>
      <trkpt lat="48.83934" lon="2.35029">
        <ele>71.3</ele>
        <time>2013-04-03T19:37:28.000Z</time>
      </trkpt>
      <trkpt lat="48.83936" lon="2.35031">
        <ele>72</ele>
        <time>2013-04-03T19:37:29.000Z</time>
      </trkpt>
      <trkpt lat="48.83938" lon="2.35034">
        <ele>72.5</ele>
        <time>2013-04-03T19:37:30.000Z</time>
      </trkpt>
      <trkpt lat="48.83939" lon="2.35037">
        <ele>72</ele>
        <time>2013-04-03T19:37:31.000Z</time>
      </trkpt>
      <trkpt lat="48.8394" lon="2.3504">
        <ele>71.9</ele>
        <time>2013-04-03T19:37:32.000Z</time>
      </trkpt>
      <trkpt lat="48.83941" lon="2.35043">
        <ele>72.4</ele>
        <time>2013-04-03T19:37:33.000Z</time>
      </trkpt>
      <trkpt lat="48.83942" lon="2.35046">
        <ele>72.5</ele>
        <time>2013-04-03T19:37:34.000Z</time>
      </trkpt>
      <trkpt lat="48.83943" lon="2.35049">
        <ele>71.7</ele>
        <time>2013-04-03T19:37:35.000Z</time>
      </trkpt>
      <trkpt lat="48.83944" lon="2.35053">
        <ele>69.9</ele>
        <time>2013-04-03T19:37:36.000Z</time>
      </trkpt>
      <trkpt lat="48.83944" lon="2.35056">
        <ele>69.7</ele>
        <time>2013-04-03T19:37:37.000Z</time>
      </trkpt>
      <trkpt lat="48.83944" lon="2.3506">
        <ele>69.5</ele>
        <time>2013-04-03T19:37:38.000Z</time>
      </trkpt>
      <trkpt lat="48.83945" lon="2.35064">
        <ele>69</ele>
        <time>2013-04-03T19:37:39.000Z</time>
      </trkpt>
      <trkpt lat="48.83945" lon="2.35067">
        <ele>67.7</ele>
        <time>2013-04-03T19:37:40.000Z</time>
      </trkpt>
      <trkpt lat="48.83946" lon="2.35071">
        <ele>65.8</ele>
        <time>2013-04-03T19:37:41.000Z</time>
      </trkpt>
      <trkpt lat="48.83946" lon="2.35075">
        <ele>64</ele>
        <time>2013-04-03T19:37:42.000Z</time>
      </trkpt>
      <trkpt lat="48.83947" lon="2.35079">
        <ele>62.7</ele>
        <time>2013-04-03T19:37:43.000Z</time>
      </trkpt>
      <trkpt lat="48.83948" lon="2.35082">
        <ele>62.7</ele>
        <time>2013-04-03T19:37:44.000Z</time>
      </trkpt>
      <trkpt lat="48.83951" lon="2.35087">
        <ele>67.1</ele>
        <time>2013-04-03T19:37:46.000Z</time>
      </trkpt>
      <trkpt lat="48.83952" lon="2.35088">
        <ele>65.8</ele>
        <time>2013-04-03T19:37:47.000Z</time>
      </trkpt>
      <trkpt lat="48.83955" lon="2.35092">
        <ele>64.1</ele>
        <time>2013-04-03T19:37:52.000Z</time>
      </trkpt>
      <trkpt lat="48.83955" lon="2.35093">
        <ele>64.4</ele>
        <time>2013-04-03T19:37:53.000Z</time>
      </trkpt>
      <trkpt lat="48.83959" lon="2.35097">
        <ele>66.4</ele>
        <time>2013-04-03T19:37:58.000Z</time>
      </trkpt>
      <trkpt lat="48.8396" lon="2.35098">
        <ele>67.3</ele>
        <time>2013-04-03T19:37:59.000Z</time>
      </trkpt>
      <trkpt lat="48.83963" lon="2.35102">
        <ele>71.7</ele>
        <time>2013-04-03T19:38:08.000Z</time>
      </trkpt>
      <trkpt lat="48.83964" lon="2.35102">
        <ele>72.1</ele>
        <time>2013-04-03T19:38:09.000Z</time>
      </trkpt>
      <trkpt lat="48.83965" lon="2.35108">
        <ele>71.7</ele>
        <time>2013-04-03T19:38:19.000Z</time>
      </trkpt>
      <trkpt lat="48.83966" lon="2.35108">
        <ele>71.3</ele>
        <time>2013-04-03T19:38:20.000Z</time>
      </trkpt>
      <trkpt lat="48.83962" lon="2.35111">
        <ele>70.8</ele>
        <time>2013-04-03T19:38:25.000Z</time>
      </trkpt>
      <trkpt lat="48.83962" lon="2.35111">
        <ele>71.3</ele>
        <time>2013-04-03T19:38:26.000Z</time>
      </trkpt>
      <trkpt lat="48.83964" lon="2.35116">
        <ele>71.3</ele>
        <time>2013-04-03T19:38:35.000Z</time>
      </trkpt>
      <trkpt lat="48.83965" lon="2.35119">
        <ele>70.2</ele>
        <time>2013-04-03T19:38:36.000Z</time>
      </trkpt>
      <trkpt lat="48.83967" lon="2.35124">
        <ele>70</ele>
        <time>2013-04-03T19:38:38.000Z</time>
      </trkpt>
      <trkpt lat="48.83968" lon="2.35126">
        <ele>70.3</ele>
        <time>2013-04-03T19:38:39.000Z</time>
      </trkpt>
      <trkpt lat="48.83969" lon="2.3513">
        <ele>70.9</ele>
        <time>2013-04-03T19:38:40.000Z</time>
      </trkpt>
      <trkpt lat="48.8397" lon="2.35133">
        <ele>71</ele>
        <time>2013-04-03T19:38:41.000Z</time>
      </trkpt>
      <trkpt lat="48.83971" lon="2.35137">
        <ele>70.7</ele>
        <time>2013-04-03T19:38:42.000Z</time>
      </trkpt>
      <trkpt lat="48.83972" lon="2.35142">
        <ele>72.6</ele>
        <time>2013-04-03T19:38:43.000Z</time>
      </trkpt>
      <trkpt lat="48.83974" lon="2.35144">
        <ele>74.9</ele>
        <time>2013-04-03T19:38:44.000Z</time>
      </trkpt>
      <trkpt lat="48.83977" lon="2.35146">
        <ele>75</ele>
        <time>2013-04-03T19:38:45.000Z</time>
      </trkpt>
      <trkpt lat="48.8398" lon="2.35147">
        <ele>75.4</ele>
        <time>2013-04-03T19:38:46.000Z</time>
      </trkpt>
      <trkpt lat="48.83982" lon="2.35149">
        <ele>75.4</ele>
        <time>2013-04-03T19:38:47.000Z</time>
      </trkpt>
      <trkpt lat="48.83984" lon="2.35154">
        <ele>73.9</ele>
        <time>2013-04-03T19:38:49.000Z</time>
      </trkpt>
      <trkpt lat="48.83985" lon="2.35155">
        <ele>73.5</ele>
        <time>2013-04-03T19:38:50.000Z</time>
      </trkpt>
      <trkpt lat="48.83987" lon="2.3516">
        <ele>72.7</ele>
        <time>2013-04-03T19:38:53.000Z</time>
      </trkpt>
      <trkpt lat="48.83989" lon="2.35162">
        <ele>70.8</ele>
        <time>2013-04-03T19:38:54.000Z</time>
      </trkpt>
      <trkpt lat="48.83992" lon="2.35166">
        <ele>72.2</ele>
        <time>2013-04-03T19:38:56.000Z</time>
      </trkpt>
      <trkpt lat="48.83994" lon="2.35168">
        <ele>74</ele>
        <time>2013-04-03T19:38:57.000Z</time>
      </trkpt>
      <trkpt lat="48.83997" lon="2.35172">
        <ele>75.8</ele>
        <time>2013-04-03T19:38:59.000Z</time>
      </trkpt>
      <trkpt lat="48.83999" lon="2.35174">
        <ele>74.6</ele>
        <time>2013-04-03T19:39:00.000Z</time>
      </trkpt>
      <trkpt lat="48.84" lon="2.35177">
        <ele>74.4</ele>
        <time>2013-04-03T19:39:01.000Z</time>
      </trkpt>
      <trkpt lat="48.84002" lon="2.3518">
        <ele>74</ele>
        <time>2013-04-03T19:39:02.000Z</time>
      </trkpt>
      <trkpt lat="48.84003" lon="2.35183">
        <ele>73.6</ele>
        <time>2013-04-03T19:39:03.000Z</time>
      </trkpt>
      <trkpt lat="48.84005" lon="2.35185">
        <ele>73.3</ele>
        <time>2013-04-03T19:39:04.000Z</time>
      </trkpt>
      <trkpt lat="48.84008" lon="2.35188">
        <ele>74.2</ele>
        <time>2013-04-03T19:39:06.000Z</time>
      </trkpt>
      <trkpt lat="48.84009" lon="2.3519">
        <ele>73.7</ele>
        <time>2013-04-03T19:39:07.000Z</time>
      </trkpt>
      <trkpt lat="48.84011" lon="2.35195">
        <ele>72.4</ele>
        <time>2013-04-03T19:39:09.000Z</time>
      </trkpt>
      <trkpt lat="48.84012" lon="2.35198">
        <ele>73.1</ele>
        <time>2013-04-03T19:39:10.000Z</time>
      </trkpt>
      <trkpt lat="48.84014" lon="2.35203">
        <ele>74.6</ele>
        <time>2013-04-03T19:39:12.000Z</time>
      </trkpt>
      <trkpt lat="48.84015" lon="2.35206">
        <ele>72.8</ele>
        <time>2013-04-03T19:39:13.000Z</time>
      </trkpt>
      <trkpt lat="48.84017" lon="2.35211">
        <ele>71.5</ele>
        <time>2013-04-03T19:39:15.000Z</time>
      </trkpt>
      <trkpt lat="48.84018" lon="2.35213">
        <ele>70.7</ele>
        <time>2013-04-03T19:39:16.000Z</time>
      </trkpt>
      <trkpt lat="48.8402" lon="2.35219">
        <ele>67.5</ele>
        <time>2013-04-03T19:39:18.000Z</time>
      </trkpt>
      <trkpt lat="48.8402" lon="2.35222">
        <ele>67</ele>
        <time>2013-04-03T19:39:19.000Z</time>
      </trkpt>
      <trkpt lat="48.84022" lon="2.35226">
        <ele>66.7</ele>
        <time>2013-04-03T19:39:20.000Z</time>
      </trkpt>
      <trkpt lat="48.84023" lon="2.35231">
        <ele>65.5</ele>
        <time>2013-04-03T19:39:21.000Z</time>
      </trkpt>
      <trkpt lat="48.84024" lon="2.35235">
        <ele>66.5</ele>
        <time>2013-04-03T19:39:22.000Z</time>
      </trkpt>
      <trkpt lat="48.84025" lon="2.3524">
        <ele>66.4</ele>
        <time>2013-04-03T19:39:23.000Z</time>
      </trkpt>
      <trkpt lat="48.84026" lon="2.35244">
        <ele>67.9</ele>
        <time>2013-04-03T19:39:24.000Z</time>
      </trkpt>
      <trkpt lat="48.84028" lon="2.35247">
        <ele>68.1</ele>
        <time>2013-04-03T19:39:25.000Z</time>
      </trkpt>
      <trkpt lat="48.8403" lon="2.3525">
        <ele>69.2</ele>
        <time>2013-04-03T19:39:26.000Z</time>
      </trkpt>
      <trkpt lat="48.84031" lon="2.35253">
        <ele>70</ele>
        <time>2013-04-03T19:39:27.000Z</time>
      </trkpt>
      <trkpt lat="48.84033" lon="2.35256">
        <ele>71.2</ele>
        <time>2013-04-03T19:39:28.000Z</time>
      </trkpt>
      <trkpt lat="48.84035" lon="2.35259">
        <ele>71.8</ele>
        <time>2013-04-03T19:39:29.000Z</time>
      </trkpt>
      <trkpt lat="48.84038" lon="2.35262">
        <ele>72.9</ele>
        <time>2013-04-03T19:39:30.000Z</time>
      </trkpt>
      <trkpt lat="48.8404" lon="2.35265">
        <ele>72.7</ele>
        <time>2013-04-03T19:39:31.000Z</time>
      </trkpt>
      <trkpt lat="48.84042" lon="2.35268">
        <ele>71</ele>
        <time>2013-04-03T19:39:32.000Z</time>
      </trkpt>
      <trkpt lat="48.84044" lon="2.35271">
        <ele>70.6</ele>
        <time>2013-04-03T19:39:33.000Z</time>
      </trkpt>
      <trkpt lat="48.84045" lon="2.35275">
        <ele>71.3</ele>
        <time>2013-04-03T19:39:34.000Z</time>
      </trkpt>
      <trkpt lat="48.84046" lon="2.35278">
        <ele>69.7</ele>
        <time>2013-04-03T19:39:35.000Z</time>
      </trkpt>
      <trkpt lat="48.84047" lon="2.35285">
        <ele>67.4</ele>
        <time>2013-04-03T19:39:37.000Z</time>
      </trkpt>
      <trkpt lat="48.84047" lon="2.35288">
        <ele>68.1</ele>
        <time>2013-04-03T19:39:38.000Z</time>
      </trkpt>
      <trkpt lat="48.84047" lon="2.35291">
        <ele>68.2</ele>
        <time>2013-04-03T19:39:39.000Z</time>
      </trkpt>
      <trkpt lat="48.84046" lon="2.35295">
        <ele>67.4</ele>
        <time>2013-04-03T19:39:40.000Z</time>
      </trkpt>
      <trkpt lat="48.84046" lon="2.35302">
        <ele>68.1</ele>
        <time>2013-04-03T19:39:42.000Z</time>
      </trkpt>
      <trkpt lat="48.84046" lon="2.35305">
        <ele>68.3</ele>
        <time>2013-04-03T19:39:43.000Z</time>
      </trkpt>
      <trkpt lat="48.84044" lon="2.3531">
        <ele>67.9</ele>
        <time>2013-04-03T19:39:45.000Z</time>
      </trkpt>
      <trkpt lat="48.84042" lon="2.35311">
        <ele>67.8</ele>
        <time>2013-04-03T19:39:46.000Z</time>
      </trkpt>
      <trkpt lat="48.84039" lon="2.35311">
        <ele>67.7</ele>
        <time>2013-04-03T19:39:47.000Z</time>
      </trkpt>
      <trkpt lat="48.84037" lon="2.35311">
        <ele>67.9</ele>
        <time>2013-04-03T19:39:48.000Z</time>
      </trkpt>
      <trkpt lat="48.84032" lon="2.35311">
        <ele>62.8</ele>
        <time>2013-04-03T19:39:50.000Z</time>
      </trkpt>
      <trkpt lat="48.8403" lon="2.35312">
        <ele>61.1</ele>
        <time>2013-04-03T19:39:51.000Z</time>
      </trkpt>
      <trkpt lat="48.84028" lon="2.35314">
        <ele>61</ele>
        <time>2013-04-03T19:39:52.000Z</time>
      </trkpt>
      <trkpt lat="48.84026" lon="2.35315">
        <ele>60.8</ele>
        <time>2013-04-03T19:39:53.000Z</time>
      </trkpt>
      <trkpt lat="48.84024" lon="2.35318">
        <ele>57.2</ele>
        <time>2013-04-03T19:39:54.000Z</time>
      </trkpt>
      <trkpt lat="48.84021" lon="2.35321">
        <ele>56</ele>
        <time>2013-04-03T19:39:55.000Z</time>
      </trkpt>
      <trkpt lat="48.84019" lon="2.35324">
        <ele>55.2</ele>
        <time>2013-04-03T19:39:56.000Z</time>
      </trkpt>
      <trkpt lat="48.84016" lon="2.35327">
        <ele>54.5</ele>
        <time>2013-04-03T19:39:57.000Z</time>
      </trkpt>
      <trkpt lat="48.84014" lon="2.35331">
        <ele>54</ele>
        <time>2013-04-03T19:39:58.000Z</time>
      </trkpt>
      <trkpt lat="48.8401" lon="2.35334">
        <ele>54.7</ele>
        <time>2013-04-03T19:39:59.000Z</time>
      </trkpt>
      <trkpt lat="48.84006" lon="2.35337">
        <ele>55</ele>
        <time>2013-04-03T19:40:00.000Z</time>
      </trkpt>
      <trkpt lat="48.83999" lon="2.3534">
        <ele>55.4</ele>
        <time>2013-04-03T19:40:01.000Z</time>
      </trkpt>
      <trkpt lat="48.83993" lon="2.35343">
        <ele>55.7</ele>
        <time>2013-04-03T19:40:02.000Z</time>
      </trkpt>
      <trkpt lat="48.83987" lon="2.35346">
        <ele>56.4</ele>
        <time>2013-04-03T19:40:03.000Z</time>
      </trkpt>
      <trkpt lat="48.83971" lon="2.35358">
        <ele>55.9</ele>
        <time>2013-04-03T19:40:04.000Z</time>
      </trkpt>
      <trkpt lat="48.83965" lon="2.35359">
        <ele>57.1</ele>
        <time>2013-04-03T19:40:05.000Z</time>
      </trkpt>
      <trkpt lat="48.83957" lon="2.35366">
        <ele>54</ele>
        <time>2013-04-03T19:40:06.000Z</time>
      </trkpt>
      <trkpt lat="48.83951" lon="2.35373">
        <ele>53</ele>
        <time>2013-04-03T19:40:07.000Z</time>
      </trkpt>
      <trkpt lat="48.83947" lon="2.35378">
        <ele>52.4</ele>
        <time>2013-04-03T19:40:08.000Z</time>
      </trkpt>
      <trkpt lat="48.83942" lon="2.35383">
        <ele>52.4</ele>
        <time>2013-04-03T19:40:09.000Z</time>
      </trkpt>
      <trkpt lat="48.83936" lon="2.35391">
        <ele>50.6</ele>
        <time>2013-04-03T19:40:10.000Z</time>
      </trkpt>
      <trkpt lat="48.83933" lon="2.35392">
        <ele>51.3</ele>
        <time>2013-04-03T19:40:11.000Z</time>
      </trkpt>
      <trkpt lat="48.8393" lon="2.35394">
        <ele>51</ele>
        <time>2013-04-03T19:40:12.000Z</time>
      </trkpt>
      <trkpt lat="48.83925" lon="2.35395">
        <ele>52.7</ele>
        <time>2013-04-03T19:40:13.000Z</time>
      </trkpt>
      <trkpt lat="48.83922" lon="2.35395">
        <ele>53.9</ele>
        <time>2013-04-03T19:40:14.000Z</time>
      </trkpt>
      <trkpt lat="48.83917" lon="2.35395">
        <ele>55.9</ele>
        <time>2013-04-03T19:40:15.000Z</time>
      </trkpt>
      <trkpt lat="48.83915" lon="2.35401">
        <ele>60.5</ele>
        <time>2013-04-03T19:40:18.000Z</time>
      </trkpt>
      <trkpt lat="48.83915" lon="2.35402">
        <ele>60.8</ele>
        <time>2013-04-03T19:40:19.000Z</time>
      </trkpt>
      <trkpt lat="48.83917" lon="2.35407">
        <ele>71.5</ele>
        <time>2013-04-03T19:41:42.000Z</time>
      </trkpt>
      <trkpt lat="48.83919" lon="2.3541">
        <ele>71.3</ele>
        <time>2013-04-03T19:41:43.000Z</time>
      </trkpt>
      <trkpt lat="48.8392" lon="2.35414">
        <ele>70.7</ele>
        <time>2013-04-03T19:41:44.000Z</time>
      </trkpt>
      <trkpt lat="48.83922" lon="2.35417">
        <ele>69.5</ele>
        <time>2013-04-03T19:41:45.000Z</time>
      </trkpt>
      <trkpt lat="48.83923" lon="2.35421">
        <ele>69.9</ele>
        <time>2013-04-03T19:41:46.000Z</time>
      </trkpt>
      <trkpt lat="48.83925" lon="2.35425">
        <ele>69.1</ele>
        <time>2013-04-03T19:41:47.000Z</time>
      </trkpt>
      <trkpt lat="48.83926" lon="2.35428">
        <ele>64</ele>
        <time>2013-04-03T19:41:48.000Z</time>
      </trkpt>
      <trkpt lat="48.83928" lon="2.35431">
        <ele>63.5</ele>
        <time>2013-04-03T19:41:49.000Z</time>
      </trkpt>
      <trkpt lat="48.8393" lon="2.35433">
        <ele>63.2</ele>
        <time>2013-04-03T19:41:50.000Z</time>
      </trkpt>
      <trkpt lat="48.83932" lon="2.35437">
        <ele>63</ele>
        <time>2013-04-03T19:41:51.000Z</time>
      </trkpt>
      <trkpt lat="48.83934" lon="2.3544">
        <ele>62.8</ele>
        <time>2013-04-03T19:41:52.000Z</time>
      </trkpt>
      <trkpt lat="48.83935" lon="2.35443">
        <ele>62</ele>
        <time>2013-04-03T19:41:53.000Z</time>
      </trkpt>
      <trkpt lat="48.83937" lon="2.35447">
        <ele>61.9</ele>
        <time>2013-04-03T19:41:54.000Z</time>
      </trkpt>
      <trkpt lat="48.83939" lon="2.35451">
        <ele>58.3</ele>
        <time>2013-04-03T19:41:55.000Z</time>
      </trkpt>
      <trkpt lat="48.83941" lon="2.35455">
        <ele>57.5</ele>
        <time>2013-04-03T19:41:56.000Z</time>
      </trkpt>
      <trkpt lat="48.83942" lon="2.35459">
        <ele>57</ele>
        <time>2013-04-03T19:41:57.000Z</time>
      </trkpt>
      <trkpt lat="48.83943" lon="2.35463">
        <ele>55.7</ele>
        <time>2013-04-03T19:41:58.000Z</time>
      </trkpt>
      <trkpt lat="48.83944" lon="2.35467">
        <ele>53.7</ele>
        <time>2013-04-03T19:41:59.000Z</time>
      </trkpt>
      <trkpt lat="48.83944" lon="2.35471">
        <ele>53</ele>
        <time>2013-04-03T19:42:00.000Z</time>
      </trkpt>
      <trkpt lat="48.83944" lon="2.35476">
        <ele>51.6</ele>
        <time>2013-04-03T19:42:01.000Z</time>
      </trkpt>
      <trkpt lat="48.83944" lon="2.35481">
        <ele>50.3</ele>
        <time>2013-04-03T19:42:02.000Z</time>
      </trkpt>
      <trkpt lat="48.83944" lon="2.35486">
        <ele>49.5</ele>
        <time>2013-04-03T19:42:03.000Z</time>
      </trkpt>
      <trkpt lat="48.83943" lon="2.35492">
        <ele>49.4</ele>
        <time>2013-04-03T19:42:04.000Z</time>
      </trkpt>
      <trkpt lat="48.83943" lon="2.35498">
        <ele>50.4</ele>
        <time>2013-04-03T19:42:05.000Z</time>
      </trkpt>
      <trkpt lat="48.83944" lon="2.35503">
        <ele>50.4</ele>
        <time>2013-04-03T19:42:06.000Z</time>
      </trkpt>
      <trkpt lat="48.83945" lon="2.35509">
        <ele>49.8</ele>
        <time>2013-04-03T19:42:07.000Z</time>
      </trkpt>
      <trkpt lat="48.83946" lon="2.35514">
        <ele>46</ele>
        <time>2013-04-03T19:42:08.000Z</time>
      </trkpt>
      <trkpt lat="48.83947" lon="2.3552">
        <ele>45</ele>
        <time>2013-04-03T19:42:09.000Z</time>
      </trkpt>
      <trkpt lat="48.83948" lon="2.35525">
        <ele>44.3</ele>
        <time>2013-04-03T19:42:10.000Z</time>
      </trkpt>
      <trkpt lat="48.83949" lon="2.3553">
        <ele>44.3</ele>
        <time>2013-04-03T19:42:11.000Z</time>
      </trkpt>
      <trkpt lat="48.8395" lon="2.35535">
        <ele>43.2</ele>
        <time>2013-04-03T19:42:12.000Z</time>
      </trkpt>
      <trkpt lat="48.83951" lon="2.3554">
        <ele>43.6</ele>
        <time>2013-04-03T19:42:13.000Z</time>
      </trkpt>
      <trkpt lat="48.83952" lon="2.35545">
        <ele>43.6</ele>
        <time>2013-04-03T19:42:14.000Z</time>
      </trkpt>
      <trkpt lat="48.83953" lon="2.3555">
        <ele>43</ele>
        <time>2013-04-03T19:42:15.000Z</time>
      </trkpt>
      <trkpt lat="48.83954" lon="2.35555">
        <ele>42.6</ele>
        <time>2013-04-03T19:42:16.000Z</time>
      </trkpt>
      <trkpt lat="48.83955" lon="2.3556">
        <ele>42.6</ele>
        <time>2013-04-03T19:42:17.000Z</time>
      </trkpt>
      <trkpt lat="48.83956" lon="2.35564">
        <ele>42.2</ele>
        <time>2013-04-03T19:42:18.000Z</time>
      </trkpt>
      <trkpt lat="48.83956" lon="2.35568">
        <ele>41.8</ele>
        <time>2013-04-03T19:42:19.000Z</time>
      </trkpt>
      <trkpt lat="48.83954" lon="2.35574">
        <ele>41.8</ele>
        <time>2013-04-03T19:42:21.000Z</time>
      </trkpt>
      <trkpt lat="48.83954" lon="2.35578">
        <ele>42.2</ele>
        <time>2013-04-03T19:42:22.000Z</time>
      </trkpt>
      <trkpt lat="48.83954" lon="2.35584">
        <ele>42.2</ele>
        <time>2013-04-03T19:42:24.000Z</time>
      </trkpt>
      <trkpt lat="48.83955" lon="2.35586">
        <ele>43.3</ele>
        <time>2013-04-03T19:42:25.000Z</time>
      </trkpt>
      <trkpt lat="48.83957" lon="2.35591">
        <ele>46.5</ele>
        <time>2013-04-03T19:42:30.000Z</time>
      </trkpt>
      <trkpt lat="48.83959" lon="2.35592">
        <ele>47.1</ele>
        <time>2013-04-03T19:42:31.000Z</time>
      </trkpt>
      <trkpt lat="48.83962" lon="2.35595">
        <ele>50.4</ele>
        <time>2013-04-03T19:42:41.000Z</time>
      </trkpt>
      <trkpt lat="48.83962" lon="2.35596">
        <ele>51.2</ele>
        <time>2013-04-03T19:42:42.000Z</time>
      </trkpt>
      <trkpt lat="48.83962" lon="2.35601">
        <ele>57.9</ele>
        <time>2013-04-03T19:43:11.000Z</time>
      </trkpt>
      <trkpt lat="48.83962" lon="2.35603">
        <ele>59.8</ele>
        <time>2013-04-03T19:43:12.000Z</time>
      </trkpt>
      <trkpt lat="48.83964" lon="2.35609">
        <ele>61.4</ele>
        <time>2013-04-03T19:43:22.000Z</time>
      </trkpt>
      <trkpt lat="48.83964" lon="2.35609">
        <ele>61.8</ele>
        <time>2013-04-03T19:43:23.000Z</time>
      </trkpt>
      <trkpt lat="48.83967" lon="2.35613">
        <ele>57.7</ele>
        <time>2013-04-03T19:43:35.000Z</time>
      </trkpt>
      <trkpt lat="48.83968" lon="2.35617">
        <ele>56.8</ele>
        <time>2013-04-03T19:43:36.000Z</time>
      </trkpt>
      <trkpt lat="48.8397" lon="2.3562">
        <ele>53.9</ele>
        <time>2013-04-03T19:43:37.000Z</time>
      </trkpt>
      <trkpt lat="48.83972" lon="2.35624">
        <ele>53.4</ele>
        <time>2013-04-03T19:43:38.000Z</time>
      </trkpt>
      <trkpt lat="48.83974" lon="2.35627">
        <ele>53.5</ele>
        <time>2013-04-03T19:43:39.000Z</time>
      </trkpt>
      <trkpt lat="48.83975" lon="2.35631">
        <ele>53</ele>
        <time>2013-04-03T19:43:40.000Z</time>
      </trkpt>
      <trkpt lat="48.83976" lon="2.35636">
        <ele>52.1</ele>
        <time>2013-04-03T19:43:41.000Z</time>
      </trkpt>
      <trkpt lat="48.83977" lon="2.3564">
        <ele>52.7</ele>
        <time>2013-04-03T19:43:42.000Z</time>
      </trkpt>
      <trkpt lat="48.83978" lon="2.35644">
        <ele>51.1</ele>
        <time>2013-04-03T19:43:43.000Z</time>
      </trkpt>
      <trkpt lat="48.83978" lon="2.35648">
        <ele>50.4</ele>
        <time>2013-04-03T19:43:44.000Z</time>
      </trkpt>
      <trkpt lat="48.83979" lon="2.35652">
        <ele>50.2</ele>
        <time>2013-04-03T19:43:45.000Z</time>
      </trkpt>
      <trkpt lat="48.83979" lon="2.35657">
        <ele>49.4</ele>
        <time>2013-04-03T19:43:46.000Z</time>
      </trkpt>
      <trkpt lat="48.8398" lon="2.35662">
        <ele>51.2</ele>
        <time>2013-04-03T19:43:47.000Z</time>
      </trkpt>
      <trkpt lat="48.8398" lon="2.35666">
        <ele>50.5</ele>
        <time>2013-04-03T19:43:48.000Z</time>
      </trkpt>
      <trkpt lat="48.83981" lon="2.3567">
        <ele>50.1</ele>
        <time>2013-04-03T19:43:49.000Z</time>
      </trkpt>
      <trkpt lat="48.83982" lon="2.35675">
        <ele>49.7</ele>
        <time>2013-04-03T19:43:50.000Z</time>
      </trkpt>
      <trkpt lat="48.83983" lon="2.35679">
        <ele>49.3</ele>
        <time>2013-04-03T19:43:51.000Z</time>
      </trkpt>
      <trkpt lat="48.83984" lon="2.35684">
        <ele>49</ele>
        <time>2013-04-03T19:43:52.000Z</time>
      </trkpt>
      <trkpt lat="48.83985" lon="2.35688">
        <ele>47.6</ele>
        <time>2013-04-03T19:43:53.000Z</time>
      </trkpt>
      <trkpt lat="48.83986" lon="2.35692">
        <ele>46.9</ele>
        <time>2013-04-03T19:43:54.000Z</time>
      </trkpt>
      <trkpt lat="48.83988" lon="2.35695">
        <ele>46.2</ele>
        <time>2013-04-03T19:43:55.000Z</time>
      </trkpt>
      <trkpt lat="48.83989" lon="2.35699">
        <ele>45</ele>
        <time>2013-04-03T19:43:56.000Z</time>
      </trkpt>
      <trkpt lat="48.83989" lon="2.35703">
        <ele>44.6</ele>
        <time>2013-04-03T19:43:57.000Z</time>
      </trkpt>
      <trkpt lat="48.8399" lon="2.35707">
        <ele>45</ele>
        <time>2013-04-03T19:43:58.000Z</time>
      </trkpt>
      <trkpt lat="48.8399" lon="2.35711">
        <ele>45.1</ele>
        <time>2013-04-03T19:43:59.000Z</time>
      </trkpt>
      <trkpt lat="48.83991" lon="2.35714">
        <ele>44.2</ele>
        <time>2013-04-03T19:44:00.000Z</time>
      </trkpt>
      <trkpt lat="48.83991" lon="2.35718">
        <ele>44</ele>
        <time>2013-04-03T19:44:01.000Z</time>
      </trkpt>
      <trkpt lat="48.83991" lon="2.35722">
        <ele>43.9</ele>
        <time>2013-04-03T19:44:02.000Z</time>
      </trkpt>
      <trkpt lat="48.83991" lon="2.35726">
        <ele>45.2</ele>
        <time>2013-04-03T19:44:03.000Z</time>
      </trkpt>
      <trkpt lat="48.83991" lon="2.3573">
        <ele>45.4</ele>
        <time>2013-04-03T19:44:04.000Z</time>
      </trkpt>
      <trkpt lat="48.83992" lon="2.35736">
        <ele>46.5</ele>
        <time>2013-04-03T19:44:05.000Z</time>
      </trkpt>
      <trkpt lat="48.83993" lon="2.35742">
        <ele>47.8</ele>
        <time>2013-04-03T19:44:06.000Z</time>
      </trkpt>
      <trkpt lat="48.83994" lon="2.35747">
        <ele>48.1</ele>
        <time>2013-04-03T19:44:07.000Z</time>
      </trkpt>
      <trkpt lat="48.83997" lon="2.35753">
        <ele>48.6</ele>
        <time>2013-04-03T19:44:08.000Z</time>
      </trkpt>
      <trkpt lat="48.83999" lon="2.35758">
        <ele>48.6</ele>
        <time>2013-04-03T19:44:09.000Z</time>
      </trkpt>
      <trkpt lat="48.84002" lon="2.35763">
        <ele>48.8</ele>
        <time>2013-04-03T19:44:10.000Z</time>
      </trkpt>
      <trkpt lat="48.84004" lon="2.35768">
        <ele>49.8</ele>
        <time>2013-04-03T19:44:11.000Z</time>
      </trkpt>
      <trkpt lat="48.84006" lon="2.35772">
        <ele>50</ele>
        <time>2013-04-03T19:44:12.000Z</time>
      </trkpt>
      <trkpt lat="48.84008" lon="2.35777">
        <ele>51</ele>
        <time>2013-04-03T19:44:13.000Z</time>
      </trkpt>
      <trkpt lat="48.8401" lon="2.35781">
        <ele>50.3</ele>
        <time>2013-04-03T19:44:14.000Z</time>
      </trkpt>
      <trkpt lat="48.84012" lon="2.35785">
        <ele>49.1</ele>
        <time>2013-04-03T19:44:15.000Z</time>
      </trkpt>
      <trkpt lat="48.84013" lon="2.35789">
        <ele>48</ele>
        <time>2013-04-03T19:44:16.000Z</time>
      </trkpt>
      <trkpt lat="48.84013" lon="2.35794">
        <ele>47.1</ele>
        <time>2013-04-03T19:44:17.000Z</time>
      </trkpt>
      <trkpt lat="48.84013" lon="2.35799">
        <ele>47.7</ele>
        <time>2013-04-03T19:44:18.000Z</time>
      </trkpt>
      <trkpt lat="48.84012" lon="2.35806">
        <ele>47.1</ele>
        <time>2013-04-03T19:44:19.000Z</time>
      </trkpt>
      <trkpt lat="48.84012" lon="2.35813">
        <ele>47.7</ele>
        <time>2013-04-03T19:44:20.000Z</time>
      </trkpt>
      <trkpt lat="48.8401" lon="2.3582">
        <ele>47.5</ele>
        <time>2013-04-03T19:44:21.000Z</time>
      </trkpt>
      <trkpt lat="48.8401" lon="2.35824">
        <ele>46.9</ele>
        <time>2013-04-03T19:44:22.000Z</time>
      </trkpt>
      <trkpt lat="48.84008" lon="2.35834">
        <ele>48.4</ele>
        <time>2013-04-03T19:44:23.000Z</time>
      </trkpt>
      <trkpt lat="48.84008" lon="2.35841">
        <ele>46.3</ele>
        <time>2013-04-03T19:44:24.000Z</time>
      </trkpt>
      <trkpt lat="48.84007" lon="2.35848">
        <ele>46.5</ele>
        <time>2013-04-03T19:44:25.000Z</time>
      </trkpt>
      <trkpt lat="48.84007" lon="2.35855">
        <ele>47.4</ele>
        <time>2013-04-03T19:44:26.000Z</time>
      </trkpt>
      <trkpt lat="48.84006" lon="2.35861">
        <ele>43.8</ele>
        <time>2013-04-03T19:44:27.000Z</time>
      </trkpt>
      <trkpt lat="48.84005" lon="2.35867">
        <ele>42.4</ele>
        <time>2013-04-03T19:44:28.000Z</time>
      </trkpt>
      <trkpt lat="48.84003" lon="2.35872">
        <ele>42.2</ele>
        <time>2013-04-03T19:44:29.000Z</time>
      </trkpt>
      <trkpt lat="48.84002" lon="2.35878">
        <ele>41.3</ele>
        <time>2013-04-03T19:44:30.000Z</time>
      </trkpt>
      <trkpt lat="48.84002" lon="2.35883">
        <ele>40.4</ele>
        <time>2013-04-03T19:44:31.000Z</time>
      </trkpt>
      <trkpt lat="48.84003" lon="2.35889">
        <ele>39.9</ele>
        <time>2013-04-03T19:44:32.000Z</time>
      </trkpt>
      <trkpt lat="48.84004" lon="2.35894">
        <ele>40.7</ele>
        <time>2013-04-03T19:44:33.000Z</time>
      </trkpt>
      <trkpt lat="48.84005" lon="2.35899">
        <ele>38.5</ele>
        <time>2013-04-03T19:44:34.000Z</time>
      </trkpt>
      <trkpt lat="48.84006" lon="2.35905">
        <ele>40.2</ele>
        <time>2013-04-03T19:44:35.000Z</time>
      </trkpt>
      <trkpt lat="48.84006" lon="2.3591">
        <ele>40.7</ele>
        <time>2013-04-03T19:44:36.000Z</time>
      </trkpt>
      <trkpt lat="48.84006" lon="2.35915">
        <ele>40.5</ele>
        <time>2013-04-03T19:44:37.000Z</time>
      </trkpt>
      <trkpt lat="48.84006" lon="2.3592">
        <ele>41.1</ele>
        <time>2013-04-03T19:44:38.000Z</time>
      </trkpt>
      <trkpt lat="48.84007" lon="2.35925">
        <ele>37.5</ele>
        <time>2013-04-03T19:44:39.000Z</time>
      </trkpt>
      <trkpt lat="48.84009" lon="2.35927">
        <ele>35.5</ele>
        <time>2013-04-03T19:44:40.000Z</time>
      </trkpt>
      <trkpt lat="48.84012" lon="2.35928">
        <ele>33.8</ele>
        <time>2013-04-03T19:44:41.000Z</time>
      </trkpt>
      <trkpt lat="48.84014" lon="2.3593">
        <ele>34.6</ele>
        <time>2013-04-03T19:44:42.000Z</time>
      </trkpt>
      <trkpt lat="48.84015" lon="2.35934">
        <ele>34.6</ele>
        <time>2013-04-03T19:44:43.000Z</time>
      </trkpt>
      <trkpt lat="48.84016" lon="2.35938">
        <ele>36.7</ele>
        <time>2013-04-03T19:44:44.000Z</time>
      </trkpt>
      <trkpt lat="48.84015" lon="2.35942">
        <ele>36.5</ele>
        <time>2013-04-03T19:44:45.000Z</time>
      </trkpt>
      <trkpt lat="48.84015" lon="2.35948">
        <ele>37.9</ele>
        <time>2013-04-03T19:44:46.000Z</time>
      </trkpt>
      <trkpt lat="48.84016" lon="2.35955">
        <ele>37</ele>
        <time>2013-04-03T19:44:48.000Z</time>
      </trkpt>
      <trkpt lat="48.84017" lon="2.35957">
        <ele>36.3</ele>
        <time>2013-04-03T19:44:49.000Z</time>
      </trkpt>
      <trkpt lat="48.84019" lon="2.35962">
        <ele>34.8</ele>
        <time>2013-04-03T19:44:51.000Z</time>
      </trkpt>
      <trkpt lat="48.84018" lon="2.35965">
        <ele>34.4</ele>
        <time>2013-04-03T19:44:52.000Z</time>
      </trkpt>
      <trkpt lat="48.84017" lon="2.35968">
        <ele>35.8</ele>
        <time>2013-04-03T19:44:53.000Z</time>
      </trkpt>
      <trkpt lat="48.84016" lon="2.35973">
        <ele>36.4</ele>
        <time>2013-04-03T19:44:54.000Z</time>
      </trkpt>
      <trkpt lat="48.84015" lon="2.35977">
        <ele>36.4</ele>
        <time>2013-04-03T19:44:55.000Z</time>
      </trkpt>
      <trkpt lat="48.84015" lon="2.35982">
        <ele>38</ele>
        <time>2013-04-03T19:44:56.000Z</time>
      </trkpt>
      <trkpt lat="48.84015" lon="2.35987">
        <ele>36.3</ele>
        <time>2013-04-03T19:44:57.000Z</time>
      </trkpt>
      <trkpt lat="48.84015" lon="2.35991">
        <ele>36.7</ele>
        <time>2013-04-03T19:44:58.000Z</time>
      </trkpt>
      <trkpt lat="48.84015" lon="2.35996">
        <ele>36.8</ele>
        <time>2013-04-03T19:44:59.000Z</time>
      </trkpt>
      <trkpt lat="48.84017" lon="2.36">
        <ele>36.6</ele>
        <time>2013-04-03T19:45:00.000Z</time>
      </trkpt>
      <trkpt lat="48.84019" lon="2.36004">
        <ele>36.8</ele>
        <time>2013-04-03T19:45:01.000Z</time>
      </trkpt>
      <trkpt lat="48.8402" lon="2.36007">
        <ele>36.6</ele>
        <time>2013-04-03T19:45:02.000Z</time>
      </trkpt>
      <trkpt lat="48.84021" lon="2.3601">
        <ele>35.8</ele>
        <time>2013-04-03T19:45:03.000Z</time>
      </trkpt>
      <trkpt lat="48.84023" lon="2.36014">
        <ele>36.6</ele>
        <time>2013-04-03T19:45:04.000Z</time>
      </trkpt>
      <trkpt lat="48.84024" lon="2.36018">
        <ele>36.4</ele>
        <time>2013-04-03T19:45:05.000Z</time>
      </trkpt>
      <trkpt lat="48.84025" lon="2.36021">
        <ele>35.9</ele>
        <time>2013-04-03T19:45:06.000Z</time>
      </trkpt>
      <trkpt lat="48.84028" lon="2.36025">
        <ele>35.9</ele>
        <time>2013-04-03T19:45:07.000Z</time>
      </trkpt>
      <trkpt lat="48.8403" lon="2.36028">
        <ele>35.8</ele>
        <time>2013-04-03T19:45:08.000Z</time>
      </trkpt>
      <trkpt lat="48.84032" lon="2.36032">
        <ele>35.6</ele>
        <time>2013-04-03T19:45:09.000Z</time>
      </trkpt>
      <trkpt lat="48.84032" lon="2.36036">
        <ele>36</ele>
        <time>2013-04-03T19:45:10.000Z</time>
      </trkpt>
      <trkpt lat="48.84032" lon="2.3604">
        <ele>35.5</ele>
        <time>2013-04-03T19:45:11.000Z</time>
      </trkpt>
      <trkpt lat="48.84032" lon="2.36045">
        <ele>36.3</ele>
        <time>2013-04-03T19:45:12.000Z</time>
      </trkpt>
      <trkpt lat="48.84033" lon="2.36049">
        <ele>36.4</ele>
        <time>2013-04-03T19:45:13.000Z</time>
      </trkpt>
      <trkpt lat="48.84033" lon="2.36052">
        <ele>36.5</ele>
        <time>2013-04-03T19:45:14.000Z</time>
      </trkpt>
      <trkpt lat="48.84034" lon="2.36056">
        <ele>36.7</ele>
        <time>2013-04-03T19:45:15.000Z</time>
      </trkpt>
      <trkpt lat="48.84035" lon="2.3606">
        <ele>36.8</ele>
        <time>2013-04-03T19:45:16.000Z</time>
      </trkpt>
      <trkpt lat="48.84036" lon="2.36064">
        <ele>36.8</ele>
        <time>2013-04-03T19:45:17.000Z</time>
      </trkpt>
      <trkpt lat="48.84037" lon="2.36069">
        <ele>35.2</ele>
        <time>2013-04-03T19:45:18.000Z</time>
      </trkpt>
      <trkpt lat="48.84037" lon="2.36074">
        <ele>35.1</ele>
        <time>2013-04-03T19:45:19.000Z</time>
      </trkpt>
      <trkpt lat="48.84037" lon="2.3608">
        <ele>34.2</ele>
        <time>2013-04-03T19:45:20.000Z</time>
      </trkpt>
      <trkpt lat="48.84037" lon="2.36085">
        <ele>36.3</ele>
        <time>2013-04-03T19:45:21.000Z</time>
      </trkpt>
      <trkpt lat="48.84036" lon="2.3609">
        <ele>37.8</ele>
        <time>2013-04-03T19:45:22.000Z</time>
      </trkpt>
      <trkpt lat="48.84037" lon="2.36094">
        <ele>36.9</ele>
        <time>2013-04-03T19:45:23.000Z</time>
      </trkpt>
      <trkpt lat="48.84038" lon="2.36097">
        <ele>37.5</ele>
        <time>2013-04-03T19:45:24.000Z</time>
      </trkpt>
      <trkpt lat="48.8404" lon="2.361">
        <ele>38.5</ele>
        <time>2013-04-03T19:45:25.000Z</time>
      </trkpt>
      <trkpt lat="48.84041" lon="2.36104">
        <ele>38.3</ele>
        <time>2013-04-03T19:45:26.000Z</time>
      </trkpt>
      <trkpt lat="48.84043" lon="2.36108">
        <ele>39.6</ele>
        <time>2013-04-03T19:45:27.000Z</time>
      </trkpt>
      <trkpt lat="48.84044" lon="2.36112">
        <ele>41.8</ele>
        <time>2013-04-03T19:45:28.000Z</time>
      </trkpt>
      <trkpt lat="48.84045" lon="2.36116">
        <ele>42.1</ele>
        <time>2013-04-03T19:45:29.000Z</time>
      </trkpt>
      <trkpt lat="48.84046" lon="2.3612">
        <ele>42.7</ele>
        <time>2013-04-03T19:45:30.000Z</time>
      </trkpt>
      <trkpt lat="48.84047" lon="2.36123">
        <ele>42.2</ele>
        <time>2013-04-03T19:45:31.000Z</time>
      </trkpt>
      <trkpt lat="48.84047" lon="2.36127">
        <ele>43.1</ele>
        <time>2013-04-03T19:45:32.000Z</time>
      </trkpt>
      <trkpt lat="48.84049" lon="2.36131">
        <ele>45.3</ele>
        <time>2013-04-03T19:45:33.000Z</time>
      </trkpt>
      <trkpt lat="48.84049" lon="2.36134">
        <ele>46</ele>
        <time>2013-04-03T19:45:34.000Z</time>
      </trkpt>
      <trkpt lat="48.84048" lon="2.36141">
        <ele>47.2</ele>
        <time>2013-04-03T19:45:40.000Z</time>
      </trkpt>
      <trkpt lat="48.84048" lon="2.36141">
        <ele>47</ele>
        <time>2013-04-03T19:45:41.000Z</time>
      </trkpt>
      <trkpt lat="48.84047" lon="2.36147">
        <ele>49.8</ele>
        <time>2013-04-03T19:45:47.000Z</time>
      </trkpt>
      <trkpt lat="48.84046" lon="2.36148">
        <ele>50.5</ele>
        <time>2013-04-03T19:45:48.000Z</time>
      </trkpt>
      <trkpt lat="48.84044" lon="2.36154">
        <ele>54.2</ele>
        <time>2013-04-03T19:45:59.000Z</time>
      </trkpt>
      <trkpt lat="48.84044" lon="2.36154">
        <ele>54.5</ele>
        <time>2013-04-03T19:46:00.000Z</time>
      </trkpt>
      <trkpt lat="48.84043" lon="2.36159">
        <ele>60.7</ele>
        <time>2013-04-03T19:46:40.000Z</time>
      </trkpt>
      <trkpt lat="48.84042" lon="2.36162">
        <ele>62</ele>
        <time>2013-04-03T19:46:41.000Z</time>
      </trkpt>
      <trkpt lat="48.84042" lon="2.36166">
        <ele>63.6</ele>
        <time>2013-04-03T19:46:42.000Z</time>
      </trkpt>
      <trkpt lat="48.84042" lon="2.36169">
        <ele>63.8</ele>
        <time>2013-04-03T19:46:43.000Z</time>
      </trkpt>
      <trkpt lat="48.84043" lon="2.36176">
        <ele>64.5</ele>
        <time>2013-04-03T19:46:45.000Z</time>
      </trkpt>
      <trkpt lat="48.84043" lon="2.36178">
        <ele>65.1</ele>
        <time>2013-04-03T19:46:46.000Z</time>
      </trkpt>
      <trkpt lat="48.84046" lon="2.36183">
        <ele>67.6</ele>
        <time>2013-04-03T19:46:48.000Z</time>
      </trkpt>
      <trkpt lat="48.84047" lon="2.36186">
        <ele>67.9</ele>
        <time>2013-04-03T19:46:49.000Z</time>
      </trkpt>
      <trkpt lat="48.84049" lon="2.36191">
        <ele>69.5</ele>
        <time>2013-04-03T19:46:51.000Z</time>
      </trkpt>
      <trkpt lat="48.8405" lon="2.36193">
        <ele>70.5</ele>
        <time>2013-04-03T19:46:52.000Z</time>
      </trkpt>
      <trkpt lat="48.84053" lon="2.36197">
        <ele>70</ele>
        <time>2013-04-03T19:46:54.000Z</time>
      </trkpt>
      <trkpt lat="48.84054" lon="2.362">
        <ele>72</ele>
        <time>2013-04-03T19:46:55.000Z</time>
      </trkpt>
      <trkpt lat="48.84058" lon="2.36203">
        <ele>72.7</ele>
        <time>2013-04-03T19:46:56.000Z</time>
      </trkpt>
      <trkpt lat="48.8406" lon="2.36206">
        <ele>71.7</ele>
        <time>2013-04-03T19:46:57.000Z</time>
      </trkpt>
      <trkpt lat="48.84063" lon="2.36209">
        <ele>71.7</ele>
        <time>2013-04-03T19:46:58.000Z</time>
      </trkpt>
      <trkpt lat="48.84066" lon="2.36211">
        <ele>73.3</ele>
        <time>2013-04-03T19:46:59.000Z</time>
      </trkpt>
      <trkpt lat="48.84069" lon="2.36212">
        <ele>74</ele>
        <time>2013-04-03T19:47:00.000Z</time>
      </trkpt>
      <trkpt lat="48.84071" lon="2.36213">
        <ele>74.3</ele>
        <time>2013-04-03T19:47:01.000Z</time>
      </trkpt>
      <trkpt lat="48.84074" lon="2.36214">
        <ele>73.7</ele>
        <time>2013-04-03T19:47:03.000Z</time>
      </trkpt>
      <trkpt lat="48.84076" lon="2.36216">
        <ele>73.8</ele>
        <time>2013-04-03T19:47:04.000Z</time>
      </trkpt>
      <trkpt lat="48.84078" lon="2.36218">
        <ele>73.5</ele>
        <time>2013-04-03T19:47:05.000Z</time>
      </trkpt>
      <trkpt lat="48.8408" lon="2.3622">
        <ele>74.1</ele>
        <time>2013-04-03T19:47:06.000Z</time>
      </trkpt>
      <trkpt lat="48.84082" lon="2.36221">
        <ele>74.2</ele>
        <time>2013-04-03T19:47:07.000Z</time>
      </trkpt>
      <trkpt lat="48.84084" lon="2.36223">
        <ele>74.9</ele>
        <time>2013-04-03T19:47:08.000Z</time>
      </trkpt>
      <trkpt lat="48.84087" lon="2.36224">
        <ele>75.1</ele>
        <time>2013-04-03T19:47:09.000Z</time>
      </trkpt>
      <trkpt lat="48.8409" lon="2.36226">
        <ele>74.9</ele>
        <time>2013-04-03T19:47:10.000Z</time>
      </trkpt>
      <trkpt lat="48.84093" lon="2.36228">
        <ele>77.2</ele>
        <time>2013-04-03T19:47:11.000Z</time>
      </trkpt>
      <trkpt lat="48.84095" lon="2.3623">
        <ele>77.8</ele>
        <time>2013-04-03T19:47:12.000Z</time>
      </trkpt>
      <trkpt lat="48.84097" lon="2.36232">
        <ele>77.7</ele>
        <time>2013-04-03T19:47:13.000Z</time>
      </trkpt>
      <trkpt lat="48.84099" lon="2.36233">
        <ele>78.2</ele>
        <time>2013-04-03T19:47:14.000Z</time>
      </trkpt>
      <trkpt lat="48.84103" lon="2.36235">
        <ele>73.9</ele>
        <time>2013-04-03T19:47:16.000Z</time>
      </trkpt>
      <trkpt lat="48.84105" lon="2.36236">
        <ele>70.8</ele>
        <time>2013-04-03T19:47:17.000Z</time>
      </trkpt>
      <trkpt lat="48.84107" lon="2.36237">
        <ele>68.8</ele>
        <time>2013-04-03T19:47:18.000Z</time>
      </trkpt>
      <trkpt lat="48.8411" lon="2.36238">
        <ele>69.4</ele>
        <time>2013-04-03T19:47:19.000Z</time>
      </trkpt>
      <trkpt lat="48.84112" lon="2.3624">
        <ele>68.7</ele>
        <time>2013-04-03T19:47:20.000Z</time>
      </trkpt>
      <trkpt lat="48.84115" lon="2.36241">
        <ele>69.3</ele>
        <time>2013-04-03T19:47:21.000Z</time>
      </trkpt>
      <trkpt lat="48.84119" lon="2.36243">
        <ele>67.5</ele>
        <time>2013-04-03T19:47:22.000Z</time>
      </trkpt>
      <trkpt lat="48.84122" lon="2.36244">
        <ele>66.8</ele>
        <time>2013-04-03T19:47:23.000Z</time>
      </trkpt>
      <trkpt lat="48.84125" lon="2.36245">
        <ele>66.1</ele>
        <time>2013-04-03T19:47:24.000Z</time>
      </trkpt>
      <trkpt lat="48.84128" lon="2.36246">
        <ele>65.7</ele>
        <time>2013-04-03T19:47:25.000Z</time>
      </trkpt>
      <trkpt lat="48.84131" lon="2.36247">
        <ele>65.2</ele>
        <time>2013-04-03T19:47:26.000Z</time>
      </trkpt>
      <trkpt lat="48.84134" lon="2.36249">
        <ele>66.3</ele>
        <time>2013-04-03T19:47:27.000Z</time>
      </trkpt>
      <trkpt lat="48.84137" lon="2.36251">
        <ele>66.4</ele>
        <time>2013-04-03T19:47:28.000Z</time>
      </trkpt>
      <trkpt lat="48.8414" lon="2.36253">
        <ele>66.5</ele>
        <time>2013-04-03T19:47:29.000Z</time>
      </trkpt>
      <trkpt lat="48.84143" lon="2.36255">
        <ele>66.1</ele>
        <time>2013-04-03T19:47:30.000Z</time>
      </trkpt>
      <trkpt lat="48.84146" lon="2.36258">
        <ele>65</ele>
        <time>2013-04-03T19:47:31.000Z</time>
      </trkpt>
      <trkpt lat="48.84149" lon="2.36259">
        <ele>64.5</ele>
        <time>2013-04-03T19:47:32.000Z</time>
      </trkpt>
      <trkpt lat="48.84152" lon="2.36261">
        <ele>64.7</ele>
        <time>2013-04-03T19:47:33.000Z</time>
      </trkpt>
      <trkpt lat="48.84154" lon="2.36262">
        <ele>65.1</ele>
        <time>2013-04-03T19:47:34.000Z</time>
      </trkpt>
      <trkpt lat="48.84156" lon="2.36264">
        <ele>64.6</ele>
        <time>2013-04-03T19:47:35.000Z</time>
      </trkpt>
      <trkpt lat="48.84159" lon="2.36266">
        <ele>63.7</ele>
        <time>2013-04-03T19:47:36.000Z</time>
      </trkpt>
      <trkpt lat="48.84161" lon="2.36269">
        <ele>63.2</ele>
        <time>2013-04-03T19:47:37.000Z</time>
      </trkpt>
      <trkpt lat="48.84163" lon="2.36272">
        <ele>62.7</ele>
        <time>2013-04-03T19:47:38.000Z</time>
      </trkpt>
      <trkpt lat="48.84165" lon="2.36275">
        <ele>62</ele>
        <time>2013-04-03T19:47:39.000Z</time>
      </trkpt>
      <trkpt lat="48.84168" lon="2.36277">
        <ele>61.7</ele>
        <time>2013-04-03T19:47:40.000Z</time>
      </trkpt>
      <trkpt lat="48.8417" lon="2.3628">
        <ele>62.1</ele>
        <time>2013-04-03T19:47:41.000Z</time>
      </trkpt>
      <trkpt lat="48.84172" lon="2.36283">
        <ele>61.8</ele>
        <time>2013-04-03T19:47:42.000Z</time>
      </trkpt>
      <trkpt lat="48.84174" lon="2.36287">
        <ele>62.4</ele>
        <time>2013-04-03T19:47:43.000Z</time>
      </trkpt>
      <trkpt lat="48.84177" lon="2.36292">
        <ele>61.1</ele>
        <time>2013-04-03T19:47:45.000Z</time>
      </trkpt>
      <trkpt lat="48.84178" lon="2.36293">
        <ele>59.1</ele>
        <time>2013-04-03T19:47:46.000Z</time>
      </trkpt>
      <trkpt lat="48.84182" lon="2.36296">
        <ele>55.8</ele>
        <time>2013-04-03T19:47:48.000Z</time>
      </trkpt>
      <trkpt lat="48.84183" lon="2.36297">
        <ele>54.7</ele>
        <time>2013-04-03T19:47:49.000Z</time>
      </trkpt>
      <trkpt lat="48.84187" lon="2.36301">
        <ele>54</ele>
        <time>2013-04-03T19:47:51.000Z</time>
      </trkpt>
      <trkpt lat="48.84189" lon="2.36303">
        <ele>52.8</ele>
        <time>2013-04-03T19:47:52.000Z</time>
      </trkpt>
      <trkpt lat="48.84192" lon="2.36305">
        <ele>52.7</ele>
        <time>2013-04-03T19:47:53.000Z</time>
      </trkpt>
      <trkpt lat="48.84195" lon="2.36307">
        <ele>53.9</ele>
        <time>2013-04-03T19:47:54.000Z</time>
      </trkpt>
      <trkpt lat="48.84197" lon="2.36309">
        <ele>53.6</ele>
        <time>2013-04-03T19:47:55.000Z</time>
      </trkpt>
      <trkpt lat="48.842" lon="2.36311">
        <ele>54.1</ele>
        <time>2013-04-03T19:47:56.000Z</time>
      </trkpt>
      <trkpt lat="48.84203" lon="2.36313">
        <ele>55</ele>
        <time>2013-04-03T19:47:57.000Z</time>
      </trkpt>
      <trkpt lat="48.84205" lon="2.36314">
        <ele>55.9</ele>
        <time>2013-04-03T19:47:58.000Z</time>
      </trkpt>
      <trkpt lat="48.84208" lon="2.36316">
        <ele>56.1</ele>
        <time>2013-04-03T19:47:59.000Z</time>
      </trkpt>
      <trkpt lat="48.84211" lon="2.36317">
        <ele>56.8</ele>
        <time>2013-04-03T19:48:00.000Z</time>
      </trkpt>
      <trkpt lat="48.84214" lon="2.36319">
        <ele>58.1</ele>
        <time>2013-04-03T19:48:01.000Z</time>
      </trkpt>
      <trkpt lat="48.84216" lon="2.3632">
        <ele>58</ele>
        <time>2013-04-03T19:48:02.000Z</time>
      </trkpt>
      <trkpt lat="48.84219" lon="2.36321">
        <ele>63.5</ele>
        <time>2013-04-03T19:48:03.000Z</time>
      </trkpt>
      <trkpt lat="48.84221" lon="2.36322">
        <ele>63</ele>
        <time>2013-04-03T19:48:04.000Z</time>
      </trkpt>
      <trkpt lat="48.84223" lon="2.36323">
        <ele>62.4</ele>
        <time>2013-04-03T19:48:05.000Z</time>
      </trkpt>
      <trkpt lat="48.84226" lon="2.36324">
        <ele>61.9</ele>
        <time>2013-04-03T19:48:06.000Z</time>
      </trkpt>
      <trkpt lat="48.84228" lon="2.36325">
        <ele>61.8</ele>
        <time>2013-04-03T19:48:07.000Z</time>
      </trkpt>
      <trkpt lat="48.84231" lon="2.36326">
        <ele>60.5</ele>
        <time>2013-04-03T19:48:08.000Z</time>
      </trkpt>
      <trkpt lat="48.84234" lon="2.36327">
        <ele>62.1</ele>
        <time>2013-04-03T19:48:09.000Z</time>
      </trkpt>
      <trkpt lat="48.84236" lon="2.36329">
        <ele>61.3</ele>
        <time>2013-04-03T19:48:10.000Z</time>
      </trkpt>
      <trkpt lat="48.84239" lon="2.36331">
        <ele>61.3</ele>
        <time>2013-04-03T19:48:11.000Z</time>
      </trkpt>
      <trkpt lat="48.84241" lon="2.36333">
        <ele>60.7</ele>
        <time>2013-04-03T19:48:12.000Z</time>
      </trkpt>
      <trkpt lat="48.84244" lon="2.36334">
        <ele>59.3</ele>
        <time>2013-04-03T19:48:13.000Z</time>
      </trkpt>
      <trkpt lat="48.84246" lon="2.36336">
        <ele>61</ele>
        <time>2013-04-03T19:48:14.000Z</time>
      </trkpt>
      <trkpt lat="48.84249" lon="2.36338">
        <ele>59.7</ele>
        <time>2013-04-03T19:48:15.000Z</time>
      </trkpt>
      <trkpt lat="48.84251" lon="2.36341">
        <ele>59.2</ele>
        <time>2013-04-03T19:48:16.000Z</time>
      </trkpt>
      <trkpt lat="48.84253" lon="2.36343">
        <ele>57.8</ele>
        <time>2013-04-03T19:48:17.000Z</time>
      </trkpt>
      <trkpt lat="48.84255" lon="2.36345">
        <ele>55.6</ele>
        <time>2013-04-03T19:48:18.000Z</time>
      </trkpt>
      <trkpt lat="48.84258" lon="2.36346">
        <ele>54.1</ele>
        <time>2013-04-03T19:48:19.000Z</time>
      </trkpt>
      <trkpt lat="48.8426" lon="2.36348">
        <ele>53.1</ele>
        <time>2013-04-03T19:48:20.000Z</time>
      </trkpt>
      <trkpt lat="48.84263" lon="2.3635">
        <ele>52.5</ele>
        <time>2013-04-03T19:48:21.000Z</time>
      </trkpt>
      <trkpt lat="48.84265" lon="2.36352">
        <ele>52.4</ele>
        <time>2013-04-03T19:48:22.000Z</time>
      </trkpt>
      <trkpt lat="48.84268" lon="2.36354">
        <ele>52.4</ele>
        <time>2013-04-03T19:48:23.000Z</time>
      </trkpt>
      <trkpt lat="48.8427" lon="2.36356">
        <ele>51.8</ele>
        <time>2013-04-03T19:48:24.000Z</time>
      </trkpt>
      <trkpt lat="48.84273" lon="2.36358">
        <ele>52</ele>
        <time>2013-04-03T19:48:25.000Z</time>
      </trkpt>
      <trkpt lat="48.84275" lon="2.3636">
        <ele>51.1</ele>
        <time>2013-04-03T19:48:26.000Z</time>
      </trkpt>
      <trkpt lat="48.84278" lon="2.36362">
        <ele>51.6</ele>
        <time>2013-04-03T19:48:27.000Z</time>
      </trkpt>
      <trkpt lat="48.8428" lon="2.36364">
        <ele>51</ele>
        <time>2013-04-03T19:48:28.000Z</time>
      </trkpt>
      <trkpt lat="48.84282" lon="2.36366">
        <ele>51.3</ele>
        <time>2013-04-03T19:48:29.000Z</time>
      </trkpt>
      <trkpt lat="48.84284" lon="2.36368">
        <ele>51.2</ele>
        <time>2013-04-03T19:48:30.000Z</time>
      </trkpt>
      <trkpt lat="48.84286" lon="2.3637">
        <ele>51.8</ele>
        <time>2013-04-03T19:48:31.000Z</time>
      </trkpt>
      <trkpt lat="48.84288" lon="2.36372">
        <ele>51.5</ele>
        <time>2013-04-03T19:48:32.000Z</time>
      </trkpt>
      <trkpt lat="48.84291" lon="2.36374">
        <ele>50.9</ele>
        <time>2013-04-03T19:48:34.000Z</time>
      </trkpt>
      <trkpt lat="48.84293" lon="2.36376">
        <ele>52.6</ele>
        <time>2013-04-03T19:48:35.000Z</time>
      </trkpt>
      <trkpt lat="48.84296" lon="2.36378">
        <ele>53.5</ele>
        <time>2013-04-03T19:48:37.000Z</time>
      </trkpt>
      <trkpt lat="48.84297" lon="2.36379">
        <ele>54.6</ele>
        <time>2013-04-03T19:48:38.000Z</time>
      </trkpt>
      <trkpt lat="48.84301" lon="2.36382">
        <ele>58.7</ele>
        <time>2013-04-03T19:48:44.000Z</time>
      </trkpt>
      <trkpt lat="48.84301" lon="2.36382">
        <ele>59.1</ele>
        <time>2013-04-03T19:48:45.000Z</time>
      </trkpt>
      <trkpt lat="48.84305" lon="2.36384">
        <ele>61.1</ele>
        <time>2013-04-03T19:49:16.000Z</time>
      </trkpt>
      <trkpt lat="48.84306" lon="2.36386">
        <ele>61.6</ele>
        <time>2013-04-03T19:49:17.000Z</time>
      </trkpt>
      <trkpt lat="48.84309" lon="2.3639">
        <ele>62.3</ele>
        <time>2013-04-03T19:49:20.000Z</time>
      </trkpt>
      <trkpt lat="48.8431" lon="2.36392">
        <ele>60.9</ele>
        <time>2013-04-03T19:49:21.000Z</time>
      </trkpt>
      <trkpt lat="48.84313" lon="2.36395">
        <ele>60.2</ele>
        <time>2013-04-03T19:49:34.000Z</time>
      </trkpt>
      <trkpt lat="48.84314" lon="2.36396">
        <ele>61.7</ele>
        <time>2013-04-03T19:49:35.000Z</time>
      </trkpt>
      <trkpt lat="48.84317" lon="2.364">
        <ele>62.3</ele>
        <time>2013-04-03T19:49:37.000Z</time>
      </trkpt>
      <trkpt lat="48.84318" lon="2.36401">
        <ele>64.7</ele>
        <time>2013-04-03T19:49:38.000Z</time>
      </trkpt>
      <trkpt lat="48.84322" lon="2.36403">
        <ele>68.4</ele>
        <time>2013-04-03T19:49:41.000Z</time>
      </trkpt>
      <trkpt lat="48.84323" lon="2.36404">
        <ele>69.4</ele>
        <time>2013-04-03T19:49:42.000Z</time>
      </trkpt>
      <trkpt lat="48.84327" lon="2.36406">
        <ele>70.2</ele>
        <time>2013-04-03T19:49:45.000Z</time>
      </trkpt>
      <trkpt lat="48.84329" lon="2.36407">
        <ele>70.5</ele>
        <time>2013-04-03T19:49:46.000Z</time>
      </trkpt>
      <trkpt lat="48.84332" lon="2.36409">
        <ele>69.9</ele>
        <time>2013-04-03T19:49:48.000Z</time>
      </trkpt>
      <trkpt lat="48.84334" lon="2.36412">
        <ele>69.1</ele>
        <time>2013-04-03T19:49:49.000Z</time>
      </trkpt>
      <trkpt lat="48.84337" lon="2.36413">
        <ele>68.9</ele>
        <time>2013-04-03T19:49:50.000Z</time>
      </trkpt>
      <trkpt lat="48.84339" lon="2.36415">
        <ele>68.9</ele>
        <time>2013-04-03T19:49:51.000Z</time>
      </trkpt>
      <trkpt lat="48.84342" lon="2.36417">
        <ele>69.3</ele>
        <time>2013-04-03T19:49:52.000Z</time>
      </trkpt>
      <trkpt lat="48.84344" lon="2.36419">
        <ele>69.8</ele>
        <time>2013-04-03T19:49:53.000Z</time>
      </trkpt>
      <trkpt lat="48.84347" lon="2.36421">
        <ele>70.2</ele>
        <time>2013-04-03T19:49:54.000Z</time>
      </trkpt>
      <trkpt lat="48.84349" lon="2.36422">
        <ele>70.8</ele>
        <time>2013-04-03T19:49:55.000Z</time>
      </trkpt>
      <trkpt lat="48.84352" lon="2.36424">
        <ele>70.9</ele>
        <time>2013-04-03T19:49:56.000Z</time>
      </trkpt>
      <trkpt lat="48.84354" lon="2.36425">
        <ele>70.7</ele>
        <time>2013-04-03T19:49:57.000Z</time>
      </trkpt>
      <trkpt lat="48.84357" lon="2.36426">
        <ele>70.8</ele>
        <time>2013-04-03T19:49:58.000Z</time>
      </trkpt>
      <trkpt lat="48.84359" lon="2.36427">
        <ele>71.3</ele>
        <time>2013-04-03T19:49:59.000Z</time>
      </trkpt>
      <trkpt lat="48.84362" lon="2.36426">
        <ele>73.1</ele>
        <time>2013-04-03T19:50:00.000Z</time>
      </trkpt>
      <trkpt lat="48.84365" lon="2.36426">
        <ele>75.3</ele>
        <time>2013-04-03T19:50:01.000Z</time>
      </trkpt>
      <trkpt lat="48.84369" lon="2.36426">
        <ele>77.8</ele>
        <time>2013-04-03T19:50:08.000Z</time>
      </trkpt>
      <trkpt lat="48.8437" lon="2.36426">
        <ele>77.9</ele>
        <time>2013-04-03T19:50:09.000Z</time>
      </trkpt>
      <trkpt lat="48.84374" lon="2.36427">
        <ele>80.4</ele>
        <time>2013-04-03T19:50:43.000Z</time>
      </trkpt>
      <trkpt lat="48.84375" lon="2.36428">
        <ele>79.9</ele>
        <time>2013-04-03T19:50:44.000Z</time>
      </trkpt>
      <trkpt lat="48.84378" lon="2.36428">
        <ele>80.2</ele>
        <time>2013-04-03T19:50:46.000Z</time>
      </trkpt>
      <trkpt lat="48.8438" lon="2.36429">
        <ele>81.1</ele>
        <time>2013-04-03T19:50:47.000Z</time>
      </trkpt>
      <trkpt lat="48.84383" lon="2.36429">
        <ele>81.3</ele>
        <time>2013-04-03T19:50:49.000Z</time>
      </trkpt>
      <trkpt lat="48.84385" lon="2.36429">
        <ele>81.2</ele>
        <time>2013-04-03T19:50:50.000Z</time>
      </trkpt>
      <trkpt lat="48.84389" lon="2.36431">
        <ele>81.7</ele>
        <time>2013-04-03T19:50:52.000Z</time>
      </trkpt>
      <trkpt lat="48.84391" lon="2.36431">
        <ele>81.7</ele>
        <time>2013-04-03T19:50:53.000Z</time>
      </trkpt>
      <trkpt lat="48.84394" lon="2.36432">
        <ele>81.8</ele>
        <time>2013-04-03T19:50:55.000Z</time>
      </trkpt>
      <trkpt lat="48.84395" lon="2.36432">
        <ele>81.4</ele>
        <time>2013-04-03T19:50:56.000Z</time>
      </trkpt>
      <trkpt lat="48.84399" lon="2.36432">
        <ele>82.9</ele>
        <time>2013-04-03T19:50:58.000Z</time>
      </trkpt>
      <trkpt lat="48.84401" lon="2.36431">
        <ele>84.5</ele>
        <time>2013-04-03T19:50:59.000Z</time>
      </trkpt>
      <trkpt lat="48.84405" lon="2.3643">
        <ele>83.8</ele>
        <time>2013-04-03T19:51:01.000Z</time>
      </trkpt>
      <trkpt lat="48.84407" lon="2.36429">
        <ele>83.6</ele>
        <time>2013-04-03T19:51:02.000Z</time>
      </trkpt>
      <trkpt lat="48.84411" lon="2.36428">
        <ele>81.9</ele>
        <time>2013-04-03T19:51:04.000Z</time>
      </trkpt>
      <trkpt lat="48.84412" lon="2.36427">
        <ele>82.3</ele>
        <time>2013-04-03T19:51:05.000Z</time>
      </trkpt>
      <trkpt lat="48.84415" lon="2.36426">
        <ele>82.3</ele>
        <time>2013-04-03T19:51:07.000Z</time>
      </trkpt>
      <trkpt lat="48.84416" lon="2.36425">
        <ele>82</ele>
        <time>2013-04-03T19:51:08.000Z</time>
      </trkpt>
      <trkpt lat="48.84421" lon="2.36427">
        <ele>81.9</ele>
        <time>2013-04-03T19:51:11.000Z</time>
      </trkpt>
      <trkpt lat="48.84422" lon="2.36428">
        <ele>81.7</ele>
        <time>2013-04-03T19:51:12.000Z</time>
      </trkpt>
      <trkpt lat="48.84422" lon="2.36434">
        <ele>78.1</ele>
        <time>2013-04-03T19:52:01.000Z</time>
      </trkpt>
      <trkpt lat="48.84423" lon="2.36435">
        <ele>78.1</ele>
        <time>2013-04-03T19:52:02.000Z</time>
      </trkpt>
      <trkpt lat="48.84424" lon="2.3644">
        <ele>78.2</ele>
        <time>2013-04-03T19:52:04.000Z</time>
      </trkpt>
      <trkpt lat="48.84425" lon="2.36443">
        <ele>77.8</ele>
        <time>2013-04-03T19:52:05.000Z</time>
      </trkpt>
      <trkpt lat="48.84426" lon="2.36446">
        <ele>78.9</ele>
        <time>2013-04-03T19:52:06.000Z</time>
      </trkpt>
      <trkpt lat="48.84428" lon="2.36448">
        <ele>78</ele>
        <time>2013-04-03T19:52:07.000Z</time>
      </trkpt>
      <trkpt lat="48.84429" lon="2.36453">
        <ele>79.9</ele>
        <time>2013-04-03T19:52:09.000Z</time>
      </trkpt>
      <trkpt lat="48.8443" lon="2.36455">
        <ele>80.3</ele>
        <time>2013-04-03T19:52:10.000Z</time>
      </trkpt>
      <trkpt lat="48.84431" lon="2.36459">
        <ele>80.9</ele>
        <time>2013-04-03T19:52:12.000Z</time>
      </trkpt>
      <trkpt lat="48.84432" lon="2.36462">
        <ele>80.9</ele>
        <time>2013-04-03T19:52:13.000Z</time>
      </trkpt>
      <trkpt lat="48.84432" lon="2.36468">
        <ele>80.9</ele>
        <time>2013-04-03T19:52:15.000Z</time>
      </trkpt>
      <trkpt lat="48.84433" lon="2.3647">
        <ele>80.4</ele>
        <time>2013-04-03T19:52:16.000Z</time>
      </trkpt>
      <trkpt lat="48.84434" lon="2.36474">
        <ele>81</ele>
        <time>2013-04-03T19:52:18.000Z</time>
      </trkpt>
      <trkpt lat="48.84435" lon="2.36476">
        <ele>80.4</ele>
        <time>2013-04-03T19:52:19.000Z</time>
      </trkpt>
      <trkpt lat="48.84439" lon="2.36478">
        <ele>82.7</ele>
        <time>2013-04-03T19:53:13.000Z</time>
      </trkpt>
      <trkpt lat="48.84439" lon="2.3648">
        <ele>81.9</ele>
        <time>2013-04-03T19:53:14.000Z</time>
      </trkpt>
      <trkpt lat="48.8444" lon="2.36485">
        <ele>78.7</ele>
        <time>2013-04-03T19:53:16.000Z</time>
      </trkpt>
      <trkpt lat="48.84441" lon="2.36487">
        <ele>78.6</ele>
        <time>2013-04-03T19:53:17.000Z</time>
      </trkpt>
      <trkpt lat="48.84444" lon="2.36492">
        <ele>79.4</ele>
        <time>2013-04-03T19:53:19.000Z</time>
      </trkpt>
      <trkpt lat="48.84446" lon="2.36493">
        <ele>79.7</ele>
        <time>2013-04-03T19:53:20.000Z</time>
      </trkpt>
      <trkpt lat="48.84448" lon="2.36495">
        <ele>79.4</ele>
        <time>2013-04-03T19:53:21.000Z</time>
      </trkpt>
      <trkpt lat="48.8445" lon="2.36498">
        <ele>79</ele>
        <time>2013-04-03T19:53:22.000Z</time>
      </trkpt>
      <trkpt lat="48.84451" lon="2.36501">
        <ele>79.3</ele>
        <time>2013-04-03T19:53:23.000Z</time>
      </trkpt>
      <trkpt lat="48.84453" lon="2.36505">
        <ele>79.8</ele>
        <time>2013-04-03T19:53:24.000Z</time>
      </trkpt>
      <trkpt lat="48.84455" lon="2.36508">
        <ele>79.8</ele>
        <time>2013-04-03T19:53:25.000Z</time>
      </trkpt>
      <trkpt lat="48.84458" lon="2.36512">
        <ele>79.3</ele>
        <time>2013-04-03T19:53:26.000Z</time>
      </trkpt>
      <trkpt lat="48.8446" lon="2.36515">
        <ele>79.7</ele>
        <time>2013-04-03T19:53:27.000Z</time>
      </trkpt>
      <trkpt lat="48.84462" lon="2.36519">
        <ele>80.3</ele>
        <time>2013-04-03T19:53:28.000Z</time>
      </trkpt>
      <trkpt lat="48.84464" lon="2.36523">
        <ele>80.4</ele>
        <time>2013-04-03T19:53:29.000Z</time>
      </trkpt>
      <trkpt lat="48.84466" lon="2.36527">
        <ele>80.5</ele>
        <time>2013-04-03T19:53:30.000Z</time>
      </trkpt>
      <trkpt lat="48.84468" lon="2.36531">
        <ele>80.5</ele>
        <time>2013-04-03T19:53:31.000Z</time>
      </trkpt>
      <trkpt lat="48.8447" lon="2.36534">
        <ele>80.9</ele>
        <time>2013-04-03T19:53:32.000Z</time>
      </trkpt>
      <trkpt lat="48.84473" lon="2.36538">
        <ele>80</ele>
        <time>2013-04-03T19:53:33.000Z</time>
      </trkpt>
      <trkpt lat="48.84475" lon="2.36542">
        <ele>80.5</ele>
        <time>2013-04-03T19:53:34.000Z</time>
      </trkpt>
      <trkpt lat="48.84477" lon="2.36545">
        <ele>80.2</ele>
        <time>2013-04-03T19:53:35.000Z</time>
      </trkpt>
      <trkpt lat="48.84478" lon="2.36549">
        <ele>80.5</ele>
        <time>2013-04-03T19:53:36.000Z</time>
      </trkpt>
      <trkpt lat="48.8448" lon="2.36553">
        <ele>80.9</ele>
        <time>2013-04-03T19:53:37.000Z</time>
      </trkpt>
      <trkpt lat="48.84482" lon="2.36557">
        <ele>81.5</ele>
        <time>2013-04-03T19:53:38.000Z</time>
      </trkpt>
      <trkpt lat="48.84484" lon="2.3656">
        <ele>81.9</ele>
        <time>2013-04-03T19:53:39.000Z</time>
      </trkpt>
      <trkpt lat="48.84486" lon="2.36564">
        <ele>82.7</ele>
        <time>2013-04-03T19:53:40.000Z</time>
      </trkpt>
      <trkpt lat="48.84488" lon="2.36567">
        <ele>83</ele>
        <time>2013-04-03T19:53:41.000Z</time>
      </trkpt>
      <trkpt lat="48.84491" lon="2.36571">
        <ele>83</ele>
        <time>2013-04-03T19:53:42.000Z</time>
      </trkpt>
      <trkpt lat="48.84493" lon="2.36574">
        <ele>83</ele>
        <time>2013-04-03T19:53:43.000Z</time>
      </trkpt>
      <trkpt lat="48.84495" lon="2.36578">
        <ele>82.9</ele>
        <time>2013-04-03T19:53:44.000Z</time>
      </trkpt>
      <trkpt lat="48.84497" lon="2.36582">
        <ele>82.6</ele>
        <time>2013-04-03T19:53:45.000Z</time>
      </trkpt>
      <trkpt lat="48.84499" lon="2.36585">
        <ele>83.1</ele>
        <time>2013-04-03T19:53:46.000Z</time>
      </trkpt>
      <trkpt lat="48.84501" lon="2.36589">
        <ele>83</ele>
        <time>2013-04-03T19:53:47.000Z</time>
      </trkpt>
      <trkpt lat="48.84503" lon="2.36592">
        <ele>82.8</ele>
        <time>2013-04-03T19:53:48.000Z</time>
      </trkpt>
      <trkpt lat="48.84505" lon="2.36595">
        <ele>82.8</ele>
        <time>2013-04-03T19:53:49.000Z</time>
      </trkpt>
      <trkpt lat="48.84508" lon="2.36599">
        <ele>83.1</ele>
        <time>2013-04-03T19:53:50.000Z</time>
      </trkpt>
      <trkpt lat="48.8451" lon="2.36602">
        <ele>83.2</ele>
        <time>2013-04-03T19:53:51.000Z</time>
      </trkpt>
      <trkpt lat="48.84511" lon="2.36606">
        <ele>83.4</ele>
        <time>2013-04-03T19:53:52.000Z</time>
      </trkpt>
      <trkpt lat="48.84513" lon="2.3661">
        <ele>83.3</ele>
        <time>2013-04-03T19:53:53.000Z</time>
      </trkpt>
      <trkpt lat="48.84517" lon="2.36616">
        <ele>83.4</ele>
        <time>2013-04-03T19:53:55.012Z</time>
      </trkpt>
      <trkpt lat="48.8452" lon="2.3662">
        <ele>83.3</ele>
        <time>2013-04-03T19:53:56.000Z</time>
      </trkpt>
      <trkpt lat="48.84521" lon="2.36623">
        <ele>81.6</ele>
        <time>2013-04-03T19:53:57.000Z</time>
      </trkpt>
      <trkpt lat="48.84523" lon="2.36627">
        <ele>82.4</ele>
        <time>2013-04-03T19:53:58.000Z</time>
      </trkpt>
      <trkpt lat="48.84525" lon="2.36631">
        <ele>82.8</ele>
        <time>2013-04-03T19:53:59.000Z</time>
      </trkpt>
      <trkpt lat="48.84527" lon="2.36634">
        <ele>81.9</ele>
        <time>2013-04-03T19:54:00.000Z</time>
      </trkpt>
      <trkpt lat="48.84529" lon="2.36638">
        <ele>82.1</ele>
        <time>2013-04-03T19:54:01.000Z</time>
      </trkpt>
      <trkpt lat="48.84531" lon="2.36642">
        <ele>81.5</ele>
        <time>2013-04-03T19:54:02.000Z</time>
      </trkpt>
      <trkpt lat="48.84532" lon="2.36645">
        <ele>80.5</ele>
        <time>2013-04-03T19:54:03.000Z</time>
      </trkpt>
      <trkpt lat="48.84534" lon="2.36649">
        <ele>83.4</ele>
        <time>2013-04-03T19:54:04.000Z</time>
      </trkpt>
      <trkpt lat="48.84537" lon="2.36653">
        <ele>85.3</ele>
        <time>2013-04-03T19:54:05.000Z</time>
      </trkpt>
      <trkpt lat="48.84539" lon="2.36656">
        <ele>85.3</ele>
        <time>2013-04-03T19:54:06.000Z</time>
      </trkpt>
      <trkpt lat="48.84542" lon="2.36659">
        <ele>85.2</ele>
        <time>2013-04-03T19:54:07.000Z</time>
      </trkpt>
      <trkpt lat="48.84544" lon="2.36663">
        <ele>84.3</ele>
        <time>2013-04-03T19:54:08.000Z</time>
      </trkpt>
      <trkpt lat="48.84546" lon="2.36666">
        <ele>84.6</ele>
        <time>2013-04-03T19:54:09.000Z</time>
      </trkpt>
      <trkpt lat="48.84548" lon="2.36669">
        <ele>84.6</ele>
        <time>2013-04-03T19:54:10.000Z</time>
      </trkpt>
      <trkpt lat="48.84551" lon="2.36673">
        <ele>85.4</ele>
        <time>2013-04-03T19:54:11.000Z</time>
      </trkpt>
      <trkpt lat="48.84553" lon="2.36676">
        <ele>85.3</ele>
        <time>2013-04-03T19:54:12.000Z</time>
      </trkpt>
      <trkpt lat="48.84554" lon="2.36679">
        <ele>84.9</ele>
        <time>2013-04-03T19:54:13.000Z</time>
      </trkpt>
      <trkpt lat="48.84557" lon="2.36683">
        <ele>84.4</ele>
        <time>2013-04-03T19:54:14.000Z</time>
      </trkpt>
      <trkpt lat="48.84558" lon="2.36686">
        <ele>83.2</ele>
        <time>2013-04-03T19:54:15.000Z</time>
      </trkpt>
      <trkpt lat="48.8456" lon="2.3669">
        <ele>82.9</ele>
        <time>2013-04-03T19:54:16.000Z</time>
      </trkpt>
      <trkpt lat="48.84562" lon="2.36693">
        <ele>83.9</ele>
        <time>2013-04-03T19:54:17.000Z</time>
      </trkpt>
      <trkpt lat="48.84564" lon="2.36696">
        <ele>83.1</ele>
        <time>2013-04-03T19:54:18.000Z</time>
      </trkpt>
      <trkpt lat="48.84567" lon="2.36699">
        <ele>83.2</ele>
        <time>2013-04-03T19:54:19.000Z</time>
      </trkpt>
      <trkpt lat="48.84569" lon="2.36702">
        <ele>83.5</ele>
        <time>2013-04-03T19:54:20.000Z</time>
      </trkpt>
      <trkpt lat="48.84571" lon="2.36705">
        <ele>84.4</ele>
        <time>2013-04-03T19:54:21.000Z</time>
      </trkpt>
      <trkpt lat="48.84572" lon="2.36707">
        <ele>84.2</ele>
        <time>2013-04-03T19:54:22.000Z</time>
      </trkpt>
      <trkpt lat="48.84574" lon="2.3671">
        <ele>84.2</ele>
        <time>2013-04-03T19:54:23.000Z</time>
      </trkpt>
      <trkpt lat="48.84576" lon="2.36712">
        <ele>83.6</ele>
        <time>2013-04-03T19:54:24.000Z</time>
      </trkpt>
      <trkpt lat="48.84578" lon="2.36715">
        <ele>84</ele>
        <time>2013-04-03T19:54:25.000Z</time>
      </trkpt>
      <trkpt lat="48.84582" lon="2.36718">
        <ele>83.6</ele>
        <time>2013-04-03T19:54:27.000Z</time>
      </trkpt>
      <trkpt lat="48.84583" lon="2.36719">
        <ele>83.9</ele>
        <time>2013-04-03T19:54:28.000Z</time>
      </trkpt>
      <trkpt lat="48.84587" lon="2.36719">
        <ele>84.1</ele>
        <time>2013-04-03T19:54:30.000Z</time>
      </trkpt>
      <trkpt lat="48.84588" lon="2.36719">
        <ele>84</ele>
        <time>2013-04-03T19:54:31.000Z</time>
      </trkpt>
      <trkpt lat="48.84592" lon="2.36716">
        <ele>82.6</ele>
        <time>2013-04-03T19:54:51.000Z</time>
      </trkpt>
      <trkpt lat="48.84592" lon="2.36716">
        <ele>82.6</ele>
        <time>2013-04-03T19:54:52.000Z</time>
      </trkpt>
      <trkpt lat="48.84592" lon="2.3672">
        <ele>79.1</ele>
        <time>2013-04-03T19:55:30.000Z</time>
      </trkpt>
      <trkpt lat="48.84592" lon="2.36723">
        <ele>78.5</ele>
        <time>2013-04-03T19:55:31.000Z</time>
      </trkpt>
      <trkpt lat="48.84593" lon="2.36728">
        <ele>77.8</ele>
        <time>2013-04-03T19:55:33.000Z</time>
      </trkpt>
      <trkpt lat="48.84593" lon="2.3673">
        <ele>77</ele>
        <time>2013-04-03T19:55:34.000Z</time>
      </trkpt>
      <trkpt lat="48.84592" lon="2.36735">
        <ele>76.7</ele>
        <time>2013-04-03T19:55:36.000Z</time>
      </trkpt>
      <trkpt lat="48.84592" lon="2.36737">
        <ele>75.2</ele>
        <time>2013-04-03T19:55:37.000Z</time>
      </trkpt>
      <trkpt lat="48.84589" lon="2.36741">
        <ele>73.2</ele>
        <time>2013-04-03T19:55:40.000Z</time>
      </trkpt>
      <trkpt lat="48.84588" lon="2.36743">
        <ele>73.3</ele>
        <time>2013-04-03T19:55:41.000Z</time>
      </trkpt>
      <trkpt lat="48.84586" lon="2.36747">
        <ele>72</ele>
        <time>2013-04-03T19:55:44.000Z</time>
      </trkpt>
      <trkpt lat="48.84585" lon="2.36748">
        <ele>72.8</ele>
        <time>2013-04-03T19:55:45.000Z</time>
      </trkpt>
      <trkpt lat="48.84584" lon="2.36754">
        <ele>74.9</ele>
        <time>2013-04-03T19:56:12.000Z</time>
      </trkpt>
      <trkpt lat="48.84584" lon="2.36757">
        <ele>74.2</ele>
        <time>2013-04-03T19:56:13.000Z</time>
      </trkpt>
      <trkpt lat="48.84584" lon="2.36761">
        <ele>73.9</ele>
        <time>2013-04-03T19:56:15.000Z</time>
      </trkpt>
      <trkpt lat="48.84584" lon="2.36764">
        <ele>73.3</ele>
        <time>2013-04-03T19:56:16.000Z</time>
      </trkpt>
      <trkpt lat="48.84582" lon="2.36768">
        <ele>69.7</ele>
        <time>2013-04-03T19:56:18.000Z</time>
      </trkpt>
      <trkpt lat="48.8458" lon="2.36771">
        <ele>67.8</ele>
        <time>2013-04-03T19:56:19.000Z</time>
      </trkpt>
      <trkpt lat="48.84577" lon="2.36773">
        <ele>66.9</ele>
        <time>2013-04-03T19:56:20.000Z</time>
      </trkpt>
      <trkpt lat="48.84575" lon="2.36776">
        <ele>66.5</ele>
        <time>2013-04-03T19:56:21.000Z</time>
      </trkpt>
      <trkpt lat="48.84572" lon="2.36779">
        <ele>65.6</ele>
        <time>2013-04-03T19:56:22.000Z</time>
      </trkpt>
      <trkpt lat="48.84569" lon="2.36783">
        <ele>66.1</ele>
        <time>2013-04-03T19:56:23.000Z</time>
      </trkpt>
      <trkpt lat="48.84567" lon="2.36787">
        <ele>65.9</ele>
        <time>2013-04-03T19:56:24.000Z</time>
      </trkpt>
      <trkpt lat="48.84564" lon="2.3679">
        <ele>65.3</ele>
        <time>2013-04-03T19:56:25.000Z</time>
      </trkpt>
      <trkpt lat="48.84561" lon="2.36793">
        <ele>64.8</ele>
        <time>2013-04-03T19:56:26.000Z</time>
      </trkpt>
      <trkpt lat="48.84559" lon="2.36797">
        <ele>65.3</ele>
        <time>2013-04-03T19:56:27.000Z</time>
      </trkpt>
      <trkpt lat="48.84556" lon="2.368">
        <ele>65.5</ele>
        <time>2013-04-03T19:56:28.000Z</time>
      </trkpt>
      <trkpt lat="48.84554" lon="2.36804">
        <ele>66.2</ele>
        <time>2013-04-03T19:56:29.000Z</time>
      </trkpt>
      <trkpt lat="48.84552" lon="2.36808">
        <ele>64.9</ele>
        <time>2013-04-03T19:56:30.000Z</time>
      </trkpt>
      <trkpt lat="48.84548" lon="2.36811">
        <ele>65.1</ele>
        <time>2013-04-03T19:56:31.000Z</time>
      </trkpt>
      <trkpt lat="48.84545" lon="2.36814">
        <ele>65.8</ele>
        <time>2013-04-03T19:56:32.000Z</time>
      </trkpt>
      <trkpt lat="48.84541" lon="2.36817">
        <ele>66.5</ele>
        <time>2013-04-03T19:56:33.000Z</time>
      </trkpt>
      <trkpt lat="48.84538" lon="2.3682">
        <ele>66.5</ele>
        <time>2013-04-03T19:56:34.000Z</time>
      </trkpt>
      <trkpt lat="48.84537" lon="2.36824">
        <ele>68.3</ele>
        <time>2013-04-03T19:56:35.000Z</time>
      </trkpt>
      <trkpt lat="48.84537" lon="2.36829">
        <ele>68.4</ele>
        <time>2013-04-03T19:56:36.000Z</time>
      </trkpt>
      <trkpt lat="48.84537" lon="2.36834">
        <ele>68.9</ele>
        <time>2013-04-03T19:56:37.000Z</time>
      </trkpt>
      <trkpt lat="48.84538" lon="2.3684">
        <ele>68.5</ele>
        <time>2013-04-03T19:56:38.000Z</time>
      </trkpt>
      <trkpt lat="48.84538" lon="2.36845">
        <ele>68.6</ele>
        <time>2013-04-03T19:56:39.000Z</time>
      </trkpt>
      <trkpt lat="48.84538" lon="2.3685">
        <ele>68</ele>
        <time>2013-04-03T19:56:40.000Z</time>
      </trkpt>
      <trkpt lat="48.84538" lon="2.36855">
        <ele>68.2</ele>
        <time>2013-04-03T19:56:41.000Z</time>
      </trkpt>
      <trkpt lat="48.84539" lon="2.3686">
        <ele>68.7</ele>
        <time>2013-04-03T19:56:42.000Z</time>
      </trkpt>
      <trkpt lat="48.84539" lon="2.36864">
        <ele>68.6</ele>
        <time>2013-04-03T19:56:43.000Z</time>
      </trkpt>
      <trkpt lat="48.8454" lon="2.36869">
        <ele>68.7</ele>
        <time>2013-04-03T19:56:44.000Z</time>
      </trkpt>
      <trkpt lat="48.8454" lon="2.36874">
        <ele>68.4</ele>
        <time>2013-04-03T19:56:45.000Z</time>
      </trkpt>
      <trkpt lat="48.84541" lon="2.36879">
        <ele>68.9</ele>
        <time>2013-04-03T19:56:46.000Z</time>
      </trkpt>
      <trkpt lat="48.8454" lon="2.36884">
        <ele>69</ele>
        <time>2013-04-03T19:56:47.000Z</time>
      </trkpt>
      <trkpt lat="48.8454" lon="2.36891">
        <ele>69.4</ele>
        <time>2013-04-03T19:56:48.000Z</time>
      </trkpt>
      <trkpt lat="48.8454" lon="2.36896">
        <ele>69.6</ele>
        <time>2013-04-03T19:56:49.000Z</time>
      </trkpt>
      <trkpt lat="48.84539" lon="2.36901">
        <ele>69.6</ele>
        <time>2013-04-03T19:56:50.000Z</time>
      </trkpt>
      <trkpt lat="48.84538" lon="2.36906">
        <ele>72.5</ele>
        <time>2013-04-03T19:56:51.000Z</time>
      </trkpt>
      <trkpt lat="48.84539" lon="2.36912">
        <ele>71.3</ele>
        <time>2013-04-03T19:56:53.000Z</time>
      </trkpt>
      <trkpt lat="48.84539" lon="2.36915">
        <ele>70.6</ele>
        <time>2013-04-03T19:56:54.000Z</time>
      </trkpt>
      <trkpt lat="48.84539" lon="2.36919">
        <ele>70.5</ele>
        <time>2013-04-03T19:56:55.000Z</time>
      </trkpt>
      <trkpt lat="48.84539" lon="2.36923">
        <ele>70.2</ele>
        <time>2013-04-03T19:56:56.000Z</time>
      </trkpt>
      <trkpt lat="48.84539" lon="2.36927">
        <ele>70.3</ele>
        <time>2013-04-03T19:56:57.000Z</time>
      </trkpt>
      <trkpt lat="48.84539" lon="2.36932">
        <ele>71.3</ele>
        <time>2013-04-03T19:56:58.000Z</time>
      </trkpt>
      <trkpt lat="48.84539" lon="2.36937">
        <ele>72.8</ele>
        <time>2013-04-03T19:56:59.000Z</time>
      </trkpt>
      <trkpt lat="48.84539" lon="2.36942">
        <ele>72</ele>
        <time>2013-04-03T19:57:00.000Z</time>
      </trkpt>
      <trkpt lat="48.84539" lon="2.36947">
        <ele>72.3</ele>
        <time>2013-04-03T19:57:01.000Z</time>
      </trkpt>
      <trkpt lat="48.84539" lon="2.36952">
        <ele>72.6</ele>
        <time>2013-04-03T19:57:02.000Z</time>
      </trkpt>
      <trkpt lat="48.84538" lon="2.36957">
        <ele>73</ele>
        <time>2013-04-03T19:57:03.000Z</time>
      </trkpt>
      <trkpt lat="48.84538" lon="2.36961">
        <ele>72.9</ele>
        <time>2013-04-03T19:57:04.000Z</time>
      </trkpt>
      <trkpt lat="48.84538" lon="2.36967">
        <ele>72.1</ele>
        <time>2013-04-03T19:57:06.000Z</time>
      </trkpt>
      <trkpt lat="48.84539" lon="2.36969">
        <ele>72.1</ele>
        <time>2013-04-03T19:57:07.000Z</time>
      </trkpt>
      <trkpt lat="48.84541" lon="2.36974">
        <ele>74</ele>
        <time>2013-04-03T19:57:11.000Z</time>
      </trkpt>
      <trkpt lat="48.84541" lon="2.36976">
        <ele>75</ele>
        <time>2013-04-03T19:57:12.000Z</time>
      </trkpt>
      <trkpt lat="48.84541" lon="2.36981">
        <ele>73.4</ele>
        <time>2013-04-03T19:57:19.000Z</time>
      </trkpt>
      <trkpt lat="48.84542" lon="2.36983">
        <ele>74.4</ele>
        <time>2013-04-03T19:57:20.000Z</time>
      </trkpt>
      <trkpt lat="48.84542" lon="2.36989">
        <ele>80.1</ele>
        <time>2013-04-03T19:57:27.000Z</time>
      </trkpt>
      <trkpt lat="48.84542" lon="2.36991">
        <ele>81.5</ele>
        <time>2013-04-03T19:57:28.000Z</time>
      </trkpt>
      <trkpt lat="48.84543" lon="2.36997">
        <ele>82.4</ele>
        <time>2013-04-03T19:57:30.000Z</time>
      </trkpt>
      <trkpt lat="48.84543" lon="2.37">
        <ele>81.7</ele>
        <time>2013-04-03T19:57:31.000Z</time>
      </trkpt>
      <trkpt lat="48.84543" lon="2.37004">
        <ele>82.5</ele>
        <time>2013-04-03T19:57:32.000Z</time>
      </trkpt>
      <trkpt lat="48.84544" lon="2.37008">
        <ele>81.9</ele>
        <time>2013-04-03T19:57:33.000Z</time>
      </trkpt>
      <trkpt lat="48.84544" lon="2.37013">
        <ele>79.8</ele>
        <time>2013-04-03T19:57:34.000Z</time>
      </trkpt>
      <trkpt lat="48.84544" lon="2.37018">
        <ele>79</ele>
        <time>2013-04-03T19:57:35.000Z</time>
      </trkpt>
      <trkpt lat="48.84545" lon="2.37022">
        <ele>77.6</ele>
        <time>2013-04-03T19:57:36.000Z</time>
      </trkpt>
      <trkpt lat="48.84545" lon="2.37026">
        <ele>77</ele>
        <time>2013-04-03T19:57:37.000Z</time>
      </trkpt>
      <trkpt lat="48.84545" lon="2.37031">
        <ele>77.5</ele>
        <time>2013-04-03T19:57:38.000Z</time>
      </trkpt>
      <trkpt lat="48.84546" lon="2.37035">
        <ele>76.7</ele>
        <time>2013-04-03T19:57:39.000Z</time>
      </trkpt>
      <trkpt lat="48.84547" lon="2.37038">
        <ele>76.7</ele>
        <time>2013-04-03T19:57:40.000Z</time>
      </trkpt>
      <trkpt lat="48.84548" lon="2.37041">
        <ele>75.7</ele>
        <time>2013-04-03T19:57:41.000Z</time>
      </trkpt>
      <trkpt lat="48.8455" lon="2.37046">
        <ele>76.1</ele>
        <time>2013-04-03T19:57:43.000Z</time>
      </trkpt>
      <trkpt lat="48.84551" lon="2.37049">
        <ele>75.1</ele>
        <time>2013-04-03T19:57:44.000Z</time>
      </trkpt>
      <trkpt lat="48.84552" lon="2.37053">
        <ele>74.5</ele>
        <time>2013-04-03T19:57:45.000Z</time>
      </trkpt>
      <trkpt lat="48.84552" lon="2.37056">
        <ele>75.2</ele>
        <time>2013-04-03T19:57:46.000Z</time>
      </trkpt>
      <trkpt lat="48.84554" lon="2.37062">
        <ele>78.9</ele>
        <time>2013-04-03T19:57:48.000Z</time>
      </trkpt>
      <trkpt lat="48.84555" lon="2.37065">
        <ele>80.7</ele>
        <time>2013-04-03T19:57:49.000Z</time>
      </trkpt>
      <trkpt lat="48.84558" lon="2.37069">
        <ele>82</ele>
        <time>2013-04-03T19:57:51.000Z</time>
      </trkpt>
      <trkpt lat="48.84558" lon="2.3707">
        <ele>79.7</ele>
        <time>2013-04-03T19:57:52.000Z</time>
      </trkpt>
      <trkpt lat="48.84559" lon="2.37072">
        <ele>78.9</ele>
        <time>2013-04-03T19:57:53.000Z</time>
      </trkpt>
      <trkpt lat="48.84561" lon="2.37077">
        <ele>74.8</ele>
        <time>2013-04-03T19:57:56.000Z</time>
      </trkpt>
      <trkpt lat="48.84562" lon="2.37082">
        <ele>76.5</ele>
        <time>2013-04-03T19:57:59.000Z</time>
      </trkpt>
      <trkpt lat="48.84562" lon="2.37084">
        <ele>77.4</ele>
        <time>2013-04-03T19:58:00.000Z</time>
      </trkpt>
      <trkpt lat="48.84561" lon="2.3709">
        <ele>78.1</ele>
        <time>2013-04-03T19:58:04.000Z</time>
      </trkpt>
      <trkpt lat="48.84561" lon="2.37092">
        <ele>78.6</ele>
        <time>2013-04-03T19:58:05.000Z</time>
      </trkpt>
      <trkpt lat="48.84559" lon="2.37097">
        <ele>79.5</ele>
        <time>2013-04-03T19:58:12.000Z</time>
      </trkpt>
      <trkpt lat="48.84559" lon="2.37098">
        <ele>81</ele>
        <time>2013-04-03T19:58:13.000Z</time>
      </trkpt>
      <trkpt lat="48.84558" lon="2.37104">
        <ele>85.5</ele>
        <time>2013-04-03T19:58:29.000Z</time>
      </trkpt>
      <trkpt lat="48.84558" lon="2.37105">
        <ele>84.5</ele>
        <time>2013-04-03T19:58:30.000Z</time>
      </trkpt>
      <trkpt lat="48.84559" lon="2.37111">
        <ele>85.4</ele>
        <time>2013-04-03T19:58:33.000Z</time>
      </trkpt>
      <trkpt lat="48.8456" lon="2.37113">
        <ele>83.1</ele>
        <time>2013-04-03T19:58:34.000Z</time>
      </trkpt>
      <trkpt lat="48.84562" lon="2.37119">
        <ele>83.1</ele>
        <time>2013-04-03T19:58:36.000Z</time>
      </trkpt>
      <trkpt lat="48.84562" lon="2.37122">
        <ele>84.3</ele>
        <time>2013-04-03T19:58:37.000Z</time>
      </trkpt>
      <trkpt lat="48.84563" lon="2.37128">
        <ele>85.1</ele>
        <time>2013-04-03T19:58:39.000Z</time>
      </trkpt>
      <trkpt lat="48.84563" lon="2.37131">
        <ele>85.1</ele>
        <time>2013-04-03T19:58:40.000Z</time>
      </trkpt>
      <trkpt lat="48.84563" lon="2.37137">
        <ele>84.3</ele>
        <time>2013-04-03T19:58:42.000Z</time>
      </trkpt>
      <trkpt lat="48.84564" lon="2.3714">
        <ele>83.9</ele>
        <time>2013-04-03T19:58:43.000Z</time>
      </trkpt>
      <trkpt lat="48.84565" lon="2.37145">
        <ele>82</ele>
        <time>2013-04-03T19:58:46.000Z</time>
      </trkpt>
      <trkpt lat="48.84566" lon="2.37146">
        <ele>78.1</ele>
        <time>2013-04-03T19:58:47.000Z</time>
      </trkpt>
      <trkpt lat="48.84566" lon="2.37152">
        <ele>81.1</ele>
        <time>2013-04-03T19:58:50.000Z</time>
      </trkpt>
      <trkpt lat="48.84566" lon="2.37154">
        <ele>79.9</ele>
        <time>2013-04-03T19:58:51.000Z</time>
      </trkpt>
      <trkpt lat="48.84568" lon="2.3716">
        <ele>78</ele>
        <time>2013-04-03T19:58:53.000Z</time>
      </trkpt>
      <trkpt lat="48.84569" lon="2.37163">
        <ele>76.5</ele>
        <time>2013-04-03T19:58:54.000Z</time>
      </trkpt>
      <trkpt lat="48.8457" lon="2.37167">
        <ele>75.4</ele>
        <time>2013-04-03T19:58:55.000Z</time>
      </trkpt>
      <trkpt lat="48.84571" lon="2.3717">
        <ele>74.5</ele>
        <time>2013-04-03T19:58:56.000Z</time>
      </trkpt>
      <trkpt lat="48.84572" lon="2.37176">
        <ele>73.5</ele>
        <time>2013-04-03T19:58:58.000Z</time>
      </trkpt>
      <trkpt lat="48.84573" lon="2.37178">
        <ele>72.7</ele>
        <time>2013-04-03T19:58:59.000Z</time>
      </trkpt>
      <trkpt lat="48.84574" lon="2.37184">
        <ele>73.2</ele>
        <time>2013-04-03T19:59:02.000Z</time>
      </trkpt>
      <trkpt lat="48.84575" lon="2.37187">
        <ele>72.4</ele>
        <time>2013-04-03T19:59:03.000Z</time>
      </trkpt>
      <trkpt lat="48.84575" lon="2.37193">
        <ele>70.2</ele>
        <time>2013-04-03T19:59:05.000Z</time>
      </trkpt>
      <trkpt lat="48.84575" lon="2.37196">
        <ele>70.3</ele>
        <time>2013-04-03T19:59:06.000Z</time>
      </trkpt>
      <trkpt lat="48.84574" lon="2.37202">
        <ele>70</ele>
        <time>2013-04-03T19:59:08.000Z</time>
      </trkpt>
      <trkpt lat="48.84574" lon="2.37206">
        <ele>69.9</ele>
        <time>2013-04-03T19:59:09.000Z</time>
      </trkpt>
      <trkpt lat="48.84573" lon="2.37209">
        <ele>69.9</ele>
        <time>2013-04-03T19:59:10.000Z</time>
      </trkpt>
      <trkpt lat="48.84572" lon="2.37212">
        <ele>71.1</ele>
        <time>2013-04-03T19:59:11.000Z</time>
      </trkpt>
      <trkpt lat="48.84571" lon="2.37218">
        <ele>71.3</ele>
        <time>2013-04-03T19:59:13.000Z</time>
      </trkpt>
      <trkpt lat="48.84571" lon="2.3722">
        <ele>71.9</ele>
        <time>2013-04-03T19:59:14.000Z</time>
      </trkpt>
      <trkpt lat="48.84569" lon="2.37226">
        <ele>75.7</ele>
        <time>2013-04-03T19:59:18.000Z</time>
      </trkpt>
      <trkpt lat="48.84569" lon="2.37228">
        <ele>76.1</ele>
        <time>2013-04-03T19:59:19.000Z</time>
      </trkpt>
      <trkpt lat="48.84569" lon="2.37234">
        <ele>77.6</ele>
        <time>2013-04-03T19:59:27.000Z</time>
      </trkpt>
      <trkpt lat="48.84569" lon="2.37236">
        <ele>77</ele>
        <time>2013-04-03T19:59:28.000Z</time>
      </trkpt>
      <trkpt lat="48.8457" lon="2.37241">
        <ele>76.8</ele>
        <time>2013-04-03T19:59:30.000Z</time>
      </trkpt>
      <trkpt lat="48.84571" lon="2.37243">
        <ele>76.5</ele>
        <time>2013-04-03T19:59:31.000Z</time>
      </trkpt>
      <trkpt lat="48.84572" lon="2.37249">
        <ele>73.7</ele>
        <time>2013-04-03T19:59:33.000Z</time>
      </trkpt>
      <trkpt lat="48.84572" lon="2.37251">
        <ele>72.3</ele>
        <time>2013-04-03T19:59:34.000Z</time>
      </trkpt>
      <trkpt lat="48.84573" lon="2.37257">
        <ele>73.1</ele>
        <time>2013-04-03T19:59:36.000Z</time>
      </trkpt>
      <trkpt lat="48.84573" lon="2.3726">
        <ele>74</ele>
        <time>2013-04-03T19:59:37.000Z</time>
      </trkpt>
      <trkpt lat="48.84573" lon="2.37265">
        <ele>72.7</ele>
        <time>2013-04-03T19:59:38.000Z</time>
      </trkpt>
      <trkpt lat="48.84574" lon="2.37269">
        <ele>72.9</ele>
        <time>2013-04-03T19:59:39.000Z</time>
      </trkpt>
      <trkpt lat="48.84575" lon="2.37272">
        <ele>72.5</ele>
        <time>2013-04-03T19:59:40.000Z</time>
      </trkpt>
      <trkpt lat="48.84576" lon="2.37275">
        <ele>72.5</ele>
        <time>2013-04-03T19:59:41.000Z</time>
      </trkpt>
      <trkpt lat="48.84576" lon="2.37279">
        <ele>70.7</ele>
        <time>2013-04-03T19:59:42.000Z</time>
      </trkpt>
      <trkpt lat="48.84577" lon="2.37282">
        <ele>70.7</ele>
        <time>2013-04-03T19:59:43.000Z</time>
      </trkpt>
      <trkpt lat="48.84578" lon="2.37288">
        <ele>69.7</ele>
        <time>2013-04-03T19:59:45.000Z</time>
      </trkpt>
      <trkpt lat="48.84579" lon="2.37291">
        <ele>69.8</ele>
        <time>2013-04-03T19:59:46.000Z</time>
      </trkpt>
      <trkpt lat="48.8458" lon="2.37297">
        <ele>69</ele>
        <time>2013-04-03T19:59:48.000Z</time>
      </trkpt>
      <trkpt lat="48.84581" lon="2.373">
        <ele>68.6</ele>
        <time>2013-04-03T19:59:49.000Z</time>
      </trkpt>
      <trkpt lat="48.84583" lon="2.37303">
        <ele>67.5</ele>
        <time>2013-04-03T19:59:51.000Z</time>
      </trkpt>
      <trkpt lat="48.84584" lon="2.37305">
        <ele>67.5</ele>
        <time>2013-04-03T19:59:52.000Z</time>
      </trkpt>
      <trkpt lat="48.84586" lon="2.3731">
        <ele>66.1</ele>
        <time>2013-04-03T19:59:54.000Z</time>
      </trkpt>
      <trkpt lat="48.84587" lon="2.37314">
        <ele>66.1</ele>
        <time>2013-04-03T19:59:55.000Z</time>
      </trkpt>
      <trkpt lat="48.84588" lon="2.37319">
        <ele>65.8</ele>
        <time>2013-04-03T19:59:56.000Z</time>
      </trkpt>
      <trkpt lat="48.84588" lon="2.37324">
        <ele>67.2</ele>
        <time>2013-04-03T19:59:57.000Z</time>
      </trkpt>
      <trkpt lat="48.84589" lon="2.37328">
        <ele>67</ele>
        <time>2013-04-03T19:59:58.000Z</time>
      </trkpt>
      <trkpt lat="48.8459" lon="2.37332">
        <ele>66.4</ele>
        <time>2013-04-03T19:59:59.000Z</time>
      </trkpt>
      <trkpt lat="48.84593" lon="2.37337">
        <ele>65.8</ele>
        <time>2013-04-03T20:00:01.000Z</time>
      </trkpt>
      <trkpt lat="48.84594" lon="2.3734">
        <ele>66.8</ele>
        <time>2013-04-03T20:00:02.000Z</time>
      </trkpt>
      <trkpt lat="48.84596" lon="2.37345">
        <ele>67.4</ele>
        <time>2013-04-03T20:00:04.000Z</time>
      </trkpt>
      <trkpt lat="48.84597" lon="2.37346">
        <ele>67.5</ele>
        <time>2013-04-03T20:00:05.000Z</time>
      </trkpt>
      <trkpt lat="48.84598" lon="2.37352">
        <ele>69.3</ele>
        <time>2013-04-03T20:00:09.000Z</time>
      </trkpt>
      <trkpt lat="48.84598" lon="2.37353">
        <ele>69.4</ele>
        <time>2013-04-03T20:00:10.000Z</time>
      </trkpt>
      <trkpt lat="48.84598" lon="2.3736">
        <ele>71</ele>
        <time>2013-04-03T20:00:14.000Z</time>
      </trkpt>
      <trkpt lat="48.84598" lon="2.37361">
        <ele>70.9</ele>
        <time>2013-04-03T20:00:15.000Z</time>
      </trkpt>
      <trkpt lat="48.846" lon="2.37367">
        <ele>71</ele>
        <time>2013-04-03T20:00:17.000Z</time>
      </trkpt>
      <trkpt lat="48.846" lon="2.3737">
        <ele>69.7</ele>
        <time>2013-04-03T20:00:18.000Z</time>
      </trkpt>
      <trkpt lat="48.846" lon="2.37374">
        <ele>68.3</ele>
        <time>2013-04-03T20:00:19.000Z</time>
      </trkpt>
      <trkpt lat="48.846" lon="2.37379">
        <ele>68.1</ele>
        <time>2013-04-03T20:00:20.000Z</time>
      </trkpt>
      <trkpt lat="48.846" lon="2.37384">
        <ele>68.3</ele>
        <time>2013-04-03T20:00:21.000Z</time>
      </trkpt>
      <trkpt lat="48.84601" lon="2.37389">
        <ele>67.8</ele>
        <time>2013-04-03T20:00:22.000Z</time>
      </trkpt>
      <trkpt lat="48.84601" lon="2.37393">
        <ele>65.8</ele>
        <time>2013-04-03T20:00:23.000Z</time>
      </trkpt>
      <trkpt lat="48.84602" lon="2.37397">
        <ele>67.2</ele>
        <time>2013-04-03T20:00:24.000Z</time>
      </trkpt>
      <trkpt lat="48.84603" lon="2.37401">
        <ele>66.1</ele>
        <time>2013-04-03T20:00:25.000Z</time>
      </trkpt>
      <trkpt lat="48.84603" lon="2.37404">
        <ele>65.5</ele>
        <time>2013-04-03T20:00:26.000Z</time>
      </trkpt>
      <trkpt lat="48.84605" lon="2.3741">
        <ele>64.5</ele>
        <time>2013-04-03T20:00:28.000Z</time>
      </trkpt>
      <trkpt lat="48.84605" lon="2.37411">
        <ele>64.4</ele>
        <time>2013-04-03T20:00:29.000Z</time>
      </trkpt>
      <trkpt lat="48.84605" lon="2.37418">
        <ele>67.4</ele>
        <time>2013-04-03T20:00:34.000Z</time>
      </trkpt>
      <trkpt lat="48.84605" lon="2.37419">
        <ele>67.6</ele>
        <time>2013-04-03T20:00:35.000Z</time>
      </trkpt>
      <trkpt lat="48.84603" lon="2.37424">
        <ele>68.1</ele>
        <time>2013-04-03T20:00:40.000Z</time>
      </trkpt>
      <trkpt lat="48.84603" lon="2.37426">
        <ele>68.2</ele>
        <time>2013-04-03T20:00:41.000Z</time>
      </trkpt>
      <trkpt lat="48.84603" lon="2.37432">
        <ele>71.1</ele>
        <time>2013-04-03T20:00:45.000Z</time>
      </trkpt>
      <trkpt lat="48.84602" lon="2.37436">
        <ele>71.6</ele>
        <time>2013-04-03T20:00:46.000Z</time>
      </trkpt>
      <trkpt lat="48.84601" lon="2.37442">
        <ele>72.5</ele>
        <time>2013-04-03T20:00:53.000Z</time>
      </trkpt>
      <trkpt lat="48.846" lon="2.37443">
        <ele>72.6</ele>
        <time>2013-04-03T20:00:55.069Z</time>
      </trkpt>
      <trkpt lat="48.84599" lon="2.37449">
        <ele>72.3</ele>
        <time>2013-04-03T20:00:58.000Z</time>
      </trkpt>
      <trkpt lat="48.84598" lon="2.37454">
        <ele>70.6</ele>
        <time>2013-04-03T20:00:59.000Z</time>
      </trkpt>
      <trkpt lat="48.84597" lon="2.37461">
        <ele>69.2</ele>
        <time>2013-04-03T20:01:00.000Z</time>
      </trkpt>
      <trkpt lat="48.84597" lon="2.37467">
        <ele>67.6</ele>
        <time>2013-04-03T20:01:01.000Z</time>
      </trkpt>
      <trkpt lat="48.84597" lon="2.37472">
        <ele>66</ele>
        <time>2013-04-03T20:01:02.000Z</time>
      </trkpt>
      <trkpt lat="48.84597" lon="2.37478">
        <ele>63.5</ele>
        <time>2013-04-03T20:01:03.000Z</time>
      </trkpt>
      <trkpt lat="48.84597" lon="2.37484">
        <ele>62.3</ele>
        <time>2013-04-03T20:01:04.000Z</time>
      </trkpt>
      <trkpt lat="48.84597" lon="2.37488">
        <ele>60.4</ele>
        <time>2013-04-03T20:01:05.000Z</time>
      </trkpt>
      <trkpt lat="48.84597" lon="2.37493">
        <ele>59.1</ele>
        <time>2013-04-03T20:01:06.000Z</time>
      </trkpt>
      <trkpt lat="48.84597" lon="2.37496">
        <ele>57</ele>
        <time>2013-04-03T20:01:07.000Z</time>
      </trkpt>
      <trkpt lat="48.84596" lon="2.375">
        <ele>55.5</ele>
        <time>2013-04-03T20:01:08.000Z</time>
      </trkpt>
      <trkpt lat="48.84595" lon="2.37504">
        <ele>53.9</ele>
        <time>2013-04-03T20:01:09.000Z</time>
      </trkpt>
      <trkpt lat="48.84595" lon="2.37508">
        <ele>55.1</ele>
        <time>2013-04-03T20:01:10.000Z</time>
      </trkpt>
      <trkpt lat="48.84595" lon="2.37512">
        <ele>54.7</ele>
        <time>2013-04-03T20:01:11.000Z</time>
      </trkpt>
      <trkpt lat="48.84596" lon="2.37518">
        <ele>67.8</ele>
        <time>2013-04-03T20:01:13.000Z</time>
      </trkpt>
      <trkpt lat="48.84596" lon="2.3752">
        <ele>66.3</ele>
        <time>2013-04-03T20:01:14.000Z</time>
      </trkpt>
      <trkpt lat="48.84594" lon="2.37524">
        <ele>62.1</ele>
        <time>2013-04-03T20:01:20.000Z</time>
      </trkpt>
      <trkpt lat="48.84593" lon="2.37527">
        <ele>61.3</ele>
        <time>2013-04-03T20:01:21.000Z</time>
      </trkpt>
      <trkpt lat="48.84593" lon="2.3753">
        <ele>62.2</ele>
        <time>2013-04-03T20:01:22.000Z</time>
      </trkpt>
      <trkpt lat="48.84593" lon="2.37533">
        <ele>62</ele>
        <time>2013-04-03T20:01:23.000Z</time>
      </trkpt>
      <trkpt lat="48.84593" lon="2.37537">
        <ele>62.2</ele>
        <time>2013-04-03T20:01:24.000Z</time>
      </trkpt>
      <trkpt lat="48.84593" lon="2.3754">
        <ele>61.1</ele>
        <time>2013-04-03T20:01:25.000Z</time>
      </trkpt>
      <trkpt lat="48.84592" lon="2.37546">
        <ele>61.9</ele>
        <time>2013-04-03T20:01:27.000Z</time>
      </trkpt>
      <trkpt lat="48.84591" lon="2.37548">
        <ele>63.2</ele>
        <time>2013-04-03T20:01:28.000Z</time>
      </trkpt>
      <trkpt lat="48.84589" lon="2.37551">
        <ele>64.4</ele>
        <time>2013-04-03T20:01:29.000Z</time>
      </trkpt>
      <trkpt lat="48.84587" lon="2.37553">
        <ele>63.7</ele>
        <time>2013-04-03T20:01:30.000Z</time>
      </trkpt>
      <trkpt lat="48.84585" lon="2.37557">
        <ele>65.2</ele>
        <time>2013-04-03T20:01:32.000Z</time>
      </trkpt>
      <trkpt lat="48.84585" lon="2.37559">
        <ele>67.3</ele>
        <time>2013-04-03T20:01:33.000Z</time>
      </trkpt>
      <trkpt lat="48.84583" lon="2.37563">
        <ele>70.4</ele>
        <time>2013-04-03T20:01:35.000Z</time>
      </trkpt>
      <trkpt lat="48.84581" lon="2.37565">
        <ele>71.7</ele>
        <time>2013-04-03T20:01:36.000Z</time>
      </trkpt>
      <trkpt lat="48.84578" lon="2.37569">
        <ele>70</ele>
        <time>2013-04-03T20:01:38.000Z</time>
      </trkpt>
      <trkpt lat="48.84576" lon="2.37571">
        <ele>69</ele>
        <time>2013-04-03T20:01:39.000Z</time>
      </trkpt>
      <trkpt lat="48.84573" lon="2.37573">
        <ele>68.1</ele>
        <time>2013-04-03T20:01:40.000Z</time>
      </trkpt>
      <trkpt lat="48.8457" lon="2.37575">
        <ele>67.3</ele>
        <time>2013-04-03T20:01:41.000Z</time>
      </trkpt>
      <trkpt lat="48.84567" lon="2.37578">
        <ele>67.2</ele>
        <time>2013-04-03T20:01:42.000Z</time>
      </trkpt>
      <trkpt lat="48.84564" lon="2.3758">
        <ele>67.1</ele>
        <time>2013-04-03T20:01:43.000Z</time>
      </trkpt>
      <trkpt lat="48.8456" lon="2.37583">
        <ele>66.8</ele>
        <time>2013-04-03T20:01:44.000Z</time>
      </trkpt>
      <trkpt lat="48.84557" lon="2.37586">
        <ele>66.7</ele>
        <time>2013-04-03T20:01:45.000Z</time>
      </trkpt>
      <trkpt lat="48.84554" lon="2.3759">
        <ele>66.7</ele>
        <time>2013-04-03T20:01:46.000Z</time>
      </trkpt>
      <trkpt lat="48.84551" lon="2.37595">
        <ele>66.8</ele>
        <time>2013-04-03T20:01:47.000Z</time>
      </trkpt>
      <trkpt lat="48.84547" lon="2.376">
        <ele>67.8</ele>
        <time>2013-04-03T20:01:48.000Z</time>
      </trkpt>
      <trkpt lat="48.84545" lon="2.37607">
        <ele>68.8</ele>
        <time>2013-04-03T20:01:49.000Z</time>
      </trkpt>
      <trkpt lat="48.84542" lon="2.37613">
        <ele>69.2</ele>
        <time>2013-04-03T20:01:50.000Z</time>
      </trkpt>
      <trkpt lat="48.8454" lon="2.37618">
        <ele>69.9</ele>
        <time>2013-04-03T20:01:51.000Z</time>
      </trkpt>
      <trkpt lat="48.84537" lon="2.37623">
        <ele>71</ele>
        <time>2013-04-03T20:01:52.000Z</time>
      </trkpt>
      <trkpt lat="48.84535" lon="2.37628">
        <ele>72.1</ele>
        <time>2013-04-03T20:01:53.000Z</time>
      </trkpt>
      <trkpt lat="48.84529" lon="2.37644">
        <ele>73.1</ele>
        <time>2013-04-03T20:01:56.000Z</time>
      </trkpt>
      <trkpt lat="48.84527" lon="2.37649">
        <ele>73.3</ele>
        <time>2013-04-03T20:01:57.000Z</time>
      </trkpt>
      <trkpt lat="48.84525" lon="2.37654">
        <ele>72.9</ele>
        <time>2013-04-03T20:01:58.000Z</time>
      </trkpt>
      <trkpt lat="48.84523" lon="2.37659">
        <ele>72.7</ele>
        <time>2013-04-03T20:01:59.000Z</time>
      </trkpt>
      <trkpt lat="48.84522" lon="2.37664">
        <ele>72.2</ele>
        <time>2013-04-03T20:02:00.000Z</time>
      </trkpt>
      <trkpt lat="48.84519" lon="2.37669">
        <ele>71.7</ele>
        <time>2013-04-03T20:02:02.000Z</time>
      </trkpt>
      <trkpt lat="48.84518" lon="2.3767">
        <ele>71.6</ele>
        <time>2013-04-03T20:02:03.000Z</time>
      </trkpt>
      <trkpt lat="48.84516" lon="2.37672">
        <ele>71.2</ele>
        <time>2013-04-03T20:02:05.000Z</time>
      </trkpt>
      <trkpt lat="48.84515" lon="2.37674">
        <ele>71.8</ele>
        <time>2013-04-03T20:02:06.000Z</time>
      </trkpt>
      <trkpt lat="48.84513" lon="2.37679">
        <ele>71.1</ele>
        <time>2013-04-03T20:02:08.000Z</time>
      </trkpt>
      <trkpt lat="48.84512" lon="2.37681">
        <ele>71.2</ele>
        <time>2013-04-03T20:02:09.000Z</time>
      </trkpt>
      <trkpt lat="48.84511" lon="2.37685">
        <ele>72.8</ele>
        <time>2013-04-03T20:02:35.000Z</time>
      </trkpt>
      <trkpt lat="48.84511" lon="2.37688">
        <ele>71.6</ele>
        <time>2013-04-03T20:02:36.000Z</time>
      </trkpt>
      <trkpt lat="48.84511" lon="2.37694">
        <ele>71.6</ele>
        <time>2013-04-03T20:02:39.000Z</time>
      </trkpt>
      <trkpt lat="48.84511" lon="2.37695">
        <ele>70.7</ele>
        <time>2013-04-03T20:02:40.000Z</time>
      </trkpt>
      <trkpt lat="48.84512" lon="2.37698">
        <ele>71.2</ele>
        <time>2013-04-03T20:02:48.000Z</time>
      </trkpt>
    </trkseg>
  </trk>
</gpx>